<?xml version="1.0" encoding="UTF-8" standalone="no" ?>
<gpx xmlns="http://www.topografix.com/GPX/1/1" xmlns:xsi="http://www.w3.org/2001/XMLSchema-instance" xsi:schemaLocation="http://www.topografix.com/GPX/1/1 http://www.topografix.com/GPX/1/1/gpx.xsd" version="1.1" creator="VisuGPX - https://www.visugpx.com">
  <metadata>
    <name>Boucle à partir de Sembadel par le lac Malaguet (Haut Allier - Haute Loire)</name>
    <desc><![CDATA[Boucle à partir de Sembadel par le lac Malaguet (Haut Allier - Haute Loire) [19 août 2020]]]></desc>
  </metadata>
  <trk>
    <name><![CDATA[Boucle à partir de Sembadel par le lac Malaguet]]></name>
    <trkseg>
      <trkpt lat="45.2772" lon="3.727">
        <ele>1093.723</ele>
        <time>2020-08-19T08:41:47Z</time>
      </trkpt>
      <trkpt lat="45.27726" lon="3.72693">
        <ele>1095.203</ele>
        <time>2020-08-19T08:41:51Z</time>
      </trkpt>
      <trkpt lat="45.27719" lon="3.72699">
        <ele>1094.684</ele>
        <time>2020-08-19T08:41:53Z</time>
      </trkpt>
      <trkpt lat="45.27724" lon="3.72696">
        <ele>1096.13</ele>
        <time>2020-08-19T08:41:56Z</time>
      </trkpt>
      <trkpt lat="45.27728" lon="3.72694">
        <ele>1095.184</ele>
        <time>2020-08-19T08:41:57Z</time>
      </trkpt>
      <trkpt lat="45.27726" lon="3.72702">
        <ele>1094.831</ele>
        <time>2020-08-19T08:41:59Z</time>
      </trkpt>
      <trkpt lat="45.27726" lon="3.72705">
        <ele>1095.306</ele>
        <time>2020-08-19T08:42:01Z</time>
      </trkpt>
      <trkpt lat="45.27727" lon="3.72709">
        <ele>1096.004</ele>
        <time>2020-08-19T08:42:05Z</time>
      </trkpt>
      <trkpt lat="45.2773" lon="3.72714">
        <ele>1093.877</ele>
        <time>2020-08-19T08:42:11Z</time>
      </trkpt>
      <trkpt lat="45.27736" lon="3.72719">
        <ele>1096.023</ele>
        <time>2020-08-19T08:42:19Z</time>
      </trkpt>
      <trkpt lat="45.27739" lon="3.72728">
        <ele>1094.828</ele>
        <time>2020-08-19T08:42:26Z</time>
      </trkpt>
      <trkpt lat="45.2774" lon="3.72729">
        <ele>1095.403</ele>
        <time>2020-08-19T08:42:27Z</time>
      </trkpt>
      <trkpt lat="45.27739" lon="3.72734">
        <ele>1093.73</ele>
        <time>2020-08-19T08:42:31Z</time>
      </trkpt>
      <trkpt lat="45.27744" lon="3.72739">
        <ele>1094.395</ele>
        <time>2020-08-19T08:42:36Z</time>
      </trkpt>
      <trkpt lat="45.27746" lon="3.72742">
        <ele>1094.324</ele>
        <time>2020-08-19T08:42:38Z</time>
      </trkpt>
      <trkpt lat="45.27751" lon="3.72751">
        <ele>1096.39</ele>
        <time>2020-08-19T08:42:45Z</time>
      </trkpt>
      <trkpt lat="45.27755" lon="3.72763">
        <ele>1098.567</ele>
        <time>2020-08-19T08:42:53Z</time>
      </trkpt>
      <trkpt lat="45.27758" lon="3.72776">
        <ele>1099.893</ele>
        <time>2020-08-19T08:43:03Z</time>
      </trkpt>
      <trkpt lat="45.27761" lon="3.72784">
        <ele>1101.995</ele>
        <time>2020-08-19T08:43:11Z</time>
      </trkpt>
      <trkpt lat="45.27779" lon="3.72823">
        <ele>1103.066</ele>
        <time>2020-08-19T08:43:43Z</time>
      </trkpt>
      <trkpt lat="45.27781" lon="3.72828">
        <ele>1102.729</ele>
        <time>2020-08-19T08:43:47Z</time>
      </trkpt>
      <trkpt lat="45.27805" lon="3.72868">
        <ele>1103.398</ele>
        <time>2020-08-19T08:44:19Z</time>
      </trkpt>
      <trkpt lat="45.27807" lon="3.72871">
        <ele>1103.66</ele>
        <time>2020-08-19T08:44:21Z</time>
      </trkpt>
      <trkpt lat="45.2781" lon="3.72877">
        <ele>1103.891</ele>
        <time>2020-08-19T08:44:26Z</time>
      </trkpt>
      <trkpt lat="45.27811" lon="3.72879">
        <ele>1103.972</ele>
        <time>2020-08-19T08:44:28Z</time>
      </trkpt>
      <trkpt lat="45.27812" lon="3.7288">
        <ele>1103.705</ele>
        <time>2020-08-19T08:44:29Z</time>
      </trkpt>
      <trkpt lat="45.27814" lon="3.72886">
        <ele>1103.422</ele>
        <time>2020-08-19T08:44:35Z</time>
      </trkpt>
      <trkpt lat="45.27819" lon="3.72895">
        <ele>1103.326</ele>
        <time>2020-08-19T08:44:42Z</time>
      </trkpt>
      <trkpt lat="45.27822" lon="3.729">
        <ele>1104.779</ele>
        <time>2020-08-19T08:44:46Z</time>
      </trkpt>
      <trkpt lat="45.27824" lon="3.72908">
        <ele>1105.353</ele>
        <time>2020-08-19T08:44:51Z</time>
      </trkpt>
      <trkpt lat="45.27825" lon="3.72909">
        <ele>1105.277</ele>
        <time>2020-08-19T08:44:52Z</time>
      </trkpt>
      <trkpt lat="45.27825" lon="3.72909">
        <ele>1105.277</ele>
        <time>2020-08-19T08:44:52Z</time>
      </trkpt>
      <trkpt lat="45.27825" lon="3.72911">
        <ele>1105.538</ele>
        <time>2020-08-19T08:44:53Z</time>
      </trkpt>
      <trkpt lat="45.27829" lon="3.72919">
        <ele>1105.225</ele>
        <time>2020-08-19T08:45:00Z</time>
      </trkpt>
      <trkpt lat="45.27829" lon="3.72919">
        <ele>1105.225</ele>
        <time>2020-08-19T08:45:00Z</time>
      </trkpt>
      <trkpt lat="45.2783" lon="3.72921">
        <ele>1105.133</ele>
        <time>2020-08-19T08:45:01Z</time>
      </trkpt>
      <trkpt lat="45.27839" lon="3.72933">
        <ele>1105.163</ele>
        <time>2020-08-19T08:45:12Z</time>
      </trkpt>
      <trkpt lat="45.27839" lon="3.72934">
        <ele>1104.9</ele>
        <time>2020-08-19T08:45:13Z</time>
      </trkpt>
      <trkpt lat="45.27839" lon="3.72934">
        <ele>1104.79</ele>
        <time>2020-08-19T08:45:14Z</time>
      </trkpt>
      <trkpt lat="45.27839" lon="3.72935">
        <ele>1104.758</ele>
        <time>2020-08-19T08:45:15Z</time>
      </trkpt>
      <trkpt lat="45.27841" lon="3.7294">
        <ele>1104.967</ele>
        <time>2020-08-19T08:45:19Z</time>
      </trkpt>
      <trkpt lat="45.27858" lon="3.72973">
        <ele>1103.93</ele>
        <time>2020-08-19T08:45:42Z</time>
      </trkpt>
      <trkpt lat="45.27861" lon="3.72977">
        <ele>1104.882</ele>
        <time>2020-08-19T08:45:46Z</time>
      </trkpt>
      <trkpt lat="45.27861" lon="3.72982">
        <ele>1105</ele>
        <time>2020-08-19T08:45:48Z</time>
      </trkpt>
      <trkpt lat="45.27866" lon="3.73001">
        <ele>1106.459</ele>
        <time>2020-08-19T08:46:02Z</time>
      </trkpt>
      <trkpt lat="45.27873" lon="3.73015">
        <ele>1104.248</ele>
        <time>2020-08-19T08:46:12Z</time>
      </trkpt>
      <trkpt lat="45.27876" lon="3.73023">
        <ele>1104.915</ele>
        <time>2020-08-19T08:46:18Z</time>
      </trkpt>
      <trkpt lat="45.27877" lon="3.73026">
        <ele>1104.863</ele>
        <time>2020-08-19T08:46:20Z</time>
      </trkpt>
      <trkpt lat="45.27877" lon="3.73027">
        <ele>1104.696</ele>
        <time>2020-08-19T08:46:21Z</time>
      </trkpt>
      <trkpt lat="45.27883" lon="3.73041">
        <ele>1104.258</ele>
        <time>2020-08-19T08:46:31Z</time>
      </trkpt>
      <trkpt lat="45.27889" lon="3.73059">
        <ele>1105.852</ele>
        <time>2020-08-19T08:46:42Z</time>
      </trkpt>
      <trkpt lat="45.2789" lon="3.73063">
        <ele>1106.201</ele>
        <time>2020-08-19T08:46:45Z</time>
      </trkpt>
      <trkpt lat="45.27891" lon="3.73067">
        <ele>1107.124</ele>
        <time>2020-08-19T08:46:48Z</time>
      </trkpt>
      <trkpt lat="45.27892" lon="3.73071">
        <ele>1107.338</ele>
        <time>2020-08-19T08:46:51Z</time>
      </trkpt>
      <trkpt lat="45.27893" lon="3.73075">
        <ele>1107.368</ele>
        <time>2020-08-19T08:46:53Z</time>
      </trkpt>
      <trkpt lat="45.27895" lon="3.73077">
        <ele>1106.945</ele>
        <time>2020-08-19T08:46:55Z</time>
      </trkpt>
      <trkpt lat="45.279" lon="3.731">
        <ele>1105.67</ele>
        <time>2020-08-19T08:47:10Z</time>
      </trkpt>
      <trkpt lat="45.279" lon="3.73101">
        <ele>1106.096</ele>
        <time>2020-08-19T08:47:11Z</time>
      </trkpt>
      <trkpt lat="45.27902" lon="3.73105">
        <ele>1106.093</ele>
        <time>2020-08-19T08:47:14Z</time>
      </trkpt>
      <trkpt lat="45.27903" lon="3.73109">
        <ele>1107.239</ele>
        <time>2020-08-19T08:47:17Z</time>
      </trkpt>
      <trkpt lat="45.27906" lon="3.7312">
        <ele>1106.963</ele>
        <time>2020-08-19T08:47:24Z</time>
      </trkpt>
      <trkpt lat="45.27915" lon="3.73147">
        <ele>1107.333</ele>
        <time>2020-08-19T08:47:41Z</time>
      </trkpt>
      <trkpt lat="45.27916" lon="3.73148">
        <ele>1107.671</ele>
        <time>2020-08-19T08:47:42Z</time>
      </trkpt>
      <trkpt lat="45.27916" lon="3.73151">
        <ele>1108.305</ele>
        <time>2020-08-19T08:47:45Z</time>
      </trkpt>
      <trkpt lat="45.27916" lon="3.73152">
        <ele>1108.708</ele>
        <time>2020-08-19T08:47:46Z</time>
      </trkpt>
      <trkpt lat="45.27915" lon="3.73152">
        <ele>1109.002</ele>
        <time>2020-08-19T08:47:47Z</time>
      </trkpt>
      <trkpt lat="45.27916" lon="3.73153">
        <ele>1108.748</ele>
        <time>2020-08-19T08:47:48Z</time>
      </trkpt>
      <trkpt lat="45.27916" lon="3.73154">
        <ele>1108.725</ele>
        <time>2020-08-19T08:47:49Z</time>
      </trkpt>
      <trkpt lat="45.27916" lon="3.73155">
        <ele>1108.657</ele>
        <time>2020-08-19T08:47:50Z</time>
      </trkpt>
      <trkpt lat="45.2792" lon="3.73164">
        <ele>1108.531</ele>
        <time>2020-08-19T08:47:55Z</time>
      </trkpt>
      <trkpt lat="45.27921" lon="3.73169">
        <ele>1108.331</ele>
        <time>2020-08-19T08:47:58Z</time>
      </trkpt>
      <trkpt lat="45.27922" lon="3.73172">
        <ele>1107.845</ele>
        <time>2020-08-19T08:48:01Z</time>
      </trkpt>
      <trkpt lat="45.27924" lon="3.73179">
        <ele>1108.368</ele>
        <time>2020-08-19T08:48:05Z</time>
      </trkpt>
      <trkpt lat="45.27926" lon="3.73185">
        <ele>1108.706</ele>
        <time>2020-08-19T08:48:09Z</time>
      </trkpt>
      <trkpt lat="45.27927" lon="3.73191">
        <ele>1109.02</ele>
        <time>2020-08-19T08:48:13Z</time>
      </trkpt>
      <trkpt lat="45.27927" lon="3.73192">
        <ele>1108.986</ele>
        <time>2020-08-19T08:48:14Z</time>
      </trkpt>
      <trkpt lat="45.27927" lon="3.73199">
        <ele>1109.139</ele>
        <time>2020-08-19T08:48:18Z</time>
      </trkpt>
      <trkpt lat="45.27929" lon="3.73204">
        <ele>1109.995</ele>
        <time>2020-08-19T08:48:22Z</time>
      </trkpt>
      <trkpt lat="45.27929" lon="3.73205">
        <ele>1110.027</ele>
        <time>2020-08-19T08:48:23Z</time>
      </trkpt>
      <trkpt lat="45.27929" lon="3.73206">
        <ele>1109.932</ele>
        <time>2020-08-19T08:48:24Z</time>
      </trkpt>
      <trkpt lat="45.27929" lon="3.73208">
        <ele>1109.837</ele>
        <time>2020-08-19T08:48:25Z</time>
      </trkpt>
      <trkpt lat="45.2793" lon="3.73209">
        <ele>1109.641</ele>
        <time>2020-08-19T08:48:26Z</time>
      </trkpt>
      <trkpt lat="45.27935" lon="3.73229">
        <ele>1110.937</ele>
        <time>2020-08-19T08:48:38Z</time>
      </trkpt>
      <trkpt lat="45.27935" lon="3.7324">
        <ele>1111.788</ele>
        <time>2020-08-19T08:48:44Z</time>
      </trkpt>
      <trkpt lat="45.27935" lon="3.73248">
        <ele>1111.431</ele>
        <time>2020-08-19T08:48:49Z</time>
      </trkpt>
      <trkpt lat="45.27935" lon="3.73251">
        <ele>1111.158</ele>
        <time>2020-08-19T08:48:52Z</time>
      </trkpt>
      <trkpt lat="45.27935" lon="3.73252">
        <ele>1111.606</ele>
        <time>2020-08-19T08:48:53Z</time>
      </trkpt>
      <trkpt lat="45.27935" lon="3.73252">
        <ele>1111.606</ele>
        <time>2020-08-19T08:48:53Z</time>
      </trkpt>
      <trkpt lat="45.27935" lon="3.73253">
        <ele>1111.25</ele>
        <time>2020-08-19T08:48:54Z</time>
      </trkpt>
      <trkpt lat="45.27937" lon="3.73257">
        <ele>1111.5</ele>
        <time>2020-08-19T08:48:56Z</time>
      </trkpt>
      <trkpt lat="45.27938" lon="3.7326">
        <ele>1111.233</ele>
        <time>2020-08-19T08:48:58Z</time>
      </trkpt>
      <trkpt lat="45.27938" lon="3.73277">
        <ele>1111.766</ele>
        <time>2020-08-19T08:49:07Z</time>
      </trkpt>
      <trkpt lat="45.27941" lon="3.73294">
        <ele>1110.152</ele>
        <time>2020-08-19T08:49:15Z</time>
      </trkpt>
      <trkpt lat="45.27943" lon="3.73303">
        <ele>1108.762</ele>
        <time>2020-08-19T08:49:19Z</time>
      </trkpt>
      <trkpt lat="45.27944" lon="3.73308">
        <ele>1108.292</ele>
        <time>2020-08-19T08:49:21Z</time>
      </trkpt>
      <trkpt lat="45.27948" lon="3.7333">
        <ele>1106.53</ele>
        <time>2020-08-19T08:49:31Z</time>
      </trkpt>
      <trkpt lat="45.27948" lon="3.73331">
        <ele>1106.523</ele>
        <time>2020-08-19T08:49:32Z</time>
      </trkpt>
      <trkpt lat="45.27955" lon="3.73348">
        <ele>1104.979</ele>
        <time>2020-08-19T08:49:40Z</time>
      </trkpt>
      <trkpt lat="45.27958" lon="3.73368">
        <ele>1105.219</ele>
        <time>2020-08-19T08:49:50Z</time>
      </trkpt>
      <trkpt lat="45.27962" lon="3.73384">
        <ele>1104.598</ele>
        <time>2020-08-19T08:49:57Z</time>
      </trkpt>
      <trkpt lat="45.27977" lon="3.73415">
        <ele>1104.063</ele>
        <time>2020-08-19T08:50:14Z</time>
      </trkpt>
      <trkpt lat="45.27981" lon="3.73421">
        <ele>1103.642</ele>
        <time>2020-08-19T08:50:20Z</time>
      </trkpt>
      <trkpt lat="45.27981" lon="3.73422">
        <ele>1103.588</ele>
        <time>2020-08-19T08:50:21Z</time>
      </trkpt>
      <trkpt lat="45.27981" lon="3.73423">
        <ele>1103.79</ele>
        <time>2020-08-19T08:50:22Z</time>
      </trkpt>
      <trkpt lat="45.27981" lon="3.73425">
        <ele>1103.613</ele>
        <time>2020-08-19T08:50:23Z</time>
      </trkpt>
      <trkpt lat="45.27982" lon="3.7343">
        <ele>1103.012</ele>
        <time>2020-08-19T08:50:26Z</time>
      </trkpt>
      <trkpt lat="45.27986" lon="3.7344">
        <ele>1102.354</ele>
        <time>2020-08-19T08:50:32Z</time>
      </trkpt>
      <trkpt lat="45.27995" lon="3.73452">
        <ele>1100.08</ele>
        <time>2020-08-19T08:50:42Z</time>
      </trkpt>
      <trkpt lat="45.28002" lon="3.73461">
        <ele>1098.061</ele>
        <time>2020-08-19T08:50:49Z</time>
      </trkpt>
      <trkpt lat="45.28018" lon="3.73475">
        <ele>1096.054</ele>
        <time>2020-08-19T08:51:03Z</time>
      </trkpt>
      <trkpt lat="45.28027" lon="3.73482">
        <ele>1095.448</ele>
        <time>2020-08-19T08:51:10Z</time>
      </trkpt>
      <trkpt lat="45.28038" lon="3.73496">
        <ele>1093.873</ele>
        <time>2020-08-19T08:51:20Z</time>
      </trkpt>
      <trkpt lat="45.28043" lon="3.73506">
        <ele>1094.356</ele>
        <time>2020-08-19T08:51:28Z</time>
      </trkpt>
      <trkpt lat="45.28046" lon="3.73506">
        <ele>1094.743</ele>
        <time>2020-08-19T08:51:31Z</time>
      </trkpt>
      <trkpt lat="45.28049" lon="3.73508">
        <ele>1094.092</ele>
        <time>2020-08-19T08:51:35Z</time>
      </trkpt>
      <trkpt lat="45.28054" lon="3.73513">
        <ele>1093.884</ele>
        <time>2020-08-19T08:51:40Z</time>
      </trkpt>
      <trkpt lat="45.2807" lon="3.73542">
        <ele>1094.092</ele>
        <time>2020-08-19T08:52:07Z</time>
      </trkpt>
      <trkpt lat="45.2807" lon="3.73542">
        <ele>1094.544</ele>
        <time>2020-08-19T08:52:08Z</time>
      </trkpt>
      <trkpt lat="45.28074" lon="3.73553">
        <ele>1093.79</ele>
        <time>2020-08-19T08:52:15Z</time>
      </trkpt>
      <trkpt lat="45.28076" lon="3.73558">
        <ele>1094.014</ele>
        <time>2020-08-19T08:52:18Z</time>
      </trkpt>
      <trkpt lat="45.28077" lon="3.7356">
        <ele>1094.367</ele>
        <time>2020-08-19T08:52:20Z</time>
      </trkpt>
      <trkpt lat="45.28077" lon="3.73562">
        <ele>1094.522</ele>
        <time>2020-08-19T08:52:21Z</time>
      </trkpt>
      <trkpt lat="45.28083" lon="3.73574">
        <ele>1095.842</ele>
        <time>2020-08-19T08:52:30Z</time>
      </trkpt>
      <trkpt lat="45.28083" lon="3.73575">
        <ele>1095.959</ele>
        <time>2020-08-19T08:52:31Z</time>
      </trkpt>
      <trkpt lat="45.28087" lon="3.73585">
        <ele>1097.199</ele>
        <time>2020-08-19T08:52:38Z</time>
      </trkpt>
      <trkpt lat="45.28088" lon="3.73587">
        <ele>1097.949</ele>
        <time>2020-08-19T08:52:40Z</time>
      </trkpt>
      <trkpt lat="45.28092" lon="3.73596">
        <ele>1098.43</ele>
        <time>2020-08-19T08:52:45Z</time>
      </trkpt>
      <trkpt lat="45.28093" lon="3.73599">
        <ele>1098.136</ele>
        <time>2020-08-19T08:52:47Z</time>
      </trkpt>
      <trkpt lat="45.28094" lon="3.736">
        <ele>1098.164</ele>
        <time>2020-08-19T08:52:48Z</time>
      </trkpt>
      <trkpt lat="45.28095" lon="3.73603">
        <ele>1098.013</ele>
        <time>2020-08-19T08:52:50Z</time>
      </trkpt>
      <trkpt lat="45.28098" lon="3.7361">
        <ele>1098.543</ele>
        <time>2020-08-19T08:52:55Z</time>
      </trkpt>
      <trkpt lat="45.28099" lon="3.73612">
        <ele>1098.777</ele>
        <time>2020-08-19T08:52:57Z</time>
      </trkpt>
      <trkpt lat="45.28099" lon="3.73612">
        <ele>1098.777</ele>
        <time>2020-08-19T08:52:57Z</time>
      </trkpt>
      <trkpt lat="45.28099" lon="3.73614">
        <ele>1098.754</ele>
        <time>2020-08-19T08:52:58Z</time>
      </trkpt>
      <trkpt lat="45.281" lon="3.73615">
        <ele>1098.734</ele>
        <time>2020-08-19T08:52:59Z</time>
      </trkpt>
      <trkpt lat="45.281" lon="3.73616">
        <ele>1098.827</ele>
        <time>2020-08-19T08:53:00Z</time>
      </trkpt>
      <trkpt lat="45.28101" lon="3.73618">
        <ele>1098.945</ele>
        <time>2020-08-19T08:53:02Z</time>
      </trkpt>
      <trkpt lat="45.28103" lon="3.73623">
        <ele>1098.768</ele>
        <time>2020-08-19T08:53:06Z</time>
      </trkpt>
      <trkpt lat="45.28105" lon="3.73626">
        <ele>1098.624</ele>
        <time>2020-08-19T08:53:08Z</time>
      </trkpt>
      <trkpt lat="45.28108" lon="3.73633">
        <ele>1098.605</ele>
        <time>2020-08-19T08:53:12Z</time>
      </trkpt>
      <trkpt lat="45.2811" lon="3.73639">
        <ele>1098.573</ele>
        <time>2020-08-19T08:53:15Z</time>
      </trkpt>
      <trkpt lat="45.2811" lon="3.73641">
        <ele>1098.49</ele>
        <time>2020-08-19T08:53:16Z</time>
      </trkpt>
      <trkpt lat="45.28111" lon="3.73643">
        <ele>1097.856</ele>
        <time>2020-08-19T08:53:17Z</time>
      </trkpt>
      <trkpt lat="45.28111" lon="3.73645">
        <ele>1097.802</ele>
        <time>2020-08-19T08:53:18Z</time>
      </trkpt>
      <trkpt lat="45.28112" lon="3.7365">
        <ele>1096.832</ele>
        <time>2020-08-19T08:53:20Z</time>
      </trkpt>
      <trkpt lat="45.28112" lon="3.73657">
        <ele>1097.217</ele>
        <time>2020-08-19T08:53:24Z</time>
      </trkpt>
      <trkpt lat="45.28113" lon="3.73669">
        <ele>1097.301</ele>
        <time>2020-08-19T08:53:30Z</time>
      </trkpt>
      <trkpt lat="45.28114" lon="3.73673">
        <ele>1097.622</ele>
        <time>2020-08-19T08:53:33Z</time>
      </trkpt>
      <trkpt lat="45.28114" lon="3.73703">
        <ele>1099.362</ele>
        <time>2020-08-19T08:53:50Z</time>
      </trkpt>
      <trkpt lat="45.28113" lon="3.73712">
        <ele>1098.905</ele>
        <time>2020-08-19T08:53:55Z</time>
      </trkpt>
      <trkpt lat="45.2811" lon="3.73728">
        <ele>1100.043</ele>
        <time>2020-08-19T08:54:06Z</time>
      </trkpt>
      <trkpt lat="45.28109" lon="3.7373">
        <ele>1099.912</ele>
        <time>2020-08-19T08:54:07Z</time>
      </trkpt>
      <trkpt lat="45.28109" lon="3.73734">
        <ele>1099.717</ele>
        <time>2020-08-19T08:54:10Z</time>
      </trkpt>
      <trkpt lat="45.28109" lon="3.73736">
        <ele>1099.526</ele>
        <time>2020-08-19T08:54:11Z</time>
      </trkpt>
      <trkpt lat="45.28111" lon="3.73761">
        <ele>1099.834</ele>
        <time>2020-08-19T08:54:21Z</time>
      </trkpt>
      <trkpt lat="45.28109" lon="3.73777">
        <ele>1100.656</ele>
        <time>2020-08-19T08:54:28Z</time>
      </trkpt>
      <trkpt lat="45.28094" lon="3.73828">
        <ele>1102.77</ele>
        <time>2020-08-19T08:54:51Z</time>
      </trkpt>
      <trkpt lat="45.28082" lon="3.7385">
        <ele>1102.829</ele>
        <time>2020-08-19T08:55:03Z</time>
      </trkpt>
      <trkpt lat="45.28071" lon="3.73871">
        <ele>1102.592</ele>
        <time>2020-08-19T08:55:17Z</time>
      </trkpt>
      <trkpt lat="45.28067" lon="3.73876">
        <ele>1104.924</ele>
        <time>2020-08-19T08:55:22Z</time>
      </trkpt>
      <trkpt lat="45.28064" lon="3.73889">
        <ele>1103.031</ele>
        <time>2020-08-19T08:55:32Z</time>
      </trkpt>
      <trkpt lat="45.28064" lon="3.739">
        <ele>1103.009</ele>
        <time>2020-08-19T08:55:38Z</time>
      </trkpt>
      <trkpt lat="45.28074" lon="3.73935">
        <ele>1101.299</ele>
        <time>2020-08-19T08:55:55Z</time>
      </trkpt>
      <trkpt lat="45.28076" lon="3.73943">
        <ele>1100.03</ele>
        <time>2020-08-19T08:56:00Z</time>
      </trkpt>
      <trkpt lat="45.28077" lon="3.73946">
        <ele>1099.41</ele>
        <time>2020-08-19T08:56:03Z</time>
      </trkpt>
      <trkpt lat="45.28077" lon="3.73946">
        <ele>1099.41</ele>
        <time>2020-08-19T08:56:03Z</time>
      </trkpt>
      <trkpt lat="45.28078" lon="3.73947">
        <ele>1098.924</ele>
        <time>2020-08-19T08:56:05Z</time>
      </trkpt>
      <trkpt lat="45.2808" lon="3.73952">
        <ele>1098.679</ele>
        <time>2020-08-19T08:56:08Z</time>
      </trkpt>
      <trkpt lat="45.28081" lon="3.73954">
        <ele>1098.875</ele>
        <time>2020-08-19T08:56:09Z</time>
      </trkpt>
      <trkpt lat="45.28093" lon="3.73989">
        <ele>1097.885</ele>
        <time>2020-08-19T08:56:25Z</time>
      </trkpt>
      <trkpt lat="45.28098" lon="3.74001">
        <ele>1095.817</ele>
        <time>2020-08-19T08:56:32Z</time>
      </trkpt>
      <trkpt lat="45.28099" lon="3.74002">
        <ele>1094.966</ele>
        <time>2020-08-19T08:56:33Z</time>
      </trkpt>
      <trkpt lat="45.281" lon="3.74005">
        <ele>1094.825</ele>
        <time>2020-08-19T08:56:35Z</time>
      </trkpt>
      <trkpt lat="45.28103" lon="3.74009">
        <ele>1093.623</ele>
        <time>2020-08-19T08:56:39Z</time>
      </trkpt>
      <trkpt lat="45.28104" lon="3.74011">
        <ele>1093.41</ele>
        <time>2020-08-19T08:56:40Z</time>
      </trkpt>
      <trkpt lat="45.28106" lon="3.74014">
        <ele>1093.653</ele>
        <time>2020-08-19T08:56:42Z</time>
      </trkpt>
      <trkpt lat="45.28115" lon="3.74034">
        <ele>1092.169</ele>
        <time>2020-08-19T08:56:54Z</time>
      </trkpt>
      <trkpt lat="45.28117" lon="3.74041">
        <ele>1092.189</ele>
        <time>2020-08-19T08:56:58Z</time>
      </trkpt>
      <trkpt lat="45.28118" lon="3.74044">
        <ele>1092.063</ele>
        <time>2020-08-19T08:57:00Z</time>
      </trkpt>
      <trkpt lat="45.28119" lon="3.74046">
        <ele>1092.099</ele>
        <time>2020-08-19T08:57:01Z</time>
      </trkpt>
      <trkpt lat="45.28123" lon="3.74056">
        <ele>1092.031</ele>
        <time>2020-08-19T08:57:07Z</time>
      </trkpt>
      <trkpt lat="45.28124" lon="3.7406">
        <ele>1091.169</ele>
        <time>2020-08-19T08:57:09Z</time>
      </trkpt>
      <trkpt lat="45.2813" lon="3.74067">
        <ele>1090.21</ele>
        <time>2020-08-19T08:57:14Z</time>
      </trkpt>
      <trkpt lat="45.2813" lon="3.74067">
        <ele>1090.21</ele>
        <time>2020-08-19T08:57:14Z</time>
      </trkpt>
      <trkpt lat="45.2813" lon="3.74069">
        <ele>1089.94</ele>
        <time>2020-08-19T08:57:15Z</time>
      </trkpt>
      <trkpt lat="45.2813" lon="3.74069">
        <ele>1089.806</ele>
        <time>2020-08-19T08:57:16Z</time>
      </trkpt>
      <trkpt lat="45.2813" lon="3.74069">
        <ele>1089.806</ele>
        <time>2020-08-19T08:57:16Z</time>
      </trkpt>
      <trkpt lat="45.28132" lon="3.74071">
        <ele>1089.54</ele>
        <time>2020-08-19T08:57:17Z</time>
      </trkpt>
      <trkpt lat="45.28133" lon="3.74075">
        <ele>1088.337</ele>
        <time>2020-08-19T08:57:19Z</time>
      </trkpt>
      <trkpt lat="45.28134" lon="3.74077">
        <ele>1088.262</ele>
        <time>2020-08-19T08:57:20Z</time>
      </trkpt>
      <trkpt lat="45.28135" lon="3.74078">
        <ele>1088.364</ele>
        <time>2020-08-19T08:57:21Z</time>
      </trkpt>
      <trkpt lat="45.28135" lon="3.7408">
        <ele>1087.883</ele>
        <time>2020-08-19T08:57:22Z</time>
      </trkpt>
      <trkpt lat="45.28136" lon="3.74084">
        <ele>1087.485</ele>
        <time>2020-08-19T08:57:25Z</time>
      </trkpt>
      <trkpt lat="45.28139" lon="3.74094">
        <ele>1087.58</ele>
        <time>2020-08-19T08:57:30Z</time>
      </trkpt>
      <trkpt lat="45.28146" lon="3.74114">
        <ele>1085.511</ele>
        <time>2020-08-19T08:57:41Z</time>
      </trkpt>
      <trkpt lat="45.28152" lon="3.74128">
        <ele>1082.973</ele>
        <time>2020-08-19T08:57:49Z</time>
      </trkpt>
      <trkpt lat="45.28157" lon="3.74151">
        <ele>1080.858</ele>
        <time>2020-08-19T08:58:03Z</time>
      </trkpt>
      <trkpt lat="45.28168" lon="3.74207">
        <ele>1079.697</ele>
        <time>2020-08-19T08:58:32Z</time>
      </trkpt>
      <trkpt lat="45.28169" lon="3.74213">
        <ele>1079.463</ele>
        <time>2020-08-19T08:58:36Z</time>
      </trkpt>
      <trkpt lat="45.2817" lon="3.74231">
        <ele>1077.255</ele>
        <time>2020-08-19T08:58:46Z</time>
      </trkpt>
      <trkpt lat="45.28171" lon="3.74248">
        <ele>1075.126</ele>
        <time>2020-08-19T08:58:54Z</time>
      </trkpt>
      <trkpt lat="45.28175" lon="3.74269">
        <ele>1072.922</ele>
        <time>2020-08-19T08:59:04Z</time>
      </trkpt>
      <trkpt lat="45.2818" lon="3.74297">
        <ele>1070.785</ele>
        <time>2020-08-19T08:59:18Z</time>
      </trkpt>
      <trkpt lat="45.28185" lon="3.7432">
        <ele>1068.698</ele>
        <time>2020-08-19T08:59:30Z</time>
      </trkpt>
      <trkpt lat="45.2819" lon="3.74339">
        <ele>1066.688</ele>
        <time>2020-08-19T08:59:40Z</time>
      </trkpt>
      <trkpt lat="45.28206" lon="3.74389">
        <ele>1065.467</ele>
        <time>2020-08-19T09:00:08Z</time>
      </trkpt>
      <trkpt lat="45.28232" lon="3.74439">
        <ele>1066.053</ele>
        <time>2020-08-19T09:00:40Z</time>
      </trkpt>
      <trkpt lat="45.28231" lon="3.74444">
        <ele>1065.577</ele>
        <time>2020-08-19T09:00:43Z</time>
      </trkpt>
      <trkpt lat="45.28229" lon="3.74448">
        <ele>1065.476</ele>
        <time>2020-08-19T09:00:46Z</time>
      </trkpt>
      <trkpt lat="45.28226" lon="3.7445">
        <ele>1065.56</ele>
        <time>2020-08-19T09:00:49Z</time>
      </trkpt>
      <trkpt lat="45.2821" lon="3.74459">
        <ele>1065.602</ele>
        <time>2020-08-19T09:01:04Z</time>
      </trkpt>
      <trkpt lat="45.28208" lon="3.74463">
        <ele>1065.542</ele>
        <time>2020-08-19T09:01:07Z</time>
      </trkpt>
      <trkpt lat="45.28208" lon="3.74468">
        <ele>1065.318</ele>
        <time>2020-08-19T09:01:10Z</time>
      </trkpt>
      <trkpt lat="45.28208" lon="3.74475">
        <ele>1065.222</ele>
        <time>2020-08-19T09:01:14Z</time>
      </trkpt>
      <trkpt lat="45.28214" lon="3.74488">
        <ele>1065.823</ele>
        <time>2020-08-19T09:01:24Z</time>
      </trkpt>
      <trkpt lat="45.28267" lon="3.74559">
        <ele>1065.394</ele>
        <time>2020-08-19T09:02:26Z</time>
      </trkpt>
      <trkpt lat="45.28285" lon="3.74591">
        <ele>1065.284</ele>
        <time>2020-08-19T09:02:51Z</time>
      </trkpt>
      <trkpt lat="45.28284" lon="3.74595">
        <ele>1065.139</ele>
        <time>2020-08-19T09:02:53Z</time>
      </trkpt>
      <trkpt lat="45.2828" lon="3.74602">
        <ele>1064.984</ele>
        <time>2020-08-19T09:02:59Z</time>
      </trkpt>
      <trkpt lat="45.28278" lon="3.74605">
        <ele>1065.499</ele>
        <time>2020-08-19T09:03:03Z</time>
      </trkpt>
      <trkpt lat="45.28278" lon="3.74605">
        <ele>1065.499</ele>
        <time>2020-08-19T09:03:03Z</time>
      </trkpt>
      <trkpt lat="45.28278" lon="3.74605">
        <ele>1065.349</ele>
        <time>2020-08-19T09:03:04Z</time>
      </trkpt>
      <trkpt lat="45.28278" lon="3.74605">
        <ele>1065.085</ele>
        <time>2020-08-19T09:03:07Z</time>
      </trkpt>
      <trkpt lat="45.28278" lon="3.74605">
        <ele>1065.002</ele>
        <time>2020-08-19T09:03:08Z</time>
      </trkpt>
      <trkpt lat="45.28277" lon="3.74606">
        <ele>1064.859</ele>
        <time>2020-08-19T09:03:09Z</time>
      </trkpt>
      <trkpt lat="45.28271" lon="3.74618">
        <ele>1065.808</ele>
        <time>2020-08-19T09:03:23Z</time>
      </trkpt>
      <trkpt lat="45.28262" lon="3.7463">
        <ele>1066.08</ele>
        <time>2020-08-19T09:03:39Z</time>
      </trkpt>
      <trkpt lat="45.28261" lon="3.7463">
        <ele>1065.917</ele>
        <time>2020-08-19T09:03:40Z</time>
      </trkpt>
      <trkpt lat="45.2826" lon="3.74631">
        <ele>1065.735</ele>
        <time>2020-08-19T09:03:42Z</time>
      </trkpt>
      <trkpt lat="45.28257" lon="3.74632">
        <ele>1066.021</ele>
        <time>2020-08-19T09:03:44Z</time>
      </trkpt>
      <trkpt lat="45.28245" lon="3.74643">
        <ele>1066.188</ele>
        <time>2020-08-19T09:03:56Z</time>
      </trkpt>
      <trkpt lat="45.28239" lon="3.74645">
        <ele>1066.382</ele>
        <time>2020-08-19T09:04:00Z</time>
      </trkpt>
      <trkpt lat="45.2823" lon="3.74649">
        <ele>1066.379</ele>
        <time>2020-08-19T09:04:07Z</time>
      </trkpt>
      <trkpt lat="45.28213" lon="3.74662">
        <ele>1066.431</ele>
        <time>2020-08-19T09:04:23Z</time>
      </trkpt>
      <trkpt lat="45.28196" lon="3.74683">
        <ele>1066.399</ele>
        <time>2020-08-19T09:04:41Z</time>
      </trkpt>
      <trkpt lat="45.28187" lon="3.74697">
        <ele>1066.752</ele>
        <time>2020-08-19T09:04:50Z</time>
      </trkpt>
      <trkpt lat="45.28182" lon="3.74703">
        <ele>1067.141</ele>
        <time>2020-08-19T09:04:57Z</time>
      </trkpt>
      <trkpt lat="45.28181" lon="3.74707">
        <ele>1066.836</ele>
        <time>2020-08-19T09:05:01Z</time>
      </trkpt>
      <trkpt lat="45.28181" lon="3.74707">
        <ele>1066.966</ele>
        <time>2020-08-19T09:05:02Z</time>
      </trkpt>
      <trkpt lat="45.28181" lon="3.74707">
        <ele>1067.013</ele>
        <time>2020-08-19T09:05:03Z</time>
      </trkpt>
      <trkpt lat="45.28181" lon="3.74708">
        <ele>1066.852</ele>
        <time>2020-08-19T09:05:04Z</time>
      </trkpt>
      <trkpt lat="45.28181" lon="3.74709">
        <ele>1067.205</ele>
        <time>2020-08-19T09:05:05Z</time>
      </trkpt>
      <trkpt lat="45.28176" lon="3.74715">
        <ele>1067.421</ele>
        <time>2020-08-19T09:05:12Z</time>
      </trkpt>
      <trkpt lat="45.28175" lon="3.74715">
        <ele>1067.092</ele>
        <time>2020-08-19T09:05:13Z</time>
      </trkpt>
      <trkpt lat="45.2817" lon="3.74719">
        <ele>1066.973</ele>
        <time>2020-08-19T09:05:18Z</time>
      </trkpt>
      <trkpt lat="45.28167" lon="3.74722">
        <ele>1066.966</ele>
        <time>2020-08-19T09:05:21Z</time>
      </trkpt>
      <trkpt lat="45.28152" lon="3.74738">
        <ele>1066.409</ele>
        <time>2020-08-19T09:05:34Z</time>
      </trkpt>
      <trkpt lat="45.28144" lon="3.74744">
        <ele>1066.637</ele>
        <time>2020-08-19T09:05:40Z</time>
      </trkpt>
      <trkpt lat="45.28133" lon="3.74759">
        <ele>1067.765</ele>
        <time>2020-08-19T09:05:50Z</time>
      </trkpt>
      <trkpt lat="45.28102" lon="3.74825">
        <ele>1067.165</ele>
        <time>2020-08-19T09:06:32Z</time>
      </trkpt>
      <trkpt lat="45.28069" lon="3.74944">
        <ele>1067.825</ele>
        <time>2020-08-19T09:07:43Z</time>
      </trkpt>
      <trkpt lat="45.28036" lon="3.75032">
        <ele>1068.207</ele>
        <time>2020-08-19T09:08:38Z</time>
      </trkpt>
      <trkpt lat="45.28" lon="3.75086">
        <ele>1070.623</ele>
        <time>2020-08-19T09:09:22Z</time>
      </trkpt>
      <trkpt lat="45.27994" lon="3.75091">
        <ele>1071.892</ele>
        <time>2020-08-19T09:09:29Z</time>
      </trkpt>
      <trkpt lat="45.27991" lon="3.75092">
        <ele>1071.547</ele>
        <time>2020-08-19T09:09:33Z</time>
      </trkpt>
      <trkpt lat="45.27986" lon="3.75091">
        <ele>1071.072</ele>
        <time>2020-08-19T09:09:38Z</time>
      </trkpt>
      <trkpt lat="45.27971" lon="3.75081">
        <ele>1068.967</ele>
        <time>2020-08-19T09:09:54Z</time>
      </trkpt>
      <trkpt lat="45.27943" lon="3.75066">
        <ele>1068.183</ele>
        <time>2020-08-19T09:10:19Z</time>
      </trkpt>
      <trkpt lat="45.27894" lon="3.7507">
        <ele>1066.713</ele>
        <time>2020-08-19T09:10:59Z</time>
      </trkpt>
      <trkpt lat="45.27804" lon="3.75095">
        <ele>1065.599</ele>
        <time>2020-08-19T09:12:08Z</time>
      </trkpt>
      <trkpt lat="45.2776" lon="3.75103">
        <ele>1063.59</ele>
        <time>2020-08-19T09:12:41Z</time>
      </trkpt>
      <trkpt lat="45.27676" lon="3.75121">
        <ele>1062.403</ele>
        <time>2020-08-19T09:13:49Z</time>
      </trkpt>
      <trkpt lat="45.27615" lon="3.75145">
        <ele>1064.458</ele>
        <time>2020-08-19T09:14:40Z</time>
      </trkpt>
      <trkpt lat="45.27596" lon="3.75146">
        <ele>1065.04</ele>
        <time>2020-08-19T09:14:57Z</time>
      </trkpt>
      <trkpt lat="45.27569" lon="3.75144">
        <ele>1064.235</ele>
        <time>2020-08-19T09:15:21Z</time>
      </trkpt>
      <trkpt lat="45.27568" lon="3.75144">
        <ele>1064.196</ele>
        <time>2020-08-19T09:15:22Z</time>
      </trkpt>
      <trkpt lat="45.27562" lon="3.75139">
        <ele>1064.221</ele>
        <time>2020-08-19T09:15:30Z</time>
      </trkpt>
      <trkpt lat="45.27559" lon="3.75133">
        <ele>1064.154</ele>
        <time>2020-08-19T09:15:35Z</time>
      </trkpt>
      <trkpt lat="45.27555" lon="3.7512">
        <ele>1066.215</ele>
        <time>2020-08-19T09:15:45Z</time>
      </trkpt>
      <trkpt lat="45.27554" lon="3.75116">
        <ele>1066.958</ele>
        <time>2020-08-19T09:15:47Z</time>
      </trkpt>
      <trkpt lat="45.27553" lon="3.75112">
        <ele>1066.391</ele>
        <time>2020-08-19T09:15:50Z</time>
      </trkpt>
      <trkpt lat="45.27553" lon="3.75104">
        <ele>1067.111</ele>
        <time>2020-08-19T09:15:55Z</time>
      </trkpt>
      <trkpt lat="45.27552" lon="3.75098">
        <ele>1067.182</ele>
        <time>2020-08-19T09:15:59Z</time>
      </trkpt>
      <trkpt lat="45.27551" lon="3.75096">
        <ele>1067.893</ele>
        <time>2020-08-19T09:16:02Z</time>
      </trkpt>
      <trkpt lat="45.27551" lon="3.75095">
        <ele>1068.109</ele>
        <time>2020-08-19T09:16:03Z</time>
      </trkpt>
      <trkpt lat="45.27551" lon="3.75089">
        <ele>1068.28</ele>
        <time>2020-08-19T09:16:07Z</time>
      </trkpt>
      <trkpt lat="45.27552" lon="3.75086">
        <ele>1068.322</ele>
        <time>2020-08-19T09:16:09Z</time>
      </trkpt>
      <trkpt lat="45.27552" lon="3.75065">
        <ele>1068.84</ele>
        <time>2020-08-19T09:16:19Z</time>
      </trkpt>
      <trkpt lat="45.2754" lon="3.75022">
        <ele>1068.607</ele>
        <time>2020-08-19T09:16:46Z</time>
      </trkpt>
      <trkpt lat="45.27535" lon="3.75009">
        <ele>1066.219</ele>
        <time>2020-08-19T09:16:53Z</time>
      </trkpt>
      <trkpt lat="45.27531" lon="3.74996">
        <ele>1065.183</ele>
        <time>2020-08-19T09:17:02Z</time>
      </trkpt>
      <trkpt lat="45.2753" lon="3.74995">
        <ele>1065.218</ele>
        <time>2020-08-19T09:17:03Z</time>
      </trkpt>
      <trkpt lat="45.27512" lon="3.74949">
        <ele>1063.109</ele>
        <time>2020-08-19T09:17:30Z</time>
      </trkpt>
      <trkpt lat="45.27509" lon="3.7494">
        <ele>1063.591</ele>
        <time>2020-08-19T09:17:36Z</time>
      </trkpt>
      <trkpt lat="45.27507" lon="3.74937">
        <ele>1063.527</ele>
        <time>2020-08-19T09:17:40Z</time>
      </trkpt>
      <trkpt lat="45.27505" lon="3.74929">
        <ele>1063.785</ele>
        <time>2020-08-19T09:17:45Z</time>
      </trkpt>
      <trkpt lat="45.27501" lon="3.74913">
        <ele>1064.595</ele>
        <time>2020-08-19T09:17:56Z</time>
      </trkpt>
      <trkpt lat="45.27496" lon="3.74884">
        <ele>1063.267</ele>
        <time>2020-08-19T09:18:10Z</time>
      </trkpt>
      <trkpt lat="45.27492" lon="3.74876">
        <ele>1062.378</ele>
        <time>2020-08-19T09:18:16Z</time>
      </trkpt>
      <trkpt lat="45.27487" lon="3.74869">
        <ele>1061.507</ele>
        <time>2020-08-19T09:18:23Z</time>
      </trkpt>
      <trkpt lat="45.27486" lon="3.74866">
        <ele>1061.287</ele>
        <time>2020-08-19T09:18:25Z</time>
      </trkpt>
      <trkpt lat="45.27466" lon="3.74842">
        <ele>1058.954</ele>
        <time>2020-08-19T09:18:46Z</time>
      </trkpt>
      <trkpt lat="45.27457" lon="3.74822">
        <ele>1056.242</ele>
        <time>2020-08-19T09:18:59Z</time>
      </trkpt>
      <trkpt lat="45.27454" lon="3.74816">
        <ele>1054.234</ele>
        <time>2020-08-19T09:19:03Z</time>
      </trkpt>
      <trkpt lat="45.27448" lon="3.74804">
        <ele>1051.846</ele>
        <time>2020-08-19T09:19:10Z</time>
      </trkpt>
      <trkpt lat="45.27443" lon="3.74795">
        <ele>1049.617</ele>
        <time>2020-08-19T09:19:17Z</time>
      </trkpt>
      <trkpt lat="45.27435" lon="3.74779">
        <ele>1047.244</ele>
        <time>2020-08-19T09:19:27Z</time>
      </trkpt>
      <trkpt lat="45.27432" lon="3.74773">
        <ele>1045.166</ele>
        <time>2020-08-19T09:19:32Z</time>
      </trkpt>
      <trkpt lat="45.27427" lon="3.74764">
        <ele>1042.911</ele>
        <time>2020-08-19T09:19:38Z</time>
      </trkpt>
      <trkpt lat="45.27417" lon="3.74748">
        <ele>1040.795</ele>
        <time>2020-08-19T09:19:49Z</time>
      </trkpt>
      <trkpt lat="45.27411" lon="3.74737">
        <ele>1038.621</ele>
        <time>2020-08-19T09:19:57Z</time>
      </trkpt>
      <trkpt lat="45.27404" lon="3.7472">
        <ele>1036.581</ele>
        <time>2020-08-19T09:20:08Z</time>
      </trkpt>
      <trkpt lat="45.27397" lon="3.74696">
        <ele>1034.491</ele>
        <time>2020-08-19T09:20:23Z</time>
      </trkpt>
      <trkpt lat="45.27392" lon="3.74677">
        <ele>1033.388</ele>
        <time>2020-08-19T09:20:36Z</time>
      </trkpt>
      <trkpt lat="45.27391" lon="3.74652">
        <ele>1031.371</ele>
        <time>2020-08-19T09:20:51Z</time>
      </trkpt>
      <trkpt lat="45.27389" lon="3.74625">
        <ele>1029.344</ele>
        <time>2020-08-19T09:21:06Z</time>
      </trkpt>
      <trkpt lat="45.27388" lon="3.74613">
        <ele>1027.165</ele>
        <time>2020-08-19T09:21:13Z</time>
      </trkpt>
      <trkpt lat="45.27388" lon="3.74585">
        <ele>1025.132</ele>
        <time>2020-08-19T09:21:29Z</time>
      </trkpt>
      <trkpt lat="45.27388" lon="3.74563">
        <ele>1024.55</ele>
        <time>2020-08-19T09:21:42Z</time>
      </trkpt>
      <trkpt lat="45.27384" lon="3.74549">
        <ele>1024.428</ele>
        <time>2020-08-19T09:21:50Z</time>
      </trkpt>
      <trkpt lat="45.27382" lon="3.74544">
        <ele>1024.818</ele>
        <time>2020-08-19T09:21:53Z</time>
      </trkpt>
      <trkpt lat="45.27374" lon="3.74541">
        <ele>1024.414</ele>
        <time>2020-08-19T09:21:59Z</time>
      </trkpt>
      <trkpt lat="45.27363" lon="3.74538">
        <ele>1024.216</ele>
        <time>2020-08-19T09:22:08Z</time>
      </trkpt>
      <trkpt lat="45.27333" lon="3.74529">
        <ele>1023.412</ele>
        <time>2020-08-19T09:22:32Z</time>
      </trkpt>
      <trkpt lat="45.27324" lon="3.74527">
        <ele>1023.544</ele>
        <time>2020-08-19T09:22:39Z</time>
      </trkpt>
      <trkpt lat="45.27316" lon="3.74524">
        <ele>1023.659</ele>
        <time>2020-08-19T09:22:45Z</time>
      </trkpt>
      <trkpt lat="45.2727" lon="3.74496">
        <ele>1024.04</ele>
        <time>2020-08-19T09:23:25Z</time>
      </trkpt>
      <trkpt lat="45.27258" lon="3.74484">
        <ele>1026.047</ele>
        <time>2020-08-19T09:23:37Z</time>
      </trkpt>
      <trkpt lat="45.27238" lon="3.74465">
        <ele>1027.233</ele>
        <time>2020-08-19T09:23:58Z</time>
      </trkpt>
      <trkpt lat="45.27226" lon="3.74461">
        <ele>1026.167</ele>
        <time>2020-08-19T09:24:11Z</time>
      </trkpt>
      <trkpt lat="45.27222" lon="3.74455">
        <ele>1026.795</ele>
        <time>2020-08-19T09:24:16Z</time>
      </trkpt>
      <trkpt lat="45.27219" lon="3.74447">
        <ele>1027.996</ele>
        <time>2020-08-19T09:24:22Z</time>
      </trkpt>
      <trkpt lat="45.27215" lon="3.74439">
        <ele>1029.203</ele>
        <time>2020-08-19T09:24:28Z</time>
      </trkpt>
      <trkpt lat="45.27207" lon="3.74433">
        <ele>1029.538</ele>
        <time>2020-08-19T09:24:35Z</time>
      </trkpt>
      <trkpt lat="45.27193" lon="3.7443">
        <ele>1029.712</ele>
        <time>2020-08-19T09:24:46Z</time>
      </trkpt>
      <trkpt lat="45.27191" lon="3.74426">
        <ele>1029.33</ele>
        <time>2020-08-19T09:24:51Z</time>
      </trkpt>
      <trkpt lat="45.2719" lon="3.74422">
        <ele>1029.751</ele>
        <time>2020-08-19T09:24:56Z</time>
      </trkpt>
      <trkpt lat="45.2719" lon="3.74422">
        <ele>1029.914</ele>
        <time>2020-08-19T09:24:57Z</time>
      </trkpt>
      <trkpt lat="45.2719" lon="3.74421">
        <ele>1029.951</ele>
        <time>2020-08-19T09:24:58Z</time>
      </trkpt>
      <trkpt lat="45.2719" lon="3.74421">
        <ele>1029.951</ele>
        <time>2020-08-19T09:24:58Z</time>
      </trkpt>
      <trkpt lat="45.2719" lon="3.74421">
        <ele>1030.098</ele>
        <time>2020-08-19T09:24:59Z</time>
      </trkpt>
      <trkpt lat="45.27189" lon="3.7442">
        <ele>1030.14</ele>
        <time>2020-08-19T09:25:00Z</time>
      </trkpt>
      <trkpt lat="45.27189" lon="3.74418">
        <ele>1030.226</ele>
        <time>2020-08-19T09:25:02Z</time>
      </trkpt>
      <trkpt lat="45.27188" lon="3.7441">
        <ele>1030.18</ele>
        <time>2020-08-19T09:25:13Z</time>
      </trkpt>
      <trkpt lat="45.27188" lon="3.7441">
        <ele>1030.045</ele>
        <time>2020-08-19T09:25:14Z</time>
      </trkpt>
      <trkpt lat="45.27188" lon="3.74409">
        <ele>1030.147</ele>
        <time>2020-08-19T09:25:16Z</time>
      </trkpt>
      <trkpt lat="45.27188" lon="3.74409">
        <ele>1030.147</ele>
        <time>2020-08-19T09:25:16Z</time>
      </trkpt>
      <trkpt lat="45.27188" lon="3.74409">
        <ele>1030.337</ele>
        <time>2020-08-19T09:25:17Z</time>
      </trkpt>
      <trkpt lat="45.27188" lon="3.74409">
        <ele>1030.337</ele>
        <time>2020-08-19T09:25:18Z</time>
      </trkpt>
      <trkpt lat="45.27188" lon="3.74409">
        <ele>1030.189</ele>
        <time>2020-08-19T09:25:47Z</time>
      </trkpt>
      <trkpt lat="45.27188" lon="3.74409">
        <ele>1029.833</ele>
        <time>2020-08-19T09:25:48Z</time>
      </trkpt>
      <trkpt lat="45.27188" lon="3.74408">
        <ele>1029.09</ele>
        <time>2020-08-19T09:25:50Z</time>
      </trkpt>
      <trkpt lat="45.27188" lon="3.74408">
        <ele>1029.386</ele>
        <time>2020-08-19T09:26:27Z</time>
      </trkpt>
      <trkpt lat="45.27189" lon="3.74408">
        <ele>1029.597</ele>
        <time>2020-08-19T09:26:28Z</time>
      </trkpt>
      <trkpt lat="45.27189" lon="3.74407">
        <ele>1029.417</ele>
        <time>2020-08-19T09:26:29Z</time>
      </trkpt>
      <trkpt lat="45.2719" lon="3.74405">
        <ele>1029.869</ele>
        <time>2020-08-19T09:26:32Z</time>
      </trkpt>
      <trkpt lat="45.27191" lon="3.74406">
        <ele>1030.127</ele>
        <time>2020-08-19T09:26:34Z</time>
      </trkpt>
      <trkpt lat="45.27191" lon="3.74406">
        <ele>1030.277</ele>
        <time>2020-08-19T09:26:35Z</time>
      </trkpt>
      <trkpt lat="45.27191" lon="3.74407">
        <ele>1030.048</ele>
        <time>2020-08-19T09:26:36Z</time>
      </trkpt>
      <trkpt lat="45.2719" lon="3.74407">
        <ele>1030.315</ele>
        <time>2020-08-19T09:26:41Z</time>
      </trkpt>
      <trkpt lat="45.2719" lon="3.74407">
        <ele>1030.272</ele>
        <time>2020-08-19T09:26:42Z</time>
      </trkpt>
      <trkpt lat="45.2719" lon="3.74406">
        <ele>1030.356</ele>
        <time>2020-08-19T09:26:43Z</time>
      </trkpt>
      <trkpt lat="45.2719" lon="3.74406">
        <ele>1030.255</ele>
        <time>2020-08-19T09:26:44Z</time>
      </trkpt>
      <trkpt lat="45.2719" lon="3.74406">
        <ele>1030.255</ele>
        <time>2020-08-19T09:26:44Z</time>
      </trkpt>
      <trkpt lat="45.2719" lon="3.74408">
        <ele>1030.472</ele>
        <time>2020-08-19T09:26:45Z</time>
      </trkpt>
      <trkpt lat="45.2719" lon="3.74408">
        <ele>1030.472</ele>
        <time>2020-08-19T09:26:45Z</time>
      </trkpt>
      <trkpt lat="45.27191" lon="3.74409">
        <ele>1030.445</ele>
        <time>2020-08-19T09:26:46Z</time>
      </trkpt>
      <trkpt lat="45.27194" lon="3.74411">
        <ele>1030.793</ele>
        <time>2020-08-19T09:26:48Z</time>
      </trkpt>
      <trkpt lat="45.27196" lon="3.74406">
        <ele>1031.411</ele>
        <time>2020-08-19T09:26:51Z</time>
      </trkpt>
      <trkpt lat="45.27197" lon="3.74399">
        <ele>1031.538</ele>
        <time>2020-08-19T09:26:56Z</time>
      </trkpt>
      <trkpt lat="45.27199" lon="3.74393">
        <ele>1031.976</ele>
        <time>2020-08-19T09:26:58Z</time>
      </trkpt>
      <trkpt lat="45.27204" lon="3.7438">
        <ele>1032.117</ele>
        <time>2020-08-19T09:27:02Z</time>
      </trkpt>
      <trkpt lat="45.2721" lon="3.74359">
        <ele>1032.347</ele>
        <time>2020-08-19T09:27:13Z</time>
      </trkpt>
      <trkpt lat="45.27199" lon="3.74392">
        <ele>1032.564</ele>
        <time>2020-08-19T09:27:14Z</time>
      </trkpt>
      <trkpt lat="45.27195" lon="3.74397">
        <ele>1032.119</ele>
        <time>2020-08-19T09:27:15Z</time>
      </trkpt>
      <trkpt lat="45.27193" lon="3.74404">
        <ele>1031.533</ele>
        <time>2020-08-19T09:27:16Z</time>
      </trkpt>
      <trkpt lat="45.27219" lon="3.74405">
        <ele>1030.919</ele>
        <time>2020-08-19T09:27:17Z</time>
      </trkpt>
      <trkpt lat="45.27216" lon="3.74412">
        <ele>1032.713</ele>
        <time>2020-08-19T09:27:21Z</time>
      </trkpt>
      <trkpt lat="45.27213" lon="3.74421">
        <ele>1031.876</ele>
        <time>2020-08-19T09:27:23Z</time>
      </trkpt>
      <trkpt lat="45.27211" lon="3.74424">
        <ele>1031.357</ele>
        <time>2020-08-19T09:27:24Z</time>
      </trkpt>
      <trkpt lat="45.27209" lon="3.74428">
        <ele>1030.918</ele>
        <time>2020-08-19T09:27:26Z</time>
      </trkpt>
      <trkpt lat="45.27209" lon="3.74428">
        <ele>1030.918</ele>
        <time>2020-08-19T09:27:26Z</time>
      </trkpt>
      <trkpt lat="45.27209" lon="3.74428">
        <ele>1030.769</ele>
        <time>2020-08-19T09:27:27Z</time>
      </trkpt>
      <trkpt lat="45.27209" lon="3.74428">
        <ele>1030.769</ele>
        <time>2020-08-19T09:27:27Z</time>
      </trkpt>
      <trkpt lat="45.27208" lon="3.7443">
        <ele>1030.466</ele>
        <time>2020-08-19T09:27:28Z</time>
      </trkpt>
      <trkpt lat="45.27208" lon="3.7443">
        <ele>1030.312</ele>
        <time>2020-08-19T09:27:30Z</time>
      </trkpt>
      <trkpt lat="45.27209" lon="3.74428">
        <ele>1029.772</ele>
        <time>2020-08-19T09:27:31Z</time>
      </trkpt>
      <trkpt lat="45.2721" lon="3.74427">
        <ele>1030.009</ele>
        <time>2020-08-19T09:27:32Z</time>
      </trkpt>
      <trkpt lat="45.27207" lon="3.74426">
        <ele>1027.516</ele>
        <time>2020-08-19T09:27:33Z</time>
      </trkpt>
      <trkpt lat="45.27205" lon="3.74426">
        <ele>1026.423</ele>
        <time>2020-08-19T09:27:34Z</time>
      </trkpt>
      <trkpt lat="45.27201" lon="3.74422">
        <ele>1026.053</ele>
        <time>2020-08-19T09:27:37Z</time>
      </trkpt>
      <trkpt lat="45.27197" lon="3.74416">
        <ele>1026.157</ele>
        <time>2020-08-19T09:27:39Z</time>
      </trkpt>
      <trkpt lat="45.27197" lon="3.74416">
        <ele>1026.213</ele>
        <time>2020-08-19T09:27:40Z</time>
      </trkpt>
      <trkpt lat="45.27195" lon="3.74416">
        <ele>1026.447</ele>
        <time>2020-08-19T09:27:41Z</time>
      </trkpt>
      <trkpt lat="45.27194" lon="3.74415">
        <ele>1027.634</ele>
        <time>2020-08-19T09:27:42Z</time>
      </trkpt>
      <trkpt lat="45.27194" lon="3.74415">
        <ele>1027.634</ele>
        <time>2020-08-19T09:27:42Z</time>
      </trkpt>
      <trkpt lat="45.27193" lon="3.74415">
        <ele>1028.12</ele>
        <time>2020-08-19T09:27:43Z</time>
      </trkpt>
      <trkpt lat="45.27192" lon="3.74415">
        <ele>1028.218</ele>
        <time>2020-08-19T09:27:45Z</time>
      </trkpt>
      <trkpt lat="45.27192" lon="3.74415">
        <ele>1028.218</ele>
        <time>2020-08-19T09:27:45Z</time>
      </trkpt>
      <trkpt lat="45.27192" lon="3.74415">
        <ele>1028.614</ele>
        <time>2020-08-19T09:27:46Z</time>
      </trkpt>
      <trkpt lat="45.27196" lon="3.74412">
        <ele>1023.88</ele>
        <time>2020-08-19T09:28:10Z</time>
      </trkpt>
      <trkpt lat="45.27196" lon="3.74412">
        <ele>1023.88</ele>
        <time>2020-08-19T09:28:10Z</time>
      </trkpt>
      <trkpt lat="45.27198" lon="3.74412">
        <ele>1023.024</ele>
        <time>2020-08-19T09:28:11Z</time>
      </trkpt>
      <trkpt lat="45.272" lon="3.74411">
        <ele>1022.531</ele>
        <time>2020-08-19T09:28:13Z</time>
      </trkpt>
      <trkpt lat="45.27201" lon="3.7441">
        <ele>1022.336</ele>
        <time>2020-08-19T09:28:14Z</time>
      </trkpt>
      <trkpt lat="45.27201" lon="3.7441">
        <ele>1022.281</ele>
        <time>2020-08-19T09:28:15Z</time>
      </trkpt>
      <trkpt lat="45.27201" lon="3.7441">
        <ele>1026.072</ele>
        <time>2020-08-19T09:29:53Z</time>
      </trkpt>
      <trkpt lat="45.272" lon="3.74407">
        <ele>1027.493</ele>
        <time>2020-08-19T09:29:54Z</time>
      </trkpt>
      <trkpt lat="45.27198" lon="3.74405">
        <ele>1028.787</ele>
        <time>2020-08-19T09:29:56Z</time>
      </trkpt>
      <trkpt lat="45.27198" lon="3.74405">
        <ele>1028.787</ele>
        <time>2020-08-19T09:29:56Z</time>
      </trkpt>
      <trkpt lat="45.27198" lon="3.74403">
        <ele>1029.106</ele>
        <time>2020-08-19T09:29:57Z</time>
      </trkpt>
      <trkpt lat="45.27199" lon="3.744">
        <ele>1028.464</ele>
        <time>2020-08-19T09:30:02Z</time>
      </trkpt>
      <trkpt lat="45.272" lon="3.74399">
        <ele>1028.481</ele>
        <time>2020-08-19T09:30:03Z</time>
      </trkpt>
      <trkpt lat="45.27201" lon="3.74395">
        <ele>1029.332</ele>
        <time>2020-08-19T09:30:08Z</time>
      </trkpt>
      <trkpt lat="45.27203" lon="3.74386">
        <ele>1031.838</ele>
        <time>2020-08-19T09:30:16Z</time>
      </trkpt>
      <trkpt lat="45.27202" lon="3.74391">
        <ele>1031.595</ele>
        <time>2020-08-19T09:30:22Z</time>
      </trkpt>
      <trkpt lat="45.27188" lon="3.74426">
        <ele>1033.296</ele>
        <time>2020-08-19T09:30:23Z</time>
      </trkpt>
      <trkpt lat="45.27185" lon="3.74437">
        <ele>1032.333</ele>
        <time>2020-08-19T09:30:24Z</time>
      </trkpt>
      <trkpt lat="45.27182" lon="3.74438">
        <ele>1029.694</ele>
        <time>2020-08-19T09:30:25Z</time>
      </trkpt>
      <trkpt lat="45.27182" lon="3.74434">
        <ele>1029.714</ele>
        <time>2020-08-19T09:30:27Z</time>
      </trkpt>
      <trkpt lat="45.2718" lon="3.74437">
        <ele>1032.762</ele>
        <time>2020-08-19T09:30:28Z</time>
      </trkpt>
      <trkpt lat="45.27177" lon="3.74438">
        <ele>1033.207</ele>
        <time>2020-08-19T09:30:30Z</time>
      </trkpt>
      <trkpt lat="45.27178" lon="3.74436">
        <ele>1032.53</ele>
        <time>2020-08-19T09:30:31Z</time>
      </trkpt>
      <trkpt lat="45.27178" lon="3.74436">
        <ele>1032.53</ele>
        <time>2020-08-19T09:30:31Z</time>
      </trkpt>
      <trkpt lat="45.27178" lon="3.74436">
        <ele>1032.942</ele>
        <time>2020-08-19T09:30:32Z</time>
      </trkpt>
      <trkpt lat="45.27178" lon="3.74436">
        <ele>1032.942</ele>
        <time>2020-08-19T09:30:32Z</time>
      </trkpt>
      <trkpt lat="45.27181" lon="3.74432">
        <ele>1030.81</ele>
        <time>2020-08-19T09:30:33Z</time>
      </trkpt>
      <trkpt lat="45.27181" lon="3.74432">
        <ele>1030.81</ele>
        <time>2020-08-19T09:30:33Z</time>
      </trkpt>
      <trkpt lat="45.27181" lon="3.74432">
        <ele>1031.549</ele>
        <time>2020-08-19T09:30:34Z</time>
      </trkpt>
      <trkpt lat="45.27183" lon="3.74423">
        <ele>1031.911</ele>
        <time>2020-08-19T09:30:35Z</time>
      </trkpt>
      <trkpt lat="45.27184" lon="3.74417">
        <ele>1034.095</ele>
        <time>2020-08-19T09:30:51Z</time>
      </trkpt>
      <trkpt lat="45.27184" lon="3.74417">
        <ele>1034.095</ele>
        <time>2020-08-19T09:30:51Z</time>
      </trkpt>
      <trkpt lat="45.27184" lon="3.74416">
        <ele>1034.9</ele>
        <time>2020-08-19T09:30:52Z</time>
      </trkpt>
      <trkpt lat="45.27185" lon="3.74415">
        <ele>1031.69</ele>
        <time>2020-08-19T09:30:53Z</time>
      </trkpt>
      <trkpt lat="45.27186" lon="3.74412">
        <ele>1028.811</ele>
        <time>2020-08-19T09:30:56Z</time>
      </trkpt>
      <trkpt lat="45.27186" lon="3.74411">
        <ele>1029.98</ele>
        <time>2020-08-19T09:30:58Z</time>
      </trkpt>
      <trkpt lat="45.27183" lon="3.74411">
        <ele>1033.436</ele>
        <time>2020-08-19T09:31:02Z</time>
      </trkpt>
      <trkpt lat="45.27182" lon="3.74411">
        <ele>1033.455</ele>
        <time>2020-08-19T09:31:06Z</time>
      </trkpt>
      <trkpt lat="45.27182" lon="3.74411">
        <ele>1033.198</ele>
        <time>2020-08-19T09:31:11Z</time>
      </trkpt>
      <trkpt lat="45.27182" lon="3.74409">
        <ele>1032.752</ele>
        <time>2020-08-19T09:31:12Z</time>
      </trkpt>
      <trkpt lat="45.2718" lon="3.74414">
        <ele>1033.254</ele>
        <time>2020-08-19T09:31:19Z</time>
      </trkpt>
      <trkpt lat="45.27179" lon="3.74415">
        <ele>1032.822</ele>
        <time>2020-08-19T09:31:22Z</time>
      </trkpt>
      <trkpt lat="45.27179" lon="3.74415">
        <ele>1032.822</ele>
        <time>2020-08-19T09:31:22Z</time>
      </trkpt>
      <trkpt lat="45.27179" lon="3.74415">
        <ele>1033.836</ele>
        <time>2020-08-19T09:31:23Z</time>
      </trkpt>
      <trkpt lat="45.27179" lon="3.74414">
        <ele>1033.546</ele>
        <time>2020-08-19T09:31:24Z</time>
      </trkpt>
      <trkpt lat="45.27178" lon="3.74409">
        <ele>1032.176</ele>
        <time>2020-08-19T09:31:28Z</time>
      </trkpt>
      <trkpt lat="45.27175" lon="3.74405">
        <ele>1031.019</ele>
        <time>2020-08-19T09:31:33Z</time>
      </trkpt>
      <trkpt lat="45.27174" lon="3.74405">
        <ele>1030.727</ele>
        <time>2020-08-19T09:31:34Z</time>
      </trkpt>
      <trkpt lat="45.27174" lon="3.74405">
        <ele>1030.727</ele>
        <time>2020-08-19T09:31:34Z</time>
      </trkpt>
      <trkpt lat="45.27174" lon="3.74405">
        <ele>1030.721</ele>
        <time>2020-08-19T09:31:35Z</time>
      </trkpt>
      <trkpt lat="45.27174" lon="3.74405">
        <ele>1030.688</ele>
        <time>2020-08-19T09:31:37Z</time>
      </trkpt>
      <trkpt lat="45.27173" lon="3.74406">
        <ele>1030.753</ele>
        <time>2020-08-19T09:31:38Z</time>
      </trkpt>
      <trkpt lat="45.27173" lon="3.74407">
        <ele>1029.836</ele>
        <time>2020-08-19T09:31:40Z</time>
      </trkpt>
      <trkpt lat="45.27173" lon="3.74407">
        <ele>1029.836</ele>
        <time>2020-08-19T09:31:40Z</time>
      </trkpt>
      <trkpt lat="45.27173" lon="3.74407">
        <ele>1029.806</ele>
        <time>2020-08-19T09:31:41Z</time>
      </trkpt>
      <trkpt lat="45.27173" lon="3.74407">
        <ele>1029.729</ele>
        <time>2020-08-19T09:33:07Z</time>
      </trkpt>
      <trkpt lat="45.27174" lon="3.74407">
        <ele>1030.222</ele>
        <time>2020-08-19T09:33:08Z</time>
      </trkpt>
      <trkpt lat="45.27174" lon="3.74409">
        <ele>1032.264</ele>
        <time>2020-08-19T09:33:11Z</time>
      </trkpt>
      <trkpt lat="45.27174" lon="3.7441">
        <ele>1033.136</ele>
        <time>2020-08-19T09:33:12Z</time>
      </trkpt>
      <trkpt lat="45.27174" lon="3.74411">
        <ele>1033.958</ele>
        <time>2020-08-19T09:33:13Z</time>
      </trkpt>
      <trkpt lat="45.27174" lon="3.74412">
        <ele>1034.099</ele>
        <time>2020-08-19T09:33:14Z</time>
      </trkpt>
      <trkpt lat="45.27174" lon="3.74413">
        <ele>1035.692</ele>
        <time>2020-08-19T09:33:15Z</time>
      </trkpt>
      <trkpt lat="45.27174" lon="3.74415">
        <ele>1035.887</ele>
        <time>2020-08-19T09:33:16Z</time>
      </trkpt>
      <trkpt lat="45.27175" lon="3.74421">
        <ele>1035.891</ele>
        <time>2020-08-19T09:33:19Z</time>
      </trkpt>
      <trkpt lat="45.27174" lon="3.74432">
        <ele>1034.384</ele>
        <time>2020-08-19T09:33:23Z</time>
      </trkpt>
      <trkpt lat="45.27174" lon="3.74437">
        <ele>1034.419</ele>
        <time>2020-08-19T09:33:25Z</time>
      </trkpt>
      <trkpt lat="45.27177" lon="3.74445">
        <ele>1034.166</ele>
        <time>2020-08-19T09:33:31Z</time>
      </trkpt>
      <trkpt lat="45.27177" lon="3.74445">
        <ele>1034.078</ele>
        <time>2020-08-19T09:33:32Z</time>
      </trkpt>
      <trkpt lat="45.27177" lon="3.74445">
        <ele>1033.728</ele>
        <time>2020-08-19T09:33:33Z</time>
      </trkpt>
      <trkpt lat="45.27177" lon="3.74445">
        <ele>1033.728</ele>
        <time>2020-08-19T09:33:33Z</time>
      </trkpt>
      <trkpt lat="45.27178" lon="3.74445">
        <ele>1033.484</ele>
        <time>2020-08-19T09:33:34Z</time>
      </trkpt>
      <trkpt lat="45.27178" lon="3.74444">
        <ele>1033.285</ele>
        <time>2020-08-19T09:33:36Z</time>
      </trkpt>
      <trkpt lat="45.27178" lon="3.74444">
        <ele>1033.234</ele>
        <time>2020-08-19T09:34:09Z</time>
      </trkpt>
      <trkpt lat="45.27178" lon="3.74446">
        <ele>1033.119</ele>
        <time>2020-08-19T09:34:10Z</time>
      </trkpt>
      <trkpt lat="45.27177" lon="3.74447">
        <ele>1033.775</ele>
        <time>2020-08-19T09:34:12Z</time>
      </trkpt>
      <trkpt lat="45.27177" lon="3.74447">
        <ele>1033.974</ele>
        <time>2020-08-19T09:34:13Z</time>
      </trkpt>
      <trkpt lat="45.27177" lon="3.74447">
        <ele>1034.638</ele>
        <time>2020-08-19T09:34:35Z</time>
      </trkpt>
      <trkpt lat="45.27177" lon="3.74446">
        <ele>1033.614</ele>
        <time>2020-08-19T09:34:36Z</time>
      </trkpt>
      <trkpt lat="45.27177" lon="3.74447">
        <ele>1033.311</ele>
        <time>2020-08-19T09:34:37Z</time>
      </trkpt>
      <trkpt lat="45.27178" lon="3.74444">
        <ele>1034.112</ele>
        <time>2020-08-19T09:34:40Z</time>
      </trkpt>
      <trkpt lat="45.27178" lon="3.7444">
        <ele>1033.987</ele>
        <time>2020-08-19T09:34:42Z</time>
      </trkpt>
      <trkpt lat="45.27178" lon="3.74424">
        <ele>1033.32</ele>
        <time>2020-08-19T09:34:52Z</time>
      </trkpt>
      <trkpt lat="45.27175" lon="3.74415">
        <ele>1030.433</ele>
        <time>2020-08-19T09:34:57Z</time>
      </trkpt>
      <trkpt lat="45.27172" lon="3.74409">
        <ele>1030.324</ele>
        <time>2020-08-19T09:35:02Z</time>
      </trkpt>
      <trkpt lat="45.27172" lon="3.74408">
        <ele>1029.961</ele>
        <time>2020-08-19T09:35:04Z</time>
      </trkpt>
      <trkpt lat="45.27172" lon="3.74408">
        <ele>1029.852</ele>
        <time>2020-08-19T09:35:05Z</time>
      </trkpt>
      <trkpt lat="45.27172" lon="3.74408">
        <ele>1029.67</ele>
        <time>2020-08-19T09:36:11Z</time>
      </trkpt>
      <trkpt lat="45.27174" lon="3.7441">
        <ele>1029.641</ele>
        <time>2020-08-19T09:36:12Z</time>
      </trkpt>
      <trkpt lat="45.27177" lon="3.74412">
        <ele>1030.222</ele>
        <time>2020-08-19T09:36:16Z</time>
      </trkpt>
      <trkpt lat="45.2718" lon="3.74411">
        <ele>1030.582</ele>
        <time>2020-08-19T09:36:17Z</time>
      </trkpt>
      <trkpt lat="45.27193" lon="3.74405">
        <ele>1030.271</ele>
        <time>2020-08-19T09:36:22Z</time>
      </trkpt>
      <trkpt lat="45.27193" lon="3.74412">
        <ele>1030.02</ele>
        <time>2020-08-19T09:36:28Z</time>
      </trkpt>
      <trkpt lat="45.27196" lon="3.74416">
        <ele>1030.064</ele>
        <time>2020-08-19T09:36:31Z</time>
      </trkpt>
      <trkpt lat="45.27198" lon="3.74421">
        <ele>1030.042</ele>
        <time>2020-08-19T09:36:34Z</time>
      </trkpt>
      <trkpt lat="45.27195" lon="3.7443">
        <ele>1030.28</ele>
        <time>2020-08-19T09:36:39Z</time>
      </trkpt>
      <trkpt lat="45.27194" lon="3.74429">
        <ele>1030.209</ele>
        <time>2020-08-19T09:36:41Z</time>
      </trkpt>
      <trkpt lat="45.27194" lon="3.74429">
        <ele>1030.209</ele>
        <time>2020-08-19T09:36:41Z</time>
      </trkpt>
      <trkpt lat="45.27194" lon="3.74429">
        <ele>1030.442</ele>
        <time>2020-08-19T09:36:42Z</time>
      </trkpt>
      <trkpt lat="45.27193" lon="3.74429">
        <ele>1030.669</ele>
        <time>2020-08-19T09:36:43Z</time>
      </trkpt>
      <trkpt lat="45.27193" lon="3.74428">
        <ele>1030.924</ele>
        <time>2020-08-19T09:36:44Z</time>
      </trkpt>
      <trkpt lat="45.27193" lon="3.74428">
        <ele>1030.881</ele>
        <time>2020-08-19T09:36:45Z</time>
      </trkpt>
      <trkpt lat="45.27193" lon="3.74428">
        <ele>1031.014</ele>
        <time>2020-08-19T09:37:50Z</time>
      </trkpt>
      <trkpt lat="45.27193" lon="3.74423">
        <ele>1031.036</ele>
        <time>2020-08-19T09:37:51Z</time>
      </trkpt>
      <trkpt lat="45.27193" lon="3.74423">
        <ele>1031.036</ele>
        <time>2020-08-19T09:37:51Z</time>
      </trkpt>
      <trkpt lat="45.27193" lon="3.74423">
        <ele>1031.022</ele>
        <time>2020-08-19T09:37:52Z</time>
      </trkpt>
      <trkpt lat="45.27193" lon="3.74423">
        <ele>1031.041</ele>
        <time>2020-08-19T09:37:53Z</time>
      </trkpt>
      <trkpt lat="45.27193" lon="3.74423">
        <ele>1031.041</ele>
        <time>2020-08-19T09:37:53Z</time>
      </trkpt>
      <trkpt lat="45.27192" lon="3.74422">
        <ele>1031.097</ele>
        <time>2020-08-19T09:37:54Z</time>
      </trkpt>
      <trkpt lat="45.27192" lon="3.74422">
        <ele>1031.069</ele>
        <time>2020-08-19T09:37:55Z</time>
      </trkpt>
      <trkpt lat="45.27192" lon="3.74422">
        <ele>1031.069</ele>
        <time>2020-08-19T09:37:55Z</time>
      </trkpt>
      <trkpt lat="45.27192" lon="3.74423">
        <ele>1031.514</ele>
        <time>2020-08-19T09:37:56Z</time>
      </trkpt>
      <trkpt lat="45.27192" lon="3.74422">
        <ele>1030.827</ele>
        <time>2020-08-19T09:37:57Z</time>
      </trkpt>
      <trkpt lat="45.27192" lon="3.74422">
        <ele>1030.941</ele>
        <time>2020-08-19T09:37:58Z</time>
      </trkpt>
      <trkpt lat="45.27192" lon="3.74422">
        <ele>1030.51</ele>
        <time>2020-08-19T09:38:00Z</time>
      </trkpt>
      <trkpt lat="45.27193" lon="3.74417">
        <ele>1030.121</ele>
        <time>2020-08-19T09:38:01Z</time>
      </trkpt>
      <trkpt lat="45.27194" lon="3.74416">
        <ele>1029.811</ele>
        <time>2020-08-19T09:38:02Z</time>
      </trkpt>
      <trkpt lat="45.27194" lon="3.74416">
        <ele>1030.167</ele>
        <time>2020-08-19T09:38:03Z</time>
      </trkpt>
      <trkpt lat="45.27191" lon="3.74415">
        <ele>1030.465</ele>
        <time>2020-08-19T09:38:11Z</time>
      </trkpt>
      <trkpt lat="45.2719" lon="3.74415">
        <ele>1031.413</ele>
        <time>2020-08-19T09:38:12Z</time>
      </trkpt>
      <trkpt lat="45.27189" lon="3.74415">
        <ele>1032.183</ele>
        <time>2020-08-19T09:38:13Z</time>
      </trkpt>
      <trkpt lat="45.27188" lon="3.74414">
        <ele>1031.49</ele>
        <time>2020-08-19T09:38:14Z</time>
      </trkpt>
      <trkpt lat="45.27183" lon="3.74411">
        <ele>1031.332</ele>
        <time>2020-08-19T09:38:17Z</time>
      </trkpt>
      <trkpt lat="45.27177" lon="3.74403">
        <ele>1032.539</ele>
        <time>2020-08-19T09:38:23Z</time>
      </trkpt>
      <trkpt lat="45.27175" lon="3.744">
        <ele>1032.907</ele>
        <time>2020-08-19T09:38:25Z</time>
      </trkpt>
      <trkpt lat="45.27169" lon="3.74378">
        <ele>1033.143</ele>
        <time>2020-08-19T09:38:41Z</time>
      </trkpt>
      <trkpt lat="45.27168" lon="3.74359">
        <ele>1032.656</ele>
        <time>2020-08-19T09:38:55Z</time>
      </trkpt>
      <trkpt lat="45.27169" lon="3.74357">
        <ele>1032.687</ele>
        <time>2020-08-19T09:38:57Z</time>
      </trkpt>
      <trkpt lat="45.27171" lon="3.74352">
        <ele>1033.237</ele>
        <time>2020-08-19T09:39:00Z</time>
      </trkpt>
      <trkpt lat="45.27178" lon="3.74338">
        <ele>1031.528</ele>
        <time>2020-08-19T09:39:12Z</time>
      </trkpt>
      <trkpt lat="45.27178" lon="3.74329">
        <ele>1031.657</ele>
        <time>2020-08-19T09:39:17Z</time>
      </trkpt>
      <trkpt lat="45.27178" lon="3.74324">
        <ele>1031.838</ele>
        <time>2020-08-19T09:39:22Z</time>
      </trkpt>
      <trkpt lat="45.27162" lon="3.74257">
        <ele>1031.887</ele>
        <time>2020-08-19T09:40:02Z</time>
      </trkpt>
      <trkpt lat="45.27161" lon="3.74252">
        <ele>1032.116</ele>
        <time>2020-08-19T09:40:06Z</time>
      </trkpt>
      <trkpt lat="45.27157" lon="3.74229">
        <ele>1032.758</ele>
        <time>2020-08-19T09:40:24Z</time>
      </trkpt>
      <trkpt lat="45.27158" lon="3.74227">
        <ele>1031.434</ele>
        <time>2020-08-19T09:40:26Z</time>
      </trkpt>
      <trkpt lat="45.27158" lon="3.74227">
        <ele>1031.434</ele>
        <time>2020-08-19T09:40:26Z</time>
      </trkpt>
      <trkpt lat="45.27158" lon="3.74226">
        <ele>1031.182</ele>
        <time>2020-08-19T09:40:27Z</time>
      </trkpt>
      <trkpt lat="45.27156" lon="3.74223">
        <ele>1031.099</ele>
        <time>2020-08-19T09:40:30Z</time>
      </trkpt>
      <trkpt lat="45.27154" lon="3.74218">
        <ele>1030.691</ele>
        <time>2020-08-19T09:40:32Z</time>
      </trkpt>
      <trkpt lat="45.2715" lon="3.74186">
        <ele>1028.66</ele>
        <time>2020-08-19T09:40:48Z</time>
      </trkpt>
      <trkpt lat="45.27128" lon="3.74074">
        <ele>1030.673</ele>
        <time>2020-08-19T09:41:51Z</time>
      </trkpt>
      <trkpt lat="45.27125" lon="3.74067">
        <ele>1031.169</ele>
        <time>2020-08-19T09:41:55Z</time>
      </trkpt>
      <trkpt lat="45.27098" lon="3.73964">
        <ele>1033.165</ele>
        <time>2020-08-19T09:42:59Z</time>
      </trkpt>
      <trkpt lat="45.27095" lon="3.73952">
        <ele>1035.39</ele>
        <time>2020-08-19T09:43:07Z</time>
      </trkpt>
      <trkpt lat="45.27093" lon="3.73936">
        <ele>1036.094</ele>
        <time>2020-08-19T09:43:18Z</time>
      </trkpt>
      <trkpt lat="45.27094" lon="3.73915">
        <ele>1035.703</ele>
        <time>2020-08-19T09:43:33Z</time>
      </trkpt>
      <trkpt lat="45.27093" lon="3.73913">
        <ele>1036.149</ele>
        <time>2020-08-19T09:43:36Z</time>
      </trkpt>
      <trkpt lat="45.27091" lon="3.73908">
        <ele>1035.956</ele>
        <time>2020-08-19T09:43:39Z</time>
      </trkpt>
      <trkpt lat="45.27063" lon="3.73848">
        <ele>1037.957</ele>
        <time>2020-08-19T09:44:17Z</time>
      </trkpt>
      <trkpt lat="45.27051" lon="3.73834">
        <ele>1040.583</ele>
        <time>2020-08-19T09:44:30Z</time>
      </trkpt>
      <trkpt lat="45.26991" lon="3.73784">
        <ele>1042.617</ele>
        <time>2020-08-19T09:45:29Z</time>
      </trkpt>
      <trkpt lat="45.26967" lon="3.73769">
        <ele>1044.661</ele>
        <time>2020-08-19T09:45:51Z</time>
      </trkpt>
      <trkpt lat="45.26927" lon="3.73747">
        <ele>1044.905</ele>
        <time>2020-08-19T09:46:26Z</time>
      </trkpt>
      <trkpt lat="45.26923" lon="3.73744">
        <ele>1044.733</ele>
        <time>2020-08-19T09:46:30Z</time>
      </trkpt>
      <trkpt lat="45.26912" lon="3.73736">
        <ele>1046.61</ele>
        <time>2020-08-19T09:46:41Z</time>
      </trkpt>
      <trkpt lat="45.26894" lon="3.73711">
        <ele>1048.37</ele>
        <time>2020-08-19T09:47:00Z</time>
      </trkpt>
      <trkpt lat="45.26882" lon="3.73683">
        <ele>1048.848</ele>
        <time>2020-08-19T09:47:18Z</time>
      </trkpt>
      <trkpt lat="45.26879" lon="3.73668">
        <ele>1049.218</ele>
        <time>2020-08-19T09:47:30Z</time>
      </trkpt>
      <trkpt lat="45.26877" lon="3.73664">
        <ele>1049.274</ele>
        <time>2020-08-19T09:47:33Z</time>
      </trkpt>
      <trkpt lat="45.26875" lon="3.73656">
        <ele>1049.264</ele>
        <time>2020-08-19T09:47:38Z</time>
      </trkpt>
      <trkpt lat="45.26873" lon="3.73653">
        <ele>1049.333</ele>
        <time>2020-08-19T09:47:41Z</time>
      </trkpt>
      <trkpt lat="45.26872" lon="3.73647">
        <ele>1049.772</ele>
        <time>2020-08-19T09:47:45Z</time>
      </trkpt>
      <trkpt lat="45.26871" lon="3.73635">
        <ele>1052.208</ele>
        <time>2020-08-19T09:47:56Z</time>
      </trkpt>
      <trkpt lat="45.26871" lon="3.73634">
        <ele>1052.816</ele>
        <time>2020-08-19T09:47:57Z</time>
      </trkpt>
      <trkpt lat="45.26875" lon="3.73626">
        <ele>1054.907</ele>
        <time>2020-08-19T09:48:04Z</time>
      </trkpt>
      <trkpt lat="45.2688" lon="3.73617">
        <ele>1057.166</ele>
        <time>2020-08-19T09:48:12Z</time>
      </trkpt>
      <trkpt lat="45.26893" lon="3.73593">
        <ele>1059.269</ele>
        <time>2020-08-19T09:48:26Z</time>
      </trkpt>
      <trkpt lat="45.26895" lon="3.7359">
        <ele>1059.665</ele>
        <time>2020-08-19T09:48:28Z</time>
      </trkpt>
      <trkpt lat="45.26899" lon="3.73585">
        <ele>1061.254</ele>
        <time>2020-08-19T09:48:31Z</time>
      </trkpt>
      <trkpt lat="45.26912" lon="3.73564">
        <ele>1062.209</ele>
        <time>2020-08-19T09:48:45Z</time>
      </trkpt>
      <trkpt lat="45.26914" lon="3.73561">
        <ele>1062.147</ele>
        <time>2020-08-19T09:48:47Z</time>
      </trkpt>
      <trkpt lat="45.26919" lon="3.73532">
        <ele>1062.527</ele>
        <time>2020-08-19T09:49:02Z</time>
      </trkpt>
      <trkpt lat="45.26917" lon="3.73522">
        <ele>1061.767</ele>
        <time>2020-08-19T09:49:07Z</time>
      </trkpt>
      <trkpt lat="45.26886" lon="3.73402">
        <ele>1061.24</ele>
        <time>2020-08-19T09:50:16Z</time>
      </trkpt>
      <trkpt lat="45.26878" lon="3.73359">
        <ele>1060.807</ele>
        <time>2020-08-19T09:50:40Z</time>
      </trkpt>
      <trkpt lat="45.26875" lon="3.73354">
        <ele>1060.815</ele>
        <time>2020-08-19T09:50:43Z</time>
      </trkpt>
      <trkpt lat="45.26853" lon="3.7329">
        <ele>1061.435</ele>
        <time>2020-08-19T09:51:21Z</time>
      </trkpt>
      <trkpt lat="45.26837" lon="3.73248">
        <ele>1062.538</ele>
        <time>2020-08-19T09:51:45Z</time>
      </trkpt>
      <trkpt lat="45.26816" lon="3.73186">
        <ele>1060.668</ele>
        <time>2020-08-19T09:52:19Z</time>
      </trkpt>
      <trkpt lat="45.26812" lon="3.73178">
        <ele>1060.528</ele>
        <time>2020-08-19T09:52:24Z</time>
      </trkpt>
      <trkpt lat="45.26798" lon="3.73148">
        <ele>1059.85</ele>
        <time>2020-08-19T09:52:43Z</time>
      </trkpt>
      <trkpt lat="45.26754" lon="3.73077">
        <ele>1058.557</ele>
        <time>2020-08-19T09:53:34Z</time>
      </trkpt>
      <trkpt lat="45.2675" lon="3.73064">
        <ele>1057.165</ele>
        <time>2020-08-19T09:53:42Z</time>
      </trkpt>
      <trkpt lat="45.26751" lon="3.73052">
        <ele>1056.347</ele>
        <time>2020-08-19T09:53:49Z</time>
      </trkpt>
      <trkpt lat="45.26752" lon="3.73047">
        <ele>1051.39</ele>
        <time>2020-08-19T09:53:51Z</time>
      </trkpt>
      <trkpt lat="45.26756" lon="3.73023">
        <ele>1048.884</ele>
        <time>2020-08-19T09:54:01Z</time>
      </trkpt>
      <trkpt lat="45.26761" lon="3.73003">
        <ele>1048.778</ele>
        <time>2020-08-19T09:54:11Z</time>
      </trkpt>
      <trkpt lat="45.26762" lon="3.72949">
        <ele>1046.386</ele>
        <time>2020-08-19T09:54:37Z</time>
      </trkpt>
      <trkpt lat="45.26769" lon="3.72898">
        <ele>1046.166</ele>
        <time>2020-08-19T09:55:03Z</time>
      </trkpt>
      <trkpt lat="45.26782" lon="3.72865">
        <ele>1048.303</ele>
        <time>2020-08-19T09:55:24Z</time>
      </trkpt>
      <trkpt lat="45.26801" lon="3.72827">
        <ele>1050.367</ele>
        <time>2020-08-19T09:55:49Z</time>
      </trkpt>
      <trkpt lat="45.26826" lon="3.72779">
        <ele>1052.545</ele>
        <time>2020-08-19T09:56:20Z</time>
      </trkpt>
      <trkpt lat="45.26841" lon="3.7275">
        <ele>1054.592</ele>
        <time>2020-08-19T09:56:39Z</time>
      </trkpt>
      <trkpt lat="45.26846" lon="3.72739">
        <ele>1054.385</ele>
        <time>2020-08-19T09:56:48Z</time>
      </trkpt>
      <trkpt lat="45.26846" lon="3.72739">
        <ele>1054.09</ele>
        <time>2020-08-19T09:56:49Z</time>
      </trkpt>
      <trkpt lat="45.26846" lon="3.7274">
        <ele>1053.947</ele>
        <time>2020-08-19T09:56:50Z</time>
      </trkpt>
      <trkpt lat="45.26846" lon="3.72741">
        <ele>1053.424</ele>
        <time>2020-08-19T09:56:53Z</time>
      </trkpt>
      <trkpt lat="45.26846" lon="3.72741">
        <ele>1053.424</ele>
        <time>2020-08-19T09:56:53Z</time>
      </trkpt>
      <trkpt lat="45.26846" lon="3.72741">
        <ele>1053.024</ele>
        <time>2020-08-19T09:56:54Z</time>
      </trkpt>
      <trkpt lat="45.26845" lon="3.72742">
        <ele>1052.989</ele>
        <time>2020-08-19T09:56:55Z</time>
      </trkpt>
      <trkpt lat="45.26845" lon="3.72743">
        <ele>1053.056</ele>
        <time>2020-08-19T09:56:57Z</time>
      </trkpt>
      <trkpt lat="45.26846" lon="3.72743">
        <ele>1053.021</ele>
        <time>2020-08-19T09:56:58Z</time>
      </trkpt>
      <trkpt lat="45.26846" lon="3.72743">
        <ele>1053.021</ele>
        <time>2020-08-19T09:56:58Z</time>
      </trkpt>
      <trkpt lat="45.26846" lon="3.72743">
        <ele>1052.853</ele>
        <time>2020-08-19T09:56:59Z</time>
      </trkpt>
      <trkpt lat="45.26846" lon="3.72743">
        <ele>1052.829</ele>
        <time>2020-08-19T09:57:00Z</time>
      </trkpt>
      <trkpt lat="45.26846" lon="3.72743">
        <ele>1053.009</ele>
        <time>2020-08-19T09:57:01Z</time>
      </trkpt>
      <trkpt lat="45.26846" lon="3.72743">
        <ele>1053.099</ele>
        <time>2020-08-19T09:57:02Z</time>
      </trkpt>
      <trkpt lat="45.26846" lon="3.72743">
        <ele>1053.45</ele>
        <time>2020-08-19T09:57:08Z</time>
      </trkpt>
      <trkpt lat="45.26846" lon="3.72743">
        <ele>1053.499</ele>
        <time>2020-08-19T09:57:09Z</time>
      </trkpt>
      <trkpt lat="45.26846" lon="3.72743">
        <ele>1053.553</ele>
        <time>2020-08-19T09:57:10Z</time>
      </trkpt>
      <trkpt lat="45.26845" lon="3.72741">
        <ele>1053.861</ele>
        <time>2020-08-19T09:57:11Z</time>
      </trkpt>
      <trkpt lat="45.26846" lon="3.72736">
        <ele>1053.62</ele>
        <time>2020-08-19T09:57:14Z</time>
      </trkpt>
      <trkpt lat="45.2685" lon="3.72728">
        <ele>1055.854</ele>
        <time>2020-08-19T09:57:20Z</time>
      </trkpt>
      <trkpt lat="45.26857" lon="3.72707">
        <ele>1057.873</ele>
        <time>2020-08-19T09:57:36Z</time>
      </trkpt>
      <trkpt lat="45.26859" lon="3.72703">
        <ele>1057.859</ele>
        <time>2020-08-19T09:57:40Z</time>
      </trkpt>
      <trkpt lat="45.26864" lon="3.72693">
        <ele>1059.649</ele>
        <time>2020-08-19T09:57:47Z</time>
      </trkpt>
      <trkpt lat="45.26869" lon="3.72671">
        <ele>1059.558</ele>
        <time>2020-08-19T09:57:59Z</time>
      </trkpt>
      <trkpt lat="45.26869" lon="3.72657">
        <ele>1060.173</ele>
        <time>2020-08-19T09:58:07Z</time>
      </trkpt>
      <trkpt lat="45.26866" lon="3.72598">
        <ele>1060.492</ele>
        <time>2020-08-19T09:58:39Z</time>
      </trkpt>
      <trkpt lat="45.26869" lon="3.72563">
        <ele>1062.723</ele>
        <time>2020-08-19T09:59:01Z</time>
      </trkpt>
      <trkpt lat="45.26869" lon="3.72559">
        <ele>1062.97</ele>
        <time>2020-08-19T09:59:04Z</time>
      </trkpt>
      <trkpt lat="45.26875" lon="3.72514">
        <ele>1065.105</ele>
        <time>2020-08-19T09:59:35Z</time>
      </trkpt>
      <trkpt lat="45.26875" lon="3.72504">
        <ele>1067.343</ele>
        <time>2020-08-19T09:59:42Z</time>
      </trkpt>
      <trkpt lat="45.26875" lon="3.72489">
        <ele>1068.899</ele>
        <time>2020-08-19T09:59:55Z</time>
      </trkpt>
      <trkpt lat="45.26875" lon="3.72489">
        <ele>1068.979</ele>
        <time>2020-08-19T09:59:56Z</time>
      </trkpt>
      <trkpt lat="45.26874" lon="3.72486">
        <ele>1069.52</ele>
        <time>2020-08-19T09:59:59Z</time>
      </trkpt>
      <trkpt lat="45.26871" lon="3.72467">
        <ele>1071.646</ele>
        <time>2020-08-19T10:00:15Z</time>
      </trkpt>
      <trkpt lat="45.26866" lon="3.72462">
        <ele>1072.265</ele>
        <time>2020-08-19T10:00:22Z</time>
      </trkpt>
      <trkpt lat="45.26857" lon="3.72453">
        <ele>1073.921</ele>
        <time>2020-08-19T10:00:38Z</time>
      </trkpt>
      <trkpt lat="45.26849" lon="3.72442">
        <ele>1076.111</ele>
        <time>2020-08-19T10:00:52Z</time>
      </trkpt>
      <trkpt lat="45.26836" lon="3.72426">
        <ele>1076.679</ele>
        <time>2020-08-19T10:01:08Z</time>
      </trkpt>
      <trkpt lat="45.26832" lon="3.72417">
        <ele>1075.581</ele>
        <time>2020-08-19T10:01:18Z</time>
      </trkpt>
      <trkpt lat="45.26832" lon="3.72417">
        <ele>1075.253</ele>
        <time>2020-08-19T10:01:19Z</time>
      </trkpt>
      <trkpt lat="45.26832" lon="3.72416">
        <ele>1075.235</ele>
        <time>2020-08-19T10:01:20Z</time>
      </trkpt>
      <trkpt lat="45.26831" lon="3.72416">
        <ele>1074.798</ele>
        <time>2020-08-19T10:01:21Z</time>
      </trkpt>
      <trkpt lat="45.2683" lon="3.72415">
        <ele>1074.803</ele>
        <time>2020-08-19T10:01:24Z</time>
      </trkpt>
      <trkpt lat="45.26829" lon="3.72415">
        <ele>1074.811</ele>
        <time>2020-08-19T10:01:25Z</time>
      </trkpt>
      <trkpt lat="45.26829" lon="3.72415">
        <ele>1074.811</ele>
        <time>2020-08-19T10:01:25Z</time>
      </trkpt>
      <trkpt lat="45.26829" lon="3.72415">
        <ele>1075.16</ele>
        <time>2020-08-19T10:01:26Z</time>
      </trkpt>
      <trkpt lat="45.26829" lon="3.72415">
        <ele>1075.16</ele>
        <time>2020-08-19T10:01:26Z</time>
      </trkpt>
      <trkpt lat="45.26829" lon="3.72415">
        <ele>1075.117</ele>
        <time>2020-08-19T10:01:27Z</time>
      </trkpt>
      <trkpt lat="45.26829" lon="3.72415">
        <ele>1074.606</ele>
        <time>2020-08-19T10:01:28Z</time>
      </trkpt>
      <trkpt lat="45.26829" lon="3.72415">
        <ele>1074.544</ele>
        <time>2020-08-19T10:01:29Z</time>
      </trkpt>
      <trkpt lat="45.26829" lon="3.72415">
        <ele>1074.627</ele>
        <time>2020-08-19T10:01:34Z</time>
      </trkpt>
      <trkpt lat="45.26828" lon="3.72415">
        <ele>1074.411</ele>
        <time>2020-08-19T10:01:35Z</time>
      </trkpt>
      <trkpt lat="45.26828" lon="3.72415">
        <ele>1074.411</ele>
        <time>2020-08-19T10:01:35Z</time>
      </trkpt>
      <trkpt lat="45.26828" lon="3.72415">
        <ele>1074.312</ele>
        <time>2020-08-19T10:01:36Z</time>
      </trkpt>
      <trkpt lat="45.26828" lon="3.72415">
        <ele>1074.342</ele>
        <time>2020-08-19T10:01:49Z</time>
      </trkpt>
      <trkpt lat="45.26829" lon="3.72414">
        <ele>1074.631</ele>
        <time>2020-08-19T10:01:50Z</time>
      </trkpt>
      <trkpt lat="45.26829" lon="3.72414">
        <ele>1074.802</ele>
        <time>2020-08-19T10:01:51Z</time>
      </trkpt>
      <trkpt lat="45.26829" lon="3.72414">
        <ele>1074.855</ele>
        <time>2020-08-19T10:01:52Z</time>
      </trkpt>
      <trkpt lat="45.26829" lon="3.72414">
        <ele>1074.987</ele>
        <time>2020-08-19T10:01:55Z</time>
      </trkpt>
      <trkpt lat="45.26829" lon="3.72411">
        <ele>1074.596</ele>
        <time>2020-08-19T10:01:56Z</time>
      </trkpt>
      <trkpt lat="45.2683" lon="3.72411">
        <ele>1075.111</ele>
        <time>2020-08-19T10:01:58Z</time>
      </trkpt>
      <trkpt lat="45.2683" lon="3.72411">
        <ele>1075.111</ele>
        <time>2020-08-19T10:01:58Z</time>
      </trkpt>
      <trkpt lat="45.2683" lon="3.72411">
        <ele>1074.976</ele>
        <time>2020-08-19T10:01:59Z</time>
      </trkpt>
      <trkpt lat="45.2683" lon="3.72411">
        <ele>1074.976</ele>
        <time>2020-08-19T10:01:59Z</time>
      </trkpt>
      <trkpt lat="45.2683" lon="3.72411">
        <ele>1075.434</ele>
        <time>2020-08-19T10:02:00Z</time>
      </trkpt>
      <trkpt lat="45.2683" lon="3.72411">
        <ele>1076.161</ele>
        <time>2020-08-19T10:02:01Z</time>
      </trkpt>
      <trkpt lat="45.2683" lon="3.72411">
        <ele>1076.495</ele>
        <time>2020-08-19T10:02:10Z</time>
      </trkpt>
      <trkpt lat="45.26828" lon="3.72412">
        <ele>1076.537</ele>
        <time>2020-08-19T10:02:11Z</time>
      </trkpt>
      <trkpt lat="45.26828" lon="3.72412">
        <ele>1076.603</ele>
        <time>2020-08-19T10:02:12Z</time>
      </trkpt>
      <trkpt lat="45.26828" lon="3.72412">
        <ele>1076.932</ele>
        <time>2020-08-19T10:02:13Z</time>
      </trkpt>
      <trkpt lat="45.26828" lon="3.72412">
        <ele>1077.074</ele>
        <time>2020-08-19T10:02:14Z</time>
      </trkpt>
      <trkpt lat="45.26828" lon="3.72412">
        <ele>1076.819</ele>
        <time>2020-08-19T10:02:15Z</time>
      </trkpt>
      <trkpt lat="45.26828" lon="3.72412">
        <ele>1076.845</ele>
        <time>2020-08-19T10:02:21Z</time>
      </trkpt>
      <trkpt lat="45.26828" lon="3.72412">
        <ele>1077.038</ele>
        <time>2020-08-19T10:02:22Z</time>
      </trkpt>
      <trkpt lat="45.26825" lon="3.72413">
        <ele>1077.667</ele>
        <time>2020-08-19T10:02:29Z</time>
      </trkpt>
      <trkpt lat="45.26825" lon="3.72413">
        <ele>1077.653</ele>
        <time>2020-08-19T10:02:30Z</time>
      </trkpt>
      <trkpt lat="45.26821" lon="3.72414">
        <ele>1077.61</ele>
        <time>2020-08-19T10:02:33Z</time>
      </trkpt>
      <trkpt lat="45.26818" lon="3.72416">
        <ele>1078.088</ele>
        <time>2020-08-19T10:02:35Z</time>
      </trkpt>
      <trkpt lat="45.26815" lon="3.72422">
        <ele>1080.325</ele>
        <time>2020-08-19T10:02:40Z</time>
      </trkpt>
      <trkpt lat="45.26814" lon="3.72422">
        <ele>1080.472</ele>
        <time>2020-08-19T10:02:41Z</time>
      </trkpt>
      <trkpt lat="45.26811" lon="3.72422">
        <ele>1080.429</ele>
        <time>2020-08-19T10:02:44Z</time>
      </trkpt>
      <trkpt lat="45.26805" lon="3.7242">
        <ele>1080.197</ele>
        <time>2020-08-19T10:02:50Z</time>
      </trkpt>
      <trkpt lat="45.26804" lon="3.7242">
        <ele>1080.613</ele>
        <time>2020-08-19T10:02:50Z</time>
      </trkpt>
      <trkpt lat="45.26801" lon="3.72419">
        <ele>1080.658</ele>
        <time>2020-08-19T10:02:54Z</time>
      </trkpt>
      <trkpt lat="45.268" lon="3.72419">
        <ele>1080.318</ele>
        <time>2020-08-19T10:02:55Z</time>
      </trkpt>
      <trkpt lat="45.26797" lon="3.72416">
        <ele>1079.717</ele>
        <time>2020-08-19T10:02:59Z</time>
      </trkpt>
      <trkpt lat="45.26783" lon="3.72413">
        <ele>1080.408</ele>
        <time>2020-08-19T10:03:13Z</time>
      </trkpt>
      <trkpt lat="45.26782" lon="3.72413">
        <ele>1080.243</ele>
        <time>2020-08-19T10:03:14Z</time>
      </trkpt>
      <trkpt lat="45.26775" lon="3.7241">
        <ele>1079.868</ele>
        <time>2020-08-19T10:03:18Z</time>
      </trkpt>
      <trkpt lat="45.26748" lon="3.72402">
        <ele>1081.218</ele>
        <time>2020-08-19T10:03:34Z</time>
      </trkpt>
      <trkpt lat="45.26747" lon="3.72402">
        <ele>1081.46</ele>
        <time>2020-08-19T10:03:36Z</time>
      </trkpt>
      <trkpt lat="45.26747" lon="3.72402">
        <ele>1081.46</ele>
        <time>2020-08-19T10:03:36Z</time>
      </trkpt>
      <trkpt lat="45.26746" lon="3.72402">
        <ele>1081.502</ele>
        <time>2020-08-19T10:03:37Z</time>
      </trkpt>
      <trkpt lat="45.26746" lon="3.72402">
        <ele>1081.509</ele>
        <time>2020-08-19T10:03:38Z</time>
      </trkpt>
      <trkpt lat="45.26746" lon="3.72402">
        <ele>1081.489</ele>
        <time>2020-08-19T10:03:49Z</time>
      </trkpt>
      <trkpt lat="45.26745" lon="3.72403">
        <ele>1081.303</ele>
        <time>2020-08-19T10:03:50Z</time>
      </trkpt>
      <trkpt lat="45.26745" lon="3.72402">
        <ele>1081.613</ele>
        <time>2020-08-19T10:03:51Z</time>
      </trkpt>
      <trkpt lat="45.26745" lon="3.72401">
        <ele>1081.056</ele>
        <time>2020-08-19T10:03:52Z</time>
      </trkpt>
      <trkpt lat="45.2674" lon="3.72397">
        <ele>1079.198</ele>
        <time>2020-08-19T10:03:57Z</time>
      </trkpt>
      <trkpt lat="45.26738" lon="3.72397">
        <ele>1079.029</ele>
        <time>2020-08-19T10:03:59Z</time>
      </trkpt>
      <trkpt lat="45.26731" lon="3.7239">
        <ele>1078.763</ele>
        <time>2020-08-19T10:04:03Z</time>
      </trkpt>
      <trkpt lat="45.2673" lon="3.72388">
        <ele>1079.04</ele>
        <time>2020-08-19T10:04:04Z</time>
      </trkpt>
      <trkpt lat="45.26724" lon="3.72387">
        <ele>1079.426</ele>
        <time>2020-08-19T10:04:07Z</time>
      </trkpt>
      <trkpt lat="45.26717" lon="3.72391">
        <ele>1079.297</ele>
        <time>2020-08-19T10:04:09Z</time>
      </trkpt>
      <trkpt lat="45.26715" lon="3.72397">
        <ele>1079.175</ele>
        <time>2020-08-19T10:04:11Z</time>
      </trkpt>
      <trkpt lat="45.26714" lon="3.72401">
        <ele>1079.4</ele>
        <time>2020-08-19T10:04:12Z</time>
      </trkpt>
      <trkpt lat="45.26714" lon="3.72401">
        <ele>1079.506</ele>
        <time>2020-08-19T10:04:14Z</time>
      </trkpt>
      <trkpt lat="45.26711" lon="3.72398">
        <ele>1079.949</ele>
        <time>2020-08-19T10:04:18Z</time>
      </trkpt>
      <trkpt lat="45.26705" lon="3.72399">
        <ele>1081.081</ele>
        <time>2020-08-19T10:04:24Z</time>
      </trkpt>
      <trkpt lat="45.26696" lon="3.724">
        <ele>1081.415</ele>
        <time>2020-08-19T10:04:32Z</time>
      </trkpt>
      <trkpt lat="45.26693" lon="3.72399">
        <ele>1080.096</ele>
        <time>2020-08-19T10:04:37Z</time>
      </trkpt>
      <trkpt lat="45.26688" lon="3.72402">
        <ele>1080.316</ele>
        <time>2020-08-19T10:04:42Z</time>
      </trkpt>
      <trkpt lat="45.26685" lon="3.72401">
        <ele>1080.284</ele>
        <time>2020-08-19T10:04:45Z</time>
      </trkpt>
      <trkpt lat="45.26681" lon="3.72402">
        <ele>1080.061</ele>
        <time>2020-08-19T10:04:48Z</time>
      </trkpt>
      <trkpt lat="45.26668" lon="3.72407">
        <ele>1080.304</ele>
        <time>2020-08-19T10:04:57Z</time>
      </trkpt>
      <trkpt lat="45.26665" lon="3.72407">
        <ele>1080.377</ele>
        <time>2020-08-19T10:05:00Z</time>
      </trkpt>
      <trkpt lat="45.26662" lon="3.72406">
        <ele>1080.538</ele>
        <time>2020-08-19T10:05:02Z</time>
      </trkpt>
      <trkpt lat="45.26658" lon="3.72404">
        <ele>1081.109</ele>
        <time>2020-08-19T10:05:05Z</time>
      </trkpt>
      <trkpt lat="45.26652" lon="3.72405">
        <ele>1081.25</ele>
        <time>2020-08-19T10:05:10Z</time>
      </trkpt>
      <trkpt lat="45.26649" lon="3.72405">
        <ele>1081.467</ele>
        <time>2020-08-19T10:05:13Z</time>
      </trkpt>
      <trkpt lat="45.26646" lon="3.72406">
        <ele>1080.747</ele>
        <time>2020-08-19T10:05:15Z</time>
      </trkpt>
      <trkpt lat="45.26643" lon="3.72409">
        <ele>1080.631</ele>
        <time>2020-08-19T10:05:16Z</time>
      </trkpt>
      <trkpt lat="45.26641" lon="3.7241">
        <ele>1079.471</ele>
        <time>2020-08-19T10:05:18Z</time>
      </trkpt>
      <trkpt lat="45.26639" lon="3.72405">
        <ele>1079.998</ele>
        <time>2020-08-19T10:05:21Z</time>
      </trkpt>
      <trkpt lat="45.26635" lon="3.72404">
        <ele>1080.295</ele>
        <time>2020-08-19T10:05:23Z</time>
      </trkpt>
      <trkpt lat="45.26632" lon="3.72406">
        <ele>1080.294</ele>
        <time>2020-08-19T10:05:25Z</time>
      </trkpt>
      <trkpt lat="45.26629" lon="3.7241">
        <ele>1080.378</ele>
        <time>2020-08-19T10:05:27Z</time>
      </trkpt>
      <trkpt lat="45.26626" lon="3.72403">
        <ele>1079.87</ele>
        <time>2020-08-19T10:05:31Z</time>
      </trkpt>
      <trkpt lat="45.26625" lon="3.72398">
        <ele>1079.734</ele>
        <time>2020-08-19T10:05:33Z</time>
      </trkpt>
      <trkpt lat="45.26625" lon="3.72397">
        <ele>1079.815</ele>
        <time>2020-08-19T10:05:34Z</time>
      </trkpt>
      <trkpt lat="45.26624" lon="3.72406">
        <ele>1079.706</ele>
        <time>2020-08-19T10:05:37Z</time>
      </trkpt>
      <trkpt lat="45.26624" lon="3.7241">
        <ele>1079.426</ele>
        <time>2020-08-19T10:05:39Z</time>
      </trkpt>
      <trkpt lat="45.26623" lon="3.72408">
        <ele>1079.361</ele>
        <time>2020-08-19T10:05:40Z</time>
      </trkpt>
      <trkpt lat="45.26619" lon="3.72406">
        <ele>1079.264</ele>
        <time>2020-08-19T10:05:43Z</time>
      </trkpt>
      <trkpt lat="45.26616" lon="3.72406">
        <ele>1079.657</ele>
        <time>2020-08-19T10:05:44Z</time>
      </trkpt>
      <trkpt lat="45.26612" lon="3.72409">
        <ele>1079.866</ele>
        <time>2020-08-19T10:05:47Z</time>
      </trkpt>
      <trkpt lat="45.26608" lon="3.72412">
        <ele>1079.991</ele>
        <time>2020-08-19T10:05:50Z</time>
      </trkpt>
      <trkpt lat="45.26606" lon="3.72408">
        <ele>1080.265</ele>
        <time>2020-08-19T10:05:53Z</time>
      </trkpt>
      <trkpt lat="45.26604" lon="3.72402">
        <ele>1079.805</ele>
        <time>2020-08-19T10:05:58Z</time>
      </trkpt>
      <trkpt lat="45.26601" lon="3.72404">
        <ele>1079.253</ele>
        <time>2020-08-19T10:06:01Z</time>
      </trkpt>
      <trkpt lat="45.26598" lon="3.72404">
        <ele>1079.062</ele>
        <time>2020-08-19T10:06:04Z</time>
      </trkpt>
      <trkpt lat="45.26581" lon="3.72414">
        <ele>1079.469</ele>
        <time>2020-08-19T10:06:17Z</time>
      </trkpt>
      <trkpt lat="45.26577" lon="3.72413">
        <ele>1079.201</ele>
        <time>2020-08-19T10:06:20Z</time>
      </trkpt>
      <trkpt lat="45.26573" lon="3.7241">
        <ele>1079.133</ele>
        <time>2020-08-19T10:06:23Z</time>
      </trkpt>
      <trkpt lat="45.26569" lon="3.72406">
        <ele>1080.302</ele>
        <time>2020-08-19T10:06:28Z</time>
      </trkpt>
      <trkpt lat="45.26566" lon="3.72406">
        <ele>1080.397</ele>
        <time>2020-08-19T10:06:31Z</time>
      </trkpt>
      <trkpt lat="45.26563" lon="3.72406">
        <ele>1080.806</ele>
        <time>2020-08-19T10:06:34Z</time>
      </trkpt>
      <trkpt lat="45.26559" lon="3.72408">
        <ele>1080.363</ele>
        <time>2020-08-19T10:06:37Z</time>
      </trkpt>
      <trkpt lat="45.26549" lon="3.7241">
        <ele>1080.717</ele>
        <time>2020-08-19T10:06:46Z</time>
      </trkpt>
      <trkpt lat="45.26547" lon="3.72407">
        <ele>1080.776</ele>
        <time>2020-08-19T10:06:49Z</time>
      </trkpt>
      <trkpt lat="45.26544" lon="3.72405">
        <ele>1080.734</ele>
        <time>2020-08-19T10:06:52Z</time>
      </trkpt>
      <trkpt lat="45.2654" lon="3.72407">
        <ele>1080.14</ele>
        <time>2020-08-19T10:06:55Z</time>
      </trkpt>
      <trkpt lat="45.26521" lon="3.72415">
        <ele>1079.302</ele>
        <time>2020-08-19T10:07:07Z</time>
      </trkpt>
      <trkpt lat="45.26517" lon="3.72411">
        <ele>1078.222</ele>
        <time>2020-08-19T10:07:10Z</time>
      </trkpt>
      <trkpt lat="45.26516" lon="3.72407">
        <ele>1078.076</ele>
        <time>2020-08-19T10:07:12Z</time>
      </trkpt>
      <trkpt lat="45.26514" lon="3.72406">
        <ele>1076.97</ele>
        <time>2020-08-19T10:07:16Z</time>
      </trkpt>
      <trkpt lat="45.26502" lon="3.724">
        <ele>1074.924</ele>
        <time>2020-08-19T10:07:27Z</time>
      </trkpt>
      <trkpt lat="45.265" lon="3.72397">
        <ele>1074.195</ele>
        <time>2020-08-19T10:07:30Z</time>
      </trkpt>
      <trkpt lat="45.26497" lon="3.72396">
        <ele>1073.511</ele>
        <time>2020-08-19T10:07:33Z</time>
      </trkpt>
      <trkpt lat="45.26492" lon="3.72396">
        <ele>1071.387</ele>
        <time>2020-08-19T10:07:39Z</time>
      </trkpt>
      <trkpt lat="45.26478" lon="3.72389">
        <ele>1069.073</ele>
        <time>2020-08-19T10:07:55Z</time>
      </trkpt>
      <trkpt lat="45.26477" lon="3.72389">
        <ele>1068.861</ele>
        <time>2020-08-19T10:07:56Z</time>
      </trkpt>
      <trkpt lat="45.2647" lon="3.72387">
        <ele>1067.135</ele>
        <time>2020-08-19T10:08:02Z</time>
      </trkpt>
      <trkpt lat="45.26467" lon="3.72387">
        <ele>1066.106</ele>
        <time>2020-08-19T10:08:05Z</time>
      </trkpt>
      <trkpt lat="45.26451" lon="3.7238">
        <ele>1063.937</ele>
        <time>2020-08-19T10:08:19Z</time>
      </trkpt>
      <trkpt lat="45.26438" lon="3.72375">
        <ele>1061.787</ele>
        <time>2020-08-19T10:08:32Z</time>
      </trkpt>
      <trkpt lat="45.26384" lon="3.72352">
        <ele>1062.236</ele>
        <time>2020-08-19T10:09:22Z</time>
      </trkpt>
      <trkpt lat="45.26381" lon="3.7235">
        <ele>1062.029</ele>
        <time>2020-08-19T10:09:25Z</time>
      </trkpt>
      <trkpt lat="45.26341" lon="3.72334">
        <ele>1062.516</ele>
        <time>2020-08-19T10:10:01Z</time>
      </trkpt>
      <trkpt lat="45.26338" lon="3.72333">
        <ele>1062.234</ele>
        <time>2020-08-19T10:10:04Z</time>
      </trkpt>
      <trkpt lat="45.2633" lon="3.72325">
        <ele>1061.944</ele>
        <time>2020-08-19T10:10:13Z</time>
      </trkpt>
      <trkpt lat="45.26322" lon="3.72318">
        <ele>1061.669</ele>
        <time>2020-08-19T10:10:21Z</time>
      </trkpt>
      <trkpt lat="45.26313" lon="3.72314">
        <ele>1062.167</ele>
        <time>2020-08-19T10:10:29Z</time>
      </trkpt>
      <trkpt lat="45.263" lon="3.72309">
        <ele>1063.457</ele>
        <time>2020-08-19T10:10:41Z</time>
      </trkpt>
      <trkpt lat="45.26296" lon="3.72307">
        <ele>1063.932</ele>
        <time>2020-08-19T10:10:44Z</time>
      </trkpt>
      <trkpt lat="45.26261" lon="3.72275">
        <ele>1063.857</ele>
        <time>2020-08-19T10:11:17Z</time>
      </trkpt>
      <trkpt lat="45.26258" lon="3.72273">
        <ele>1065.076</ele>
        <time>2020-08-19T10:11:20Z</time>
      </trkpt>
      <trkpt lat="45.26252" lon="3.72267">
        <ele>1064.478</ele>
        <time>2020-08-19T10:11:26Z</time>
      </trkpt>
      <trkpt lat="45.26213" lon="3.72243">
        <ele>1065.517</ele>
        <time>2020-08-19T10:12:03Z</time>
      </trkpt>
      <trkpt lat="45.26193" lon="3.72235">
        <ele>1065.767</ele>
        <time>2020-08-19T10:12:24Z</time>
      </trkpt>
      <trkpt lat="45.26192" lon="3.72234">
        <ele>1065.709</ele>
        <time>2020-08-19T10:12:25Z</time>
      </trkpt>
      <trkpt lat="45.26177" lon="3.7223">
        <ele>1064.92</ele>
        <time>2020-08-19T10:12:41Z</time>
      </trkpt>
      <trkpt lat="45.26172" lon="3.7223">
        <ele>1064.522</ele>
        <time>2020-08-19T10:12:46Z</time>
      </trkpt>
      <trkpt lat="45.26151" lon="3.72231">
        <ele>1064.534</ele>
        <time>2020-08-19T10:13:06Z</time>
      </trkpt>
      <trkpt lat="45.26144" lon="3.72231">
        <ele>1065.731</ele>
        <time>2020-08-19T10:13:12Z</time>
      </trkpt>
      <trkpt lat="45.26121" lon="3.72229">
        <ele>1063.333</ele>
        <time>2020-08-19T10:13:34Z</time>
      </trkpt>
      <trkpt lat="45.2611" lon="3.72229">
        <ele>1063.42</ele>
        <time>2020-08-19T10:13:48Z</time>
      </trkpt>
      <trkpt lat="45.2611" lon="3.72229">
        <ele>1063.342</ele>
        <time>2020-08-19T10:13:49Z</time>
      </trkpt>
      <trkpt lat="45.2611" lon="3.72229">
        <ele>1063.342</ele>
        <time>2020-08-19T10:13:49Z</time>
      </trkpt>
      <trkpt lat="45.26109" lon="3.72229">
        <ele>1063.375</ele>
        <time>2020-08-19T10:13:50Z</time>
      </trkpt>
      <trkpt lat="45.26108" lon="3.72229">
        <ele>1063.572</ele>
        <time>2020-08-19T10:13:52Z</time>
      </trkpt>
      <trkpt lat="45.26089" lon="3.72225">
        <ele>1063.866</ele>
        <time>2020-08-19T10:14:08Z</time>
      </trkpt>
      <trkpt lat="45.26088" lon="3.72226">
        <ele>1063.71</ele>
        <time>2020-08-19T10:14:09Z</time>
      </trkpt>
      <trkpt lat="45.26077" lon="3.72226">
        <ele>1063.149</ele>
        <time>2020-08-19T10:14:20Z</time>
      </trkpt>
      <trkpt lat="45.26069" lon="3.72227">
        <ele>1063.543</ele>
        <time>2020-08-19T10:14:27Z</time>
      </trkpt>
      <trkpt lat="45.2606" lon="3.72226">
        <ele>1064.66</ele>
        <time>2020-08-19T10:14:36Z</time>
      </trkpt>
      <trkpt lat="45.26049" lon="3.72226">
        <ele>1063.984</ele>
        <time>2020-08-19T10:14:47Z</time>
      </trkpt>
      <trkpt lat="45.2604" lon="3.72225">
        <ele>1063.936</ele>
        <time>2020-08-19T10:14:56Z</time>
      </trkpt>
      <trkpt lat="45.26017" lon="3.72216">
        <ele>1063.25</ele>
        <time>2020-08-19T10:15:21Z</time>
      </trkpt>
      <trkpt lat="45.26015" lon="3.72215">
        <ele>1063.52</ele>
        <time>2020-08-19T10:15:23Z</time>
      </trkpt>
      <trkpt lat="45.26" lon="3.72211">
        <ele>1063.122</ele>
        <time>2020-08-19T10:15:40Z</time>
      </trkpt>
      <trkpt lat="45.25999" lon="3.7221">
        <ele>1062.981</ele>
        <time>2020-08-19T10:15:42Z</time>
      </trkpt>
      <trkpt lat="45.25955" lon="3.72192">
        <ele>1063.094</ele>
        <time>2020-08-19T10:16:28Z</time>
      </trkpt>
      <trkpt lat="45.25955" lon="3.72192">
        <ele>1063.184</ele>
        <time>2020-08-19T10:16:29Z</time>
      </trkpt>
      <trkpt lat="45.25955" lon="3.72192">
        <ele>1063.085</ele>
        <time>2020-08-19T10:16:36Z</time>
      </trkpt>
      <trkpt lat="45.25955" lon="3.72192">
        <ele>1062.884</ele>
        <time>2020-08-19T10:16:37Z</time>
      </trkpt>
      <trkpt lat="45.25954" lon="3.72192">
        <ele>1062.576</ele>
        <time>2020-08-19T10:16:39Z</time>
      </trkpt>
      <trkpt lat="45.25953" lon="3.72191">
        <ele>1062.525</ele>
        <time>2020-08-19T10:16:40Z</time>
      </trkpt>
      <trkpt lat="45.25953" lon="3.72191">
        <ele>1062.394</ele>
        <time>2020-08-19T10:16:42Z</time>
      </trkpt>
      <trkpt lat="45.25953" lon="3.72191">
        <ele>1062.554</ele>
        <time>2020-08-19T10:17:12Z</time>
      </trkpt>
      <trkpt lat="45.25951" lon="3.72192">
        <ele>1062.747</ele>
        <time>2020-08-19T10:17:13Z</time>
      </trkpt>
      <trkpt lat="45.25953" lon="3.72193">
        <ele>1063.928</ele>
        <time>2020-08-19T10:17:17Z</time>
      </trkpt>
      <trkpt lat="45.25954" lon="3.72193">
        <ele>1063.839</ele>
        <time>2020-08-19T10:17:19Z</time>
      </trkpt>
      <trkpt lat="45.25954" lon="3.72193">
        <ele>1063.857</ele>
        <time>2020-08-19T10:17:20Z</time>
      </trkpt>
      <trkpt lat="45.25954" lon="3.72193">
        <ele>1063.98</ele>
        <time>2020-08-19T10:17:21Z</time>
      </trkpt>
      <trkpt lat="45.25953" lon="3.72193">
        <ele>1064.368</ele>
        <time>2020-08-19T10:17:24Z</time>
      </trkpt>
      <trkpt lat="45.25953" lon="3.72193">
        <ele>1064.487</ele>
        <time>2020-08-19T10:17:25Z</time>
      </trkpt>
      <trkpt lat="45.25953" lon="3.72193">
        <ele>1064.487</ele>
        <time>2020-08-19T10:17:25Z</time>
      </trkpt>
      <trkpt lat="45.25952" lon="3.72193">
        <ele>1065.276</ele>
        <time>2020-08-19T10:17:26Z</time>
      </trkpt>
      <trkpt lat="45.25952" lon="3.72193">
        <ele>1065.014</ele>
        <time>2020-08-19T10:17:27Z</time>
      </trkpt>
      <trkpt lat="45.25952" lon="3.72193">
        <ele>1065.031</ele>
        <time>2020-08-19T10:17:28Z</time>
      </trkpt>
      <trkpt lat="45.25952" lon="3.72193">
        <ele>1065.003</ele>
        <time>2020-08-19T10:17:32Z</time>
      </trkpt>
      <trkpt lat="45.25952" lon="3.72193">
        <ele>1065.243</ele>
        <time>2020-08-19T10:17:33Z</time>
      </trkpt>
      <trkpt lat="45.25952" lon="3.72193">
        <ele>1065.166</ele>
        <time>2020-08-19T10:17:34Z</time>
      </trkpt>
      <trkpt lat="45.25952" lon="3.72193">
        <ele>1065.166</ele>
        <time>2020-08-19T10:17:34Z</time>
      </trkpt>
      <trkpt lat="45.25952" lon="3.72194">
        <ele>1065.339</ele>
        <time>2020-08-19T10:17:35Z</time>
      </trkpt>
      <trkpt lat="45.25953" lon="3.72194">
        <ele>1065.092</ele>
        <time>2020-08-19T10:17:37Z</time>
      </trkpt>
      <trkpt lat="45.25954" lon="3.72194">
        <ele>1064.767</ele>
        <time>2020-08-19T10:17:38Z</time>
      </trkpt>
      <trkpt lat="45.25955" lon="3.72194">
        <ele>1064.751</ele>
        <time>2020-08-19T10:17:39Z</time>
      </trkpt>
      <trkpt lat="45.25956" lon="3.72195">
        <ele>1064.783</ele>
        <time>2020-08-19T10:17:41Z</time>
      </trkpt>
      <trkpt lat="45.25956" lon="3.72195">
        <ele>1064.783</ele>
        <time>2020-08-19T10:17:41Z</time>
      </trkpt>
      <trkpt lat="45.25956" lon="3.72195">
        <ele>1064.834</ele>
        <time>2020-08-19T10:17:42Z</time>
      </trkpt>
      <trkpt lat="45.25957" lon="3.72195">
        <ele>1065.1</ele>
        <time>2020-08-19T10:17:43Z</time>
      </trkpt>
      <trkpt lat="45.2596" lon="3.72196">
        <ele>1065.329</ele>
        <time>2020-08-19T10:17:49Z</time>
      </trkpt>
      <trkpt lat="45.2596" lon="3.72196">
        <ele>1065.329</ele>
        <time>2020-08-19T10:17:49Z</time>
      </trkpt>
      <trkpt lat="45.2596" lon="3.72195">
        <ele>1065.252</ele>
        <time>2020-08-19T10:17:50Z</time>
      </trkpt>
      <trkpt lat="45.25958" lon="3.72194">
        <ele>1064.924</ele>
        <time>2020-08-19T10:17:54Z</time>
      </trkpt>
      <trkpt lat="45.25957" lon="3.72193">
        <ele>1065.659</ele>
        <time>2020-08-19T10:17:58Z</time>
      </trkpt>
      <trkpt lat="45.25955" lon="3.72191">
        <ele>1066.036</ele>
        <time>2020-08-19T10:18:03Z</time>
      </trkpt>
      <trkpt lat="45.25954" lon="3.72189">
        <ele>1066.016</ele>
        <time>2020-08-19T10:18:06Z</time>
      </trkpt>
      <trkpt lat="45.25953" lon="3.72189">
        <ele>1065.989</ele>
        <time>2020-08-19T10:18:08Z</time>
      </trkpt>
      <trkpt lat="45.25952" lon="3.72189">
        <ele>1065.836</ele>
        <time>2020-08-19T10:18:10Z</time>
      </trkpt>
      <trkpt lat="45.25952" lon="3.72188">
        <ele>1066.04</ele>
        <time>2020-08-19T10:18:12Z</time>
      </trkpt>
      <trkpt lat="45.25952" lon="3.72188">
        <ele>1066.04</ele>
        <time>2020-08-19T10:18:12Z</time>
      </trkpt>
      <trkpt lat="45.25951" lon="3.72189">
        <ele>1065.851</ele>
        <time>2020-08-19T10:18:13Z</time>
      </trkpt>
      <trkpt lat="45.25951" lon="3.72189">
        <ele>1065.851</ele>
        <time>2020-08-19T10:18:13Z</time>
      </trkpt>
      <trkpt lat="45.25951" lon="3.72188">
        <ele>1065.659</ele>
        <time>2020-08-19T10:18:14Z</time>
      </trkpt>
      <trkpt lat="45.2595" lon="3.72188">
        <ele>1065.609</ele>
        <time>2020-08-19T10:18:15Z</time>
      </trkpt>
      <trkpt lat="45.2595" lon="3.72188">
        <ele>1065.689</ele>
        <time>2020-08-19T10:18:16Z</time>
      </trkpt>
      <trkpt lat="45.2595" lon="3.72188">
        <ele>1065.977</ele>
        <time>2020-08-19T10:18:17Z</time>
      </trkpt>
      <trkpt lat="45.2595" lon="3.72188">
        <ele>1065.881</ele>
        <time>2020-08-19T10:18:24Z</time>
      </trkpt>
      <trkpt lat="45.25951" lon="3.72188">
        <ele>1065.829</ele>
        <time>2020-08-19T10:18:25Z</time>
      </trkpt>
      <trkpt lat="45.25951" lon="3.72188">
        <ele>1066.234</ele>
        <time>2020-08-19T10:18:27Z</time>
      </trkpt>
      <trkpt lat="45.2595" lon="3.72188">
        <ele>1066.252</ele>
        <time>2020-08-19T10:18:29Z</time>
      </trkpt>
      <trkpt lat="45.2595" lon="3.72188">
        <ele>1066.252</ele>
        <time>2020-08-19T10:18:29Z</time>
      </trkpt>
      <trkpt lat="45.2595" lon="3.72188">
        <ele>1065.831</ele>
        <time>2020-08-19T10:18:30Z</time>
      </trkpt>
      <trkpt lat="45.25949" lon="3.72189">
        <ele>1065.356</ele>
        <time>2020-08-19T10:18:32Z</time>
      </trkpt>
      <trkpt lat="45.25948" lon="3.72189">
        <ele>1065.274</ele>
        <time>2020-08-19T10:18:33Z</time>
      </trkpt>
      <trkpt lat="45.2594" lon="3.72185">
        <ele>1064.049</ele>
        <time>2020-08-19T10:18:43Z</time>
      </trkpt>
      <trkpt lat="45.2594" lon="3.72185">
        <ele>1063.954</ele>
        <time>2020-08-19T10:18:45Z</time>
      </trkpt>
      <trkpt lat="45.2594" lon="3.72186">
        <ele>1063.491</ele>
        <time>2020-08-19T10:18:46Z</time>
      </trkpt>
      <trkpt lat="45.2594" lon="3.72186">
        <ele>1063.333</ele>
        <time>2020-08-19T10:18:47Z</time>
      </trkpt>
      <trkpt lat="45.2594" lon="3.72186">
        <ele>1063.333</ele>
        <time>2020-08-19T10:18:47Z</time>
      </trkpt>
      <trkpt lat="45.2594" lon="3.72185">
        <ele>1063.124</ele>
        <time>2020-08-19T10:18:48Z</time>
      </trkpt>
      <trkpt lat="45.25941" lon="3.72185">
        <ele>1063.008</ele>
        <time>2020-08-19T10:18:49Z</time>
      </trkpt>
      <trkpt lat="45.25941" lon="3.72182">
        <ele>1063.837</ele>
        <time>2020-08-19T10:18:53Z</time>
      </trkpt>
      <trkpt lat="45.25941" lon="3.72182">
        <ele>1062.031</ele>
        <time>2020-08-19T10:18:57Z</time>
      </trkpt>
      <trkpt lat="45.25941" lon="3.72182">
        <ele>1062.031</ele>
        <time>2020-08-19T10:18:57Z</time>
      </trkpt>
      <trkpt lat="45.25941" lon="3.72182">
        <ele>1062.28</ele>
        <time>2020-08-19T10:18:58Z</time>
      </trkpt>
      <trkpt lat="45.25941" lon="3.72181">
        <ele>1062.584</ele>
        <time>2020-08-19T10:19:00Z</time>
      </trkpt>
      <trkpt lat="45.25941" lon="3.72181">
        <ele>1062.584</ele>
        <time>2020-08-19T10:19:00Z</time>
      </trkpt>
      <trkpt lat="45.25941" lon="3.72181">
        <ele>1062.612</ele>
        <time>2020-08-19T10:19:01Z</time>
      </trkpt>
      <trkpt lat="45.25939" lon="3.72176">
        <ele>1062.293</ele>
        <time>2020-08-19T10:19:14Z</time>
      </trkpt>
      <trkpt lat="45.25941" lon="3.72174">
        <ele>1061.933</ele>
        <time>2020-08-19T10:19:16Z</time>
      </trkpt>
      <trkpt lat="45.25943" lon="3.72171">
        <ele>1062.631</ele>
        <time>2020-08-19T10:19:18Z</time>
      </trkpt>
      <trkpt lat="45.25947" lon="3.72171">
        <ele>1063.223</ele>
        <time>2020-08-19T10:19:21Z</time>
      </trkpt>
      <trkpt lat="45.2595" lon="3.7217">
        <ele>1062.4</ele>
        <time>2020-08-19T10:19:24Z</time>
      </trkpt>
      <trkpt lat="45.2595" lon="3.72165">
        <ele>1062.326</ele>
        <time>2020-08-19T10:19:28Z</time>
      </trkpt>
      <trkpt lat="45.25949" lon="3.72159">
        <ele>1062.428</ele>
        <time>2020-08-19T10:19:34Z</time>
      </trkpt>
      <trkpt lat="45.25946" lon="3.72154">
        <ele>1062.422</ele>
        <time>2020-08-19T10:19:39Z</time>
      </trkpt>
      <trkpt lat="45.25945" lon="3.72152">
        <ele>1063.106</ele>
        <time>2020-08-19T10:19:42Z</time>
      </trkpt>
      <trkpt lat="45.25945" lon="3.72152">
        <ele>1063.211</ele>
        <time>2020-08-19T10:19:47Z</time>
      </trkpt>
      <trkpt lat="45.25944" lon="3.7215">
        <ele>1063.186</ele>
        <time>2020-08-19T10:19:48Z</time>
      </trkpt>
      <trkpt lat="45.25944" lon="3.7215">
        <ele>1062.972</ele>
        <time>2020-08-19T10:19:49Z</time>
      </trkpt>
      <trkpt lat="45.25944" lon="3.7215">
        <ele>1062.972</ele>
        <time>2020-08-19T10:19:49Z</time>
      </trkpt>
      <trkpt lat="45.25944" lon="3.7215">
        <ele>1062.689</ele>
        <time>2020-08-19T10:19:50Z</time>
      </trkpt>
      <trkpt lat="45.25944" lon="3.72148">
        <ele>1062.124</ele>
        <time>2020-08-19T10:19:52Z</time>
      </trkpt>
      <trkpt lat="45.25944" lon="3.72147">
        <ele>1062.222</ele>
        <time>2020-08-19T10:19:53Z</time>
      </trkpt>
      <trkpt lat="45.25944" lon="3.72144">
        <ele>1062.498</ele>
        <time>2020-08-19T10:19:59Z</time>
      </trkpt>
      <trkpt lat="45.25944" lon="3.72144">
        <ele>1062.494</ele>
        <time>2020-08-19T10:20:08Z</time>
      </trkpt>
      <trkpt lat="45.25944" lon="3.72145">
        <ele>1062.402</ele>
        <time>2020-08-19T10:20:09Z</time>
      </trkpt>
      <trkpt lat="45.25943" lon="3.72147">
        <ele>1063.568</ele>
        <time>2020-08-19T10:20:12Z</time>
      </trkpt>
      <trkpt lat="45.25943" lon="3.72146">
        <ele>1063.945</ele>
        <time>2020-08-19T10:20:14Z</time>
      </trkpt>
      <trkpt lat="45.25943" lon="3.72146">
        <ele>1063.945</ele>
        <time>2020-08-19T10:20:14Z</time>
      </trkpt>
      <trkpt lat="45.25943" lon="3.72146">
        <ele>1063.948</ele>
        <time>2020-08-19T10:20:15Z</time>
      </trkpt>
      <trkpt lat="45.25943" lon="3.72146">
        <ele>1063.98</ele>
        <time>2020-08-19T10:20:32Z</time>
      </trkpt>
      <trkpt lat="45.25943" lon="3.72145">
        <ele>1063.9</ele>
        <time>2020-08-19T10:20:33Z</time>
      </trkpt>
      <trkpt lat="45.25944" lon="3.72141">
        <ele>1063.681</ele>
        <time>2020-08-19T10:20:37Z</time>
      </trkpt>
      <trkpt lat="45.25944" lon="3.72139">
        <ele>1064.182</ele>
        <time>2020-08-19T10:20:40Z</time>
      </trkpt>
      <trkpt lat="45.25944" lon="3.72138">
        <ele>1064.823</ele>
        <time>2020-08-19T10:20:42Z</time>
      </trkpt>
      <trkpt lat="45.25944" lon="3.72138">
        <ele>1064.667</ele>
        <time>2020-08-19T10:20:56Z</time>
      </trkpt>
      <trkpt lat="45.25944" lon="3.72136">
        <ele>1065.098</ele>
        <time>2020-08-19T10:20:57Z</time>
      </trkpt>
      <trkpt lat="45.25942" lon="3.72132">
        <ele>1065.929</ele>
        <time>2020-08-19T10:21:01Z</time>
      </trkpt>
      <trkpt lat="45.25941" lon="3.72127">
        <ele>1066.906</ele>
        <time>2020-08-19T10:21:04Z</time>
      </trkpt>
      <trkpt lat="45.25939" lon="3.72105">
        <ele>1069.689</ele>
        <time>2020-08-19T10:21:20Z</time>
      </trkpt>
      <trkpt lat="45.25909" lon="3.71984">
        <ele>1068.417</ele>
        <time>2020-08-19T10:22:44Z</time>
      </trkpt>
      <trkpt lat="45.25899" lon="3.71937">
        <ele>1068.127</ele>
        <time>2020-08-19T10:23:15Z</time>
      </trkpt>
      <trkpt lat="45.25895" lon="3.71933">
        <ele>1067.16</ele>
        <time>2020-08-19T10:23:18Z</time>
      </trkpt>
      <trkpt lat="45.25886" lon="3.71932">
        <ele>1067.234</ele>
        <time>2020-08-19T10:23:25Z</time>
      </trkpt>
      <trkpt lat="45.25839" lon="3.71942">
        <ele>1066.709</ele>
        <time>2020-08-19T10:24:06Z</time>
      </trkpt>
      <trkpt lat="45.25839" lon="3.71942">
        <ele>1066.585</ele>
        <time>2020-08-19T10:24:07Z</time>
      </trkpt>
      <trkpt lat="45.25837" lon="3.71942">
        <ele>1066.42</ele>
        <time>2020-08-19T10:24:09Z</time>
      </trkpt>
      <trkpt lat="45.25819" lon="3.71948">
        <ele>1068.5</ele>
        <time>2020-08-19T10:24:24Z</time>
      </trkpt>
      <trkpt lat="45.25812" lon="3.71951">
        <ele>1069.057</ele>
        <time>2020-08-19T10:24:29Z</time>
      </trkpt>
      <trkpt lat="45.25796" lon="3.71956">
        <ele>1069.162</ele>
        <time>2020-08-19T10:24:41Z</time>
      </trkpt>
      <trkpt lat="45.25775" lon="3.71961">
        <ele>1071.187</ele>
        <time>2020-08-19T10:24:58Z</time>
      </trkpt>
      <trkpt lat="45.25771" lon="3.71959">
        <ele>1071.256</ele>
        <time>2020-08-19T10:25:02Z</time>
      </trkpt>
      <trkpt lat="45.25759" lon="3.71956">
        <ele>1071.008</ele>
        <time>2020-08-19T10:25:10Z</time>
      </trkpt>
      <trkpt lat="45.25756" lon="3.71957">
        <ele>1071.138</ele>
        <time>2020-08-19T10:25:13Z</time>
      </trkpt>
      <trkpt lat="45.25752" lon="3.71958">
        <ele>1071.124</ele>
        <time>2020-08-19T10:25:17Z</time>
      </trkpt>
      <trkpt lat="45.2575" lon="3.71953">
        <ele>1070.949</ele>
        <time>2020-08-19T10:25:21Z</time>
      </trkpt>
      <trkpt lat="45.25748" lon="3.71948">
        <ele>1070.908</ele>
        <time>2020-08-19T10:25:24Z</time>
      </trkpt>
      <trkpt lat="45.25748" lon="3.71946">
        <ele>1071.024</ele>
        <time>2020-08-19T10:25:26Z</time>
      </trkpt>
      <trkpt lat="45.25748" lon="3.71946">
        <ele>1071.591</ele>
        <time>2020-08-19T10:25:28Z</time>
      </trkpt>
      <trkpt lat="45.25748" lon="3.71946">
        <ele>1072.118</ele>
        <time>2020-08-19T10:25:29Z</time>
      </trkpt>
      <trkpt lat="45.25748" lon="3.71946">
        <ele>1072.45</ele>
        <time>2020-08-19T10:25:30Z</time>
      </trkpt>
      <trkpt lat="45.25748" lon="3.71946">
        <ele>1072.482</ele>
        <time>2020-08-19T10:26:12Z</time>
      </trkpt>
      <trkpt lat="45.25749" lon="3.71946">
        <ele>1072.452</ele>
        <time>2020-08-19T10:26:13Z</time>
      </trkpt>
      <trkpt lat="45.25748" lon="3.71945">
        <ele>1073.237</ele>
        <time>2020-08-19T10:26:15Z</time>
      </trkpt>
      <trkpt lat="45.25748" lon="3.71945">
        <ele>1074.028</ele>
        <time>2020-08-19T10:26:16Z</time>
      </trkpt>
      <trkpt lat="45.25749" lon="3.71946">
        <ele>1073.986</ele>
        <time>2020-08-19T10:26:17Z</time>
      </trkpt>
      <trkpt lat="45.25749" lon="3.71948">
        <ele>1074.04</ele>
        <time>2020-08-19T10:26:19Z</time>
      </trkpt>
      <trkpt lat="45.25749" lon="3.71948">
        <ele>1073.806</ele>
        <time>2020-08-19T10:26:39Z</time>
      </trkpt>
      <trkpt lat="45.25748" lon="3.71947">
        <ele>1074.057</ele>
        <time>2020-08-19T10:26:40Z</time>
      </trkpt>
      <trkpt lat="45.25747" lon="3.71947">
        <ele>1074.9</ele>
        <time>2020-08-19T10:26:43Z</time>
      </trkpt>
      <trkpt lat="45.25747" lon="3.71947">
        <ele>1074.99</ele>
        <time>2020-08-19T10:26:44Z</time>
      </trkpt>
      <trkpt lat="45.25747" lon="3.71947">
        <ele>1074.918</ele>
        <time>2020-08-19T10:27:16Z</time>
      </trkpt>
      <trkpt lat="45.25747" lon="3.71946">
        <ele>1074.021</ele>
        <time>2020-08-19T10:27:17Z</time>
      </trkpt>
      <trkpt lat="45.25747" lon="3.71946">
        <ele>1074.021</ele>
        <time>2020-08-19T10:27:17Z</time>
      </trkpt>
      <trkpt lat="45.25747" lon="3.71946">
        <ele>1074.081</ele>
        <time>2020-08-19T10:27:18Z</time>
      </trkpt>
      <trkpt lat="45.25747" lon="3.71946">
        <ele>1073.67</ele>
        <time>2020-08-19T10:27:54Z</time>
      </trkpt>
      <trkpt lat="45.25748" lon="3.71943">
        <ele>1073.46</ele>
        <time>2020-08-19T10:27:55Z</time>
      </trkpt>
      <trkpt lat="45.25748" lon="3.71943">
        <ele>1073.46</ele>
        <time>2020-08-19T10:27:55Z</time>
      </trkpt>
      <trkpt lat="45.25748" lon="3.71943">
        <ele>1073.473</ele>
        <time>2020-08-19T10:27:56Z</time>
      </trkpt>
      <trkpt lat="45.25748" lon="3.71943">
        <ele>1074.346</ele>
        <time>2020-08-19T10:28:16Z</time>
      </trkpt>
      <trkpt lat="45.25748" lon="3.71945">
        <ele>1074.276</ele>
        <time>2020-08-19T10:28:17Z</time>
      </trkpt>
      <trkpt lat="45.25748" lon="3.71946">
        <ele>1073.492</ele>
        <time>2020-08-19T10:28:18Z</time>
      </trkpt>
      <trkpt lat="45.25748" lon="3.71947">
        <ele>1072.367</ele>
        <time>2020-08-19T10:28:19Z</time>
      </trkpt>
      <trkpt lat="45.25748" lon="3.71947">
        <ele>1072.59</ele>
        <time>2020-08-19T10:28:20Z</time>
      </trkpt>
      <trkpt lat="45.25748" lon="3.71947">
        <ele>1072.621</ele>
        <time>2020-08-19T10:28:21Z</time>
      </trkpt>
      <trkpt lat="45.25748" lon="3.71947">
        <ele>1072.442</ele>
        <time>2020-08-19T10:28:30Z</time>
      </trkpt>
      <trkpt lat="45.25749" lon="3.71944">
        <ele>1071.989</ele>
        <time>2020-08-19T10:28:31Z</time>
      </trkpt>
      <trkpt lat="45.25748" lon="3.71941">
        <ele>1071.781</ele>
        <time>2020-08-19T10:28:33Z</time>
      </trkpt>
      <trkpt lat="45.25748" lon="3.71939">
        <ele>1070.88</ele>
        <time>2020-08-19T10:28:34Z</time>
      </trkpt>
      <trkpt lat="45.25748" lon="3.71936">
        <ele>1069.316</ele>
        <time>2020-08-19T10:28:38Z</time>
      </trkpt>
      <trkpt lat="45.25748" lon="3.71936">
        <ele>1068.632</ele>
        <time>2020-08-19T10:28:40Z</time>
      </trkpt>
      <trkpt lat="45.25749" lon="3.71933">
        <ele>1068.703</ele>
        <time>2020-08-19T10:28:41Z</time>
      </trkpt>
      <trkpt lat="45.2575" lon="3.7193">
        <ele>1068.86</ele>
        <time>2020-08-19T10:28:44Z</time>
      </trkpt>
      <trkpt lat="45.2575" lon="3.71921">
        <ele>1067.687</ele>
        <time>2020-08-19T10:28:50Z</time>
      </trkpt>
      <trkpt lat="45.2575" lon="3.7192">
        <ele>1067.313</ele>
        <time>2020-08-19T10:28:51Z</time>
      </trkpt>
      <trkpt lat="45.2575" lon="3.71919">
        <ele>1067.029</ele>
        <time>2020-08-19T10:28:52Z</time>
      </trkpt>
      <trkpt lat="45.25751" lon="3.71918">
        <ele>1066.693</ele>
        <time>2020-08-19T10:28:53Z</time>
      </trkpt>
      <trkpt lat="45.25752" lon="3.71915">
        <ele>1066.474</ele>
        <time>2020-08-19T10:28:54Z</time>
      </trkpt>
      <trkpt lat="45.25753" lon="3.71913">
        <ele>1066.541</ele>
        <time>2020-08-19T10:28:55Z</time>
      </trkpt>
      <trkpt lat="45.25754" lon="3.71908">
        <ele>1066.251</ele>
        <time>2020-08-19T10:28:58Z</time>
      </trkpt>
      <trkpt lat="45.25756" lon="3.71904">
        <ele>1065.691</ele>
        <time>2020-08-19T10:29:01Z</time>
      </trkpt>
      <trkpt lat="45.25758" lon="3.71898">
        <ele>1065.792</ele>
        <time>2020-08-19T10:29:04Z</time>
      </trkpt>
      <trkpt lat="45.25759" lon="3.71894">
        <ele>1066.098</ele>
        <time>2020-08-19T10:29:06Z</time>
      </trkpt>
      <trkpt lat="45.25761" lon="3.71878">
        <ele>1065.325</ele>
        <time>2020-08-19T10:29:17Z</time>
      </trkpt>
      <trkpt lat="45.25761" lon="3.7187">
        <ele>1065.735</ele>
        <time>2020-08-19T10:29:21Z</time>
      </trkpt>
      <trkpt lat="45.25759" lon="3.71864">
        <ele>1066.2</ele>
        <time>2020-08-19T10:29:23Z</time>
      </trkpt>
      <trkpt lat="45.25753" lon="3.71853">
        <ele>1065.399</ele>
        <time>2020-08-19T10:29:29Z</time>
      </trkpt>
      <trkpt lat="45.25752" lon="3.71852">
        <ele>1065.249</ele>
        <time>2020-08-19T10:29:30Z</time>
      </trkpt>
      <trkpt lat="45.2575" lon="3.71845">
        <ele>1064.59</ele>
        <time>2020-08-19T10:29:37Z</time>
      </trkpt>
      <trkpt lat="45.2575" lon="3.71841">
        <ele>1064.747</ele>
        <time>2020-08-19T10:29:41Z</time>
      </trkpt>
      <trkpt lat="45.2575" lon="3.7184">
        <ele>1064.919</ele>
        <time>2020-08-19T10:29:42Z</time>
      </trkpt>
      <trkpt lat="45.2575" lon="3.71839">
        <ele>1064.893</ele>
        <time>2020-08-19T10:29:43Z</time>
      </trkpt>
      <trkpt lat="45.2575" lon="3.71838">
        <ele>1065.073</ele>
        <time>2020-08-19T10:29:44Z</time>
      </trkpt>
      <trkpt lat="45.2575" lon="3.71835">
        <ele>1065.117</ele>
        <time>2020-08-19T10:29:46Z</time>
      </trkpt>
      <trkpt lat="45.2575" lon="3.71833">
        <ele>1065.027</ele>
        <time>2020-08-19T10:29:48Z</time>
      </trkpt>
      <trkpt lat="45.2575" lon="3.71832">
        <ele>1064.967</ele>
        <time>2020-08-19T10:29:49Z</time>
      </trkpt>
      <trkpt lat="45.25749" lon="3.71827">
        <ele>1064.953</ele>
        <time>2020-08-19T10:29:52Z</time>
      </trkpt>
      <trkpt lat="45.25749" lon="3.71822">
        <ele>1065.041</ele>
        <time>2020-08-19T10:29:55Z</time>
      </trkpt>
      <trkpt lat="45.25748" lon="3.71815">
        <ele>1064.612</ele>
        <time>2020-08-19T10:30:00Z</time>
      </trkpt>
      <trkpt lat="45.25745" lon="3.71804">
        <ele>1064.179</ele>
        <time>2020-08-19T10:30:09Z</time>
      </trkpt>
      <trkpt lat="45.25746" lon="3.71803">
        <ele>1064.382</ele>
        <time>2020-08-19T10:30:10Z</time>
      </trkpt>
      <trkpt lat="45.25746" lon="3.71798">
        <ele>1064.479</ele>
        <time>2020-08-19T10:30:13Z</time>
      </trkpt>
      <trkpt lat="45.25745" lon="3.71799">
        <ele>1063.791</ele>
        <time>2020-08-19T10:30:14Z</time>
      </trkpt>
      <trkpt lat="45.25745" lon="3.71804">
        <ele>1064.134</ele>
        <time>2020-08-19T10:30:18Z</time>
      </trkpt>
      <trkpt lat="45.25746" lon="3.71809">
        <ele>1064.664</ele>
        <time>2020-08-19T10:30:21Z</time>
      </trkpt>
      <trkpt lat="45.25747" lon="3.71809">
        <ele>1064.96</ele>
        <time>2020-08-19T10:30:22Z</time>
      </trkpt>
      <trkpt lat="45.25748" lon="3.71807">
        <ele>1064.967</ele>
        <time>2020-08-19T10:30:24Z</time>
      </trkpt>
      <trkpt lat="45.25749" lon="3.71804">
        <ele>1064.416</ele>
        <time>2020-08-19T10:30:27Z</time>
      </trkpt>
      <trkpt lat="45.25747" lon="3.71799">
        <ele>1064.208</ele>
        <time>2020-08-19T10:30:32Z</time>
      </trkpt>
      <trkpt lat="45.25746" lon="3.71797">
        <ele>1063.66</ele>
        <time>2020-08-19T10:30:34Z</time>
      </trkpt>
      <trkpt lat="45.25744" lon="3.71792">
        <ele>1063.925</ele>
        <time>2020-08-19T10:30:39Z</time>
      </trkpt>
      <trkpt lat="45.25743" lon="3.71787">
        <ele>1063.683</ele>
        <time>2020-08-19T10:30:42Z</time>
      </trkpt>
      <trkpt lat="45.25741" lon="3.71784">
        <ele>1063.646</ele>
        <time>2020-08-19T10:30:44Z</time>
      </trkpt>
      <trkpt lat="45.2574" lon="3.71782">
        <ele>1063.584</ele>
        <time>2020-08-19T10:30:45Z</time>
      </trkpt>
      <trkpt lat="45.25734" lon="3.71771">
        <ele>1063.001</ele>
        <time>2020-08-19T10:30:52Z</time>
      </trkpt>
      <trkpt lat="45.25732" lon="3.71767">
        <ele>1063.401</ele>
        <time>2020-08-19T10:30:55Z</time>
      </trkpt>
      <trkpt lat="45.2573" lon="3.71764">
        <ele>1063.472</ele>
        <time>2020-08-19T10:30:57Z</time>
      </trkpt>
      <trkpt lat="45.2573" lon="3.71764">
        <ele>1063.314</ele>
        <time>2020-08-19T10:30:58Z</time>
      </trkpt>
      <trkpt lat="45.2573" lon="3.71764">
        <ele>1063.314</ele>
        <time>2020-08-19T10:30:58Z</time>
      </trkpt>
      <trkpt lat="45.25728" lon="3.71762">
        <ele>1062.908</ele>
        <time>2020-08-19T10:30:59Z</time>
      </trkpt>
      <trkpt lat="45.25717" lon="3.7175">
        <ele>1063.236</ele>
        <time>2020-08-19T10:31:07Z</time>
      </trkpt>
      <trkpt lat="45.25712" lon="3.71744">
        <ele>1063.347</ele>
        <time>2020-08-19T10:31:11Z</time>
      </trkpt>
      <trkpt lat="45.25711" lon="3.71738">
        <ele>1063.895</ele>
        <time>2020-08-19T10:31:13Z</time>
      </trkpt>
      <trkpt lat="45.25711" lon="3.71737">
        <ele>1064.316</ele>
        <time>2020-08-19T10:31:14Z</time>
      </trkpt>
      <trkpt lat="45.25709" lon="3.71736">
        <ele>1063.947</ele>
        <time>2020-08-19T10:31:17Z</time>
      </trkpt>
      <trkpt lat="45.25708" lon="3.71736">
        <ele>1063.795</ele>
        <time>2020-08-19T10:31:20Z</time>
      </trkpt>
      <trkpt lat="45.25705" lon="3.71734">
        <ele>1063.41</ele>
        <time>2020-08-19T10:31:23Z</time>
      </trkpt>
      <trkpt lat="45.25702" lon="3.71732">
        <ele>1063.153</ele>
        <time>2020-08-19T10:31:26Z</time>
      </trkpt>
      <trkpt lat="45.25701" lon="3.71731">
        <ele>1062.923</ele>
        <time>2020-08-19T10:31:28Z</time>
      </trkpt>
      <trkpt lat="45.257" lon="3.7173">
        <ele>1062.629</ele>
        <time>2020-08-19T10:31:29Z</time>
      </trkpt>
      <trkpt lat="45.257" lon="3.71727">
        <ele>1062.466</ele>
        <time>2020-08-19T10:31:32Z</time>
      </trkpt>
      <trkpt lat="45.25698" lon="3.71724">
        <ele>1062.202</ele>
        <time>2020-08-19T10:31:35Z</time>
      </trkpt>
      <trkpt lat="45.25696" lon="3.71723">
        <ele>1062.038</ele>
        <time>2020-08-19T10:31:37Z</time>
      </trkpt>
      <trkpt lat="45.25695" lon="3.71722">
        <ele>1062.047</ele>
        <time>2020-08-19T10:31:39Z</time>
      </trkpt>
      <trkpt lat="45.25692" lon="3.71722">
        <ele>1062.171</ele>
        <time>2020-08-19T10:31:42Z</time>
      </trkpt>
      <trkpt lat="45.25689" lon="3.71721">
        <ele>1062.121</ele>
        <time>2020-08-19T10:31:44Z</time>
      </trkpt>
      <trkpt lat="45.25688" lon="3.71721">
        <ele>1062.081</ele>
        <time>2020-08-19T10:31:45Z</time>
      </trkpt>
      <trkpt lat="45.25687" lon="3.71721">
        <ele>1061.968</ele>
        <time>2020-08-19T10:31:46Z</time>
      </trkpt>
      <trkpt lat="45.25687" lon="3.71721">
        <ele>1061.752</ele>
        <time>2020-08-19T10:31:47Z</time>
      </trkpt>
      <trkpt lat="45.25687" lon="3.71721">
        <ele>1061.752</ele>
        <time>2020-08-19T10:31:47Z</time>
      </trkpt>
      <trkpt lat="45.25686" lon="3.71721">
        <ele>1062.127</ele>
        <time>2020-08-19T10:31:48Z</time>
      </trkpt>
      <trkpt lat="45.25686" lon="3.7172">
        <ele>1062.157</ele>
        <time>2020-08-19T10:31:49Z</time>
      </trkpt>
      <trkpt lat="45.25685" lon="3.7172">
        <ele>1062.183</ele>
        <time>2020-08-19T10:31:50Z</time>
      </trkpt>
      <trkpt lat="45.25683" lon="3.71717">
        <ele>1062.167</ele>
        <time>2020-08-19T10:31:53Z</time>
      </trkpt>
      <trkpt lat="45.25682" lon="3.71715">
        <ele>1062.212</ele>
        <time>2020-08-19T10:31:55Z</time>
      </trkpt>
      <trkpt lat="45.25681" lon="3.71714">
        <ele>1062.288</ele>
        <time>2020-08-19T10:31:56Z</time>
      </trkpt>
      <trkpt lat="45.2568" lon="3.71713">
        <ele>1062.327</ele>
        <time>2020-08-19T10:31:57Z</time>
      </trkpt>
      <trkpt lat="45.25676" lon="3.71709">
        <ele>1061.925</ele>
        <time>2020-08-19T10:32:02Z</time>
      </trkpt>
      <trkpt lat="45.25675" lon="3.71707">
        <ele>1061.656</ele>
        <time>2020-08-19T10:32:04Z</time>
      </trkpt>
      <trkpt lat="45.25672" lon="3.71702">
        <ele>1061.492</ele>
        <time>2020-08-19T10:32:06Z</time>
      </trkpt>
      <trkpt lat="45.25671" lon="3.71697">
        <ele>1060.882</ele>
        <time>2020-08-19T10:32:08Z</time>
      </trkpt>
      <trkpt lat="45.2567" lon="3.71696">
        <ele>1060.494</ele>
        <time>2020-08-19T10:32:09Z</time>
      </trkpt>
      <trkpt lat="45.25669" lon="3.71694">
        <ele>1060.519</ele>
        <time>2020-08-19T10:32:11Z</time>
      </trkpt>
      <trkpt lat="45.25668" lon="3.71694">
        <ele>1060.585</ele>
        <time>2020-08-19T10:32:12Z</time>
      </trkpt>
      <trkpt lat="45.25666" lon="3.71691">
        <ele>1060.552</ele>
        <time>2020-08-19T10:32:15Z</time>
      </trkpt>
      <trkpt lat="45.25664" lon="3.7169">
        <ele>1060.57</ele>
        <time>2020-08-19T10:32:17Z</time>
      </trkpt>
      <trkpt lat="45.25661" lon="3.71689">
        <ele>1060.967</ele>
        <time>2020-08-19T10:32:20Z</time>
      </trkpt>
      <trkpt lat="45.25658" lon="3.71686">
        <ele>1060.548</ele>
        <time>2020-08-19T10:32:23Z</time>
      </trkpt>
      <trkpt lat="45.25657" lon="3.71686">
        <ele>1060.567</ele>
        <time>2020-08-19T10:32:24Z</time>
      </trkpt>
      <trkpt lat="45.25656" lon="3.71685">
        <ele>1060.671</ele>
        <time>2020-08-19T10:32:25Z</time>
      </trkpt>
      <trkpt lat="45.25656" lon="3.71684">
        <ele>1060.692</ele>
        <time>2020-08-19T10:32:26Z</time>
      </trkpt>
      <trkpt lat="45.25653" lon="3.71679">
        <ele>1060.011</ele>
        <time>2020-08-19T10:32:30Z</time>
      </trkpt>
      <trkpt lat="45.25651" lon="3.71674">
        <ele>1059.941</ele>
        <time>2020-08-19T10:32:33Z</time>
      </trkpt>
      <trkpt lat="45.2565" lon="3.71673">
        <ele>1059.671</ele>
        <time>2020-08-19T10:32:34Z</time>
      </trkpt>
      <trkpt lat="45.25649" lon="3.71672">
        <ele>1059.559</ele>
        <time>2020-08-19T10:32:35Z</time>
      </trkpt>
      <trkpt lat="45.25644" lon="3.71665">
        <ele>1059.202</ele>
        <time>2020-08-19T10:32:40Z</time>
      </trkpt>
      <trkpt lat="45.25644" lon="3.71665">
        <ele>1059.202</ele>
        <time>2020-08-19T10:32:40Z</time>
      </trkpt>
      <trkpt lat="45.25644" lon="3.71665">
        <ele>1058.893</ele>
        <time>2020-08-19T10:32:41Z</time>
      </trkpt>
      <trkpt lat="45.25644" lon="3.71665">
        <ele>1058.893</ele>
        <time>2020-08-19T10:32:41Z</time>
      </trkpt>
      <trkpt lat="45.25643" lon="3.71663">
        <ele>1058.975</ele>
        <time>2020-08-19T10:32:42Z</time>
      </trkpt>
      <trkpt lat="45.25643" lon="3.71663">
        <ele>1058.975</ele>
        <time>2020-08-19T10:32:42Z</time>
      </trkpt>
      <trkpt lat="45.25642" lon="3.71663">
        <ele>1058.925</ele>
        <time>2020-08-19T10:32:43Z</time>
      </trkpt>
      <trkpt lat="45.25641" lon="3.71662">
        <ele>1058.735</ele>
        <time>2020-08-19T10:32:44Z</time>
      </trkpt>
      <trkpt lat="45.25638" lon="3.71659">
        <ele>1057.556</ele>
        <time>2020-08-19T10:32:49Z</time>
      </trkpt>
      <trkpt lat="45.25636" lon="3.71656">
        <ele>1057.658</ele>
        <time>2020-08-19T10:32:52Z</time>
      </trkpt>
      <trkpt lat="45.25633" lon="3.71653">
        <ele>1057.274</ele>
        <time>2020-08-19T10:32:55Z</time>
      </trkpt>
      <trkpt lat="45.25633" lon="3.71653">
        <ele>1055.952</ele>
        <time>2020-08-19T10:32:57Z</time>
      </trkpt>
      <trkpt lat="45.25633" lon="3.71652">
        <ele>1055.888</ele>
        <time>2020-08-19T10:32:58Z</time>
      </trkpt>
      <trkpt lat="45.25632" lon="3.71652">
        <ele>1056.27</ele>
        <time>2020-08-19T10:32:59Z</time>
      </trkpt>
      <trkpt lat="45.25632" lon="3.71651">
        <ele>1056.009</ele>
        <time>2020-08-19T10:33:00Z</time>
      </trkpt>
      <trkpt lat="45.2563" lon="3.7165">
        <ele>1055.891</ele>
        <time>2020-08-19T10:33:02Z</time>
      </trkpt>
      <trkpt lat="45.2563" lon="3.71649">
        <ele>1055.952</ele>
        <time>2020-08-19T10:33:03Z</time>
      </trkpt>
      <trkpt lat="45.25629" lon="3.71648">
        <ele>1055.986</ele>
        <time>2020-08-19T10:33:05Z</time>
      </trkpt>
      <trkpt lat="45.25626" lon="3.71646">
        <ele>1055.691</ele>
        <time>2020-08-19T10:33:07Z</time>
      </trkpt>
      <trkpt lat="45.25624" lon="3.71642">
        <ele>1055.727</ele>
        <time>2020-08-19T10:33:10Z</time>
      </trkpt>
      <trkpt lat="45.25623" lon="3.71638">
        <ele>1055.627</ele>
        <time>2020-08-19T10:33:13Z</time>
      </trkpt>
      <trkpt lat="45.25622" lon="3.71637">
        <ele>1055.473</ele>
        <time>2020-08-19T10:33:14Z</time>
      </trkpt>
      <trkpt lat="45.25621" lon="3.71636">
        <ele>1055.613</ele>
        <time>2020-08-19T10:33:15Z</time>
      </trkpt>
      <trkpt lat="45.2562" lon="3.71635">
        <ele>1055.971</ele>
        <time>2020-08-19T10:33:16Z</time>
      </trkpt>
      <trkpt lat="45.25619" lon="3.71635">
        <ele>1055.836</ele>
        <time>2020-08-19T10:33:17Z</time>
      </trkpt>
      <trkpt lat="45.25617" lon="3.71634">
        <ele>1055.95</ele>
        <time>2020-08-19T10:33:18Z</time>
      </trkpt>
      <trkpt lat="45.25616" lon="3.71633">
        <ele>1055.909</ele>
        <time>2020-08-19T10:33:19Z</time>
      </trkpt>
      <trkpt lat="45.25615" lon="3.71632">
        <ele>1055.756</ele>
        <time>2020-08-19T10:33:20Z</time>
      </trkpt>
      <trkpt lat="45.25611" lon="3.71629">
        <ele>1055.505</ele>
        <time>2020-08-19T10:33:24Z</time>
      </trkpt>
      <trkpt lat="45.25608" lon="3.71628">
        <ele>1055.229</ele>
        <time>2020-08-19T10:33:26Z</time>
      </trkpt>
      <trkpt lat="45.25607" lon="3.71628">
        <ele>1055.173</ele>
        <time>2020-08-19T10:33:27Z</time>
      </trkpt>
      <trkpt lat="45.25605" lon="3.71626">
        <ele>1054.749</ele>
        <time>2020-08-19T10:33:30Z</time>
      </trkpt>
      <trkpt lat="45.25605" lon="3.71626">
        <ele>1054.71</ele>
        <time>2020-08-19T10:33:31Z</time>
      </trkpt>
      <trkpt lat="45.25605" lon="3.71626">
        <ele>1054.71</ele>
        <time>2020-08-19T10:33:31Z</time>
      </trkpt>
      <trkpt lat="45.25603" lon="3.71624">
        <ele>1054.577</ele>
        <time>2020-08-19T10:33:32Z</time>
      </trkpt>
      <trkpt lat="45.25602" lon="3.71622">
        <ele>1054.449</ele>
        <time>2020-08-19T10:33:34Z</time>
      </trkpt>
      <trkpt lat="45.25598" lon="3.71618">
        <ele>1053.817</ele>
        <time>2020-08-19T10:33:38Z</time>
      </trkpt>
      <trkpt lat="45.25595" lon="3.71613">
        <ele>1053.547</ele>
        <time>2020-08-19T10:33:42Z</time>
      </trkpt>
      <trkpt lat="45.25595" lon="3.71612">
        <ele>1053.545</ele>
        <time>2020-08-19T10:33:43Z</time>
      </trkpt>
      <trkpt lat="45.25595" lon="3.71612">
        <ele>1053.216</ele>
        <time>2020-08-19T10:33:44Z</time>
      </trkpt>
      <trkpt lat="45.25595" lon="3.71612">
        <ele>1053.216</ele>
        <time>2020-08-19T10:33:44Z</time>
      </trkpt>
      <trkpt lat="45.25594" lon="3.7161">
        <ele>1053.224</ele>
        <time>2020-08-19T10:33:45Z</time>
      </trkpt>
      <trkpt lat="45.25593" lon="3.71606">
        <ele>1053.314</ele>
        <time>2020-08-19T10:33:48Z</time>
      </trkpt>
      <trkpt lat="45.25593" lon="3.71604">
        <ele>1053.127</ele>
        <time>2020-08-19T10:33:51Z</time>
      </trkpt>
      <trkpt lat="45.25593" lon="3.71604">
        <ele>1053.127</ele>
        <time>2020-08-19T10:33:51Z</time>
      </trkpt>
      <trkpt lat="45.25593" lon="3.71604">
        <ele>1053.171</ele>
        <time>2020-08-19T10:33:52Z</time>
      </trkpt>
      <trkpt lat="45.25593" lon="3.71604">
        <ele>1052.436</ele>
        <time>2020-08-19T10:34:11Z</time>
      </trkpt>
      <trkpt lat="45.2559" lon="3.71603">
        <ele>1052.624</ele>
        <time>2020-08-19T10:34:12Z</time>
      </trkpt>
      <trkpt lat="45.25584" lon="3.716">
        <ele>1052.901</ele>
        <time>2020-08-19T10:34:17Z</time>
      </trkpt>
      <trkpt lat="45.2558" lon="3.71599">
        <ele>1052.763</ele>
        <time>2020-08-19T10:34:19Z</time>
      </trkpt>
      <trkpt lat="45.25576" lon="3.71597">
        <ele>1052.743</ele>
        <time>2020-08-19T10:34:22Z</time>
      </trkpt>
      <trkpt lat="45.25574" lon="3.71595">
        <ele>1052.512</ele>
        <time>2020-08-19T10:34:24Z</time>
      </trkpt>
      <trkpt lat="45.25571" lon="3.71592">
        <ele>1052.189</ele>
        <time>2020-08-19T10:34:27Z</time>
      </trkpt>
      <trkpt lat="45.25568" lon="3.7159">
        <ele>1052.245</ele>
        <time>2020-08-19T10:34:29Z</time>
      </trkpt>
      <trkpt lat="45.25566" lon="3.7159">
        <ele>1052.318</ele>
        <time>2020-08-19T10:34:30Z</time>
      </trkpt>
      <trkpt lat="45.25565" lon="3.71589">
        <ele>1052.353</ele>
        <time>2020-08-19T10:34:31Z</time>
      </trkpt>
      <trkpt lat="45.25564" lon="3.71589">
        <ele>1052.233</ele>
        <time>2020-08-19T10:34:32Z</time>
      </trkpt>
      <trkpt lat="45.25562" lon="3.71589">
        <ele>1052.253</ele>
        <time>2020-08-19T10:34:33Z</time>
      </trkpt>
      <trkpt lat="45.25557" lon="3.71588">
        <ele>1052.266</ele>
        <time>2020-08-19T10:34:36Z</time>
      </trkpt>
      <trkpt lat="45.25553" lon="3.71586">
        <ele>1052.433</ele>
        <time>2020-08-19T10:34:39Z</time>
      </trkpt>
      <trkpt lat="45.25551" lon="3.71585">
        <ele>1052.551</ele>
        <time>2020-08-19T10:34:41Z</time>
      </trkpt>
      <trkpt lat="45.25546" lon="3.71585">
        <ele>1052.344</ele>
        <time>2020-08-19T10:34:44Z</time>
      </trkpt>
      <trkpt lat="45.25538" lon="3.71582">
        <ele>1051.981</ele>
        <time>2020-08-19T10:34:47Z</time>
      </trkpt>
      <trkpt lat="45.25533" lon="3.71582">
        <ele>1052.248</ele>
        <time>2020-08-19T10:34:49Z</time>
      </trkpt>
      <trkpt lat="45.25529" lon="3.71583">
        <ele>1052.302</ele>
        <time>2020-08-19T10:34:52Z</time>
      </trkpt>
      <trkpt lat="45.25528" lon="3.71582">
        <ele>1052.195</ele>
        <time>2020-08-19T10:34:54Z</time>
      </trkpt>
      <trkpt lat="45.25527" lon="3.7158">
        <ele>1051.811</ele>
        <time>2020-08-19T10:34:57Z</time>
      </trkpt>
      <trkpt lat="45.25525" lon="3.7158">
        <ele>1051.319</ele>
        <time>2020-08-19T10:35:00Z</time>
      </trkpt>
      <trkpt lat="45.25523" lon="3.71581">
        <ele>1051.204</ele>
        <time>2020-08-19T10:35:02Z</time>
      </trkpt>
      <trkpt lat="45.2552" lon="3.71581">
        <ele>1051.241</ele>
        <time>2020-08-19T10:35:05Z</time>
      </trkpt>
      <trkpt lat="45.25516" lon="3.71579">
        <ele>1050.67</ele>
        <time>2020-08-19T10:35:12Z</time>
      </trkpt>
      <trkpt lat="45.25514" lon="3.71578">
        <ele>1050.913</ele>
        <time>2020-08-19T10:35:18Z</time>
      </trkpt>
      <trkpt lat="45.25511" lon="3.71577">
        <ele>1051.105</ele>
        <time>2020-08-19T10:35:22Z</time>
      </trkpt>
      <trkpt lat="45.2551" lon="3.71576">
        <ele>1051.181</ele>
        <time>2020-08-19T10:35:24Z</time>
      </trkpt>
      <trkpt lat="45.25509" lon="3.71577">
        <ele>1051.429</ele>
        <time>2020-08-19T10:35:25Z</time>
      </trkpt>
      <trkpt lat="45.25508" lon="3.71578">
        <ele>1051.497</ele>
        <time>2020-08-19T10:35:28Z</time>
      </trkpt>
      <trkpt lat="45.25508" lon="3.71578">
        <ele>1051.497</ele>
        <time>2020-08-19T10:35:28Z</time>
      </trkpt>
      <trkpt lat="45.25509" lon="3.71578">
        <ele>1051.357</ele>
        <time>2020-08-19T10:35:29Z</time>
      </trkpt>
      <trkpt lat="45.2551" lon="3.71576">
        <ele>1051.878</ele>
        <time>2020-08-19T10:35:31Z</time>
      </trkpt>
      <trkpt lat="45.2551" lon="3.71576">
        <ele>1051.842</ele>
        <time>2020-08-19T10:35:33Z</time>
      </trkpt>
      <trkpt lat="45.2551" lon="3.71576">
        <ele>1051.842</ele>
        <time>2020-08-19T10:35:33Z</time>
      </trkpt>
      <trkpt lat="45.25509" lon="3.71576">
        <ele>1051.986</ele>
        <time>2020-08-19T10:35:34Z</time>
      </trkpt>
      <trkpt lat="45.25508" lon="3.71576">
        <ele>1052.112</ele>
        <time>2020-08-19T10:35:35Z</time>
      </trkpt>
      <trkpt lat="45.25507" lon="3.71576">
        <ele>1052.218</ele>
        <time>2020-08-19T10:35:36Z</time>
      </trkpt>
      <trkpt lat="45.25506" lon="3.71576">
        <ele>1051.969</ele>
        <time>2020-08-19T10:35:37Z</time>
      </trkpt>
      <trkpt lat="45.25504" lon="3.71575">
        <ele>1052.479</ele>
        <time>2020-08-19T10:35:40Z</time>
      </trkpt>
      <trkpt lat="45.25504" lon="3.71575">
        <ele>1052.479</ele>
        <time>2020-08-19T10:35:40Z</time>
      </trkpt>
      <trkpt lat="45.25503" lon="3.71574">
        <ele>1052.98</ele>
        <time>2020-08-19T10:35:41Z</time>
      </trkpt>
      <trkpt lat="45.25502" lon="3.71574">
        <ele>1052.725</ele>
        <time>2020-08-19T10:35:42Z</time>
      </trkpt>
      <trkpt lat="45.25501" lon="3.71573">
        <ele>1052.447</ele>
        <time>2020-08-19T10:35:43Z</time>
      </trkpt>
      <trkpt lat="45.25498" lon="3.71573">
        <ele>1053.254</ele>
        <time>2020-08-19T10:35:45Z</time>
      </trkpt>
      <trkpt lat="45.25496" lon="3.71572">
        <ele>1053.786</ele>
        <time>2020-08-19T10:35:47Z</time>
      </trkpt>
      <trkpt lat="45.25495" lon="3.71571">
        <ele>1053.285</ele>
        <time>2020-08-19T10:35:48Z</time>
      </trkpt>
      <trkpt lat="45.25493" lon="3.71571">
        <ele>1053.971</ele>
        <time>2020-08-19T10:35:51Z</time>
      </trkpt>
      <trkpt lat="45.25492" lon="3.71571">
        <ele>1054.055</ele>
        <time>2020-08-19T10:35:52Z</time>
      </trkpt>
      <trkpt lat="45.25489" lon="3.7157">
        <ele>1054.016</ele>
        <time>2020-08-19T10:35:55Z</time>
      </trkpt>
      <trkpt lat="45.25486" lon="3.7157">
        <ele>1054.405</ele>
        <time>2020-08-19T10:35:57Z</time>
      </trkpt>
      <trkpt lat="45.25481" lon="3.7157">
        <ele>1053.542</ele>
        <time>2020-08-19T10:36:01Z</time>
      </trkpt>
      <trkpt lat="45.2548" lon="3.7157">
        <ele>1053.959</ele>
        <time>2020-08-19T10:36:02Z</time>
      </trkpt>
      <trkpt lat="45.25476" lon="3.71569">
        <ele>1054.234</ele>
        <time>2020-08-19T10:36:04Z</time>
      </trkpt>
      <trkpt lat="45.25474" lon="3.7157">
        <ele>1054.871</ele>
        <time>2020-08-19T10:36:06Z</time>
      </trkpt>
      <trkpt lat="45.25472" lon="3.7157">
        <ele>1054.645</ele>
        <time>2020-08-19T10:36:07Z</time>
      </trkpt>
      <trkpt lat="45.25471" lon="3.71571">
        <ele>1054.994</ele>
        <time>2020-08-19T10:36:08Z</time>
      </trkpt>
      <trkpt lat="45.25471" lon="3.71571">
        <ele>1054.994</ele>
        <time>2020-08-19T10:36:08Z</time>
      </trkpt>
      <trkpt lat="45.2547" lon="3.71571">
        <ele>1055.017</ele>
        <time>2020-08-19T10:36:09Z</time>
      </trkpt>
      <trkpt lat="45.25466" lon="3.71572">
        <ele>1054.704</ele>
        <time>2020-08-19T10:36:12Z</time>
      </trkpt>
      <trkpt lat="45.25461" lon="3.71572">
        <ele>1053.981</ele>
        <time>2020-08-19T10:36:15Z</time>
      </trkpt>
      <trkpt lat="45.2546" lon="3.71572">
        <ele>1054.087</ele>
        <time>2020-08-19T10:36:16Z</time>
      </trkpt>
      <trkpt lat="45.2546" lon="3.71572">
        <ele>1054.65</ele>
        <time>2020-08-19T10:36:17Z</time>
      </trkpt>
      <trkpt lat="45.2546" lon="3.71572">
        <ele>1054.651</ele>
        <time>2020-08-19T10:36:19Z</time>
      </trkpt>
      <trkpt lat="45.25456" lon="3.71573">
        <ele>1055.046</ele>
        <time>2020-08-19T10:36:20Z</time>
      </trkpt>
      <trkpt lat="45.25453" lon="3.71573">
        <ele>1055.843</ele>
        <time>2020-08-19T10:36:22Z</time>
      </trkpt>
      <trkpt lat="45.25452" lon="3.71574">
        <ele>1055.257</ele>
        <time>2020-08-19T10:36:23Z</time>
      </trkpt>
      <trkpt lat="45.25447" lon="3.71575">
        <ele>1054.261</ele>
        <time>2020-08-19T10:36:27Z</time>
      </trkpt>
      <trkpt lat="45.25444" lon="3.71576">
        <ele>1053.818</ele>
        <time>2020-08-19T10:36:30Z</time>
      </trkpt>
      <trkpt lat="45.25441" lon="3.71577">
        <ele>1053.968</ele>
        <time>2020-08-19T10:36:33Z</time>
      </trkpt>
      <trkpt lat="45.25436" lon="3.71578">
        <ele>1054.284</ele>
        <time>2020-08-19T10:36:37Z</time>
      </trkpt>
      <trkpt lat="45.25431" lon="3.7158">
        <ele>1055.569</ele>
        <time>2020-08-19T10:36:41Z</time>
      </trkpt>
      <trkpt lat="45.2543" lon="3.7158">
        <ele>1055.121</ele>
        <time>2020-08-19T10:36:42Z</time>
      </trkpt>
      <trkpt lat="45.25428" lon="3.7158">
        <ele>1055.017</ele>
        <time>2020-08-19T10:36:44Z</time>
      </trkpt>
      <trkpt lat="45.25423" lon="3.71579">
        <ele>1054.961</ele>
        <time>2020-08-19T10:36:48Z</time>
      </trkpt>
      <trkpt lat="45.25421" lon="3.7158">
        <ele>1055.108</ele>
        <time>2020-08-19T10:36:51Z</time>
      </trkpt>
      <trkpt lat="45.2542" lon="3.71581">
        <ele>1054.798</ele>
        <time>2020-08-19T10:36:52Z</time>
      </trkpt>
      <trkpt lat="45.25417" lon="3.7158">
        <ele>1055.768</ele>
        <time>2020-08-19T10:36:55Z</time>
      </trkpt>
      <trkpt lat="45.25415" lon="3.7158">
        <ele>1055.604</ele>
        <time>2020-08-19T10:36:58Z</time>
      </trkpt>
      <trkpt lat="45.25413" lon="3.7158">
        <ele>1055.39</ele>
        <time>2020-08-19T10:37:00Z</time>
      </trkpt>
      <trkpt lat="45.25411" lon="3.71579">
        <ele>1055.385</ele>
        <time>2020-08-19T10:37:01Z</time>
      </trkpt>
      <trkpt lat="45.25411" lon="3.71579">
        <ele>1055.317</ele>
        <time>2020-08-19T10:37:02Z</time>
      </trkpt>
      <trkpt lat="45.25411" lon="3.71579">
        <ele>1055.317</ele>
        <time>2020-08-19T10:37:02Z</time>
      </trkpt>
      <trkpt lat="45.2541" lon="3.71578">
        <ele>1055.315</ele>
        <time>2020-08-19T10:37:03Z</time>
      </trkpt>
      <trkpt lat="45.25409" lon="3.71577">
        <ele>1054.928</ele>
        <time>2020-08-19T10:37:05Z</time>
      </trkpt>
      <trkpt lat="45.25408" lon="3.71576">
        <ele>1054.929</ele>
        <time>2020-08-19T10:37:06Z</time>
      </trkpt>
      <trkpt lat="45.254" lon="3.71571">
        <ele>1054.936</ele>
        <time>2020-08-19T10:37:10Z</time>
      </trkpt>
      <trkpt lat="45.25395" lon="3.71569">
        <ele>1054.894</ele>
        <time>2020-08-19T10:37:11Z</time>
      </trkpt>
      <trkpt lat="45.2539" lon="3.71567">
        <ele>1055.12</ele>
        <time>2020-08-19T10:37:13Z</time>
      </trkpt>
      <trkpt lat="45.25389" lon="3.71566">
        <ele>1054.648</ele>
        <time>2020-08-19T10:37:14Z</time>
      </trkpt>
      <trkpt lat="45.25384" lon="3.71561">
        <ele>1052.035</ele>
        <time>2020-08-19T10:37:22Z</time>
      </trkpt>
      <trkpt lat="45.25382" lon="3.7156">
        <ele>1051.775</ele>
        <time>2020-08-19T10:37:25Z</time>
      </trkpt>
      <trkpt lat="45.25379" lon="3.71559">
        <ele>1051.52</ele>
        <time>2020-08-19T10:37:29Z</time>
      </trkpt>
      <trkpt lat="45.25374" lon="3.71556">
        <ele>1050.127</ele>
        <time>2020-08-19T10:37:35Z</time>
      </trkpt>
      <trkpt lat="45.25373" lon="3.71555">
        <ele>1050.223</ele>
        <time>2020-08-19T10:37:36Z</time>
      </trkpt>
      <trkpt lat="45.25373" lon="3.71554">
        <ele>1049.994</ele>
        <time>2020-08-19T10:37:37Z</time>
      </trkpt>
      <trkpt lat="45.25371" lon="3.7155">
        <ele>1051.566</ele>
        <time>2020-08-19T10:37:42Z</time>
      </trkpt>
      <trkpt lat="45.25368" lon="3.71548">
        <ele>1051.379</ele>
        <time>2020-08-19T10:37:46Z</time>
      </trkpt>
      <trkpt lat="45.25368" lon="3.71548">
        <ele>1052.111</ele>
        <time>2020-08-19T10:37:47Z</time>
      </trkpt>
      <trkpt lat="45.25367" lon="3.71547">
        <ele>1051.976</ele>
        <time>2020-08-19T10:37:48Z</time>
      </trkpt>
      <trkpt lat="45.25367" lon="3.71547">
        <ele>1051.578</ele>
        <time>2020-08-19T10:37:49Z</time>
      </trkpt>
      <trkpt lat="45.25364" lon="3.71543">
        <ele>1050.889</ele>
        <time>2020-08-19T10:37:56Z</time>
      </trkpt>
      <trkpt lat="45.25363" lon="3.71541">
        <ele>1050.161</ele>
        <time>2020-08-19T10:37:57Z</time>
      </trkpt>
      <trkpt lat="45.25361" lon="3.71539">
        <ele>1049.779</ele>
        <time>2020-08-19T10:38:00Z</time>
      </trkpt>
      <trkpt lat="45.2536" lon="3.71539">
        <ele>1050.055</ele>
        <time>2020-08-19T10:38:01Z</time>
      </trkpt>
      <trkpt lat="45.25359" lon="3.71538">
        <ele>1049.849</ele>
        <time>2020-08-19T10:38:03Z</time>
      </trkpt>
      <trkpt lat="45.25356" lon="3.71534">
        <ele>1049.773</ele>
        <time>2020-08-19T10:38:06Z</time>
      </trkpt>
      <trkpt lat="45.25355" lon="3.7153">
        <ele>1049.659</ele>
        <time>2020-08-19T10:38:08Z</time>
      </trkpt>
      <trkpt lat="45.25353" lon="3.71526">
        <ele>1049.389</ele>
        <time>2020-08-19T10:38:10Z</time>
      </trkpt>
      <trkpt lat="45.25351" lon="3.71521">
        <ele>1049.065</ele>
        <time>2020-08-19T10:38:12Z</time>
      </trkpt>
      <trkpt lat="45.2535" lon="3.71516">
        <ele>1048.185</ele>
        <time>2020-08-19T10:38:15Z</time>
      </trkpt>
      <trkpt lat="45.2535" lon="3.71515">
        <ele>1048.134</ele>
        <time>2020-08-19T10:38:16Z</time>
      </trkpt>
      <trkpt lat="45.25349" lon="3.71512">
        <ele>1048.031</ele>
        <time>2020-08-19T10:38:19Z</time>
      </trkpt>
      <trkpt lat="45.25348" lon="3.7151">
        <ele>1048.121</ele>
        <time>2020-08-19T10:38:21Z</time>
      </trkpt>
      <trkpt lat="45.2535" lon="3.71506">
        <ele>1047.73</ele>
        <time>2020-08-19T10:38:23Z</time>
      </trkpt>
      <trkpt lat="45.25354" lon="3.71497">
        <ele>1047.906</ele>
        <time>2020-08-19T10:38:30Z</time>
      </trkpt>
      <trkpt lat="45.25353" lon="3.71491">
        <ele>1047.478</ele>
        <time>2020-08-19T10:38:33Z</time>
      </trkpt>
      <trkpt lat="45.25352" lon="3.71488">
        <ele>1047.163</ele>
        <time>2020-08-19T10:38:35Z</time>
      </trkpt>
      <trkpt lat="45.2535" lon="3.71485">
        <ele>1046.907</ele>
        <time>2020-08-19T10:38:39Z</time>
      </trkpt>
      <trkpt lat="45.2535" lon="3.71486">
        <ele>1047.124</ele>
        <time>2020-08-19T10:38:42Z</time>
      </trkpt>
      <trkpt lat="45.25351" lon="3.71487">
        <ele>1047.178</ele>
        <time>2020-08-19T10:38:44Z</time>
      </trkpt>
      <trkpt lat="45.25351" lon="3.71487">
        <ele>1047.523</ele>
        <time>2020-08-19T10:38:46Z</time>
      </trkpt>
      <trkpt lat="45.25353" lon="3.71493">
        <ele>1047.741</ele>
        <time>2020-08-19T10:38:47Z</time>
      </trkpt>
      <trkpt lat="45.25352" lon="3.71492">
        <ele>1047.179</ele>
        <time>2020-08-19T10:38:50Z</time>
      </trkpt>
      <trkpt lat="45.25351" lon="3.71492">
        <ele>1046.919</ele>
        <time>2020-08-19T10:38:51Z</time>
      </trkpt>
      <trkpt lat="45.25349" lon="3.71489">
        <ele>1046.926</ele>
        <time>2020-08-19T10:38:54Z</time>
      </trkpt>
      <trkpt lat="45.25349" lon="3.71487">
        <ele>1046.493</ele>
        <time>2020-08-19T10:38:56Z</time>
      </trkpt>
      <trkpt lat="45.2535" lon="3.71482">
        <ele>1046.354</ele>
        <time>2020-08-19T10:39:00Z</time>
      </trkpt>
      <trkpt lat="45.2535" lon="3.71477">
        <ele>1046.572</ele>
        <time>2020-08-19T10:39:04Z</time>
      </trkpt>
      <trkpt lat="45.25347" lon="3.71475">
        <ele>1045.805</ele>
        <time>2020-08-19T10:39:09Z</time>
      </trkpt>
      <trkpt lat="45.25345" lon="3.71473">
        <ele>1045.442</ele>
        <time>2020-08-19T10:39:11Z</time>
      </trkpt>
      <trkpt lat="45.25342" lon="3.7147">
        <ele>1045.763</ele>
        <time>2020-08-19T10:39:13Z</time>
      </trkpt>
      <trkpt lat="45.25342" lon="3.71468">
        <ele>1045.589</ele>
        <time>2020-08-19T10:39:14Z</time>
      </trkpt>
      <trkpt lat="45.25344" lon="3.71464">
        <ele>1045.042</ele>
        <time>2020-08-19T10:39:16Z</time>
      </trkpt>
      <trkpt lat="45.25344" lon="3.71459">
        <ele>1044.396</ele>
        <time>2020-08-19T10:39:18Z</time>
      </trkpt>
      <trkpt lat="45.25343" lon="3.71455">
        <ele>1043.807</ele>
        <time>2020-08-19T10:39:20Z</time>
      </trkpt>
      <trkpt lat="45.25343" lon="3.71452">
        <ele>1043.926</ele>
        <time>2020-08-19T10:39:21Z</time>
      </trkpt>
      <trkpt lat="45.25343" lon="3.71448">
        <ele>1042.948</ele>
        <time>2020-08-19T10:39:23Z</time>
      </trkpt>
      <trkpt lat="45.25342" lon="3.71443">
        <ele>1042.335</ele>
        <time>2020-08-19T10:39:26Z</time>
      </trkpt>
      <trkpt lat="45.25341" lon="3.7144">
        <ele>1041.729</ele>
        <time>2020-08-19T10:39:29Z</time>
      </trkpt>
      <trkpt lat="45.2534" lon="3.71439">
        <ele>1042.181</ele>
        <time>2020-08-19T10:39:30Z</time>
      </trkpt>
      <trkpt lat="45.25339" lon="3.71438">
        <ele>1042.08</ele>
        <time>2020-08-19T10:39:31Z</time>
      </trkpt>
      <trkpt lat="45.25337" lon="3.71435">
        <ele>1041.766</ele>
        <time>2020-08-19T10:39:34Z</time>
      </trkpt>
      <trkpt lat="45.25336" lon="3.71432">
        <ele>1041.45</ele>
        <time>2020-08-19T10:39:36Z</time>
      </trkpt>
      <trkpt lat="45.25336" lon="3.71431">
        <ele>1040.901</ele>
        <time>2020-08-19T10:39:37Z</time>
      </trkpt>
      <trkpt lat="45.25335" lon="3.71429">
        <ele>1040.244</ele>
        <time>2020-08-19T10:39:39Z</time>
      </trkpt>
      <trkpt lat="45.25335" lon="3.71427">
        <ele>1039.914</ele>
        <time>2020-08-19T10:39:41Z</time>
      </trkpt>
      <trkpt lat="45.25333" lon="3.71425">
        <ele>1039.965</ele>
        <time>2020-08-19T10:39:45Z</time>
      </trkpt>
      <trkpt lat="45.25333" lon="3.71421">
        <ele>1039.92</ele>
        <time>2020-08-19T10:39:48Z</time>
      </trkpt>
      <trkpt lat="45.25332" lon="3.71419">
        <ele>1039.991</ele>
        <time>2020-08-19T10:39:49Z</time>
      </trkpt>
      <trkpt lat="45.25332" lon="3.71417">
        <ele>1039.869</ele>
        <time>2020-08-19T10:39:51Z</time>
      </trkpt>
      <trkpt lat="45.25332" lon="3.71415">
        <ele>1038.816</ele>
        <time>2020-08-19T10:39:54Z</time>
      </trkpt>
      <trkpt lat="45.25332" lon="3.71413">
        <ele>1038.66</ele>
        <time>2020-08-19T10:39:55Z</time>
      </trkpt>
      <trkpt lat="45.25332" lon="3.71412">
        <ele>1038.179</ele>
        <time>2020-08-19T10:39:56Z</time>
      </trkpt>
      <trkpt lat="45.25333" lon="3.7141">
        <ele>1037.468</ele>
        <time>2020-08-19T10:40:00Z</time>
      </trkpt>
      <trkpt lat="45.25333" lon="3.7141">
        <ele>1037.468</ele>
        <time>2020-08-19T10:40:00Z</time>
      </trkpt>
      <trkpt lat="45.25333" lon="3.71409">
        <ele>1037.027</ele>
        <time>2020-08-19T10:40:01Z</time>
      </trkpt>
      <trkpt lat="45.25332" lon="3.71407">
        <ele>1036.404</ele>
        <time>2020-08-19T10:40:04Z</time>
      </trkpt>
      <trkpt lat="45.25331" lon="3.71406">
        <ele>1036.05</ele>
        <time>2020-08-19T10:40:05Z</time>
      </trkpt>
      <trkpt lat="45.25331" lon="3.71406">
        <ele>1036.41</ele>
        <time>2020-08-19T10:40:06Z</time>
      </trkpt>
      <trkpt lat="45.25331" lon="3.71406">
        <ele>1036.481</ele>
        <time>2020-08-19T10:40:07Z</time>
      </trkpt>
      <trkpt lat="45.25331" lon="3.71406">
        <ele>1036.481</ele>
        <time>2020-08-19T10:40:07Z</time>
      </trkpt>
      <trkpt lat="45.2533" lon="3.71405">
        <ele>1036.463</ele>
        <time>2020-08-19T10:40:08Z</time>
      </trkpt>
      <trkpt lat="45.2533" lon="3.71401">
        <ele>1036.437</ele>
        <time>2020-08-19T10:40:10Z</time>
      </trkpt>
      <trkpt lat="45.2533" lon="3.71389">
        <ele>1035.107</ele>
        <time>2020-08-19T10:40:15Z</time>
      </trkpt>
      <trkpt lat="45.25331" lon="3.71387">
        <ele>1035.076</ele>
        <time>2020-08-19T10:40:16Z</time>
      </trkpt>
      <trkpt lat="45.25331" lon="3.71385">
        <ele>1035.454</ele>
        <time>2020-08-19T10:40:19Z</time>
      </trkpt>
      <trkpt lat="45.2533" lon="3.71384">
        <ele>1035.607</ele>
        <time>2020-08-19T10:40:20Z</time>
      </trkpt>
      <trkpt lat="45.2533" lon="3.71383">
        <ele>1035.705</ele>
        <time>2020-08-19T10:40:21Z</time>
      </trkpt>
      <trkpt lat="45.25329" lon="3.71383">
        <ele>1035.89</ele>
        <time>2020-08-19T10:40:22Z</time>
      </trkpt>
      <trkpt lat="45.25328" lon="3.71382">
        <ele>1035.66</ele>
        <time>2020-08-19T10:40:23Z</time>
      </trkpt>
      <trkpt lat="45.25327" lon="3.71382">
        <ele>1035.829</ele>
        <time>2020-08-19T10:40:24Z</time>
      </trkpt>
      <trkpt lat="45.25324" lon="3.71379">
        <ele>1035.83</ele>
        <time>2020-08-19T10:40:27Z</time>
      </trkpt>
      <trkpt lat="45.2532" lon="3.71379">
        <ele>1035.77</ele>
        <time>2020-08-19T10:40:30Z</time>
      </trkpt>
      <trkpt lat="45.25317" lon="3.7138">
        <ele>1036.158</ele>
        <time>2020-08-19T10:40:32Z</time>
      </trkpt>
      <trkpt lat="45.25312" lon="3.71382">
        <ele>1036.689</ele>
        <time>2020-08-19T10:40:36Z</time>
      </trkpt>
      <trkpt lat="45.25309" lon="3.71383">
        <ele>1036.545</ele>
        <time>2020-08-19T10:40:40Z</time>
      </trkpt>
      <trkpt lat="45.25308" lon="3.71383">
        <ele>1036.683</ele>
        <time>2020-08-19T10:40:41Z</time>
      </trkpt>
      <trkpt lat="45.25306" lon="3.71385">
        <ele>1037.504</ele>
        <time>2020-08-19T10:40:44Z</time>
      </trkpt>
      <trkpt lat="45.25301" lon="3.71386">
        <ele>1036.855</ele>
        <time>2020-08-19T10:40:50Z</time>
      </trkpt>
      <trkpt lat="45.253" lon="3.71385">
        <ele>1036.081</ele>
        <time>2020-08-19T10:40:52Z</time>
      </trkpt>
      <trkpt lat="45.253" lon="3.71385">
        <ele>1036.081</ele>
        <time>2020-08-19T10:40:52Z</time>
      </trkpt>
      <trkpt lat="45.253" lon="3.71384">
        <ele>1035.581</ele>
        <time>2020-08-19T10:40:53Z</time>
      </trkpt>
      <trkpt lat="45.253" lon="3.71384">
        <ele>1035.598</ele>
        <time>2020-08-19T10:40:54Z</time>
      </trkpt>
      <trkpt lat="45.253" lon="3.71384">
        <ele>1035.598</ele>
        <time>2020-08-19T10:40:54Z</time>
      </trkpt>
      <trkpt lat="45.25299" lon="3.71382">
        <ele>1035.529</ele>
        <time>2020-08-19T10:40:55Z</time>
      </trkpt>
      <trkpt lat="45.25298" lon="3.71381">
        <ele>1035.289</ele>
        <time>2020-08-19T10:40:56Z</time>
      </trkpt>
      <trkpt lat="45.25295" lon="3.7138">
        <ele>1034.983</ele>
        <time>2020-08-19T10:40:59Z</time>
      </trkpt>
      <trkpt lat="45.25291" lon="3.71372">
        <ele>1033.096</ele>
        <time>2020-08-19T10:41:04Z</time>
      </trkpt>
      <trkpt lat="45.25291" lon="3.71371">
        <ele>1032.962</ele>
        <time>2020-08-19T10:41:05Z</time>
      </trkpt>
      <trkpt lat="45.25291" lon="3.71366">
        <ele>1031.769</ele>
        <time>2020-08-19T10:41:09Z</time>
      </trkpt>
      <trkpt lat="45.2529" lon="3.71364">
        <ele>1031.469</ele>
        <time>2020-08-19T10:41:10Z</time>
      </trkpt>
      <trkpt lat="45.25286" lon="3.71355">
        <ele>1031.261</ele>
        <time>2020-08-19T10:41:16Z</time>
      </trkpt>
      <trkpt lat="45.25285" lon="3.71355">
        <ele>1031.015</ele>
        <time>2020-08-19T10:41:17Z</time>
      </trkpt>
      <trkpt lat="45.25285" lon="3.71354">
        <ele>1030.476</ele>
        <time>2020-08-19T10:41:18Z</time>
      </trkpt>
      <trkpt lat="45.25285" lon="3.71354">
        <ele>1030.57</ele>
        <time>2020-08-19T10:41:19Z</time>
      </trkpt>
      <trkpt lat="45.25284" lon="3.71353">
        <ele>1030.021</ele>
        <time>2020-08-19T10:41:21Z</time>
      </trkpt>
      <trkpt lat="45.25284" lon="3.71351">
        <ele>1029.476</ele>
        <time>2020-08-19T10:41:22Z</time>
      </trkpt>
      <trkpt lat="45.25282" lon="3.71347">
        <ele>1028.766</ele>
        <time>2020-08-19T10:41:25Z</time>
      </trkpt>
      <trkpt lat="45.25282" lon="3.71345">
        <ele>1028.482</ele>
        <time>2020-08-19T10:41:26Z</time>
      </trkpt>
      <trkpt lat="45.25281" lon="3.71342">
        <ele>1028.701</ele>
        <time>2020-08-19T10:41:29Z</time>
      </trkpt>
      <trkpt lat="45.25277" lon="3.71334">
        <ele>1027.259</ele>
        <time>2020-08-19T10:41:36Z</time>
      </trkpt>
      <trkpt lat="45.25277" lon="3.71334">
        <ele>1027.406</ele>
        <time>2020-08-19T10:41:37Z</time>
      </trkpt>
      <trkpt lat="45.25277" lon="3.71334">
        <ele>1027.266</ele>
        <time>2020-08-19T10:41:40Z</time>
      </trkpt>
      <trkpt lat="45.25277" lon="3.71332">
        <ele>1027.052</ele>
        <time>2020-08-19T10:41:41Z</time>
      </trkpt>
      <trkpt lat="45.25276" lon="3.71332">
        <ele>1025.261</ele>
        <time>2020-08-19T10:41:43Z</time>
      </trkpt>
      <trkpt lat="45.25276" lon="3.71332">
        <ele>1024.36</ele>
        <time>2020-08-19T10:41:46Z</time>
      </trkpt>
      <trkpt lat="45.25277" lon="3.71334">
        <ele>1024.219</ele>
        <time>2020-08-19T10:41:47Z</time>
      </trkpt>
      <trkpt lat="45.25277" lon="3.71334">
        <ele>1024.031</ele>
        <time>2020-08-19T10:41:48Z</time>
      </trkpt>
      <trkpt lat="45.25277" lon="3.71334">
        <ele>1023.196</ele>
        <time>2020-08-19T10:41:50Z</time>
      </trkpt>
      <trkpt lat="45.25277" lon="3.71335">
        <ele>1023.361</ele>
        <time>2020-08-19T10:41:51Z</time>
      </trkpt>
      <trkpt lat="45.25277" lon="3.71335">
        <ele>1023.658</ele>
        <time>2020-08-19T10:41:53Z</time>
      </trkpt>
      <trkpt lat="45.25277" lon="3.71335">
        <ele>1023.339</ele>
        <time>2020-08-19T10:41:54Z</time>
      </trkpt>
      <trkpt lat="45.25277" lon="3.71335">
        <ele>1023.339</ele>
        <time>2020-08-19T10:41:54Z</time>
      </trkpt>
      <trkpt lat="45.25277" lon="3.71335">
        <ele>1023.382</ele>
        <time>2020-08-19T10:41:55Z</time>
      </trkpt>
      <trkpt lat="45.25277" lon="3.71335">
        <ele>1023.382</ele>
        <time>2020-08-19T10:41:55Z</time>
      </trkpt>
      <trkpt lat="45.25277" lon="3.71335">
        <ele>1022.804</ele>
        <time>2020-08-19T10:41:56Z</time>
      </trkpt>
      <trkpt lat="45.25277" lon="3.71335">
        <ele>1022.384</ele>
        <time>2020-08-19T10:42:01Z</time>
      </trkpt>
      <trkpt lat="45.25278" lon="3.71335">
        <ele>1021.899</ele>
        <time>2020-08-19T10:42:02Z</time>
      </trkpt>
      <trkpt lat="45.25279" lon="3.71335">
        <ele>1021.618</ele>
        <time>2020-08-19T10:42:04Z</time>
      </trkpt>
      <trkpt lat="45.25279" lon="3.71336">
        <ele>1021.237</ele>
        <time>2020-08-19T10:42:06Z</time>
      </trkpt>
      <trkpt lat="45.25279" lon="3.71336">
        <ele>1021.177</ele>
        <time>2020-08-19T10:42:07Z</time>
      </trkpt>
      <trkpt lat="45.25279" lon="3.71336">
        <ele>1021.346</ele>
        <time>2020-08-19T10:42:10Z</time>
      </trkpt>
      <trkpt lat="45.25279" lon="3.71337">
        <ele>1021.23</ele>
        <time>2020-08-19T10:42:11Z</time>
      </trkpt>
      <trkpt lat="45.25278" lon="3.71335">
        <ele>1022.432</ele>
        <time>2020-08-19T10:42:15Z</time>
      </trkpt>
      <trkpt lat="45.25279" lon="3.71335">
        <ele>1022.135</ele>
        <time>2020-08-19T10:42:16Z</time>
      </trkpt>
      <trkpt lat="45.25279" lon="3.71334">
        <ele>1022.226</ele>
        <time>2020-08-19T10:42:18Z</time>
      </trkpt>
      <trkpt lat="45.25279" lon="3.71334">
        <ele>1021.84</ele>
        <time>2020-08-19T10:42:25Z</time>
      </trkpt>
      <trkpt lat="45.2528" lon="3.71333">
        <ele>1021.929</ele>
        <time>2020-08-19T10:42:26Z</time>
      </trkpt>
      <trkpt lat="45.2528" lon="3.71333">
        <ele>1019.97</ele>
        <time>2020-08-19T10:42:28Z</time>
      </trkpt>
      <trkpt lat="45.25279" lon="3.71332">
        <ele>1019.199</ele>
        <time>2020-08-19T10:42:45Z</time>
      </trkpt>
      <trkpt lat="45.25279" lon="3.71334">
        <ele>1019.282</ele>
        <time>2020-08-19T10:42:46Z</time>
      </trkpt>
      <trkpt lat="45.25278" lon="3.71335">
        <ele>1020.018</ele>
        <time>2020-08-19T10:42:48Z</time>
      </trkpt>
      <trkpt lat="45.25278" lon="3.71335">
        <ele>1020.018</ele>
        <time>2020-08-19T10:42:48Z</time>
      </trkpt>
      <trkpt lat="45.25278" lon="3.71336">
        <ele>1020.386</ele>
        <time>2020-08-19T10:42:49Z</time>
      </trkpt>
      <trkpt lat="45.25278" lon="3.71336">
        <ele>1020.48</ele>
        <time>2020-08-19T10:42:50Z</time>
      </trkpt>
      <trkpt lat="45.25278" lon="3.71336">
        <ele>1020.273</ele>
        <time>2020-08-19T10:42:51Z</time>
      </trkpt>
      <trkpt lat="45.25278" lon="3.71336">
        <ele>1020.695</ele>
        <time>2020-08-19T10:42:52Z</time>
      </trkpt>
      <trkpt lat="45.25278" lon="3.71336">
        <ele>1020.408</ele>
        <time>2020-08-19T10:43:10Z</time>
      </trkpt>
      <trkpt lat="45.25277" lon="3.71337">
        <ele>1020.572</ele>
        <time>2020-08-19T10:43:11Z</time>
      </trkpt>
      <trkpt lat="45.25277" lon="3.71338">
        <ele>1021.1</ele>
        <time>2020-08-19T10:43:13Z</time>
      </trkpt>
      <trkpt lat="45.25277" lon="3.71338">
        <ele>1021.551</ele>
        <time>2020-08-19T10:43:14Z</time>
      </trkpt>
      <trkpt lat="45.25277" lon="3.71339">
        <ele>1021.455</ele>
        <time>2020-08-19T10:43:15Z</time>
      </trkpt>
      <trkpt lat="45.25277" lon="3.71339">
        <ele>1021.455</ele>
        <time>2020-08-19T10:43:15Z</time>
      </trkpt>
      <trkpt lat="45.25277" lon="3.71339">
        <ele>1021.421</ele>
        <time>2020-08-19T10:43:16Z</time>
      </trkpt>
      <trkpt lat="45.25277" lon="3.71339">
        <ele>1021.9</ele>
        <time>2020-08-19T10:43:54Z</time>
      </trkpt>
      <trkpt lat="45.25275" lon="3.71339">
        <ele>1021.889</ele>
        <time>2020-08-19T10:43:55Z</time>
      </trkpt>
      <trkpt lat="45.25275" lon="3.71339">
        <ele>1020.547</ele>
        <time>2020-08-19T10:43:57Z</time>
      </trkpt>
      <trkpt lat="45.25275" lon="3.71341">
        <ele>1019.858</ele>
        <time>2020-08-19T10:44:12Z</time>
      </trkpt>
      <trkpt lat="45.25276" lon="3.71341">
        <ele>1017.778</ele>
        <time>2020-08-19T10:44:13Z</time>
      </trkpt>
      <trkpt lat="45.25276" lon="3.71341">
        <ele>1018.378</ele>
        <time>2020-08-19T10:44:15Z</time>
      </trkpt>
      <trkpt lat="45.25276" lon="3.71341">
        <ele>1018.406</ele>
        <time>2020-08-19T10:44:34Z</time>
      </trkpt>
      <trkpt lat="45.25277" lon="3.71341">
        <ele>1018.268</ele>
        <time>2020-08-19T10:44:35Z</time>
      </trkpt>
      <trkpt lat="45.25277" lon="3.71342">
        <ele>1019.678</ele>
        <time>2020-08-19T10:44:36Z</time>
      </trkpt>
      <trkpt lat="45.25277" lon="3.71342">
        <ele>1019.783</ele>
        <time>2020-08-19T10:44:37Z</time>
      </trkpt>
      <trkpt lat="45.25277" lon="3.71342">
        <ele>1019.806</ele>
        <time>2020-08-19T10:44:39Z</time>
      </trkpt>
      <trkpt lat="45.25277" lon="3.71343">
        <ele>1019.523</ele>
        <time>2020-08-19T10:44:40Z</time>
      </trkpt>
      <trkpt lat="45.2528" lon="3.71342">
        <ele>1019.24</ele>
        <time>2020-08-19T10:44:44Z</time>
      </trkpt>
      <trkpt lat="45.25281" lon="3.71342">
        <ele>1019.575</ele>
        <time>2020-08-19T10:44:45Z</time>
      </trkpt>
      <trkpt lat="45.25281" lon="3.71342">
        <ele>1019.512</ele>
        <time>2020-08-19T10:44:47Z</time>
      </trkpt>
      <trkpt lat="45.25278" lon="3.71345">
        <ele>1019.676</ele>
        <time>2020-08-19T10:44:51Z</time>
      </trkpt>
      <trkpt lat="45.25277" lon="3.71346">
        <ele>1019.544</ele>
        <time>2020-08-19T10:44:53Z</time>
      </trkpt>
      <trkpt lat="45.25276" lon="3.71347">
        <ele>1018.777</ele>
        <time>2020-08-19T10:44:55Z</time>
      </trkpt>
      <trkpt lat="45.25276" lon="3.71347">
        <ele>1018.777</ele>
        <time>2020-08-19T10:44:55Z</time>
      </trkpt>
      <trkpt lat="45.25276" lon="3.71347">
        <ele>1018.92</ele>
        <time>2020-08-19T10:44:56Z</time>
      </trkpt>
      <trkpt lat="45.25276" lon="3.71347">
        <ele>1018.92</ele>
        <time>2020-08-19T10:44:56Z</time>
      </trkpt>
      <trkpt lat="45.25275" lon="3.71348">
        <ele>1019.086</ele>
        <time>2020-08-19T10:44:57Z</time>
      </trkpt>
      <trkpt lat="45.25275" lon="3.71348">
        <ele>1019.086</ele>
        <time>2020-08-19T10:44:57Z</time>
      </trkpt>
      <trkpt lat="45.25275" lon="3.71348">
        <ele>1019.337</ele>
        <time>2020-08-19T10:44:58Z</time>
      </trkpt>
      <trkpt lat="45.25275" lon="3.7135">
        <ele>1018.582</ele>
        <time>2020-08-19T10:45:00Z</time>
      </trkpt>
      <trkpt lat="45.25275" lon="3.7135">
        <ele>1018.734</ele>
        <time>2020-08-19T10:45:01Z</time>
      </trkpt>
      <trkpt lat="45.25275" lon="3.7135">
        <ele>1018.972</ele>
        <time>2020-08-19T10:45:02Z</time>
      </trkpt>
      <trkpt lat="45.25274" lon="3.71351">
        <ele>1018.991</ele>
        <time>2020-08-19T10:45:03Z</time>
      </trkpt>
      <trkpt lat="45.25272" lon="3.71351">
        <ele>1019.589</ele>
        <time>2020-08-19T10:45:08Z</time>
      </trkpt>
      <trkpt lat="45.25271" lon="3.71352">
        <ele>1019.912</ele>
        <time>2020-08-19T10:45:10Z</time>
      </trkpt>
      <trkpt lat="45.25269" lon="3.71352">
        <ele>1021.314</ele>
        <time>2020-08-19T10:45:15Z</time>
      </trkpt>
      <trkpt lat="45.25263" lon="3.71357">
        <ele>1021.958</ele>
        <time>2020-08-19T10:45:27Z</time>
      </trkpt>
      <trkpt lat="45.25263" lon="3.71362">
        <ele>1022.439</ele>
        <time>2020-08-19T10:45:32Z</time>
      </trkpt>
      <trkpt lat="45.25263" lon="3.71363">
        <ele>1022.009</ele>
        <time>2020-08-19T10:45:34Z</time>
      </trkpt>
      <trkpt lat="45.25262" lon="3.71363">
        <ele>1021.587</ele>
        <time>2020-08-19T10:45:35Z</time>
      </trkpt>
      <trkpt lat="45.25259" lon="3.71364">
        <ele>1022.059</ele>
        <time>2020-08-19T10:45:38Z</time>
      </trkpt>
      <trkpt lat="45.25258" lon="3.71364">
        <ele>1022.04</ele>
        <time>2020-08-19T10:45:39Z</time>
      </trkpt>
      <trkpt lat="45.25258" lon="3.71364">
        <ele>1022.078</ele>
        <time>2020-08-19T10:45:40Z</time>
      </trkpt>
      <trkpt lat="45.25251" lon="3.71372">
        <ele>1020.986</ele>
        <time>2020-08-19T10:45:47Z</time>
      </trkpt>
      <trkpt lat="45.2525" lon="3.71373">
        <ele>1021.129</ele>
        <time>2020-08-19T10:45:49Z</time>
      </trkpt>
      <trkpt lat="45.25249" lon="3.71374">
        <ele>1021.571</ele>
        <time>2020-08-19T10:45:50Z</time>
      </trkpt>
      <trkpt lat="45.25246" lon="3.71379">
        <ele>1022.511</ele>
        <time>2020-08-19T10:45:58Z</time>
      </trkpt>
      <trkpt lat="45.25246" lon="3.7138">
        <ele>1023.096</ele>
        <time>2020-08-19T10:45:59Z</time>
      </trkpt>
      <trkpt lat="45.25243" lon="3.71382">
        <ele>1023.725</ele>
        <time>2020-08-19T10:46:02Z</time>
      </trkpt>
      <trkpt lat="45.25241" lon="3.71383">
        <ele>1022.733</ele>
        <time>2020-08-19T10:46:05Z</time>
      </trkpt>
      <trkpt lat="45.2524" lon="3.71385">
        <ele>1022.808</ele>
        <time>2020-08-19T10:46:07Z</time>
      </trkpt>
      <trkpt lat="45.25239" lon="3.71388">
        <ele>1022.938</ele>
        <time>2020-08-19T10:46:09Z</time>
      </trkpt>
      <trkpt lat="45.25238" lon="3.71394">
        <ele>1023.431</ele>
        <time>2020-08-19T10:46:13Z</time>
      </trkpt>
      <trkpt lat="45.25237" lon="3.71396">
        <ele>1023.983</ele>
        <time>2020-08-19T10:46:17Z</time>
      </trkpt>
      <trkpt lat="45.25237" lon="3.71396">
        <ele>1023.983</ele>
        <time>2020-08-19T10:46:17Z</time>
      </trkpt>
      <trkpt lat="45.25237" lon="3.71396">
        <ele>1024.119</ele>
        <time>2020-08-19T10:46:18Z</time>
      </trkpt>
      <trkpt lat="45.25236" lon="3.71396">
        <ele>1023.707</ele>
        <time>2020-08-19T10:46:21Z</time>
      </trkpt>
      <trkpt lat="45.25236" lon="3.71396">
        <ele>1023.434</ele>
        <time>2020-08-19T10:46:22Z</time>
      </trkpt>
      <trkpt lat="45.25236" lon="3.71397">
        <ele>1023.372</ele>
        <time>2020-08-19T10:46:23Z</time>
      </trkpt>
      <trkpt lat="45.25235" lon="3.71398">
        <ele>1023.159</ele>
        <time>2020-08-19T10:46:25Z</time>
      </trkpt>
      <trkpt lat="45.25234" lon="3.71398">
        <ele>1023.375</ele>
        <time>2020-08-19T10:46:26Z</time>
      </trkpt>
      <trkpt lat="45.25233" lon="3.71398">
        <ele>1023.404</ele>
        <time>2020-08-19T10:46:28Z</time>
      </trkpt>
      <trkpt lat="45.25233" lon="3.71398">
        <ele>1023.373</ele>
        <time>2020-08-19T10:46:29Z</time>
      </trkpt>
      <trkpt lat="45.25233" lon="3.71398">
        <ele>1022.587</ele>
        <time>2020-08-19T10:46:30Z</time>
      </trkpt>
      <trkpt lat="45.25233" lon="3.71398">
        <ele>1022.587</ele>
        <time>2020-08-19T10:46:30Z</time>
      </trkpt>
      <trkpt lat="45.25232" lon="3.71399">
        <ele>1022.602</ele>
        <time>2020-08-19T10:46:31Z</time>
      </trkpt>
      <trkpt lat="45.2523" lon="3.714">
        <ele>1022.648</ele>
        <time>2020-08-19T10:46:35Z</time>
      </trkpt>
      <trkpt lat="45.25227" lon="3.71399">
        <ele>1022.711</ele>
        <time>2020-08-19T10:46:38Z</time>
      </trkpt>
      <trkpt lat="45.25223" lon="3.714">
        <ele>1021.588</ele>
        <time>2020-08-19T10:46:43Z</time>
      </trkpt>
      <trkpt lat="45.2522" lon="3.71398">
        <ele>1021.29</ele>
        <time>2020-08-19T10:46:46Z</time>
      </trkpt>
      <trkpt lat="45.2522" lon="3.71398">
        <ele>1021.391</ele>
        <time>2020-08-19T10:46:47Z</time>
      </trkpt>
      <trkpt lat="45.2522" lon="3.71398">
        <ele>1021.391</ele>
        <time>2020-08-19T10:46:47Z</time>
      </trkpt>
      <trkpt lat="45.2522" lon="3.71398">
        <ele>1021.392</ele>
        <time>2020-08-19T10:46:48Z</time>
      </trkpt>
      <trkpt lat="45.2522" lon="3.71398">
        <ele>1021.392</ele>
        <time>2020-08-19T10:46:48Z</time>
      </trkpt>
      <trkpt lat="45.25219" lon="3.71399">
        <ele>1021.592</ele>
        <time>2020-08-19T10:46:49Z</time>
      </trkpt>
      <trkpt lat="45.25219" lon="3.71399">
        <ele>1021.592</ele>
        <time>2020-08-19T10:46:49Z</time>
      </trkpt>
      <trkpt lat="45.25219" lon="3.71399">
        <ele>1021.589</ele>
        <time>2020-08-19T10:46:50Z</time>
      </trkpt>
      <trkpt lat="45.25219" lon="3.71399">
        <ele>1021.793</ele>
        <time>2020-08-19T10:46:51Z</time>
      </trkpt>
      <trkpt lat="45.25219" lon="3.71399">
        <ele>1021.793</ele>
        <time>2020-08-19T10:46:51Z</time>
      </trkpt>
      <trkpt lat="45.25219" lon="3.71401">
        <ele>1021.866</ele>
        <time>2020-08-19T10:46:52Z</time>
      </trkpt>
      <trkpt lat="45.25218" lon="3.71402">
        <ele>1022.253</ele>
        <time>2020-08-19T10:46:54Z</time>
      </trkpt>
      <trkpt lat="45.25217" lon="3.71403">
        <ele>1022.28</ele>
        <time>2020-08-19T10:46:56Z</time>
      </trkpt>
      <trkpt lat="45.25217" lon="3.71403">
        <ele>1021.623</ele>
        <time>2020-08-19T10:47:01Z</time>
      </trkpt>
      <trkpt lat="45.25217" lon="3.71406">
        <ele>1021.941</ele>
        <time>2020-08-19T10:47:02Z</time>
      </trkpt>
      <trkpt lat="45.25217" lon="3.71407">
        <ele>1022.548</ele>
        <time>2020-08-19T10:47:06Z</time>
      </trkpt>
      <trkpt lat="45.25217" lon="3.71407">
        <ele>1022.548</ele>
        <time>2020-08-19T10:47:06Z</time>
      </trkpt>
      <trkpt lat="45.25217" lon="3.71407">
        <ele>1022.404</ele>
        <time>2020-08-19T10:47:07Z</time>
      </trkpt>
      <trkpt lat="45.25216" lon="3.71408">
        <ele>1022.692</ele>
        <time>2020-08-19T10:47:11Z</time>
      </trkpt>
      <trkpt lat="45.25216" lon="3.71408">
        <ele>1022.847</ele>
        <time>2020-08-19T10:47:12Z</time>
      </trkpt>
      <trkpt lat="45.25216" lon="3.71407">
        <ele>1022.863</ele>
        <time>2020-08-19T10:47:13Z</time>
      </trkpt>
      <trkpt lat="45.25216" lon="3.71403">
        <ele>1022.771</ele>
        <time>2020-08-19T10:47:15Z</time>
      </trkpt>
      <trkpt lat="45.25216" lon="3.71403">
        <ele>1023.179</ele>
        <time>2020-08-19T10:47:16Z</time>
      </trkpt>
      <trkpt lat="45.25216" lon="3.71403">
        <ele>1022.226</ele>
        <time>2020-08-19T10:47:17Z</time>
      </trkpt>
      <trkpt lat="45.25217" lon="3.71403">
        <ele>1022.245</ele>
        <time>2020-08-19T10:47:18Z</time>
      </trkpt>
      <trkpt lat="45.25217" lon="3.71404">
        <ele>1021.952</ele>
        <time>2020-08-19T10:47:20Z</time>
      </trkpt>
      <trkpt lat="45.25217" lon="3.71404">
        <ele>1021.868</ele>
        <time>2020-08-19T10:47:27Z</time>
      </trkpt>
      <trkpt lat="45.25218" lon="3.71405">
        <ele>1021.706</ele>
        <time>2020-08-19T10:47:28Z</time>
      </trkpt>
      <trkpt lat="45.25218" lon="3.71406">
        <ele>1022.722</ele>
        <time>2020-08-19T10:47:30Z</time>
      </trkpt>
      <trkpt lat="45.25218" lon="3.71406">
        <ele>1023.826</ele>
        <time>2020-08-19T10:47:31Z</time>
      </trkpt>
      <trkpt lat="45.25218" lon="3.71406">
        <ele>1024.411</ele>
        <time>2020-08-19T10:47:32Z</time>
      </trkpt>
      <trkpt lat="45.25218" lon="3.71406">
        <ele>1024.397</ele>
        <time>2020-08-19T10:47:33Z</time>
      </trkpt>
      <trkpt lat="45.25218" lon="3.71406">
        <ele>1024.397</ele>
        <time>2020-08-19T10:47:33Z</time>
      </trkpt>
      <trkpt lat="45.25218" lon="3.71406">
        <ele>1024.596</ele>
        <time>2020-08-19T10:47:34Z</time>
      </trkpt>
      <trkpt lat="45.25218" lon="3.71406">
        <ele>1024.623</ele>
        <time>2020-08-19T10:47:35Z</time>
      </trkpt>
      <trkpt lat="45.25218" lon="3.71406">
        <ele>1024.363</ele>
        <time>2020-08-19T10:47:45Z</time>
      </trkpt>
      <trkpt lat="45.25218" lon="3.71405">
        <ele>1023.879</ele>
        <time>2020-08-19T10:47:46Z</time>
      </trkpt>
      <trkpt lat="45.25217" lon="3.71404">
        <ele>1023.825</ele>
        <time>2020-08-19T10:47:47Z</time>
      </trkpt>
      <trkpt lat="45.25216" lon="3.71405">
        <ele>1023.468</ele>
        <time>2020-08-19T10:47:51Z</time>
      </trkpt>
      <trkpt lat="45.25215" lon="3.71407">
        <ele>1021.698</ele>
        <time>2020-08-19T10:47:54Z</time>
      </trkpt>
      <trkpt lat="45.25215" lon="3.71408">
        <ele>1021.911</ele>
        <time>2020-08-19T10:47:55Z</time>
      </trkpt>
      <trkpt lat="45.25216" lon="3.71409">
        <ele>1022.561</ele>
        <time>2020-08-19T10:47:56Z</time>
      </trkpt>
      <trkpt lat="45.25216" lon="3.7141">
        <ele>1022.864</ele>
        <time>2020-08-19T10:47:58Z</time>
      </trkpt>
      <trkpt lat="45.25216" lon="3.7141">
        <ele>1022.864</ele>
        <time>2020-08-19T10:47:58Z</time>
      </trkpt>
      <trkpt lat="45.25215" lon="3.7141">
        <ele>1023.197</ele>
        <time>2020-08-19T10:47:59Z</time>
      </trkpt>
      <trkpt lat="45.25213" lon="3.71415">
        <ele>1021.016</ele>
        <time>2020-08-19T10:48:08Z</time>
      </trkpt>
      <trkpt lat="45.25213" lon="3.71417">
        <ele>1019.807</ele>
        <time>2020-08-19T10:48:10Z</time>
      </trkpt>
      <trkpt lat="45.25213" lon="3.71418">
        <ele>1020.059</ele>
        <time>2020-08-19T10:48:11Z</time>
      </trkpt>
      <trkpt lat="45.25213" lon="3.71418">
        <ele>1020.059</ele>
        <time>2020-08-19T10:48:11Z</time>
      </trkpt>
      <trkpt lat="45.25214" lon="3.71419">
        <ele>1019.888</ele>
        <time>2020-08-19T10:48:12Z</time>
      </trkpt>
      <trkpt lat="45.25214" lon="3.7142">
        <ele>1018.945</ele>
        <time>2020-08-19T10:48:15Z</time>
      </trkpt>
      <trkpt lat="45.25214" lon="3.7142">
        <ele>1018.945</ele>
        <time>2020-08-19T10:48:15Z</time>
      </trkpt>
      <trkpt lat="45.25214" lon="3.71421">
        <ele>1019.434</ele>
        <time>2020-08-19T10:48:16Z</time>
      </trkpt>
      <trkpt lat="45.25213" lon="3.71425">
        <ele>1020.362</ele>
        <time>2020-08-19T10:48:18Z</time>
      </trkpt>
      <trkpt lat="45.25212" lon="3.71429">
        <ele>1020.384</ele>
        <time>2020-08-19T10:48:20Z</time>
      </trkpt>
      <trkpt lat="45.25209" lon="3.71437">
        <ele>1021.713</ele>
        <time>2020-08-19T10:48:25Z</time>
      </trkpt>
      <trkpt lat="45.25209" lon="3.71439">
        <ele>1021.596</ele>
        <time>2020-08-19T10:48:27Z</time>
      </trkpt>
      <trkpt lat="45.25211" lon="3.71442">
        <ele>1022.091</ele>
        <time>2020-08-19T10:48:30Z</time>
      </trkpt>
      <trkpt lat="45.25216" lon="3.71445">
        <ele>1021.27</ele>
        <time>2020-08-19T10:48:39Z</time>
      </trkpt>
      <trkpt lat="45.25218" lon="3.71445">
        <ele>1021.228</ele>
        <time>2020-08-19T10:48:42Z</time>
      </trkpt>
      <trkpt lat="45.25216" lon="3.71446">
        <ele>1021.708</ele>
        <time>2020-08-19T10:48:45Z</time>
      </trkpt>
      <trkpt lat="45.25216" lon="3.71447">
        <ele>1020.998</ele>
        <time>2020-08-19T10:48:46Z</time>
      </trkpt>
      <trkpt lat="45.25216" lon="3.71449">
        <ele>1021.28</ele>
        <time>2020-08-19T10:48:47Z</time>
      </trkpt>
      <trkpt lat="45.25215" lon="3.7145">
        <ele>1021.592</ele>
        <time>2020-08-19T10:48:48Z</time>
      </trkpt>
      <trkpt lat="45.25215" lon="3.71451">
        <ele>1021.766</ele>
        <time>2020-08-19T10:48:49Z</time>
      </trkpt>
      <trkpt lat="45.25215" lon="3.71452">
        <ele>1022.396</ele>
        <time>2020-08-19T10:48:50Z</time>
      </trkpt>
      <trkpt lat="45.25216" lon="3.71452">
        <ele>1022.315</ele>
        <time>2020-08-19T10:48:51Z</time>
      </trkpt>
      <trkpt lat="45.25216" lon="3.71452">
        <ele>1022.093</ele>
        <time>2020-08-19T10:48:53Z</time>
      </trkpt>
      <trkpt lat="45.25216" lon="3.71452">
        <ele>1022.142</ele>
        <time>2020-08-19T10:48:54Z</time>
      </trkpt>
      <trkpt lat="45.25216" lon="3.71452">
        <ele>1022.294</ele>
        <time>2020-08-19T10:48:55Z</time>
      </trkpt>
      <trkpt lat="45.25215" lon="3.71452">
        <ele>1022.302</ele>
        <time>2020-08-19T10:48:56Z</time>
      </trkpt>
      <trkpt lat="45.25214" lon="3.71452">
        <ele>1022.108</ele>
        <time>2020-08-19T10:48:57Z</time>
      </trkpt>
      <trkpt lat="45.25214" lon="3.71452">
        <ele>1021.824</ele>
        <time>2020-08-19T10:48:58Z</time>
      </trkpt>
      <trkpt lat="45.25213" lon="3.71452">
        <ele>1022.154</ele>
        <time>2020-08-19T10:48:59Z</time>
      </trkpt>
      <trkpt lat="45.25212" lon="3.71452">
        <ele>1022.211</ele>
        <time>2020-08-19T10:49:00Z</time>
      </trkpt>
      <trkpt lat="45.25212" lon="3.71451">
        <ele>1022.155</ele>
        <time>2020-08-19T10:49:02Z</time>
      </trkpt>
      <trkpt lat="45.25212" lon="3.71451">
        <ele>1022.274</ele>
        <time>2020-08-19T10:49:04Z</time>
      </trkpt>
      <trkpt lat="45.25211" lon="3.71453">
        <ele>1022.345</ele>
        <time>2020-08-19T10:49:05Z</time>
      </trkpt>
      <trkpt lat="45.2521" lon="3.71454">
        <ele>1022.771</ele>
        <time>2020-08-19T10:49:07Z</time>
      </trkpt>
      <trkpt lat="45.25201" lon="3.71473">
        <ele>1023.316</ele>
        <time>2020-08-19T10:49:22Z</time>
      </trkpt>
      <trkpt lat="45.25197" lon="3.71479">
        <ele>1023.608</ele>
        <time>2020-08-19T10:49:26Z</time>
      </trkpt>
      <trkpt lat="45.25197" lon="3.7148">
        <ele>1023.572</ele>
        <time>2020-08-19T10:49:27Z</time>
      </trkpt>
      <trkpt lat="45.25192" lon="3.71488">
        <ele>1023.912</ele>
        <time>2020-08-19T10:49:36Z</time>
      </trkpt>
      <trkpt lat="45.25192" lon="3.71488">
        <ele>1023.674</ele>
        <time>2020-08-19T10:49:37Z</time>
      </trkpt>
      <trkpt lat="45.25192" lon="3.71488">
        <ele>1023.674</ele>
        <time>2020-08-19T10:49:37Z</time>
      </trkpt>
      <trkpt lat="45.25192" lon="3.71488">
        <ele>1023.646</ele>
        <time>2020-08-19T10:49:38Z</time>
      </trkpt>
      <trkpt lat="45.25192" lon="3.71488">
        <ele>1023.646</ele>
        <time>2020-08-19T10:49:38Z</time>
      </trkpt>
      <trkpt lat="45.25193" lon="3.71488">
        <ele>1023.956</ele>
        <time>2020-08-19T10:49:39Z</time>
      </trkpt>
      <trkpt lat="45.25193" lon="3.71488">
        <ele>1023.956</ele>
        <time>2020-08-19T10:49:39Z</time>
      </trkpt>
      <trkpt lat="45.25193" lon="3.71488">
        <ele>1024.404</ele>
        <time>2020-08-19T10:49:40Z</time>
      </trkpt>
      <trkpt lat="45.25193" lon="3.71488">
        <ele>1023.941</ele>
        <time>2020-08-19T10:49:44Z</time>
      </trkpt>
      <trkpt lat="45.25193" lon="3.71485">
        <ele>1024.212</ele>
        <time>2020-08-19T10:49:45Z</time>
      </trkpt>
      <trkpt lat="45.25193" lon="3.71484">
        <ele>1024.256</ele>
        <time>2020-08-19T10:49:46Z</time>
      </trkpt>
      <trkpt lat="45.25193" lon="3.71484">
        <ele>1024.448</ele>
        <time>2020-08-19T10:49:47Z</time>
      </trkpt>
      <trkpt lat="45.25193" lon="3.71484">
        <ele>1024.448</ele>
        <time>2020-08-19T10:49:47Z</time>
      </trkpt>
      <trkpt lat="45.25192" lon="3.71483">
        <ele>1024.573</ele>
        <time>2020-08-19T10:49:48Z</time>
      </trkpt>
      <trkpt lat="45.25191" lon="3.71481">
        <ele>1024.954</ele>
        <time>2020-08-19T10:49:50Z</time>
      </trkpt>
      <trkpt lat="45.25188" lon="3.71479">
        <ele>1024.83</ele>
        <time>2020-08-19T10:49:52Z</time>
      </trkpt>
      <trkpt lat="45.25186" lon="3.71479">
        <ele>1024.963</ele>
        <time>2020-08-19T10:49:54Z</time>
      </trkpt>
      <trkpt lat="45.25185" lon="3.71479">
        <ele>1024.752</ele>
        <time>2020-08-19T10:49:55Z</time>
      </trkpt>
      <trkpt lat="45.25183" lon="3.71477">
        <ele>1025.217</ele>
        <time>2020-08-19T10:49:58Z</time>
      </trkpt>
      <trkpt lat="45.25182" lon="3.71477">
        <ele>1025.286</ele>
        <time>2020-08-19T10:49:59Z</time>
      </trkpt>
      <trkpt lat="45.25181" lon="3.71472">
        <ele>1024.66</ele>
        <time>2020-08-19T10:50:02Z</time>
      </trkpt>
      <trkpt lat="45.25182" lon="3.71468">
        <ele>1024.601</ele>
        <time>2020-08-19T10:50:05Z</time>
      </trkpt>
      <trkpt lat="45.25182" lon="3.71464">
        <ele>1024.253</ele>
        <time>2020-08-19T10:50:08Z</time>
      </trkpt>
      <trkpt lat="45.25182" lon="3.71462">
        <ele>1024.267</ele>
        <time>2020-08-19T10:50:10Z</time>
      </trkpt>
      <trkpt lat="45.25182" lon="3.71459">
        <ele>1024.079</ele>
        <time>2020-08-19T10:50:11Z</time>
      </trkpt>
      <trkpt lat="45.25183" lon="3.71457">
        <ele>1023.609</ele>
        <time>2020-08-19T10:50:12Z</time>
      </trkpt>
      <trkpt lat="45.25185" lon="3.71453">
        <ele>1023.201</ele>
        <time>2020-08-19T10:50:14Z</time>
      </trkpt>
      <trkpt lat="45.25185" lon="3.71453">
        <ele>1023.102</ele>
        <time>2020-08-19T10:50:15Z</time>
      </trkpt>
      <trkpt lat="45.25185" lon="3.71453">
        <ele>1023.102</ele>
        <time>2020-08-19T10:50:15Z</time>
      </trkpt>
      <trkpt lat="45.25186" lon="3.71452">
        <ele>1023.343</ele>
        <time>2020-08-19T10:50:16Z</time>
      </trkpt>
      <trkpt lat="45.25186" lon="3.71452">
        <ele>1022.989</ele>
        <time>2020-08-19T10:50:17Z</time>
      </trkpt>
      <trkpt lat="45.25186" lon="3.71452">
        <ele>1022.989</ele>
        <time>2020-08-19T10:50:17Z</time>
      </trkpt>
      <trkpt lat="45.25186" lon="3.71451">
        <ele>1022.915</ele>
        <time>2020-08-19T10:50:18Z</time>
      </trkpt>
      <trkpt lat="45.25186" lon="3.71451">
        <ele>1023.05</ele>
        <time>2020-08-19T10:50:19Z</time>
      </trkpt>
      <trkpt lat="45.25186" lon="3.71451">
        <ele>1023.05</ele>
        <time>2020-08-19T10:50:19Z</time>
      </trkpt>
      <trkpt lat="45.25186" lon="3.71451">
        <ele>1022.818</ele>
        <time>2020-08-19T10:50:20Z</time>
      </trkpt>
      <trkpt lat="45.25186" lon="3.71451">
        <ele>1022.965</ele>
        <time>2020-08-19T10:50:21Z</time>
      </trkpt>
      <trkpt lat="45.25186" lon="3.71451">
        <ele>1022.965</ele>
        <time>2020-08-19T10:50:21Z</time>
      </trkpt>
      <trkpt lat="45.25186" lon="3.71451">
        <ele>1022.976</ele>
        <time>2020-08-19T10:50:22Z</time>
      </trkpt>
      <trkpt lat="45.25185" lon="3.71451">
        <ele>1022.887</ele>
        <time>2020-08-19T10:50:23Z</time>
      </trkpt>
      <trkpt lat="45.25181" lon="3.71452">
        <ele>1022.917</ele>
        <time>2020-08-19T10:50:28Z</time>
      </trkpt>
      <trkpt lat="45.2518" lon="3.71452">
        <ele>1022.365</ele>
        <time>2020-08-19T10:50:30Z</time>
      </trkpt>
      <trkpt lat="45.2518" lon="3.71455">
        <ele>1022.373</ele>
        <time>2020-08-19T10:50:33Z</time>
      </trkpt>
      <trkpt lat="45.2518" lon="3.71455">
        <ele>1022.545</ele>
        <time>2020-08-19T10:50:34Z</time>
      </trkpt>
      <trkpt lat="45.25182" lon="3.71457">
        <ele>1022.132</ele>
        <time>2020-08-19T10:50:37Z</time>
      </trkpt>
      <trkpt lat="45.25183" lon="3.71457">
        <ele>1022.423</ele>
        <time>2020-08-19T10:50:38Z</time>
      </trkpt>
      <trkpt lat="45.25185" lon="3.71458">
        <ele>1022.543</ele>
        <time>2020-08-19T10:50:41Z</time>
      </trkpt>
      <trkpt lat="45.25185" lon="3.71456">
        <ele>1022.413</ele>
        <time>2020-08-19T10:50:46Z</time>
      </trkpt>
      <trkpt lat="45.25186" lon="3.71457">
        <ele>1022.303</ele>
        <time>2020-08-19T10:50:49Z</time>
      </trkpt>
      <trkpt lat="45.25187" lon="3.71457">
        <ele>1022.528</ele>
        <time>2020-08-19T10:50:50Z</time>
      </trkpt>
      <trkpt lat="45.25187" lon="3.71457">
        <ele>1023.17</ele>
        <time>2020-08-19T10:50:52Z</time>
      </trkpt>
      <trkpt lat="45.25187" lon="3.71457">
        <ele>1023.558</ele>
        <time>2020-08-19T10:50:53Z</time>
      </trkpt>
      <trkpt lat="45.25187" lon="3.71456">
        <ele>1023.664</ele>
        <time>2020-08-19T10:50:54Z</time>
      </trkpt>
      <trkpt lat="45.25186" lon="3.71455">
        <ele>1023.715</ele>
        <time>2020-08-19T10:50:56Z</time>
      </trkpt>
      <trkpt lat="45.25186" lon="3.71455">
        <ele>1023.775</ele>
        <time>2020-08-19T10:50:59Z</time>
      </trkpt>
      <trkpt lat="45.25185" lon="3.71453">
        <ele>1024.056</ele>
        <time>2020-08-19T10:51:00Z</time>
      </trkpt>
      <trkpt lat="45.25185" lon="3.71453">
        <ele>1024.056</ele>
        <time>2020-08-19T10:51:00Z</time>
      </trkpt>
      <trkpt lat="45.25185" lon="3.71453">
        <ele>1024.059</ele>
        <time>2020-08-19T10:51:01Z</time>
      </trkpt>
      <trkpt lat="45.25185" lon="3.71453">
        <ele>1024.225</ele>
        <time>2020-08-19T10:51:04Z</time>
      </trkpt>
      <trkpt lat="45.25185" lon="3.71453">
        <ele>1024.156</ele>
        <time>2020-08-19T10:51:05Z</time>
      </trkpt>
      <trkpt lat="45.25185" lon="3.71453">
        <ele>1023.909</ele>
        <time>2020-08-19T10:51:06Z</time>
      </trkpt>
      <trkpt lat="45.25185" lon="3.71453">
        <ele>1023.909</ele>
        <time>2020-08-19T10:51:06Z</time>
      </trkpt>
      <trkpt lat="45.25184" lon="3.71454">
        <ele>1023.684</ele>
        <time>2020-08-19T10:51:07Z</time>
      </trkpt>
      <trkpt lat="45.25184" lon="3.71454">
        <ele>1023.684</ele>
        <time>2020-08-19T10:51:07Z</time>
      </trkpt>
      <trkpt lat="45.25184" lon="3.71454">
        <ele>1023.552</ele>
        <time>2020-08-19T10:51:08Z</time>
      </trkpt>
      <trkpt lat="45.25184" lon="3.71454">
        <ele>1023.254</ele>
        <time>2020-08-19T10:52:47Z</time>
      </trkpt>
      <trkpt lat="45.25184" lon="3.71454">
        <ele>1023.941</ele>
        <time>2020-08-19T10:52:48Z</time>
      </trkpt>
      <trkpt lat="45.25184" lon="3.71454">
        <ele>1023.939</ele>
        <time>2020-08-19T10:52:49Z</time>
      </trkpt>
      <trkpt lat="45.25184" lon="3.71454">
        <ele>1028.5</ele>
        <time>2020-08-19T11:29:23Z</time>
      </trkpt>
      <trkpt lat="45.25181" lon="3.71452">
        <ele>1028.158</ele>
        <time>2020-08-19T11:29:24Z</time>
      </trkpt>
      <trkpt lat="45.25181" lon="3.71453">
        <ele>1027.909</ele>
        <time>2020-08-19T11:29:26Z</time>
      </trkpt>
      <trkpt lat="45.25181" lon="3.71453">
        <ele>1025.854</ele>
        <time>2020-08-19T11:29:30Z</time>
      </trkpt>
      <trkpt lat="45.25182" lon="3.71452">
        <ele>1023.962</ele>
        <time>2020-08-19T11:29:31Z</time>
      </trkpt>
      <trkpt lat="45.25183" lon="3.71452">
        <ele>1024.521</ele>
        <time>2020-08-19T11:29:32Z</time>
      </trkpt>
      <trkpt lat="45.25183" lon="3.71452">
        <ele>1024.346</ele>
        <time>2020-08-19T11:29:33Z</time>
      </trkpt>
      <trkpt lat="45.25182" lon="3.71452">
        <ele>1024.485</ele>
        <time>2020-08-19T11:29:35Z</time>
      </trkpt>
      <trkpt lat="45.25182" lon="3.71452">
        <ele>1025.031</ele>
        <time>2020-08-19T11:37:51Z</time>
      </trkpt>
      <trkpt lat="45.25183" lon="3.71452">
        <ele>1024.475</ele>
        <time>2020-08-19T11:37:52Z</time>
      </trkpt>
      <trkpt lat="45.25183" lon="3.71452">
        <ele>1024.384</ele>
        <time>2020-08-19T11:37:53Z</time>
      </trkpt>
      <trkpt lat="45.25183" lon="3.71451">
        <ele>1024.514</ele>
        <time>2020-08-19T11:37:54Z</time>
      </trkpt>
      <trkpt lat="45.25183" lon="3.71451">
        <ele>1024.323</ele>
        <time>2020-08-19T11:37:55Z</time>
      </trkpt>
      <trkpt lat="45.25183" lon="3.71451">
        <ele>1024.323</ele>
        <time>2020-08-19T11:37:55Z</time>
      </trkpt>
      <trkpt lat="45.25183" lon="3.71451">
        <ele>1024.541</ele>
        <time>2020-08-19T11:37:56Z</time>
      </trkpt>
      <trkpt lat="45.25183" lon="3.71451">
        <ele>1024.596</ele>
        <time>2020-08-19T11:37:57Z</time>
      </trkpt>
      <trkpt lat="45.25184" lon="3.7145">
        <ele>1024.501</ele>
        <time>2020-08-19T11:38:33Z</time>
      </trkpt>
      <trkpt lat="45.25184" lon="3.71449">
        <ele>1024.629</ele>
        <time>2020-08-19T11:38:34Z</time>
      </trkpt>
      <trkpt lat="45.25183" lon="3.71449">
        <ele>1024.5</ele>
        <time>2020-08-19T11:38:36Z</time>
      </trkpt>
      <trkpt lat="45.25183" lon="3.71449">
        <ele>1024.954</ele>
        <time>2020-08-19T11:38:37Z</time>
      </trkpt>
      <trkpt lat="45.25183" lon="3.71449">
        <ele>1027.308</ele>
        <time>2020-08-19T11:38:40Z</time>
      </trkpt>
      <trkpt lat="45.25184" lon="3.71449">
        <ele>1027.368</ele>
        <time>2020-08-19T11:38:41Z</time>
      </trkpt>
      <trkpt lat="45.25183" lon="3.71451">
        <ele>1026.719</ele>
        <time>2020-08-19T11:38:46Z</time>
      </trkpt>
      <trkpt lat="45.25182" lon="3.71451">
        <ele>1026.807</ele>
        <time>2020-08-19T11:38:48Z</time>
      </trkpt>
      <trkpt lat="45.25182" lon="3.71451">
        <ele>1026.798</ele>
        <time>2020-08-19T11:38:50Z</time>
      </trkpt>
      <trkpt lat="45.25181" lon="3.71451">
        <ele>1026.873</ele>
        <time>2020-08-19T11:38:51Z</time>
      </trkpt>
      <trkpt lat="45.25181" lon="3.71451">
        <ele>1026.259</ele>
        <time>2020-08-19T11:38:52Z</time>
      </trkpt>
      <trkpt lat="45.25181" lon="3.71451">
        <ele>1027.072</ele>
        <time>2020-08-19T11:38:53Z</time>
      </trkpt>
      <trkpt lat="45.25181" lon="3.7145">
        <ele>1026.332</ele>
        <time>2020-08-19T11:38:54Z</time>
      </trkpt>
      <trkpt lat="45.25181" lon="3.7145">
        <ele>1026.598</ele>
        <time>2020-08-19T11:38:55Z</time>
      </trkpt>
      <trkpt lat="45.25181" lon="3.7145">
        <ele>1026.741</ele>
        <time>2020-08-19T11:38:57Z</time>
      </trkpt>
      <trkpt lat="45.2518" lon="3.71449">
        <ele>1026.855</ele>
        <time>2020-08-19T11:38:58Z</time>
      </trkpt>
      <trkpt lat="45.25179" lon="3.71449">
        <ele>1026.765</ele>
        <time>2020-08-19T11:39:00Z</time>
      </trkpt>
      <trkpt lat="45.25178" lon="3.71448">
        <ele>1025.491</ele>
        <time>2020-08-19T11:39:03Z</time>
      </trkpt>
      <trkpt lat="45.25178" lon="3.71448">
        <ele>1025.027</ele>
        <time>2020-08-19T11:39:04Z</time>
      </trkpt>
      <trkpt lat="45.25178" lon="3.71448">
        <ele>1025.027</ele>
        <time>2020-08-19T11:39:04Z</time>
      </trkpt>
      <trkpt lat="45.25178" lon="3.71448">
        <ele>1024.845</ele>
        <time>2020-08-19T11:39:05Z</time>
      </trkpt>
      <trkpt lat="45.25178" lon="3.71448">
        <ele>1024.646</ele>
        <time>2020-08-19T11:39:07Z</time>
      </trkpt>
      <trkpt lat="45.25178" lon="3.71448">
        <ele>1024.646</ele>
        <time>2020-08-19T11:39:07Z</time>
      </trkpt>
      <trkpt lat="45.25177" lon="3.71448">
        <ele>1024.845</ele>
        <time>2020-08-19T11:39:08Z</time>
      </trkpt>
      <trkpt lat="45.25177" lon="3.71448">
        <ele>1024.845</ele>
        <time>2020-08-19T11:39:08Z</time>
      </trkpt>
      <trkpt lat="45.25177" lon="3.71448">
        <ele>1024.775</ele>
        <time>2020-08-19T11:39:09Z</time>
      </trkpt>
      <trkpt lat="45.25177" lon="3.71448">
        <ele>1024.775</ele>
        <time>2020-08-19T11:39:09Z</time>
      </trkpt>
      <trkpt lat="45.25177" lon="3.71448">
        <ele>1024.101</ele>
        <time>2020-08-19T11:39:10Z</time>
      </trkpt>
      <trkpt lat="45.25177" lon="3.71448">
        <ele>1024.101</ele>
        <time>2020-08-19T11:39:10Z</time>
      </trkpt>
      <trkpt lat="45.25177" lon="3.71448">
        <ele>1024.372</ele>
        <time>2020-08-19T11:39:11Z</time>
      </trkpt>
      <trkpt lat="45.25177" lon="3.71448">
        <ele>1024.372</ele>
        <time>2020-08-19T11:39:11Z</time>
      </trkpt>
      <trkpt lat="45.25177" lon="3.71449">
        <ele>1024.743</ele>
        <time>2020-08-19T11:39:12Z</time>
      </trkpt>
      <trkpt lat="45.25177" lon="3.71449">
        <ele>1024.743</ele>
        <time>2020-08-19T11:39:12Z</time>
      </trkpt>
      <trkpt lat="45.25177" lon="3.71449">
        <ele>1024.687</ele>
        <time>2020-08-19T11:39:13Z</time>
      </trkpt>
      <trkpt lat="45.25178" lon="3.71448">
        <ele>1024.147</ele>
        <time>2020-08-19T11:39:14Z</time>
      </trkpt>
      <trkpt lat="45.25178" lon="3.71448">
        <ele>1024.43</ele>
        <time>2020-08-19T11:39:15Z</time>
      </trkpt>
      <trkpt lat="45.25178" lon="3.71448">
        <ele>1024.18</ele>
        <time>2020-08-19T11:39:17Z</time>
      </trkpt>
      <trkpt lat="45.25179" lon="3.71448">
        <ele>1023.832</ele>
        <time>2020-08-19T11:39:18Z</time>
      </trkpt>
      <trkpt lat="45.25179" lon="3.71448">
        <ele>1023.997</ele>
        <time>2020-08-19T11:39:19Z</time>
      </trkpt>
      <trkpt lat="45.25179" lon="3.71448">
        <ele>1024.048</ele>
        <time>2020-08-19T11:39:36Z</time>
      </trkpt>
      <trkpt lat="45.25178" lon="3.71449">
        <ele>1023.999</ele>
        <time>2020-08-19T11:39:37Z</time>
      </trkpt>
      <trkpt lat="45.25178" lon="3.71449">
        <ele>1023.999</ele>
        <time>2020-08-19T11:39:37Z</time>
      </trkpt>
      <trkpt lat="45.25178" lon="3.71449">
        <ele>1025.578</ele>
        <time>2020-08-19T11:39:38Z</time>
      </trkpt>
      <trkpt lat="45.25178" lon="3.71449">
        <ele>1026.089</ele>
        <time>2020-08-19T11:39:39Z</time>
      </trkpt>
      <trkpt lat="45.25178" lon="3.71449">
        <ele>1025.594</ele>
        <time>2020-08-19T11:39:40Z</time>
      </trkpt>
      <trkpt lat="45.25178" lon="3.71449">
        <ele>1024.703</ele>
        <time>2020-08-19T11:39:41Z</time>
      </trkpt>
      <trkpt lat="45.25178" lon="3.71449">
        <ele>1025.825</ele>
        <time>2020-08-19T11:39:42Z</time>
      </trkpt>
      <trkpt lat="45.25179" lon="3.71451">
        <ele>1025.646</ele>
        <time>2020-08-19T11:39:46Z</time>
      </trkpt>
      <trkpt lat="45.25179" lon="3.71451">
        <ele>1025.646</ele>
        <time>2020-08-19T11:39:46Z</time>
      </trkpt>
      <trkpt lat="45.25179" lon="3.71452">
        <ele>1025.52</ele>
        <time>2020-08-19T11:39:47Z</time>
      </trkpt>
      <trkpt lat="45.25179" lon="3.71452">
        <ele>1025.63</ele>
        <time>2020-08-19T11:39:48Z</time>
      </trkpt>
      <trkpt lat="45.25179" lon="3.71451">
        <ele>1025.452</ele>
        <time>2020-08-19T11:39:49Z</time>
      </trkpt>
      <trkpt lat="45.25179" lon="3.71451">
        <ele>1025.672</ele>
        <time>2020-08-19T11:39:50Z</time>
      </trkpt>
      <trkpt lat="45.25179" lon="3.71451">
        <ele>1025.525</ele>
        <time>2020-08-19T11:39:51Z</time>
      </trkpt>
      <trkpt lat="45.25179" lon="3.71451">
        <ele>1025.525</ele>
        <time>2020-08-19T11:39:51Z</time>
      </trkpt>
      <trkpt lat="45.25179" lon="3.71451">
        <ele>1026.007</ele>
        <time>2020-08-19T11:39:52Z</time>
      </trkpt>
      <trkpt lat="45.2518" lon="3.71451">
        <ele>1025.79</ele>
        <time>2020-08-19T11:39:53Z</time>
      </trkpt>
      <trkpt lat="45.2518" lon="3.71451">
        <ele>1026.188</ele>
        <time>2020-08-19T11:39:55Z</time>
      </trkpt>
      <trkpt lat="45.2518" lon="3.71451">
        <ele>1026.188</ele>
        <time>2020-08-19T11:39:55Z</time>
      </trkpt>
      <trkpt lat="45.2518" lon="3.71451">
        <ele>1026.336</ele>
        <time>2020-08-19T11:39:56Z</time>
      </trkpt>
      <trkpt lat="45.25181" lon="3.71451">
        <ele>1026.279</ele>
        <time>2020-08-19T11:39:57Z</time>
      </trkpt>
      <trkpt lat="45.25181" lon="3.71451">
        <ele>1026.608</ele>
        <time>2020-08-19T11:39:58Z</time>
      </trkpt>
      <trkpt lat="45.25181" lon="3.71451">
        <ele>1026.052</ele>
        <time>2020-08-19T11:39:59Z</time>
      </trkpt>
      <trkpt lat="45.25181" lon="3.71451">
        <ele>1026.306</ele>
        <time>2020-08-19T11:40:00Z</time>
      </trkpt>
      <trkpt lat="45.25181" lon="3.71451">
        <ele>1026.306</ele>
        <time>2020-08-19T11:40:00Z</time>
      </trkpt>
      <trkpt lat="45.25181" lon="3.71449">
        <ele>1025.766</ele>
        <time>2020-08-19T11:40:01Z</time>
      </trkpt>
      <trkpt lat="45.25181" lon="3.71449">
        <ele>1025.766</ele>
        <time>2020-08-19T11:40:01Z</time>
      </trkpt>
      <trkpt lat="45.25181" lon="3.71449">
        <ele>1025.978</ele>
        <time>2020-08-19T11:40:02Z</time>
      </trkpt>
      <trkpt lat="45.25182" lon="3.71449">
        <ele>1024.986</ele>
        <time>2020-08-19T11:40:06Z</time>
      </trkpt>
      <trkpt lat="45.25182" lon="3.71449">
        <ele>1024.986</ele>
        <time>2020-08-19T11:40:06Z</time>
      </trkpt>
      <trkpt lat="45.25182" lon="3.71449">
        <ele>1026.139</ele>
        <time>2020-08-19T11:40:07Z</time>
      </trkpt>
      <trkpt lat="45.25183" lon="3.71449">
        <ele>1026.076</ele>
        <time>2020-08-19T11:40:08Z</time>
      </trkpt>
      <trkpt lat="45.25183" lon="3.71449">
        <ele>1026.516</ele>
        <time>2020-08-19T11:40:09Z</time>
      </trkpt>
      <trkpt lat="45.25184" lon="3.71448">
        <ele>1026.311</ele>
        <time>2020-08-19T11:40:12Z</time>
      </trkpt>
      <trkpt lat="45.25184" lon="3.71452">
        <ele>1026.161</ele>
        <time>2020-08-19T11:40:16Z</time>
      </trkpt>
      <trkpt lat="45.25184" lon="3.71452">
        <ele>1025.927</ele>
        <time>2020-08-19T11:40:19Z</time>
      </trkpt>
      <trkpt lat="45.25186" lon="3.71452">
        <ele>1025.987</ele>
        <time>2020-08-19T11:40:20Z</time>
      </trkpt>
      <trkpt lat="45.25185" lon="3.71451">
        <ele>1025.915</ele>
        <time>2020-08-19T11:40:21Z</time>
      </trkpt>
      <trkpt lat="45.25185" lon="3.71451">
        <ele>1026.243</ele>
        <time>2020-08-19T11:40:22Z</time>
      </trkpt>
      <trkpt lat="45.25184" lon="3.71449">
        <ele>1026.533</ele>
        <time>2020-08-19T11:40:23Z</time>
      </trkpt>
      <trkpt lat="45.25187" lon="3.71448">
        <ele>1024.409</ele>
        <time>2020-08-19T11:40:27Z</time>
      </trkpt>
      <trkpt lat="45.25188" lon="3.71447">
        <ele>1023.651</ele>
        <time>2020-08-19T11:40:28Z</time>
      </trkpt>
      <trkpt lat="45.25188" lon="3.71448">
        <ele>1023.798</ele>
        <time>2020-08-19T11:40:30Z</time>
      </trkpt>
      <trkpt lat="45.25189" lon="3.71448">
        <ele>1024.256</ele>
        <time>2020-08-19T11:40:32Z</time>
      </trkpt>
      <trkpt lat="45.25189" lon="3.71449">
        <ele>1024.204</ele>
        <time>2020-08-19T11:40:33Z</time>
      </trkpt>
      <trkpt lat="45.25186" lon="3.71452">
        <ele>1024.221</ele>
        <time>2020-08-19T11:40:35Z</time>
      </trkpt>
      <trkpt lat="45.25183" lon="3.71457">
        <ele>1023.362</ele>
        <time>2020-08-19T11:40:38Z</time>
      </trkpt>
      <trkpt lat="45.25182" lon="3.71458">
        <ele>1022.327</ele>
        <time>2020-08-19T11:40:39Z</time>
      </trkpt>
      <trkpt lat="45.25181" lon="3.7146">
        <ele>1023.336</ele>
        <time>2020-08-19T11:40:42Z</time>
      </trkpt>
      <trkpt lat="45.25181" lon="3.71464">
        <ele>1022.375</ele>
        <time>2020-08-19T11:40:46Z</time>
      </trkpt>
      <trkpt lat="45.25179" lon="3.71467">
        <ele>1022.945</ele>
        <time>2020-08-19T11:40:48Z</time>
      </trkpt>
      <trkpt lat="45.25179" lon="3.71471">
        <ele>1023.1</ele>
        <time>2020-08-19T11:40:51Z</time>
      </trkpt>
      <trkpt lat="45.25178" lon="3.71476">
        <ele>1023.54</ele>
        <time>2020-08-19T11:40:54Z</time>
      </trkpt>
      <trkpt lat="45.25178" lon="3.71479">
        <ele>1023.433</ele>
        <time>2020-08-19T11:40:56Z</time>
      </trkpt>
      <trkpt lat="45.2518" lon="3.71482">
        <ele>1026.151</ele>
        <time>2020-08-19T11:41:01Z</time>
      </trkpt>
      <trkpt lat="45.25182" lon="3.71485">
        <ele>1027.948</ele>
        <time>2020-08-19T11:41:07Z</time>
      </trkpt>
      <trkpt lat="45.25183" lon="3.71485">
        <ele>1028.077</ele>
        <time>2020-08-19T11:41:08Z</time>
      </trkpt>
      <trkpt lat="45.25186" lon="3.71485">
        <ele>1028.252</ele>
        <time>2020-08-19T11:41:12Z</time>
      </trkpt>
      <trkpt lat="45.25184" lon="3.71485">
        <ele>1027.597</ele>
        <time>2020-08-19T11:41:13Z</time>
      </trkpt>
      <trkpt lat="45.25171" lon="3.71477">
        <ele>1026.444</ele>
        <time>2020-08-19T11:41:22Z</time>
      </trkpt>
      <trkpt lat="45.25171" lon="3.71478">
        <ele>1026.328</ele>
        <time>2020-08-19T11:41:24Z</time>
      </trkpt>
      <trkpt lat="45.25172" lon="3.71478">
        <ele>1026.545</ele>
        <time>2020-08-19T11:41:25Z</time>
      </trkpt>
      <trkpt lat="45.25172" lon="3.71478">
        <ele>1026.864</ele>
        <time>2020-08-19T11:41:26Z</time>
      </trkpt>
      <trkpt lat="45.25172" lon="3.71478">
        <ele>1026.864</ele>
        <time>2020-08-19T11:41:26Z</time>
      </trkpt>
      <trkpt lat="45.25173" lon="3.71479">
        <ele>1027.426</ele>
        <time>2020-08-19T11:41:27Z</time>
      </trkpt>
      <trkpt lat="45.25173" lon="3.71479">
        <ele>1027.426</ele>
        <time>2020-08-19T11:41:27Z</time>
      </trkpt>
      <trkpt lat="45.25173" lon="3.71479">
        <ele>1027.875</ele>
        <time>2020-08-19T11:41:28Z</time>
      </trkpt>
      <trkpt lat="45.25173" lon="3.71479">
        <ele>1027.875</ele>
        <time>2020-08-19T11:41:28Z</time>
      </trkpt>
      <trkpt lat="45.25175" lon="3.7148">
        <ele>1028.178</ele>
        <time>2020-08-19T11:41:29Z</time>
      </trkpt>
      <trkpt lat="45.25177" lon="3.71482">
        <ele>1028.805</ele>
        <time>2020-08-19T11:41:33Z</time>
      </trkpt>
      <trkpt lat="45.25179" lon="3.71484">
        <ele>1029.117</ele>
        <time>2020-08-19T11:41:40Z</time>
      </trkpt>
      <trkpt lat="45.25179" lon="3.71484">
        <ele>1029.267</ele>
        <time>2020-08-19T11:41:41Z</time>
      </trkpt>
      <trkpt lat="45.25179" lon="3.71484">
        <ele>1028.758</ele>
        <time>2020-08-19T11:41:42Z</time>
      </trkpt>
      <trkpt lat="45.2518" lon="3.71483">
        <ele>1028.769</ele>
        <time>2020-08-19T11:41:43Z</time>
      </trkpt>
      <trkpt lat="45.25179" lon="3.71482">
        <ele>1028.579</ele>
        <time>2020-08-19T11:41:45Z</time>
      </trkpt>
      <trkpt lat="45.25179" lon="3.71482">
        <ele>1028.47</ele>
        <time>2020-08-19T11:41:57Z</time>
      </trkpt>
      <trkpt lat="45.25179" lon="3.71482">
        <ele>1028.727</ele>
        <time>2020-08-19T11:41:58Z</time>
      </trkpt>
      <trkpt lat="45.25179" lon="3.71483">
        <ele>1028.587</ele>
        <time>2020-08-19T11:41:59Z</time>
      </trkpt>
      <trkpt lat="45.25178" lon="3.71483">
        <ele>1028.638</ele>
        <time>2020-08-19T11:42:00Z</time>
      </trkpt>
      <trkpt lat="45.25177" lon="3.71483">
        <ele>1028.049</ele>
        <time>2020-08-19T11:42:01Z</time>
      </trkpt>
      <trkpt lat="45.25176" lon="3.71482">
        <ele>1028.041</ele>
        <time>2020-08-19T11:42:03Z</time>
      </trkpt>
      <trkpt lat="45.25176" lon="3.71482">
        <ele>1029.07</ele>
        <time>2020-08-19T11:42:06Z</time>
      </trkpt>
      <trkpt lat="45.25176" lon="3.71482">
        <ele>1029.07</ele>
        <time>2020-08-19T11:42:06Z</time>
      </trkpt>
      <trkpt lat="45.25177" lon="3.71481">
        <ele>1029.774</ele>
        <time>2020-08-19T11:42:07Z</time>
      </trkpt>
      <trkpt lat="45.25176" lon="3.71481">
        <ele>1028.929</ele>
        <time>2020-08-19T11:42:09Z</time>
      </trkpt>
      <trkpt lat="45.25174" lon="3.71477">
        <ele>1028.678</ele>
        <time>2020-08-19T11:42:11Z</time>
      </trkpt>
      <trkpt lat="45.25171" lon="3.71474">
        <ele>1030.008</ele>
        <time>2020-08-19T11:42:14Z</time>
      </trkpt>
      <trkpt lat="45.25172" lon="3.71474">
        <ele>1029.456</ele>
        <time>2020-08-19T11:42:15Z</time>
      </trkpt>
      <trkpt lat="45.25174" lon="3.71474">
        <ele>1028.988</ele>
        <time>2020-08-19T11:42:17Z</time>
      </trkpt>
      <trkpt lat="45.25179" lon="3.71475">
        <ele>1028.809</ele>
        <time>2020-08-19T11:42:19Z</time>
      </trkpt>
      <trkpt lat="45.25177" lon="3.7148">
        <ele>1029.108</ele>
        <time>2020-08-19T11:42:24Z</time>
      </trkpt>
      <trkpt lat="45.25177" lon="3.7148">
        <ele>1028.464</ele>
        <time>2020-08-19T11:42:40Z</time>
      </trkpt>
      <trkpt lat="45.25174" lon="3.71483">
        <ele>1028.334</ele>
        <time>2020-08-19T11:42:41Z</time>
      </trkpt>
      <trkpt lat="45.25172" lon="3.71485">
        <ele>1027.558</ele>
        <time>2020-08-19T11:42:43Z</time>
      </trkpt>
      <trkpt lat="45.25171" lon="3.71487">
        <ele>1028.105</ele>
        <time>2020-08-19T11:42:45Z</time>
      </trkpt>
      <trkpt lat="45.25169" lon="3.71491">
        <ele>1028.509</ele>
        <time>2020-08-19T11:42:48Z</time>
      </trkpt>
      <trkpt lat="45.25163" lon="3.71498">
        <ele>1030.614</ele>
        <time>2020-08-19T11:42:52Z</time>
      </trkpt>
      <trkpt lat="45.25162" lon="3.71502">
        <ele>1029.624</ele>
        <time>2020-08-19T11:42:55Z</time>
      </trkpt>
      <trkpt lat="45.25162" lon="3.71502">
        <ele>1030.324</ele>
        <time>2020-08-19T11:42:56Z</time>
      </trkpt>
      <trkpt lat="45.25162" lon="3.71502">
        <ele>1030.324</ele>
        <time>2020-08-19T11:42:56Z</time>
      </trkpt>
      <trkpt lat="45.25163" lon="3.71505">
        <ele>1031.134</ele>
        <time>2020-08-19T11:42:57Z</time>
      </trkpt>
      <trkpt lat="45.25163" lon="3.71507">
        <ele>1031.114</ele>
        <time>2020-08-19T11:42:58Z</time>
      </trkpt>
      <trkpt lat="45.25163" lon="3.71509">
        <ele>1032.165</ele>
        <time>2020-08-19T11:43:00Z</time>
      </trkpt>
      <trkpt lat="45.25162" lon="3.71511">
        <ele>1031.304</ele>
        <time>2020-08-19T11:43:02Z</time>
      </trkpt>
      <trkpt lat="45.25159" lon="3.71514">
        <ele>1031.557</ele>
        <time>2020-08-19T11:43:05Z</time>
      </trkpt>
      <trkpt lat="45.25154" lon="3.71519">
        <ele>1031.39</ele>
        <time>2020-08-19T11:43:11Z</time>
      </trkpt>
      <trkpt lat="45.25151" lon="3.71521">
        <ele>1031.801</ele>
        <time>2020-08-19T11:43:14Z</time>
      </trkpt>
      <trkpt lat="45.25145" lon="3.71528">
        <ele>1032.643</ele>
        <time>2020-08-19T11:43:22Z</time>
      </trkpt>
      <trkpt lat="45.25145" lon="3.71529">
        <ele>1032.471</ele>
        <time>2020-08-19T11:43:23Z</time>
      </trkpt>
      <trkpt lat="45.25145" lon="3.71529">
        <ele>1032.888</ele>
        <time>2020-08-19T11:43:24Z</time>
      </trkpt>
      <trkpt lat="45.25145" lon="3.71529">
        <ele>1033.65</ele>
        <time>2020-08-19T11:43:27Z</time>
      </trkpt>
      <trkpt lat="45.25144" lon="3.7153">
        <ele>1033.259</ele>
        <time>2020-08-19T11:43:28Z</time>
      </trkpt>
      <trkpt lat="45.25138" lon="3.71533">
        <ele>1033.792</ele>
        <time>2020-08-19T11:43:34Z</time>
      </trkpt>
      <trkpt lat="45.2513" lon="3.71546">
        <ele>1035.279</ele>
        <time>2020-08-19T11:43:43Z</time>
      </trkpt>
      <trkpt lat="45.2513" lon="3.71547">
        <ele>1035.505</ele>
        <time>2020-08-19T11:43:44Z</time>
      </trkpt>
      <trkpt lat="45.25129" lon="3.71548">
        <ele>1035.371</ele>
        <time>2020-08-19T11:43:45Z</time>
      </trkpt>
      <trkpt lat="45.25129" lon="3.71549">
        <ele>1035.345</ele>
        <time>2020-08-19T11:43:46Z</time>
      </trkpt>
      <trkpt lat="45.25119" lon="3.71555">
        <ele>1037.391</ele>
        <time>2020-08-19T11:43:54Z</time>
      </trkpt>
      <trkpt lat="45.25112" lon="3.71561">
        <ele>1036.496</ele>
        <time>2020-08-19T11:44:03Z</time>
      </trkpt>
      <trkpt lat="45.25109" lon="3.71563">
        <ele>1036.216</ele>
        <time>2020-08-19T11:44:07Z</time>
      </trkpt>
      <trkpt lat="45.25105" lon="3.71563">
        <ele>1036.205</ele>
        <time>2020-08-19T11:44:11Z</time>
      </trkpt>
      <trkpt lat="45.25101" lon="3.71565">
        <ele>1036.786</ele>
        <time>2020-08-19T11:44:15Z</time>
      </trkpt>
      <trkpt lat="45.25095" lon="3.71574">
        <ele>1035.842</ele>
        <time>2020-08-19T11:44:23Z</time>
      </trkpt>
      <trkpt lat="45.25091" lon="3.71577">
        <ele>1036.072</ele>
        <time>2020-08-19T11:44:26Z</time>
      </trkpt>
      <trkpt lat="45.25073" lon="3.71603">
        <ele>1036.287</ele>
        <time>2020-08-19T11:44:52Z</time>
      </trkpt>
      <trkpt lat="45.25073" lon="3.71605">
        <ele>1036.28</ele>
        <time>2020-08-19T11:44:54Z</time>
      </trkpt>
      <trkpt lat="45.2507" lon="3.71608">
        <ele>1036.23</ele>
        <time>2020-08-19T11:44:57Z</time>
      </trkpt>
      <trkpt lat="45.25058" lon="3.71622">
        <ele>1036.211</ele>
        <time>2020-08-19T11:45:12Z</time>
      </trkpt>
      <trkpt lat="45.25057" lon="3.71622">
        <ele>1036.449</ele>
        <time>2020-08-19T11:45:13Z</time>
      </trkpt>
      <trkpt lat="45.2504" lon="3.71646">
        <ele>1037.126</ele>
        <time>2020-08-19T11:45:34Z</time>
      </trkpt>
      <trkpt lat="45.25035" lon="3.71654">
        <ele>1036.498</ele>
        <time>2020-08-19T11:45:42Z</time>
      </trkpt>
      <trkpt lat="45.2502" lon="3.71672">
        <ele>1036.897</ele>
        <time>2020-08-19T11:46:00Z</time>
      </trkpt>
      <trkpt lat="45.25017" lon="3.71674">
        <ele>1037.193</ele>
        <time>2020-08-19T11:46:03Z</time>
      </trkpt>
      <trkpt lat="45.25016" lon="3.71676">
        <ele>1037.551</ele>
        <time>2020-08-19T11:46:04Z</time>
      </trkpt>
      <trkpt lat="45.25008" lon="3.71684">
        <ele>1037.9</ele>
        <time>2020-08-19T11:46:12Z</time>
      </trkpt>
      <trkpt lat="45.25004" lon="3.7169">
        <ele>1038.266</ele>
        <time>2020-08-19T11:46:18Z</time>
      </trkpt>
      <trkpt lat="45.25003" lon="3.71691">
        <ele>1037.982</ele>
        <time>2020-08-19T11:46:19Z</time>
      </trkpt>
      <trkpt lat="45.25" lon="3.71695">
        <ele>1037.869</ele>
        <time>2020-08-19T11:46:23Z</time>
      </trkpt>
      <trkpt lat="45.24997" lon="3.71697">
        <ele>1037.8</ele>
        <time>2020-08-19T11:46:27Z</time>
      </trkpt>
      <trkpt lat="45.24991" lon="3.71703">
        <ele>1038.236</ele>
        <time>2020-08-19T11:46:33Z</time>
      </trkpt>
      <trkpt lat="45.24991" lon="3.71704">
        <ele>1038.309</ele>
        <time>2020-08-19T11:46:33Z</time>
      </trkpt>
      <trkpt lat="45.24988" lon="3.7171">
        <ele>1038.54</ele>
        <time>2020-08-19T11:46:37Z</time>
      </trkpt>
      <trkpt lat="45.24987" lon="3.71711">
        <ele>1038.804</ele>
        <time>2020-08-19T11:46:39Z</time>
      </trkpt>
      <trkpt lat="45.24987" lon="3.71711">
        <ele>1038.804</ele>
        <time>2020-08-19T11:46:39Z</time>
      </trkpt>
      <trkpt lat="45.24987" lon="3.71713">
        <ele>1039.077</ele>
        <time>2020-08-19T11:46:40Z</time>
      </trkpt>
      <trkpt lat="45.24987" lon="3.71716">
        <ele>1039.28</ele>
        <time>2020-08-19T11:46:42Z</time>
      </trkpt>
      <trkpt lat="45.24984" lon="3.71719">
        <ele>1039.343</ele>
        <time>2020-08-19T11:46:44Z</time>
      </trkpt>
      <trkpt lat="45.24981" lon="3.71721">
        <ele>1039.501</ele>
        <time>2020-08-19T11:46:46Z</time>
      </trkpt>
      <trkpt lat="45.24976" lon="3.71724">
        <ele>1039.613</ele>
        <time>2020-08-19T11:46:50Z</time>
      </trkpt>
      <trkpt lat="45.24973" lon="3.71727">
        <ele>1040.322</ele>
        <time>2020-08-19T11:46:53Z</time>
      </trkpt>
      <trkpt lat="45.24968" lon="3.71731">
        <ele>1040.476</ele>
        <time>2020-08-19T11:46:57Z</time>
      </trkpt>
      <trkpt lat="45.24965" lon="3.71732">
        <ele>1040.14</ele>
        <time>2020-08-19T11:47:00Z</time>
      </trkpt>
      <trkpt lat="45.24949" lon="3.71738">
        <ele>1040.533</ele>
        <time>2020-08-19T11:47:10Z</time>
      </trkpt>
      <trkpt lat="45.24948" lon="3.71739">
        <ele>1040.938</ele>
        <time>2020-08-19T11:47:12Z</time>
      </trkpt>
      <trkpt lat="45.24945" lon="3.7174">
        <ele>1040.902</ele>
        <time>2020-08-19T11:47:16Z</time>
      </trkpt>
      <trkpt lat="45.24942" lon="3.71741">
        <ele>1041.18</ele>
        <time>2020-08-19T11:47:18Z</time>
      </trkpt>
      <trkpt lat="45.24936" lon="3.71745">
        <ele>1040.796</ele>
        <time>2020-08-19T11:47:22Z</time>
      </trkpt>
      <trkpt lat="45.24931" lon="3.71747">
        <ele>1040.747</ele>
        <time>2020-08-19T11:47:26Z</time>
      </trkpt>
      <trkpt lat="45.24928" lon="3.71748">
        <ele>1040.934</ele>
        <time>2020-08-19T11:47:28Z</time>
      </trkpt>
      <trkpt lat="45.24918" lon="3.71753">
        <ele>1040.961</ele>
        <time>2020-08-19T11:47:35Z</time>
      </trkpt>
      <trkpt lat="45.24915" lon="3.71752">
        <ele>1040.915</ele>
        <time>2020-08-19T11:47:37Z</time>
      </trkpt>
      <trkpt lat="45.2491" lon="3.7175">
        <ele>1041.818</ele>
        <time>2020-08-19T11:47:41Z</time>
      </trkpt>
      <trkpt lat="45.24897" lon="3.7175">
        <ele>1042.304</ele>
        <time>2020-08-19T11:47:53Z</time>
      </trkpt>
      <trkpt lat="45.24896" lon="3.7175">
        <ele>1042.317</ele>
        <time>2020-08-19T11:47:54Z</time>
      </trkpt>
      <trkpt lat="45.24894" lon="3.71749">
        <ele>1042.33</ele>
        <time>2020-08-19T11:47:57Z</time>
      </trkpt>
      <trkpt lat="45.24891" lon="3.71747">
        <ele>1042.476</ele>
        <time>2020-08-19T11:48:00Z</time>
      </trkpt>
      <trkpt lat="45.24877" lon="3.7174">
        <ele>1044.145</ele>
        <time>2020-08-19T11:48:14Z</time>
      </trkpt>
      <trkpt lat="45.24875" lon="3.71739">
        <ele>1044.087</ele>
        <time>2020-08-19T11:48:16Z</time>
      </trkpt>
      <trkpt lat="45.24852" lon="3.71741">
        <ele>1043.768</ele>
        <time>2020-08-19T11:48:39Z</time>
      </trkpt>
      <trkpt lat="45.24852" lon="3.71741">
        <ele>1043.768</ele>
        <time>2020-08-19T11:48:39Z</time>
      </trkpt>
      <trkpt lat="45.2485" lon="3.71741">
        <ele>1043.714</ele>
        <time>2020-08-19T11:48:40Z</time>
      </trkpt>
      <trkpt lat="45.24848" lon="3.7174">
        <ele>1043.345</ele>
        <time>2020-08-19T11:48:42Z</time>
      </trkpt>
      <trkpt lat="45.24844" lon="3.71739">
        <ele>1043.426</ele>
        <time>2020-08-19T11:48:45Z</time>
      </trkpt>
      <trkpt lat="45.24835" lon="3.71737">
        <ele>1042.942</ele>
        <time>2020-08-19T11:48:51Z</time>
      </trkpt>
      <trkpt lat="45.24829" lon="3.71736">
        <ele>1043.3</ele>
        <time>2020-08-19T11:48:54Z</time>
      </trkpt>
      <trkpt lat="45.24819" lon="3.71734">
        <ele>1043.757</ele>
        <time>2020-08-19T11:49:03Z</time>
      </trkpt>
      <trkpt lat="45.24817" lon="3.71729">
        <ele>1043.588</ele>
        <time>2020-08-19T11:49:06Z</time>
      </trkpt>
      <trkpt lat="45.24817" lon="3.71726">
        <ele>1043.519</ele>
        <time>2020-08-19T11:49:07Z</time>
      </trkpt>
      <trkpt lat="45.24814" lon="3.7172">
        <ele>1043.238</ele>
        <time>2020-08-19T11:49:11Z</time>
      </trkpt>
      <trkpt lat="45.24811" lon="3.71719">
        <ele>1043.446</ele>
        <time>2020-08-19T11:49:15Z</time>
      </trkpt>
      <trkpt lat="45.24807" lon="3.71719">
        <ele>1043.85</ele>
        <time>2020-08-19T11:49:18Z</time>
      </trkpt>
      <trkpt lat="45.248" lon="3.71719">
        <ele>1044.003</ele>
        <time>2020-08-19T11:49:22Z</time>
      </trkpt>
      <trkpt lat="45.24799" lon="3.71719">
        <ele>1044.069</ele>
        <time>2020-08-19T11:49:23Z</time>
      </trkpt>
      <trkpt lat="45.24798" lon="3.71719">
        <ele>1044.304</ele>
        <time>2020-08-19T11:49:24Z</time>
      </trkpt>
      <trkpt lat="45.24794" lon="3.71718">
        <ele>1044.755</ele>
        <time>2020-08-19T11:49:27Z</time>
      </trkpt>
      <trkpt lat="45.24787" lon="3.7171">
        <ele>1045.02</ele>
        <time>2020-08-19T11:49:34Z</time>
      </trkpt>
      <trkpt lat="45.24781" lon="3.71701">
        <ele>1044.464</ele>
        <time>2020-08-19T11:49:38Z</time>
      </trkpt>
      <trkpt lat="45.24778" lon="3.71693">
        <ele>1044.362</ele>
        <time>2020-08-19T11:49:41Z</time>
      </trkpt>
      <trkpt lat="45.24776" lon="3.71691">
        <ele>1044.122</ele>
        <time>2020-08-19T11:49:43Z</time>
      </trkpt>
      <trkpt lat="45.24769" lon="3.71683">
        <ele>1043.484</ele>
        <time>2020-08-19T11:49:51Z</time>
      </trkpt>
      <trkpt lat="45.24759" lon="3.71674">
        <ele>1042.81</ele>
        <time>2020-08-19T11:50:02Z</time>
      </trkpt>
      <trkpt lat="45.24756" lon="3.71668">
        <ele>1042.07</ele>
        <time>2020-08-19T11:50:07Z</time>
      </trkpt>
      <trkpt lat="45.2475" lon="3.71652">
        <ele>1042.806</ele>
        <time>2020-08-19T11:50:17Z</time>
      </trkpt>
      <trkpt lat="45.24738" lon="3.71631">
        <ele>1042.379</ele>
        <time>2020-08-19T11:50:31Z</time>
      </trkpt>
      <trkpt lat="45.24736" lon="3.71628">
        <ele>1042.965</ele>
        <time>2020-08-19T11:50:34Z</time>
      </trkpt>
      <trkpt lat="45.24735" lon="3.71623">
        <ele>1042.454</ele>
        <time>2020-08-19T11:50:37Z</time>
      </trkpt>
      <trkpt lat="45.24734" lon="3.71619">
        <ele>1042.064</ele>
        <time>2020-08-19T11:50:39Z</time>
      </trkpt>
      <trkpt lat="45.24726" lon="3.71606">
        <ele>1042.156</ele>
        <time>2020-08-19T11:50:47Z</time>
      </trkpt>
      <trkpt lat="45.24724" lon="3.71604">
        <ele>1042.094</ele>
        <time>2020-08-19T11:50:50Z</time>
      </trkpt>
      <trkpt lat="45.24723" lon="3.71604">
        <ele>1042.08</ele>
        <time>2020-08-19T11:50:51Z</time>
      </trkpt>
      <trkpt lat="45.24722" lon="3.71604">
        <ele>1042.171</ele>
        <time>2020-08-19T11:50:52Z</time>
      </trkpt>
      <trkpt lat="45.24717" lon="3.71599">
        <ele>1041.627</ele>
        <time>2020-08-19T11:50:57Z</time>
      </trkpt>
      <trkpt lat="45.24711" lon="3.71581">
        <ele>1041.456</ele>
        <time>2020-08-19T11:51:12Z</time>
      </trkpt>
      <trkpt lat="45.24709" lon="3.71577">
        <ele>1041.374</ele>
        <time>2020-08-19T11:51:17Z</time>
      </trkpt>
      <trkpt lat="45.24708" lon="3.71573">
        <ele>1040.823</ele>
        <time>2020-08-19T11:51:20Z</time>
      </trkpt>
      <trkpt lat="45.24707" lon="3.71567">
        <ele>1039.663</ele>
        <time>2020-08-19T11:51:26Z</time>
      </trkpt>
      <trkpt lat="45.24703" lon="3.71559">
        <ele>1039.073</ele>
        <time>2020-08-19T11:51:31Z</time>
      </trkpt>
      <trkpt lat="45.24694" lon="3.71541">
        <ele>1037.826</ele>
        <time>2020-08-19T11:51:42Z</time>
      </trkpt>
      <trkpt lat="45.24693" lon="3.71541">
        <ele>1037.893</ele>
        <time>2020-08-19T11:51:44Z</time>
      </trkpt>
      <trkpt lat="45.24691" lon="3.7154">
        <ele>1037.651</ele>
        <time>2020-08-19T11:51:46Z</time>
      </trkpt>
      <trkpt lat="45.24682" lon="3.71528">
        <ele>1036.726</ele>
        <time>2020-08-19T11:51:56Z</time>
      </trkpt>
      <trkpt lat="45.2468" lon="3.71524">
        <ele>1036.934</ele>
        <time>2020-08-19T11:51:59Z</time>
      </trkpt>
      <trkpt lat="45.24678" lon="3.71524">
        <ele>1036.754</ele>
        <time>2020-08-19T11:52:01Z</time>
      </trkpt>
      <trkpt lat="45.24678" lon="3.71525">
        <ele>1036.728</ele>
        <time>2020-08-19T11:52:02Z</time>
      </trkpt>
      <trkpt lat="45.24675" lon="3.71527">
        <ele>1036.477</ele>
        <time>2020-08-19T11:52:05Z</time>
      </trkpt>
      <trkpt lat="45.24672" lon="3.71523">
        <ele>1036.07</ele>
        <time>2020-08-19T11:52:08Z</time>
      </trkpt>
      <trkpt lat="45.24654" lon="3.71501">
        <ele>1034.043</ele>
        <time>2020-08-19T11:52:24Z</time>
      </trkpt>
      <trkpt lat="45.24652" lon="3.71498">
        <ele>1034.035</ele>
        <time>2020-08-19T11:52:28Z</time>
      </trkpt>
      <trkpt lat="45.24649" lon="3.71494">
        <ele>1034.062</ele>
        <time>2020-08-19T11:52:32Z</time>
      </trkpt>
      <trkpt lat="45.24641" lon="3.71483">
        <ele>1033.884</ele>
        <time>2020-08-19T11:52:41Z</time>
      </trkpt>
      <trkpt lat="45.24635" lon="3.71478">
        <ele>1033.539</ele>
        <time>2020-08-19T11:52:46Z</time>
      </trkpt>
      <trkpt lat="45.24627" lon="3.71474">
        <ele>1032.678</ele>
        <time>2020-08-19T11:52:53Z</time>
      </trkpt>
      <trkpt lat="45.24618" lon="3.7147">
        <ele>1032.429</ele>
        <time>2020-08-19T11:53:01Z</time>
      </trkpt>
      <trkpt lat="45.24615" lon="3.71467">
        <ele>1032.225</ele>
        <time>2020-08-19T11:53:04Z</time>
      </trkpt>
      <trkpt lat="45.24612" lon="3.71466">
        <ele>1032.669</ele>
        <time>2020-08-19T11:53:07Z</time>
      </trkpt>
      <trkpt lat="45.24611" lon="3.71465">
        <ele>1032.554</ele>
        <time>2020-08-19T11:53:08Z</time>
      </trkpt>
      <trkpt lat="45.24609" lon="3.71461">
        <ele>1033.465</ele>
        <time>2020-08-19T11:53:12Z</time>
      </trkpt>
      <trkpt lat="45.24606" lon="3.71459">
        <ele>1033.947</ele>
        <time>2020-08-19T11:53:14Z</time>
      </trkpt>
      <trkpt lat="45.24598" lon="3.71452">
        <ele>1033.529</ele>
        <time>2020-08-19T11:53:20Z</time>
      </trkpt>
      <trkpt lat="45.24594" lon="3.71438">
        <ele>1033.884</ele>
        <time>2020-08-19T11:53:28Z</time>
      </trkpt>
      <trkpt lat="45.24594" lon="3.71435">
        <ele>1033.738</ele>
        <time>2020-08-19T11:53:30Z</time>
      </trkpt>
      <trkpt lat="45.24594" lon="3.71434">
        <ele>1033.686</ele>
        <time>2020-08-19T11:53:31Z</time>
      </trkpt>
      <trkpt lat="45.24594" lon="3.71432">
        <ele>1033.741</ele>
        <time>2020-08-19T11:53:32Z</time>
      </trkpt>
      <trkpt lat="45.24593" lon="3.71429">
        <ele>1034.432</ele>
        <time>2020-08-19T11:53:34Z</time>
      </trkpt>
      <trkpt lat="45.24591" lon="3.71423">
        <ele>1034.242</ele>
        <time>2020-08-19T11:53:40Z</time>
      </trkpt>
      <trkpt lat="45.24591" lon="3.71423">
        <ele>1034.089</ele>
        <time>2020-08-19T11:53:41Z</time>
      </trkpt>
      <trkpt lat="45.24591" lon="3.71423">
        <ele>1034.133</ele>
        <time>2020-08-19T11:53:42Z</time>
      </trkpt>
      <trkpt lat="45.2459" lon="3.71413">
        <ele>1033.425</ele>
        <time>2020-08-19T11:53:46Z</time>
      </trkpt>
      <trkpt lat="45.24588" lon="3.71388">
        <ele>1031.683</ele>
        <time>2020-08-19T11:53:56Z</time>
      </trkpt>
      <trkpt lat="45.24582" lon="3.71366">
        <ele>1031.178</ele>
        <time>2020-08-19T11:54:09Z</time>
      </trkpt>
      <trkpt lat="45.24563" lon="3.71341">
        <ele>1029.678</ele>
        <time>2020-08-19T11:54:34Z</time>
      </trkpt>
      <trkpt lat="45.2456" lon="3.71339">
        <ele>1029.963</ele>
        <time>2020-08-19T11:54:37Z</time>
      </trkpt>
      <trkpt lat="45.24558" lon="3.71336">
        <ele>1030.157</ele>
        <time>2020-08-19T11:54:40Z</time>
      </trkpt>
      <trkpt lat="45.24548" lon="3.71322">
        <ele>1030.571</ele>
        <time>2020-08-19T11:54:51Z</time>
      </trkpt>
      <trkpt lat="45.24546" lon="3.7132">
        <ele>1030.35</ele>
        <time>2020-08-19T11:54:55Z</time>
      </trkpt>
      <trkpt lat="45.24533" lon="3.7131">
        <ele>1029.453</ele>
        <time>2020-08-19T11:55:05Z</time>
      </trkpt>
      <trkpt lat="45.24532" lon="3.71306">
        <ele>1029.331</ele>
        <time>2020-08-19T11:55:07Z</time>
      </trkpt>
      <trkpt lat="45.24531" lon="3.71303">
        <ele>1029.688</ele>
        <time>2020-08-19T11:55:10Z</time>
      </trkpt>
      <trkpt lat="45.2453" lon="3.71303">
        <ele>1029.846</ele>
        <time>2020-08-19T11:55:11Z</time>
      </trkpt>
      <trkpt lat="45.24529" lon="3.71302">
        <ele>1030.06</ele>
        <time>2020-08-19T11:55:14Z</time>
      </trkpt>
      <trkpt lat="45.24527" lon="3.71299">
        <ele>1030.399</ele>
        <time>2020-08-19T11:55:16Z</time>
      </trkpt>
      <trkpt lat="45.2452" lon="3.71292">
        <ele>1030.34</ele>
        <time>2020-08-19T11:55:24Z</time>
      </trkpt>
      <trkpt lat="45.2452" lon="3.71291">
        <ele>1029.909</ele>
        <time>2020-08-19T11:55:26Z</time>
      </trkpt>
      <trkpt lat="45.2452" lon="3.71286">
        <ele>1030.366</ele>
        <time>2020-08-19T11:55:29Z</time>
      </trkpt>
      <trkpt lat="45.24519" lon="3.71279">
        <ele>1030.228</ele>
        <time>2020-08-19T11:55:34Z</time>
      </trkpt>
      <trkpt lat="45.24517" lon="3.71276">
        <ele>1030.228</ele>
        <time>2020-08-19T11:55:37Z</time>
      </trkpt>
      <trkpt lat="45.24515" lon="3.71271">
        <ele>1030.869</ele>
        <time>2020-08-19T11:55:40Z</time>
      </trkpt>
      <trkpt lat="45.24512" lon="3.71255">
        <ele>1031.872</ele>
        <time>2020-08-19T11:55:46Z</time>
      </trkpt>
      <trkpt lat="45.24509" lon="3.71251">
        <ele>1032.067</ele>
        <time>2020-08-19T11:55:49Z</time>
      </trkpt>
      <trkpt lat="45.24507" lon="3.71251">
        <ele>1032.513</ele>
        <time>2020-08-19T11:55:51Z</time>
      </trkpt>
      <trkpt lat="45.24506" lon="3.7125">
        <ele>1032.712</ele>
        <time>2020-08-19T11:55:52Z</time>
      </trkpt>
      <trkpt lat="45.24505" lon="3.71247">
        <ele>1033.104</ele>
        <time>2020-08-19T11:55:55Z</time>
      </trkpt>
      <trkpt lat="45.24505" lon="3.71246">
        <ele>1033.179</ele>
        <time>2020-08-19T11:55:56Z</time>
      </trkpt>
      <trkpt lat="45.24505" lon="3.71246">
        <ele>1033.276</ele>
        <time>2020-08-19T11:55:57Z</time>
      </trkpt>
      <trkpt lat="45.24505" lon="3.71246">
        <ele>1033.507</ele>
        <time>2020-08-19T11:55:59Z</time>
      </trkpt>
      <trkpt lat="45.24503" lon="3.71243">
        <ele>1033.513</ele>
        <time>2020-08-19T11:56:00Z</time>
      </trkpt>
      <trkpt lat="45.24503" lon="3.71243">
        <ele>1033.513</ele>
        <time>2020-08-19T11:56:00Z</time>
      </trkpt>
      <trkpt lat="45.24503" lon="3.71242">
        <ele>1033.747</ele>
        <time>2020-08-19T11:56:01Z</time>
      </trkpt>
      <trkpt lat="45.24501" lon="3.7124">
        <ele>1033.887</ele>
        <time>2020-08-19T11:56:04Z</time>
      </trkpt>
      <trkpt lat="45.24498" lon="3.71238">
        <ele>1033.861</ele>
        <time>2020-08-19T11:56:06Z</time>
      </trkpt>
      <trkpt lat="45.24495" lon="3.71239">
        <ele>1033.935</ele>
        <time>2020-08-19T11:56:08Z</time>
      </trkpt>
      <trkpt lat="45.24492" lon="3.7124">
        <ele>1034.282</ele>
        <time>2020-08-19T11:56:10Z</time>
      </trkpt>
      <trkpt lat="45.2449" lon="3.71243">
        <ele>1034.123</ele>
        <time>2020-08-19T11:56:12Z</time>
      </trkpt>
      <trkpt lat="45.24487" lon="3.71246">
        <ele>1034.624</ele>
        <time>2020-08-19T11:56:15Z</time>
      </trkpt>
      <trkpt lat="45.24486" lon="3.71245">
        <ele>1034.381</ele>
        <time>2020-08-19T11:56:18Z</time>
      </trkpt>
      <trkpt lat="45.24485" lon="3.71241">
        <ele>1033.828</ele>
        <time>2020-08-19T11:56:22Z</time>
      </trkpt>
      <trkpt lat="45.24468" lon="3.71231">
        <ele>1032.993</ele>
        <time>2020-08-19T11:56:32Z</time>
      </trkpt>
      <trkpt lat="45.24467" lon="3.71231">
        <ele>1033.158</ele>
        <time>2020-08-19T11:56:33Z</time>
      </trkpt>
      <trkpt lat="45.24467" lon="3.71231">
        <ele>1033.158</ele>
        <time>2020-08-19T11:56:33Z</time>
      </trkpt>
      <trkpt lat="45.24466" lon="3.7123">
        <ele>1033.162</ele>
        <time>2020-08-19T11:56:34Z</time>
      </trkpt>
      <trkpt lat="45.24464" lon="3.71228">
        <ele>1033.113</ele>
        <time>2020-08-19T11:56:37Z</time>
      </trkpt>
      <trkpt lat="45.24457" lon="3.71223">
        <ele>1033.605</ele>
        <time>2020-08-19T11:56:42Z</time>
      </trkpt>
      <trkpt lat="45.24453" lon="3.71219">
        <ele>1033.777</ele>
        <time>2020-08-19T11:56:45Z</time>
      </trkpt>
      <trkpt lat="45.24445" lon="3.7121">
        <ele>1034.832</ele>
        <time>2020-08-19T11:56:52Z</time>
      </trkpt>
      <trkpt lat="45.24443" lon="3.71206">
        <ele>1034.981</ele>
        <time>2020-08-19T11:56:55Z</time>
      </trkpt>
      <trkpt lat="45.2444" lon="3.71205">
        <ele>1035.012</ele>
        <time>2020-08-19T11:56:56Z</time>
      </trkpt>
      <trkpt lat="45.24437" lon="3.712">
        <ele>1035.009</ele>
        <time>2020-08-19T11:56:59Z</time>
      </trkpt>
      <trkpt lat="45.24437" lon="3.71198">
        <ele>1035.005</ele>
        <time>2020-08-19T11:57:00Z</time>
      </trkpt>
      <trkpt lat="45.24436" lon="3.71194">
        <ele>1035.162</ele>
        <time>2020-08-19T11:57:03Z</time>
      </trkpt>
      <trkpt lat="45.24435" lon="3.71189">
        <ele>1035.474</ele>
        <time>2020-08-19T11:57:06Z</time>
      </trkpt>
      <trkpt lat="45.24433" lon="3.71184">
        <ele>1035.131</ele>
        <time>2020-08-19T11:57:09Z</time>
      </trkpt>
      <trkpt lat="45.2443" lon="3.71178">
        <ele>1035.418</ele>
        <time>2020-08-19T11:57:13Z</time>
      </trkpt>
      <trkpt lat="45.24425" lon="3.71176">
        <ele>1036.21</ele>
        <time>2020-08-19T11:57:16Z</time>
      </trkpt>
      <trkpt lat="45.24421" lon="3.71172">
        <ele>1036.382</ele>
        <time>2020-08-19T11:57:20Z</time>
      </trkpt>
      <trkpt lat="45.2442" lon="3.71167">
        <ele>1036.674</ele>
        <time>2020-08-19T11:57:24Z</time>
      </trkpt>
      <trkpt lat="45.24421" lon="3.71162">
        <ele>1036.876</ele>
        <time>2020-08-19T11:57:27Z</time>
      </trkpt>
      <trkpt lat="45.24421" lon="3.71157">
        <ele>1037.835</ele>
        <time>2020-08-19T11:57:30Z</time>
      </trkpt>
      <trkpt lat="45.24417" lon="3.71151">
        <ele>1037.633</ele>
        <time>2020-08-19T11:57:35Z</time>
      </trkpt>
      <trkpt lat="45.24413" lon="3.71143">
        <ele>1038.563</ele>
        <time>2020-08-19T11:57:41Z</time>
      </trkpt>
      <trkpt lat="45.24412" lon="3.7114">
        <ele>1038.83</ele>
        <time>2020-08-19T11:57:44Z</time>
      </trkpt>
      <trkpt lat="45.24409" lon="3.71136">
        <ele>1039.311</ele>
        <time>2020-08-19T11:57:49Z</time>
      </trkpt>
      <trkpt lat="45.24409" lon="3.71135">
        <ele>1039.403</ele>
        <time>2020-08-19T11:57:51Z</time>
      </trkpt>
      <trkpt lat="45.24406" lon="3.71131">
        <ele>1039.483</ele>
        <time>2020-08-19T11:57:55Z</time>
      </trkpt>
      <trkpt lat="45.24404" lon="3.71127">
        <ele>1038.797</ele>
        <time>2020-08-19T11:57:59Z</time>
      </trkpt>
      <trkpt lat="45.24393" lon="3.71089">
        <ele>1039.288</ele>
        <time>2020-08-19T11:58:24Z</time>
      </trkpt>
      <trkpt lat="45.24389" lon="3.71075">
        <ele>1041.389</ele>
        <time>2020-08-19T11:58:32Z</time>
      </trkpt>
      <trkpt lat="45.24384" lon="3.71057">
        <ele>1043.422</ele>
        <time>2020-08-19T11:58:44Z</time>
      </trkpt>
      <trkpt lat="45.24376" lon="3.71025">
        <ele>1045.456</ele>
        <time>2020-08-19T11:59:07Z</time>
      </trkpt>
      <trkpt lat="45.24373" lon="3.71003">
        <ele>1047.472</ele>
        <time>2020-08-19T11:59:21Z</time>
      </trkpt>
      <trkpt lat="45.2438" lon="3.70987">
        <ele>1049.132</ele>
        <time>2020-08-19T11:59:35Z</time>
      </trkpt>
      <trkpt lat="45.24384" lon="3.70986">
        <ele>1049.538</ele>
        <time>2020-08-19T11:59:39Z</time>
      </trkpt>
      <trkpt lat="45.244" lon="3.70985">
        <ele>1051.679</ele>
        <time>2020-08-19T11:59:49Z</time>
      </trkpt>
      <trkpt lat="45.24408" lon="3.70983">
        <ele>1052.059</ele>
        <time>2020-08-19T11:59:55Z</time>
      </trkpt>
      <trkpt lat="45.24413" lon="3.70983">
        <ele>1052.26</ele>
        <time>2020-08-19T11:59:58Z</time>
      </trkpt>
      <trkpt lat="45.24416" lon="3.70982">
        <ele>1052.48</ele>
        <time>2020-08-19T12:00:00Z</time>
      </trkpt>
      <trkpt lat="45.24428" lon="3.70979">
        <ele>1052.712</ele>
        <time>2020-08-19T12:00:10Z</time>
      </trkpt>
      <trkpt lat="45.24438" lon="3.70979">
        <ele>1053.052</ele>
        <time>2020-08-19T12:00:17Z</time>
      </trkpt>
      <trkpt lat="45.24442" lon="3.70976">
        <ele>1053.281</ele>
        <time>2020-08-19T12:00:22Z</time>
      </trkpt>
      <trkpt lat="45.24453" lon="3.70968">
        <ele>1053.324</ele>
        <time>2020-08-19T12:00:33Z</time>
      </trkpt>
      <trkpt lat="45.24457" lon="3.70965">
        <ele>1053.399</ele>
        <time>2020-08-19T12:00:37Z</time>
      </trkpt>
      <trkpt lat="45.24462" lon="3.70962">
        <ele>1053.429</ele>
        <time>2020-08-19T12:00:42Z</time>
      </trkpt>
      <trkpt lat="45.24471" lon="3.70961">
        <ele>1053.666</ele>
        <time>2020-08-19T12:00:49Z</time>
      </trkpt>
      <trkpt lat="45.24474" lon="3.7096">
        <ele>1054.028</ele>
        <time>2020-08-19T12:00:51Z</time>
      </trkpt>
      <trkpt lat="45.24482" lon="3.70956">
        <ele>1054.287</ele>
        <time>2020-08-19T12:00:57Z</time>
      </trkpt>
      <trkpt lat="45.24493" lon="3.70952">
        <ele>1054.007</ele>
        <time>2020-08-19T12:01:06Z</time>
      </trkpt>
      <trkpt lat="45.24493" lon="3.70947">
        <ele>1054.16</ele>
        <time>2020-08-19T12:01:09Z</time>
      </trkpt>
      <trkpt lat="45.24496" lon="3.70944">
        <ele>1054.362</ele>
        <time>2020-08-19T12:01:12Z</time>
      </trkpt>
      <trkpt lat="45.24502" lon="3.70944">
        <ele>1054.417</ele>
        <time>2020-08-19T12:01:16Z</time>
      </trkpt>
      <trkpt lat="45.24504" lon="3.70941">
        <ele>1054.314</ele>
        <time>2020-08-19T12:01:19Z</time>
      </trkpt>
      <trkpt lat="45.24511" lon="3.7094">
        <ele>1054.402</ele>
        <time>2020-08-19T12:01:24Z</time>
      </trkpt>
      <trkpt lat="45.24517" lon="3.70939">
        <ele>1054.374</ele>
        <time>2020-08-19T12:01:28Z</time>
      </trkpt>
      <trkpt lat="45.24525" lon="3.70931">
        <ele>1054.14</ele>
        <time>2020-08-19T12:01:37Z</time>
      </trkpt>
      <trkpt lat="45.24528" lon="3.70928">
        <ele>1054.358</ele>
        <time>2020-08-19T12:01:41Z</time>
      </trkpt>
      <trkpt lat="45.24534" lon="3.70921">
        <ele>1054.938</ele>
        <time>2020-08-19T12:01:50Z</time>
      </trkpt>
      <trkpt lat="45.2454" lon="3.70918">
        <ele>1055.074</ele>
        <time>2020-08-19T12:01:55Z</time>
      </trkpt>
      <trkpt lat="45.24567" lon="3.70904">
        <ele>1055.839</ele>
        <time>2020-08-19T12:02:16Z</time>
      </trkpt>
      <trkpt lat="45.24572" lon="3.70899">
        <ele>1055.812</ele>
        <time>2020-08-19T12:02:21Z</time>
      </trkpt>
      <trkpt lat="45.24599" lon="3.70882">
        <ele>1058.03</ele>
        <time>2020-08-19T12:02:42Z</time>
      </trkpt>
      <trkpt lat="45.2462" lon="3.70867">
        <ele>1060.076</ele>
        <time>2020-08-19T12:03:03Z</time>
      </trkpt>
      <trkpt lat="45.24641" lon="3.70854">
        <ele>1057.717</ele>
        <time>2020-08-19T12:03:24Z</time>
      </trkpt>
      <trkpt lat="45.2465" lon="3.70849">
        <ele>1058.447</ele>
        <time>2020-08-19T12:03:32Z</time>
      </trkpt>
      <trkpt lat="45.2466" lon="3.70842">
        <ele>1060.663</ele>
        <time>2020-08-19T12:03:43Z</time>
      </trkpt>
      <trkpt lat="45.24745" lon="3.70793">
        <ele>1063.115</ele>
        <time>2020-08-19T12:04:50Z</time>
      </trkpt>
      <trkpt lat="45.24758" lon="3.70788">
        <ele>1065.119</ele>
        <time>2020-08-19T12:05:03Z</time>
      </trkpt>
      <trkpt lat="45.24769" lon="3.70782">
        <ele>1065.489</ele>
        <time>2020-08-19T12:05:13Z</time>
      </trkpt>
      <trkpt lat="45.24783" lon="3.70782">
        <ele>1065.775</ele>
        <time>2020-08-19T12:05:26Z</time>
      </trkpt>
      <trkpt lat="45.24787" lon="3.70782">
        <ele>1065.971</ele>
        <time>2020-08-19T12:05:30Z</time>
      </trkpt>
      <trkpt lat="45.24792" lon="3.70779">
        <ele>1065.666</ele>
        <time>2020-08-19T12:05:32Z</time>
      </trkpt>
      <trkpt lat="45.24797" lon="3.70778">
        <ele>1065.213</ele>
        <time>2020-08-19T12:05:34Z</time>
      </trkpt>
      <trkpt lat="45.24806" lon="3.70775">
        <ele>1065.226</ele>
        <time>2020-08-19T12:05:37Z</time>
      </trkpt>
      <trkpt lat="45.24809" lon="3.70773">
        <ele>1065.542</ele>
        <time>2020-08-19T12:05:39Z</time>
      </trkpt>
      <trkpt lat="45.24811" lon="3.70775">
        <ele>1066.089</ele>
        <time>2020-08-19T12:05:42Z</time>
      </trkpt>
      <trkpt lat="45.24814" lon="3.70775">
        <ele>1066.105</ele>
        <time>2020-08-19T12:05:45Z</time>
      </trkpt>
      <trkpt lat="45.2482" lon="3.70777">
        <ele>1066.106</ele>
        <time>2020-08-19T12:05:49Z</time>
      </trkpt>
      <trkpt lat="45.24819" lon="3.70778">
        <ele>1066.242</ele>
        <time>2020-08-19T12:05:50Z</time>
      </trkpt>
      <trkpt lat="45.24817" lon="3.70781">
        <ele>1066.369</ele>
        <time>2020-08-19T12:05:52Z</time>
      </trkpt>
      <trkpt lat="45.24816" lon="3.70781">
        <ele>1066.295</ele>
        <time>2020-08-19T12:05:53Z</time>
      </trkpt>
      <trkpt lat="45.24817" lon="3.70781">
        <ele>1066.465</ele>
        <time>2020-08-19T12:05:54Z</time>
      </trkpt>
      <trkpt lat="45.24818" lon="3.7078">
        <ele>1066.49</ele>
        <time>2020-08-19T12:05:55Z</time>
      </trkpt>
      <trkpt lat="45.24825" lon="3.70779">
        <ele>1066.378</ele>
        <time>2020-08-19T12:05:57Z</time>
      </trkpt>
      <trkpt lat="45.24832" lon="3.70781">
        <ele>1066.25</ele>
        <time>2020-08-19T12:05:59Z</time>
      </trkpt>
      <trkpt lat="45.24834" lon="3.70782">
        <ele>1066.048</ele>
        <time>2020-08-19T12:06:01Z</time>
      </trkpt>
      <trkpt lat="45.24834" lon="3.70782">
        <ele>1066.27</ele>
        <time>2020-08-19T12:06:02Z</time>
      </trkpt>
      <trkpt lat="45.24834" lon="3.70782">
        <ele>1066.472</ele>
        <time>2020-08-19T12:06:03Z</time>
      </trkpt>
      <trkpt lat="45.24834" lon="3.70782">
        <ele>1066.393</ele>
        <time>2020-08-19T12:06:04Z</time>
      </trkpt>
      <trkpt lat="45.24832" lon="3.70783">
        <ele>1066.775</ele>
        <time>2020-08-19T12:06:05Z</time>
      </trkpt>
      <trkpt lat="45.24831" lon="3.70785">
        <ele>1066.891</ele>
        <time>2020-08-19T12:06:08Z</time>
      </trkpt>
      <trkpt lat="45.24831" lon="3.70785">
        <ele>1067.094</ele>
        <time>2020-08-19T12:06:09Z</time>
      </trkpt>
      <trkpt lat="45.24832" lon="3.70785">
        <ele>1067.319</ele>
        <time>2020-08-19T12:06:10Z</time>
      </trkpt>
      <trkpt lat="45.24853" lon="3.70787">
        <ele>1067.614</ele>
        <time>2020-08-19T12:06:23Z</time>
      </trkpt>
      <trkpt lat="45.24862" lon="3.70788">
        <ele>1068.24</ele>
        <time>2020-08-19T12:06:28Z</time>
      </trkpt>
      <trkpt lat="45.24879" lon="3.70785">
        <ele>1069.206</ele>
        <time>2020-08-19T12:06:41Z</time>
      </trkpt>
      <trkpt lat="45.24881" lon="3.70785">
        <ele>1069.257</ele>
        <time>2020-08-19T12:06:43Z</time>
      </trkpt>
      <trkpt lat="45.24885" lon="3.70783">
        <ele>1069.814</ele>
        <time>2020-08-19T12:06:47Z</time>
      </trkpt>
      <trkpt lat="45.24907" lon="3.70767">
        <ele>1071.016</ele>
        <time>2020-08-19T12:07:05Z</time>
      </trkpt>
      <trkpt lat="45.24913" lon="3.70759">
        <ele>1070.828</ele>
        <time>2020-08-19T12:07:12Z</time>
      </trkpt>
      <trkpt lat="45.24915" lon="3.70756">
        <ele>1070.464</ele>
        <time>2020-08-19T12:07:14Z</time>
      </trkpt>
      <trkpt lat="45.24918" lon="3.70753">
        <ele>1070.472</ele>
        <time>2020-08-19T12:07:16Z</time>
      </trkpt>
      <trkpt lat="45.24925" lon="3.70746">
        <ele>1070.203</ele>
        <time>2020-08-19T12:07:22Z</time>
      </trkpt>
      <trkpt lat="45.24946" lon="3.70737">
        <ele>1070.045</ele>
        <time>2020-08-19T12:07:37Z</time>
      </trkpt>
      <trkpt lat="45.24953" lon="3.70733">
        <ele>1070.313</ele>
        <time>2020-08-19T12:07:46Z</time>
      </trkpt>
      <trkpt lat="45.24958" lon="3.70732">
        <ele>1070.501</ele>
        <time>2020-08-19T12:07:50Z</time>
      </trkpt>
      <trkpt lat="45.2496" lon="3.7073">
        <ele>1070.358</ele>
        <time>2020-08-19T12:07:53Z</time>
      </trkpt>
      <trkpt lat="45.24963" lon="3.70728">
        <ele>1070.432</ele>
        <time>2020-08-19T12:07:55Z</time>
      </trkpt>
      <trkpt lat="45.24979" lon="3.70727">
        <ele>1071.044</ele>
        <time>2020-08-19T12:08:04Z</time>
      </trkpt>
      <trkpt lat="45.24986" lon="3.70722">
        <ele>1070.757</ele>
        <time>2020-08-19T12:08:06Z</time>
      </trkpt>
      <trkpt lat="45.24993" lon="3.70715">
        <ele>1070.935</ele>
        <time>2020-08-19T12:08:08Z</time>
      </trkpt>
      <trkpt lat="45.24998" lon="3.70715">
        <ele>1070.866</ele>
        <time>2020-08-19T12:08:10Z</time>
      </trkpt>
      <trkpt lat="45.25" lon="3.70718">
        <ele>1070.702</ele>
        <time>2020-08-19T12:08:12Z</time>
      </trkpt>
      <trkpt lat="45.24998" lon="3.70722">
        <ele>1070.64</ele>
        <time>2020-08-19T12:08:14Z</time>
      </trkpt>
      <trkpt lat="45.24999" lon="3.70724">
        <ele>1069.879</ele>
        <time>2020-08-19T12:08:17Z</time>
      </trkpt>
      <trkpt lat="45.25002" lon="3.70722">
        <ele>1069.178</ele>
        <time>2020-08-19T12:08:19Z</time>
      </trkpt>
      <trkpt lat="45.25013" lon="3.70714">
        <ele>1069.896</ele>
        <time>2020-08-19T12:08:28Z</time>
      </trkpt>
      <trkpt lat="45.25016" lon="3.7071">
        <ele>1069.644</ele>
        <time>2020-08-19T12:08:29Z</time>
      </trkpt>
      <trkpt lat="45.25025" lon="3.70709">
        <ele>1069.827</ele>
        <time>2020-08-19T12:08:32Z</time>
      </trkpt>
      <trkpt lat="45.25026" lon="3.70709">
        <ele>1069.772</ele>
        <time>2020-08-19T12:08:34Z</time>
      </trkpt>
      <trkpt lat="45.25024" lon="3.7071">
        <ele>1070.12</ele>
        <time>2020-08-19T12:08:35Z</time>
      </trkpt>
      <trkpt lat="45.25023" lon="3.7071">
        <ele>1070.416</ele>
        <time>2020-08-19T12:08:36Z</time>
      </trkpt>
      <trkpt lat="45.25023" lon="3.70707">
        <ele>1070.579</ele>
        <time>2020-08-19T12:08:39Z</time>
      </trkpt>
      <trkpt lat="45.25027" lon="3.70705">
        <ele>1070.537</ele>
        <time>2020-08-19T12:08:41Z</time>
      </trkpt>
      <trkpt lat="45.25039" lon="3.70701">
        <ele>1070.53</ele>
        <time>2020-08-19T12:08:44Z</time>
      </trkpt>
      <trkpt lat="45.25043" lon="3.70703">
        <ele>1070.182</ele>
        <time>2020-08-19T12:08:45Z</time>
      </trkpt>
      <trkpt lat="45.2505" lon="3.70708">
        <ele>1070.078</ele>
        <time>2020-08-19T12:08:47Z</time>
      </trkpt>
      <trkpt lat="45.25051" lon="3.70706">
        <ele>1070.058</ele>
        <time>2020-08-19T12:08:49Z</time>
      </trkpt>
      <trkpt lat="45.2505" lon="3.70701">
        <ele>1070.226</ele>
        <time>2020-08-19T12:08:51Z</time>
      </trkpt>
      <trkpt lat="45.25049" lon="3.70699">
        <ele>1070.791</ele>
        <time>2020-08-19T12:08:53Z</time>
      </trkpt>
      <trkpt lat="45.25049" lon="3.70698">
        <ele>1071.193</ele>
        <time>2020-08-19T12:08:55Z</time>
      </trkpt>
      <trkpt lat="45.25049" lon="3.70698">
        <ele>1071.1</ele>
        <time>2020-08-19T12:08:56Z</time>
      </trkpt>
      <trkpt lat="45.25049" lon="3.70698">
        <ele>1071.1</ele>
        <time>2020-08-19T12:08:56Z</time>
      </trkpt>
      <trkpt lat="45.25049" lon="3.70697">
        <ele>1071.086</ele>
        <time>2020-08-19T12:08:57Z</time>
      </trkpt>
      <trkpt lat="45.2505" lon="3.70696">
        <ele>1071.268</ele>
        <time>2020-08-19T12:08:58Z</time>
      </trkpt>
      <trkpt lat="45.2505" lon="3.70695">
        <ele>1071.626</ele>
        <time>2020-08-19T12:08:59Z</time>
      </trkpt>
      <trkpt lat="45.25049" lon="3.70695">
        <ele>1071.572</ele>
        <time>2020-08-19T12:09:00Z</time>
      </trkpt>
      <trkpt lat="45.25049" lon="3.70695">
        <ele>1071.572</ele>
        <time>2020-08-19T12:09:00Z</time>
      </trkpt>
      <trkpt lat="45.25047" lon="3.70695">
        <ele>1072.072</ele>
        <time>2020-08-19T12:09:01Z</time>
      </trkpt>
      <trkpt lat="45.25045" lon="3.70696">
        <ele>1072.254</ele>
        <time>2020-08-19T12:09:02Z</time>
      </trkpt>
      <trkpt lat="45.25042" lon="3.70698">
        <ele>1072.25</ele>
        <time>2020-08-19T12:09:03Z</time>
      </trkpt>
      <trkpt lat="45.25041" lon="3.70697">
        <ele>1072.104</ele>
        <time>2020-08-19T12:09:04Z</time>
      </trkpt>
      <trkpt lat="45.25042" lon="3.70695">
        <ele>1072.011</ele>
        <time>2020-08-19T12:09:07Z</time>
      </trkpt>
      <trkpt lat="45.25044" lon="3.70692">
        <ele>1071.756</ele>
        <time>2020-08-19T12:09:09Z</time>
      </trkpt>
      <trkpt lat="45.25047" lon="3.70693">
        <ele>1071.408</ele>
        <time>2020-08-19T12:09:11Z</time>
      </trkpt>
      <trkpt lat="45.25049" lon="3.70694">
        <ele>1071.486</ele>
        <time>2020-08-19T12:09:13Z</time>
      </trkpt>
      <trkpt lat="45.25052" lon="3.70697">
        <ele>1072.111</ele>
        <time>2020-08-19T12:09:17Z</time>
      </trkpt>
      <trkpt lat="45.25052" lon="3.70697">
        <ele>1072.4</ele>
        <time>2020-08-19T12:09:18Z</time>
      </trkpt>
      <trkpt lat="45.25052" lon="3.70697">
        <ele>1072.4</ele>
        <time>2020-08-19T12:09:18Z</time>
      </trkpt>
      <trkpt lat="45.25053" lon="3.70697">
        <ele>1072.319</ele>
        <time>2020-08-19T12:09:19Z</time>
      </trkpt>
      <trkpt lat="45.25055" lon="3.70697">
        <ele>1072.384</ele>
        <time>2020-08-19T12:09:21Z</time>
      </trkpt>
      <trkpt lat="45.25058" lon="3.70697">
        <ele>1072.861</ele>
        <time>2020-08-19T12:09:23Z</time>
      </trkpt>
      <trkpt lat="45.25063" lon="3.70697">
        <ele>1072.613</ele>
        <time>2020-08-19T12:09:26Z</time>
      </trkpt>
      <trkpt lat="45.25065" lon="3.70697">
        <ele>1072.625</ele>
        <time>2020-08-19T12:09:27Z</time>
      </trkpt>
      <trkpt lat="45.25067" lon="3.70697">
        <ele>1072.832</ele>
        <time>2020-08-19T12:09:29Z</time>
      </trkpt>
      <trkpt lat="45.25075" lon="3.70698">
        <ele>1073.22</ele>
        <time>2020-08-19T12:09:35Z</time>
      </trkpt>
      <trkpt lat="45.25078" lon="3.70699">
        <ele>1073.285</ele>
        <time>2020-08-19T12:09:38Z</time>
      </trkpt>
      <trkpt lat="45.25081" lon="3.70697">
        <ele>1073.254</ele>
        <time>2020-08-19T12:09:41Z</time>
      </trkpt>
      <trkpt lat="45.25083" lon="3.70696">
        <ele>1073.368</ele>
        <time>2020-08-19T12:09:43Z</time>
      </trkpt>
      <trkpt lat="45.25086" lon="3.70696">
        <ele>1074.156</ele>
        <time>2020-08-19T12:09:47Z</time>
      </trkpt>
      <trkpt lat="45.25086" lon="3.70696">
        <ele>1073.72</ele>
        <time>2020-08-19T12:09:48Z</time>
      </trkpt>
      <trkpt lat="45.25086" lon="3.70696">
        <ele>1073.72</ele>
        <time>2020-08-19T12:09:48Z</time>
      </trkpt>
      <trkpt lat="45.25087" lon="3.70697">
        <ele>1073.884</ele>
        <time>2020-08-19T12:09:49Z</time>
      </trkpt>
      <trkpt lat="45.2509" lon="3.70696">
        <ele>1073.027</ele>
        <time>2020-08-19T12:09:52Z</time>
      </trkpt>
      <trkpt lat="45.25092" lon="3.70695">
        <ele>1073.012</ele>
        <time>2020-08-19T12:09:53Z</time>
      </trkpt>
      <trkpt lat="45.25098" lon="3.70693">
        <ele>1072.943</ele>
        <time>2020-08-19T12:09:56Z</time>
      </trkpt>
      <trkpt lat="45.25104" lon="3.70694">
        <ele>1073.207</ele>
        <time>2020-08-19T12:10:00Z</time>
      </trkpt>
      <trkpt lat="45.25117" lon="3.70695">
        <ele>1072.457</ele>
        <time>2020-08-19T12:10:07Z</time>
      </trkpt>
      <trkpt lat="45.25118" lon="3.70695">
        <ele>1072.161</ele>
        <time>2020-08-19T12:10:08Z</time>
      </trkpt>
      <trkpt lat="45.25126" lon="3.70694">
        <ele>1072.077</ele>
        <time>2020-08-19T12:10:14Z</time>
      </trkpt>
      <trkpt lat="45.25131" lon="3.70697">
        <ele>1071.343</ele>
        <time>2020-08-19T12:10:19Z</time>
      </trkpt>
      <trkpt lat="45.25137" lon="3.70696">
        <ele>1071.01</ele>
        <time>2020-08-19T12:10:24Z</time>
      </trkpt>
      <trkpt lat="45.25137" lon="3.70696">
        <ele>1071.01</ele>
        <time>2020-08-19T12:10:24Z</time>
      </trkpt>
      <trkpt lat="45.25138" lon="3.70695">
        <ele>1070.736</ele>
        <time>2020-08-19T12:10:25Z</time>
      </trkpt>
      <trkpt lat="45.25138" lon="3.70695">
        <ele>1070.695</ele>
        <time>2020-08-19T12:10:26Z</time>
      </trkpt>
      <trkpt lat="45.25138" lon="3.70695">
        <ele>1070.75</ele>
        <time>2020-08-19T12:10:27Z</time>
      </trkpt>
      <trkpt lat="45.2514" lon="3.70696">
        <ele>1070.503</ele>
        <time>2020-08-19T12:10:28Z</time>
      </trkpt>
      <trkpt lat="45.25141" lon="3.70695">
        <ele>1070.697</ele>
        <time>2020-08-19T12:10:30Z</time>
      </trkpt>
      <trkpt lat="45.25143" lon="3.70695">
        <ele>1070.974</ele>
        <time>2020-08-19T12:10:31Z</time>
      </trkpt>
      <trkpt lat="45.25144" lon="3.70695">
        <ele>1070.529</ele>
        <time>2020-08-19T12:10:32Z</time>
      </trkpt>
      <trkpt lat="45.25148" lon="3.70693">
        <ele>1069.958</ele>
        <time>2020-08-19T12:10:34Z</time>
      </trkpt>
      <trkpt lat="45.25149" lon="3.70693">
        <ele>1070.138</ele>
        <time>2020-08-19T12:10:35Z</time>
      </trkpt>
      <trkpt lat="45.25149" lon="3.70692">
        <ele>1070.118</ele>
        <time>2020-08-19T12:10:36Z</time>
      </trkpt>
      <trkpt lat="45.25151" lon="3.70692">
        <ele>1070.757</ele>
        <time>2020-08-19T12:10:38Z</time>
      </trkpt>
      <trkpt lat="45.25152" lon="3.70692">
        <ele>1070.649</ele>
        <time>2020-08-19T12:10:39Z</time>
      </trkpt>
      <trkpt lat="45.25155" lon="3.7069">
        <ele>1069.757</ele>
        <time>2020-08-19T12:10:41Z</time>
      </trkpt>
      <trkpt lat="45.25158" lon="3.70689">
        <ele>1069.997</ele>
        <time>2020-08-19T12:10:43Z</time>
      </trkpt>
      <trkpt lat="45.25167" lon="3.70684">
        <ele>1070.548</ele>
        <time>2020-08-19T12:10:51Z</time>
      </trkpt>
      <trkpt lat="45.25169" lon="3.70683">
        <ele>1070.267</ele>
        <time>2020-08-19T12:10:53Z</time>
      </trkpt>
      <trkpt lat="45.25172" lon="3.70679">
        <ele>1070.696</ele>
        <time>2020-08-19T12:10:56Z</time>
      </trkpt>
      <trkpt lat="45.25176" lon="3.70678">
        <ele>1070.332</ele>
        <time>2020-08-19T12:10:59Z</time>
      </trkpt>
      <trkpt lat="45.25183" lon="3.70675">
        <ele>1070.022</ele>
        <time>2020-08-19T12:11:02Z</time>
      </trkpt>
      <trkpt lat="45.25189" lon="3.70672">
        <ele>1069.669</ele>
        <time>2020-08-19T12:11:05Z</time>
      </trkpt>
      <trkpt lat="45.25191" lon="3.70669">
        <ele>1068.902</ele>
        <time>2020-08-19T12:11:07Z</time>
      </trkpt>
      <trkpt lat="45.25193" lon="3.70668">
        <ele>1069.301</ele>
        <time>2020-08-19T12:11:08Z</time>
      </trkpt>
      <trkpt lat="45.25195" lon="3.70666">
        <ele>1068.695</ele>
        <time>2020-08-19T12:11:10Z</time>
      </trkpt>
      <trkpt lat="45.252" lon="3.70663">
        <ele>1068.488</ele>
        <time>2020-08-19T12:11:13Z</time>
      </trkpt>
      <trkpt lat="45.25204" lon="3.7066">
        <ele>1067.821</ele>
        <time>2020-08-19T12:11:16Z</time>
      </trkpt>
      <trkpt lat="45.25209" lon="3.70657">
        <ele>1067.306</ele>
        <time>2020-08-19T12:11:20Z</time>
      </trkpt>
      <trkpt lat="45.25211" lon="3.70657">
        <ele>1067.358</ele>
        <time>2020-08-19T12:11:22Z</time>
      </trkpt>
      <trkpt lat="45.25214" lon="3.70656">
        <ele>1067.467</ele>
        <time>2020-08-19T12:11:27Z</time>
      </trkpt>
      <trkpt lat="45.25215" lon="3.70656">
        <ele>1067.438</ele>
        <time>2020-08-19T12:11:28Z</time>
      </trkpt>
      <trkpt lat="45.25216" lon="3.70655">
        <ele>1067.1</ele>
        <time>2020-08-19T12:11:30Z</time>
      </trkpt>
      <trkpt lat="45.25219" lon="3.70654">
        <ele>1067.071</ele>
        <time>2020-08-19T12:11:33Z</time>
      </trkpt>
      <trkpt lat="45.25262" lon="3.70645">
        <ele>1066.068</ele>
        <time>2020-08-19T12:11:59Z</time>
      </trkpt>
      <trkpt lat="45.25263" lon="3.7065">
        <ele>1065.451</ele>
        <time>2020-08-19T12:12:02Z</time>
      </trkpt>
      <trkpt lat="45.25265" lon="3.70654">
        <ele>1065.563</ele>
        <time>2020-08-19T12:12:05Z</time>
      </trkpt>
      <trkpt lat="45.25269" lon="3.70653">
        <ele>1065.216</ele>
        <time>2020-08-19T12:12:08Z</time>
      </trkpt>
      <trkpt lat="45.25283" lon="3.70652">
        <ele>1064.695</ele>
        <time>2020-08-19T12:12:17Z</time>
      </trkpt>
      <trkpt lat="45.25292" lon="3.70654">
        <ele>1064.38</ele>
        <time>2020-08-19T12:12:25Z</time>
      </trkpt>
      <trkpt lat="45.25298" lon="3.70654">
        <ele>1062.296</ele>
        <time>2020-08-19T12:12:30Z</time>
      </trkpt>
      <trkpt lat="45.25301" lon="3.70654">
        <ele>1061.361</ele>
        <time>2020-08-19T12:12:34Z</time>
      </trkpt>
      <trkpt lat="45.25305" lon="3.70656">
        <ele>1061.553</ele>
        <time>2020-08-19T12:12:37Z</time>
      </trkpt>
      <trkpt lat="45.25307" lon="3.70658">
        <ele>1061.555</ele>
        <time>2020-08-19T12:12:39Z</time>
      </trkpt>
      <trkpt lat="45.2531" lon="3.70661">
        <ele>1061.347</ele>
        <time>2020-08-19T12:12:42Z</time>
      </trkpt>
      <trkpt lat="45.25313" lon="3.70662">
        <ele>1061.319</ele>
        <time>2020-08-19T12:12:46Z</time>
      </trkpt>
      <trkpt lat="45.2532" lon="3.70665">
        <ele>1061.172</ele>
        <time>2020-08-19T12:12:53Z</time>
      </trkpt>
      <trkpt lat="45.25325" lon="3.70669">
        <ele>1060.824</ele>
        <time>2020-08-19T12:12:57Z</time>
      </trkpt>
      <trkpt lat="45.2533" lon="3.7067">
        <ele>1059.971</ele>
        <time>2020-08-19T12:13:01Z</time>
      </trkpt>
      <trkpt lat="45.25352" lon="3.70677">
        <ele>1060.1</ele>
        <time>2020-08-19T12:13:18Z</time>
      </trkpt>
      <trkpt lat="45.25355" lon="3.70679">
        <ele>1059.134</ele>
        <time>2020-08-19T12:13:22Z</time>
      </trkpt>
      <trkpt lat="45.2536" lon="3.7068">
        <ele>1059.438</ele>
        <time>2020-08-19T12:13:26Z</time>
      </trkpt>
      <trkpt lat="45.25365" lon="3.70681">
        <ele>1059.675</ele>
        <time>2020-08-19T12:13:30Z</time>
      </trkpt>
      <trkpt lat="45.25366" lon="3.70686">
        <ele>1059.876</ele>
        <time>2020-08-19T12:13:33Z</time>
      </trkpt>
      <trkpt lat="45.25369" lon="3.70689">
        <ele>1059.885</ele>
        <time>2020-08-19T12:13:36Z</time>
      </trkpt>
      <trkpt lat="45.25374" lon="3.70691">
        <ele>1059.082</ele>
        <time>2020-08-19T12:13:41Z</time>
      </trkpt>
      <trkpt lat="45.25374" lon="3.7069">
        <ele>1059.138</ele>
        <time>2020-08-19T12:13:42Z</time>
      </trkpt>
      <trkpt lat="45.25377" lon="3.70694">
        <ele>1059.054</ele>
        <time>2020-08-19T12:13:45Z</time>
      </trkpt>
      <trkpt lat="45.25381" lon="3.70698">
        <ele>1059.494</ele>
        <time>2020-08-19T12:13:48Z</time>
      </trkpt>
      <trkpt lat="45.25386" lon="3.70698">
        <ele>1059.727</ele>
        <time>2020-08-19T12:13:50Z</time>
      </trkpt>
      <trkpt lat="45.25389" lon="3.70701">
        <ele>1059.991</ele>
        <time>2020-08-19T12:13:53Z</time>
      </trkpt>
      <trkpt lat="45.25392" lon="3.70702">
        <ele>1059.801</ele>
        <time>2020-08-19T12:13:56Z</time>
      </trkpt>
      <trkpt lat="45.25393" lon="3.70703">
        <ele>1059.828</ele>
        <time>2020-08-19T12:13:58Z</time>
      </trkpt>
      <trkpt lat="45.25395" lon="3.70704">
        <ele>1059.227</ele>
        <time>2020-08-19T12:14:00Z</time>
      </trkpt>
      <trkpt lat="45.25396" lon="3.70704">
        <ele>1059.695</ele>
        <time>2020-08-19T12:14:02Z</time>
      </trkpt>
      <trkpt lat="45.25397" lon="3.70703">
        <ele>1059.879</ele>
        <time>2020-08-19T12:14:03Z</time>
      </trkpt>
      <trkpt lat="45.25397" lon="3.70703">
        <ele>1060.094</ele>
        <time>2020-08-19T12:14:04Z</time>
      </trkpt>
      <trkpt lat="45.25397" lon="3.70703">
        <ele>1060.094</ele>
        <time>2020-08-19T12:14:04Z</time>
      </trkpt>
      <trkpt lat="45.25398" lon="3.70704">
        <ele>1059.894</ele>
        <time>2020-08-19T12:14:05Z</time>
      </trkpt>
      <trkpt lat="45.25403" lon="3.70713">
        <ele>1059.83</ele>
        <time>2020-08-19T12:14:12Z</time>
      </trkpt>
      <trkpt lat="45.25409" lon="3.70718">
        <ele>1059.009</ele>
        <time>2020-08-19T12:14:18Z</time>
      </trkpt>
      <trkpt lat="45.25413" lon="3.70719">
        <ele>1057.91</ele>
        <time>2020-08-19T12:14:22Z</time>
      </trkpt>
      <trkpt lat="45.25418" lon="3.70722">
        <ele>1057.864</ele>
        <time>2020-08-19T12:14:25Z</time>
      </trkpt>
      <trkpt lat="45.25437" lon="3.70739">
        <ele>1057.353</ele>
        <time>2020-08-19T12:14:44Z</time>
      </trkpt>
      <trkpt lat="45.25446" lon="3.70744">
        <ele>1057.54</ele>
        <time>2020-08-19T12:14:54Z</time>
      </trkpt>
      <trkpt lat="45.25461" lon="3.70757">
        <ele>1057.627</ele>
        <time>2020-08-19T12:15:07Z</time>
      </trkpt>
      <trkpt lat="45.25467" lon="3.70761">
        <ele>1057.795</ele>
        <time>2020-08-19T12:15:11Z</time>
      </trkpt>
      <trkpt lat="45.2547" lon="3.70762">
        <ele>1057.81</ele>
        <time>2020-08-19T12:15:13Z</time>
      </trkpt>
      <trkpt lat="45.25478" lon="3.70768">
        <ele>1058.141</ele>
        <time>2020-08-19T12:15:19Z</time>
      </trkpt>
      <trkpt lat="45.25482" lon="3.7077">
        <ele>1058.224</ele>
        <time>2020-08-19T12:15:22Z</time>
      </trkpt>
      <trkpt lat="45.25508" lon="3.70776">
        <ele>1060.46</ele>
        <time>2020-08-19T12:15:47Z</time>
      </trkpt>
      <trkpt lat="45.25511" lon="3.70776">
        <ele>1059.527</ele>
        <time>2020-08-19T12:15:51Z</time>
      </trkpt>
      <trkpt lat="45.25513" lon="3.70776">
        <ele>1059.645</ele>
        <time>2020-08-19T12:15:52Z</time>
      </trkpt>
      <trkpt lat="45.25515" lon="3.70776">
        <ele>1059.847</ele>
        <time>2020-08-19T12:15:55Z</time>
      </trkpt>
      <trkpt lat="45.25517" lon="3.70776">
        <ele>1060.13</ele>
        <time>2020-08-19T12:15:57Z</time>
      </trkpt>
      <trkpt lat="45.25521" lon="3.70774">
        <ele>1061.281</ele>
        <time>2020-08-19T12:16:01Z</time>
      </trkpt>
      <trkpt lat="45.25521" lon="3.70774">
        <ele>1061.273</ele>
        <time>2020-08-19T12:16:02Z</time>
      </trkpt>
      <trkpt lat="45.25527" lon="3.70773">
        <ele>1060.824</ele>
        <time>2020-08-19T12:16:07Z</time>
      </trkpt>
      <trkpt lat="45.2553" lon="3.70774">
        <ele>1061.092</ele>
        <time>2020-08-19T12:16:10Z</time>
      </trkpt>
      <trkpt lat="45.25535" lon="3.70773">
        <ele>1060.962</ele>
        <time>2020-08-19T12:16:14Z</time>
      </trkpt>
      <trkpt lat="45.25536" lon="3.70773">
        <ele>1061.276</ele>
        <time>2020-08-19T12:16:15Z</time>
      </trkpt>
      <trkpt lat="45.25538" lon="3.70773">
        <ele>1061.658</ele>
        <time>2020-08-19T12:16:16Z</time>
      </trkpt>
      <trkpt lat="45.2554" lon="3.70774">
        <ele>1061.527</ele>
        <time>2020-08-19T12:16:17Z</time>
      </trkpt>
      <trkpt lat="45.25551" lon="3.70766">
        <ele>1062.007</ele>
        <time>2020-08-19T12:16:26Z</time>
      </trkpt>
      <trkpt lat="45.25563" lon="3.70766">
        <ele>1064.035</ele>
        <time>2020-08-19T12:16:35Z</time>
      </trkpt>
      <trkpt lat="45.2558" lon="3.70774">
        <ele>1064.056</ele>
        <time>2020-08-19T12:16:49Z</time>
      </trkpt>
      <trkpt lat="45.25585" lon="3.70777">
        <ele>1064.667</ele>
        <time>2020-08-19T12:16:55Z</time>
      </trkpt>
      <trkpt lat="45.25588" lon="3.70777">
        <ele>1064.658</ele>
        <time>2020-08-19T12:16:57Z</time>
      </trkpt>
      <trkpt lat="45.2559" lon="3.70777">
        <ele>1065.43</ele>
        <time>2020-08-19T12:16:59Z</time>
      </trkpt>
      <trkpt lat="45.2559" lon="3.70777">
        <ele>1065.43</ele>
        <time>2020-08-19T12:16:59Z</time>
      </trkpt>
      <trkpt lat="45.25591" lon="3.70777">
        <ele>1065.452</ele>
        <time>2020-08-19T12:17:00Z</time>
      </trkpt>
      <trkpt lat="45.25606" lon="3.70778">
        <ele>1065.844</ele>
        <time>2020-08-19T12:17:10Z</time>
      </trkpt>
      <trkpt lat="45.25609" lon="3.70778">
        <ele>1066.344</ele>
        <time>2020-08-19T12:17:13Z</time>
      </trkpt>
      <trkpt lat="45.25618" lon="3.70778">
        <ele>1068.645</ele>
        <time>2020-08-19T12:17:25Z</time>
      </trkpt>
      <trkpt lat="45.25619" lon="3.70778">
        <ele>1069.023</ele>
        <time>2020-08-19T12:17:27Z</time>
      </trkpt>
      <trkpt lat="45.2562" lon="3.70778">
        <ele>1069.133</ele>
        <time>2020-08-19T12:17:28Z</time>
      </trkpt>
      <trkpt lat="45.25647" lon="3.70778">
        <ele>1069.434</ele>
        <time>2020-08-19T12:17:51Z</time>
      </trkpt>
      <trkpt lat="45.25689" lon="3.70788">
        <ele>1071.434</ele>
        <time>2020-08-19T12:18:23Z</time>
      </trkpt>
      <trkpt lat="45.257" lon="3.70788">
        <ele>1071.158</ele>
        <time>2020-08-19T12:18:33Z</time>
      </trkpt>
      <trkpt lat="45.25706" lon="3.70788">
        <ele>1071.804</ele>
        <time>2020-08-19T12:18:38Z</time>
      </trkpt>
      <trkpt lat="45.25727" lon="3.70795">
        <ele>1070.893</ele>
        <time>2020-08-19T12:18:53Z</time>
      </trkpt>
      <trkpt lat="45.25729" lon="3.70796">
        <ele>1070.921</ele>
        <time>2020-08-19T12:18:55Z</time>
      </trkpt>
      <trkpt lat="45.25732" lon="3.70798">
        <ele>1071.023</ele>
        <time>2020-08-19T12:18:59Z</time>
      </trkpt>
      <trkpt lat="45.25735" lon="3.70799">
        <ele>1071.497</ele>
        <time>2020-08-19T12:19:03Z</time>
      </trkpt>
      <trkpt lat="45.2574" lon="3.70799">
        <ele>1071.897</ele>
        <time>2020-08-19T12:19:09Z</time>
      </trkpt>
      <trkpt lat="45.25742" lon="3.70801">
        <ele>1072.089</ele>
        <time>2020-08-19T12:19:11Z</time>
      </trkpt>
      <trkpt lat="45.25745" lon="3.70803">
        <ele>1072.115</ele>
        <time>2020-08-19T12:19:14Z</time>
      </trkpt>
      <trkpt lat="45.25746" lon="3.70804">
        <ele>1071.963</ele>
        <time>2020-08-19T12:19:15Z</time>
      </trkpt>
      <trkpt lat="45.25747" lon="3.70806">
        <ele>1071.964</ele>
        <time>2020-08-19T12:19:17Z</time>
      </trkpt>
      <trkpt lat="45.2575" lon="3.70809">
        <ele>1072.451</ele>
        <time>2020-08-19T12:19:19Z</time>
      </trkpt>
      <trkpt lat="45.25755" lon="3.70811">
        <ele>1072.389</ele>
        <time>2020-08-19T12:19:21Z</time>
      </trkpt>
      <trkpt lat="45.25762" lon="3.7081">
        <ele>1072.604</ele>
        <time>2020-08-19T12:19:24Z</time>
      </trkpt>
      <trkpt lat="45.25765" lon="3.70808">
        <ele>1072.179</ele>
        <time>2020-08-19T12:19:26Z</time>
      </trkpt>
      <trkpt lat="45.25771" lon="3.70808">
        <ele>1072.093</ele>
        <time>2020-08-19T12:19:31Z</time>
      </trkpt>
      <trkpt lat="45.25776" lon="3.7081">
        <ele>1071.723</ele>
        <time>2020-08-19T12:19:36Z</time>
      </trkpt>
      <trkpt lat="45.25778" lon="3.70808">
        <ele>1071.935</ele>
        <time>2020-08-19T12:19:41Z</time>
      </trkpt>
      <trkpt lat="45.2578" lon="3.70808">
        <ele>1071.906</ele>
        <time>2020-08-19T12:19:42Z</time>
      </trkpt>
      <trkpt lat="45.25791" lon="3.70808">
        <ele>1071.919</ele>
        <time>2020-08-19T12:19:47Z</time>
      </trkpt>
      <trkpt lat="45.25801" lon="3.70807">
        <ele>1072.139</ele>
        <time>2020-08-19T12:19:51Z</time>
      </trkpt>
      <trkpt lat="45.25819" lon="3.70804">
        <ele>1072.27</ele>
        <time>2020-08-19T12:20:05Z</time>
      </trkpt>
      <trkpt lat="45.25821" lon="3.70802">
        <ele>1072.573</ele>
        <time>2020-08-19T12:20:06Z</time>
      </trkpt>
      <trkpt lat="45.25825" lon="3.70795">
        <ele>1072.702</ele>
        <time>2020-08-19T12:20:11Z</time>
      </trkpt>
      <trkpt lat="45.25831" lon="3.7079">
        <ele>1072.272</ele>
        <time>2020-08-19T12:20:16Z</time>
      </trkpt>
      <trkpt lat="45.25835" lon="3.70787">
        <ele>1071.718</ele>
        <time>2020-08-19T12:20:20Z</time>
      </trkpt>
      <trkpt lat="45.25852" lon="3.70782">
        <ele>1072.123</ele>
        <time>2020-08-19T12:20:36Z</time>
      </trkpt>
      <trkpt lat="45.25853" lon="3.70782">
        <ele>1071.888</ele>
        <time>2020-08-19T12:20:37Z</time>
      </trkpt>
      <trkpt lat="45.25854" lon="3.70782">
        <ele>1071.91</ele>
        <time>2020-08-19T12:20:38Z</time>
      </trkpt>
      <trkpt lat="45.25855" lon="3.70781">
        <ele>1072.166</ele>
        <time>2020-08-19T12:20:39Z</time>
      </trkpt>
      <trkpt lat="45.25886" lon="3.70768">
        <ele>1072.974</ele>
        <time>2020-08-19T12:21:06Z</time>
      </trkpt>
      <trkpt lat="45.25891" lon="3.70766">
        <ele>1073.495</ele>
        <time>2020-08-19T12:21:10Z</time>
      </trkpt>
      <trkpt lat="45.25899" lon="3.70762">
        <ele>1073.311</ele>
        <time>2020-08-19T12:21:16Z</time>
      </trkpt>
      <trkpt lat="45.25923" lon="3.70754">
        <ele>1073.163</ele>
        <time>2020-08-19T12:21:33Z</time>
      </trkpt>
      <trkpt lat="45.25927" lon="3.70755">
        <ele>1073.371</ele>
        <time>2020-08-19T12:21:37Z</time>
      </trkpt>
      <trkpt lat="45.25934" lon="3.70761">
        <ele>1073.198</ele>
        <time>2020-08-19T12:21:43Z</time>
      </trkpt>
      <trkpt lat="45.25938" lon="3.70755">
        <ele>1073.417</ele>
        <time>2020-08-19T12:21:45Z</time>
      </trkpt>
      <trkpt lat="45.25941" lon="3.7075">
        <ele>1073.982</ele>
        <time>2020-08-19T12:21:48Z</time>
      </trkpt>
      <trkpt lat="45.25943" lon="3.70749">
        <ele>1073.839</ele>
        <time>2020-08-19T12:21:50Z</time>
      </trkpt>
      <trkpt lat="45.25945" lon="3.7075">
        <ele>1073.887</ele>
        <time>2020-08-19T12:21:51Z</time>
      </trkpt>
      <trkpt lat="45.2595" lon="3.70748">
        <ele>1074.312</ele>
        <time>2020-08-19T12:21:53Z</time>
      </trkpt>
      <trkpt lat="45.25952" lon="3.70745">
        <ele>1074.291</ele>
        <time>2020-08-19T12:21:55Z</time>
      </trkpt>
      <trkpt lat="45.25952" lon="3.70744">
        <ele>1074.433</ele>
        <time>2020-08-19T12:21:56Z</time>
      </trkpt>
      <trkpt lat="45.25953" lon="3.70744">
        <ele>1074.5</ele>
        <time>2020-08-19T12:21:57Z</time>
      </trkpt>
      <trkpt lat="45.25964" lon="3.70743">
        <ele>1074.315</ele>
        <time>2020-08-19T12:22:05Z</time>
      </trkpt>
      <trkpt lat="45.25977" lon="3.70741">
        <ele>1074.73</ele>
        <time>2020-08-19T12:22:14Z</time>
      </trkpt>
      <trkpt lat="45.25986" lon="3.70744">
        <ele>1074.854</ele>
        <time>2020-08-19T12:22:24Z</time>
      </trkpt>
      <trkpt lat="45.25997" lon="3.70746">
        <ele>1075.135</ele>
        <time>2020-08-19T12:22:31Z</time>
      </trkpt>
      <trkpt lat="45.26" lon="3.70745">
        <ele>1074.628</ele>
        <time>2020-08-19T12:22:33Z</time>
      </trkpt>
      <trkpt lat="45.26011" lon="3.70746">
        <ele>1074.507</ele>
        <time>2020-08-19T12:22:46Z</time>
      </trkpt>
      <trkpt lat="45.26037" lon="3.70759">
        <ele>1076.631</ele>
        <time>2020-08-19T12:23:05Z</time>
      </trkpt>
      <trkpt lat="45.26042" lon="3.70761">
        <ele>1076.895</ele>
        <time>2020-08-19T12:23:09Z</time>
      </trkpt>
      <trkpt lat="45.2606" lon="3.70767">
        <ele>1078.067</ele>
        <time>2020-08-19T12:23:25Z</time>
      </trkpt>
      <trkpt lat="45.26113" lon="3.7079">
        <ele>1080.17</ele>
        <time>2020-08-19T12:24:10Z</time>
      </trkpt>
      <trkpt lat="45.2613" lon="3.70796">
        <ele>1080.711</ele>
        <time>2020-08-19T12:24:22Z</time>
      </trkpt>
      <trkpt lat="45.26149" lon="3.70806">
        <ele>1082.723</ele>
        <time>2020-08-19T12:24:37Z</time>
      </trkpt>
      <trkpt lat="45.26168" lon="3.7082">
        <ele>1082.655</ele>
        <time>2020-08-19T12:24:57Z</time>
      </trkpt>
      <trkpt lat="45.2617" lon="3.70826">
        <ele>1082.672</ele>
        <time>2020-08-19T12:25:02Z</time>
      </trkpt>
      <trkpt lat="45.26171" lon="3.70826">
        <ele>1082.518</ele>
        <time>2020-08-19T12:25:03Z</time>
      </trkpt>
      <trkpt lat="45.26171" lon="3.70825">
        <ele>1082.244</ele>
        <time>2020-08-19T12:25:04Z</time>
      </trkpt>
      <trkpt lat="45.2617" lon="3.70825">
        <ele>1082.125</ele>
        <time>2020-08-19T12:25:05Z</time>
      </trkpt>
      <trkpt lat="45.2617" lon="3.70824">
        <ele>1082.257</ele>
        <time>2020-08-19T12:25:06Z</time>
      </trkpt>
      <trkpt lat="45.2617" lon="3.70824">
        <ele>1082.203</ele>
        <time>2020-08-19T12:25:07Z</time>
      </trkpt>
      <trkpt lat="45.2617" lon="3.70824">
        <ele>1082.203</ele>
        <time>2020-08-19T12:25:07Z</time>
      </trkpt>
      <trkpt lat="45.2617" lon="3.70823">
        <ele>1082.021</ele>
        <time>2020-08-19T12:25:08Z</time>
      </trkpt>
      <trkpt lat="45.26172" lon="3.70822">
        <ele>1082.352</ele>
        <time>2020-08-19T12:25:13Z</time>
      </trkpt>
      <trkpt lat="45.26172" lon="3.70822">
        <ele>1082.834</ele>
        <time>2020-08-19T12:25:14Z</time>
      </trkpt>
      <trkpt lat="45.26173" lon="3.70821">
        <ele>1083.002</ele>
        <time>2020-08-19T12:25:15Z</time>
      </trkpt>
      <trkpt lat="45.26176" lon="3.70819">
        <ele>1082.505</ele>
        <time>2020-08-19T12:25:19Z</time>
      </trkpt>
      <trkpt lat="45.26178" lon="3.70818">
        <ele>1082.511</ele>
        <time>2020-08-19T12:25:21Z</time>
      </trkpt>
      <trkpt lat="45.26177" lon="3.70816">
        <ele>1081.78</ele>
        <time>2020-08-19T12:25:26Z</time>
      </trkpt>
      <trkpt lat="45.26177" lon="3.70816">
        <ele>1081.507</ele>
        <time>2020-08-19T12:25:27Z</time>
      </trkpt>
      <trkpt lat="45.26176" lon="3.70816">
        <ele>1081.704</ele>
        <time>2020-08-19T12:25:28Z</time>
      </trkpt>
      <trkpt lat="45.26176" lon="3.70815">
        <ele>1081.947</ele>
        <time>2020-08-19T12:25:29Z</time>
      </trkpt>
      <trkpt lat="45.26175" lon="3.70815">
        <ele>1082.048</ele>
        <time>2020-08-19T12:25:30Z</time>
      </trkpt>
      <trkpt lat="45.26173" lon="3.70815">
        <ele>1081.634</ele>
        <time>2020-08-19T12:25:33Z</time>
      </trkpt>
      <trkpt lat="45.26173" lon="3.70815">
        <ele>1081.558</ele>
        <time>2020-08-19T12:25:34Z</time>
      </trkpt>
      <trkpt lat="45.26173" lon="3.70815">
        <ele>1081.558</ele>
        <time>2020-08-19T12:25:34Z</time>
      </trkpt>
      <trkpt lat="45.26173" lon="3.70816">
        <ele>1081.971</ele>
        <time>2020-08-19T12:25:35Z</time>
      </trkpt>
      <trkpt lat="45.26173" lon="3.70816">
        <ele>1080.994</ele>
        <time>2020-08-19T12:25:36Z</time>
      </trkpt>
      <trkpt lat="45.26173" lon="3.70816">
        <ele>1080.005</ele>
        <time>2020-08-19T12:26:24Z</time>
      </trkpt>
      <trkpt lat="45.26174" lon="3.70816">
        <ele>1079.197</ele>
        <time>2020-08-19T12:26:25Z</time>
      </trkpt>
      <trkpt lat="45.26174" lon="3.70816">
        <ele>1079.4</ele>
        <time>2020-08-19T12:26:26Z</time>
      </trkpt>
      <trkpt lat="45.26174" lon="3.70816">
        <ele>1079.404</ele>
        <time>2020-08-19T12:26:27Z</time>
      </trkpt>
      <trkpt lat="45.26173" lon="3.70818">
        <ele>1079.531</ele>
        <time>2020-08-19T12:26:28Z</time>
      </trkpt>
      <trkpt lat="45.26173" lon="3.70818">
        <ele>1079.557</ele>
        <time>2020-08-19T12:26:29Z</time>
      </trkpt>
      <trkpt lat="45.26173" lon="3.70818">
        <ele>1080.326</ele>
        <time>2020-08-19T12:28:08Z</time>
      </trkpt>
      <trkpt lat="45.26172" lon="3.70819">
        <ele>1079.343</ele>
        <time>2020-08-19T12:28:09Z</time>
      </trkpt>
      <trkpt lat="45.26172" lon="3.70819">
        <ele>1079.963</ele>
        <time>2020-08-19T12:28:10Z</time>
      </trkpt>
      <trkpt lat="45.26172" lon="3.70819">
        <ele>1080.128</ele>
        <time>2020-08-19T12:29:23Z</time>
      </trkpt>
      <trkpt lat="45.2617" lon="3.70817">
        <ele>1079.834</ele>
        <time>2020-08-19T12:29:24Z</time>
      </trkpt>
      <trkpt lat="45.2617" lon="3.70817">
        <ele>1080.685</ele>
        <time>2020-08-19T12:29:25Z</time>
      </trkpt>
      <trkpt lat="45.2617" lon="3.70817">
        <ele>1079.746</ele>
        <time>2020-08-19T12:29:49Z</time>
      </trkpt>
      <trkpt lat="45.26169" lon="3.70816">
        <ele>1079.399</ele>
        <time>2020-08-19T12:29:50Z</time>
      </trkpt>
      <trkpt lat="45.26168" lon="3.70818">
        <ele>1080.118</ele>
        <time>2020-08-19T12:29:52Z</time>
      </trkpt>
      <trkpt lat="45.26166" lon="3.7082">
        <ele>1080.893</ele>
        <time>2020-08-19T12:29:53Z</time>
      </trkpt>
      <trkpt lat="45.26164" lon="3.70823">
        <ele>1080.726</ele>
        <time>2020-08-19T12:29:54Z</time>
      </trkpt>
      <trkpt lat="45.26161" lon="3.70829">
        <ele>1081.795</ele>
        <time>2020-08-19T12:29:55Z</time>
      </trkpt>
      <trkpt lat="45.26156" lon="3.70846">
        <ele>1083.557</ele>
        <time>2020-08-19T12:29:58Z</time>
      </trkpt>
      <trkpt lat="45.26156" lon="3.7085">
        <ele>1083.916</ele>
        <time>2020-08-19T12:29:59Z</time>
      </trkpt>
      <trkpt lat="45.26157" lon="3.70863">
        <ele>1084.545</ele>
        <time>2020-08-19T12:30:02Z</time>
      </trkpt>
      <trkpt lat="45.26157" lon="3.7088">
        <ele>1086.104</ele>
        <time>2020-08-19T12:30:07Z</time>
      </trkpt>
      <trkpt lat="45.26154" lon="3.709">
        <ele>1088.147</ele>
        <time>2020-08-19T12:30:13Z</time>
      </trkpt>
      <trkpt lat="45.26153" lon="3.70907">
        <ele>1088.993</ele>
        <time>2020-08-19T12:30:16Z</time>
      </trkpt>
      <trkpt lat="45.26152" lon="3.70919">
        <ele>1090.334</ele>
        <time>2020-08-19T12:30:20Z</time>
      </trkpt>
      <trkpt lat="45.2615" lon="3.70933">
        <ele>1091.298</ele>
        <time>2020-08-19T12:30:24Z</time>
      </trkpt>
      <trkpt lat="45.26149" lon="3.70943">
        <ele>1091.609</ele>
        <time>2020-08-19T12:30:27Z</time>
      </trkpt>
      <trkpt lat="45.26147" lon="3.70954">
        <ele>1092.874</ele>
        <time>2020-08-19T12:30:31Z</time>
      </trkpt>
      <trkpt lat="45.26146" lon="3.70959">
        <ele>1094.034</ele>
        <time>2020-08-19T12:30:34Z</time>
      </trkpt>
      <trkpt lat="45.26146" lon="3.7096">
        <ele>1093.978</ele>
        <time>2020-08-19T12:30:36Z</time>
      </trkpt>
      <trkpt lat="45.26146" lon="3.7096">
        <ele>1093.978</ele>
        <time>2020-08-19T12:30:36Z</time>
      </trkpt>
      <trkpt lat="45.26147" lon="3.7096">
        <ele>1094.119</ele>
        <time>2020-08-19T12:30:37Z</time>
      </trkpt>
      <trkpt lat="45.26147" lon="3.70961">
        <ele>1094.826</ele>
        <time>2020-08-19T12:30:39Z</time>
      </trkpt>
      <trkpt lat="45.26147" lon="3.70961">
        <ele>1094.826</ele>
        <time>2020-08-19T12:30:39Z</time>
      </trkpt>
      <trkpt lat="45.26147" lon="3.70962">
        <ele>1095.007</ele>
        <time>2020-08-19T12:30:40Z</time>
      </trkpt>
      <trkpt lat="45.26147" lon="3.70962">
        <ele>1095.089</ele>
        <time>2020-08-19T12:30:41Z</time>
      </trkpt>
      <trkpt lat="45.26147" lon="3.70963">
        <ele>1095.257</ele>
        <time>2020-08-19T12:30:44Z</time>
      </trkpt>
      <trkpt lat="45.26147" lon="3.70963">
        <ele>1095.257</ele>
        <time>2020-08-19T12:30:44Z</time>
      </trkpt>
      <trkpt lat="45.26148" lon="3.70963">
        <ele>1095.465</ele>
        <time>2020-08-19T12:30:45Z</time>
      </trkpt>
      <trkpt lat="45.26148" lon="3.70963">
        <ele>1095.465</ele>
        <time>2020-08-19T12:30:45Z</time>
      </trkpt>
      <trkpt lat="45.26148" lon="3.70963">
        <ele>1095.457</ele>
        <time>2020-08-19T12:30:46Z</time>
      </trkpt>
      <trkpt lat="45.26148" lon="3.70963">
        <ele>1095.435</ele>
        <time>2020-08-19T12:31:05Z</time>
      </trkpt>
      <trkpt lat="45.26148" lon="3.70963">
        <ele>1095.398</ele>
        <time>2020-08-19T12:31:06Z</time>
      </trkpt>
      <trkpt lat="45.26148" lon="3.70963">
        <ele>1095.408</ele>
        <time>2020-08-19T12:31:07Z</time>
      </trkpt>
      <trkpt lat="45.26148" lon="3.70963">
        <ele>1095.401</ele>
        <time>2020-08-19T12:31:17Z</time>
      </trkpt>
      <trkpt lat="45.26149" lon="3.70963">
        <ele>1095.428</ele>
        <time>2020-08-19T12:31:18Z</time>
      </trkpt>
      <trkpt lat="45.26149" lon="3.70963">
        <ele>1095.387</ele>
        <time>2020-08-19T12:31:19Z</time>
      </trkpt>
      <trkpt lat="45.26149" lon="3.70963">
        <ele>1095.372</ele>
        <time>2020-08-19T12:31:27Z</time>
      </trkpt>
      <trkpt lat="45.26148" lon="3.70964">
        <ele>1095.163</ele>
        <time>2020-08-19T12:31:28Z</time>
      </trkpt>
      <trkpt lat="45.26148" lon="3.70965">
        <ele>1095.097</ele>
        <time>2020-08-19T12:31:29Z</time>
      </trkpt>
      <trkpt lat="45.26146" lon="3.70977">
        <ele>1095.767</ele>
        <time>2020-08-19T12:31:34Z</time>
      </trkpt>
      <trkpt lat="45.26146" lon="3.70983">
        <ele>1095.897</ele>
        <time>2020-08-19T12:31:37Z</time>
      </trkpt>
      <trkpt lat="45.26146" lon="3.70983">
        <ele>1095.294</ele>
        <time>2020-08-19T12:31:38Z</time>
      </trkpt>
      <trkpt lat="45.26146" lon="3.70983">
        <ele>1095.294</ele>
        <time>2020-08-19T12:31:38Z</time>
      </trkpt>
      <trkpt lat="45.26146" lon="3.70983">
        <ele>1094.846</ele>
        <time>2020-08-19T12:31:39Z</time>
      </trkpt>
      <trkpt lat="45.26146" lon="3.70985">
        <ele>1095.199</ele>
        <time>2020-08-19T12:31:43Z</time>
      </trkpt>
      <trkpt lat="45.26145" lon="3.7099">
        <ele>1094.953</ele>
        <time>2020-08-19T12:31:47Z</time>
      </trkpt>
      <trkpt lat="45.26145" lon="3.70998">
        <ele>1094.003</ele>
        <time>2020-08-19T12:31:52Z</time>
      </trkpt>
      <trkpt lat="45.26149" lon="3.71007">
        <ele>1094.29</ele>
        <time>2020-08-19T12:31:58Z</time>
      </trkpt>
      <trkpt lat="45.26155" lon="3.71007">
        <ele>1094.809</ele>
        <time>2020-08-19T12:32:05Z</time>
      </trkpt>
      <trkpt lat="45.26159" lon="3.71006">
        <ele>1093.965</ele>
        <time>2020-08-19T12:32:08Z</time>
      </trkpt>
      <trkpt lat="45.26162" lon="3.71004">
        <ele>1093.809</ele>
        <time>2020-08-19T12:32:11Z</time>
      </trkpt>
      <trkpt lat="45.26162" lon="3.71004">
        <ele>1093.881</ele>
        <time>2020-08-19T12:32:12Z</time>
      </trkpt>
      <trkpt lat="45.26162" lon="3.71003">
        <ele>1093.999</ele>
        <time>2020-08-19T12:32:13Z</time>
      </trkpt>
      <trkpt lat="45.26162" lon="3.71003">
        <ele>1094.504</ele>
        <time>2020-08-19T12:32:15Z</time>
      </trkpt>
      <trkpt lat="45.26162" lon="3.71003">
        <ele>1094.596</ele>
        <time>2020-08-19T12:32:17Z</time>
      </trkpt>
      <trkpt lat="45.26161" lon="3.71002">
        <ele>1094.474</ele>
        <time>2020-08-19T12:32:18Z</time>
      </trkpt>
      <trkpt lat="45.26161" lon="3.71002">
        <ele>1094.522</ele>
        <time>2020-08-19T12:32:19Z</time>
      </trkpt>
      <trkpt lat="45.26161" lon="3.71004">
        <ele>1094.028</ele>
        <time>2020-08-19T12:32:22Z</time>
      </trkpt>
      <trkpt lat="45.26165" lon="3.71006">
        <ele>1092.911</ele>
        <time>2020-08-19T12:32:26Z</time>
      </trkpt>
      <trkpt lat="45.26166" lon="3.71005">
        <ele>1093.504</ele>
        <time>2020-08-19T12:32:28Z</time>
      </trkpt>
      <trkpt lat="45.2618" lon="3.71004">
        <ele>1092.926</ele>
        <time>2020-08-19T12:32:39Z</time>
      </trkpt>
      <trkpt lat="45.26192" lon="3.71005">
        <ele>1095.056</ele>
        <time>2020-08-19T12:32:50Z</time>
      </trkpt>
      <trkpt lat="45.26228" lon="3.71005">
        <ele>1096.302</ele>
        <time>2020-08-19T12:33:15Z</time>
      </trkpt>
      <trkpt lat="45.26231" lon="3.71006">
        <ele>1096.264</ele>
        <time>2020-08-19T12:33:18Z</time>
      </trkpt>
      <trkpt lat="45.26257" lon="3.71011">
        <ele>1094.172</ele>
        <time>2020-08-19T12:33:39Z</time>
      </trkpt>
      <trkpt lat="45.26284" lon="3.71017">
        <ele>1092.048</ele>
        <time>2020-08-19T12:34:00Z</time>
      </trkpt>
      <trkpt lat="45.26307" lon="3.71024">
        <ele>1091.394</ele>
        <time>2020-08-19T12:34:21Z</time>
      </trkpt>
      <trkpt lat="45.26323" lon="3.71035">
        <ele>1089.372</ele>
        <time>2020-08-19T12:34:35Z</time>
      </trkpt>
      <trkpt lat="45.26342" lon="3.71053">
        <ele>1087.212</ele>
        <time>2020-08-19T12:34:52Z</time>
      </trkpt>
      <trkpt lat="45.26345" lon="3.71056">
        <ele>1086.996</ele>
        <time>2020-08-19T12:34:55Z</time>
      </trkpt>
      <trkpt lat="45.26381" lon="3.71084">
        <ele>1085.138</ele>
        <time>2020-08-19T12:35:28Z</time>
      </trkpt>
      <trkpt lat="45.26382" lon="3.71085">
        <ele>1085.17</ele>
        <time>2020-08-19T12:35:29Z</time>
      </trkpt>
      <trkpt lat="45.26392" lon="3.71095">
        <ele>1085.77</ele>
        <time>2020-08-19T12:35:43Z</time>
      </trkpt>
      <trkpt lat="45.26395" lon="3.71098">
        <ele>1086.106</ele>
        <time>2020-08-19T12:35:46Z</time>
      </trkpt>
      <trkpt lat="45.26401" lon="3.71107">
        <ele>1085.621</ele>
        <time>2020-08-19T12:35:53Z</time>
      </trkpt>
      <trkpt lat="45.26418" lon="3.71122">
        <ele>1085.878</ele>
        <time>2020-08-19T12:36:08Z</time>
      </trkpt>
      <trkpt lat="45.26471" lon="3.71174">
        <ele>1086.887</ele>
        <time>2020-08-19T12:36:55Z</time>
      </trkpt>
      <trkpt lat="45.26532" lon="3.71219">
        <ele>1086.855</ele>
        <time>2020-08-19T12:37:50Z</time>
      </trkpt>
      <trkpt lat="45.26553" lon="3.71242">
        <ele>1085.878</ele>
        <time>2020-08-19T12:38:09Z</time>
      </trkpt>
      <trkpt lat="45.2656" lon="3.71252">
        <ele>1084.935</ele>
        <time>2020-08-19T12:38:16Z</time>
      </trkpt>
      <trkpt lat="45.26596" lon="3.71297">
        <ele>1085.661</ele>
        <time>2020-08-19T12:38:55Z</time>
      </trkpt>
      <trkpt lat="45.26605" lon="3.71307">
        <ele>1086.199</ele>
        <time>2020-08-19T12:39:04Z</time>
      </trkpt>
      <trkpt lat="45.26652" lon="3.7134">
        <ele>1085.935</ele>
        <time>2020-08-19T12:39:44Z</time>
      </trkpt>
      <trkpt lat="45.26657" lon="3.71341">
        <ele>1085.841</ele>
        <time>2020-08-19T12:39:48Z</time>
      </trkpt>
      <trkpt lat="45.26659" lon="3.71341">
        <ele>1085.681</ele>
        <time>2020-08-19T12:39:51Z</time>
      </trkpt>
      <trkpt lat="45.26663" lon="3.7134">
        <ele>1085.467</ele>
        <time>2020-08-19T12:39:53Z</time>
      </trkpt>
      <trkpt lat="45.26669" lon="3.71339">
        <ele>1085.976</ele>
        <time>2020-08-19T12:39:57Z</time>
      </trkpt>
      <trkpt lat="45.2668" lon="3.71334">
        <ele>1085.384</ele>
        <time>2020-08-19T12:40:06Z</time>
      </trkpt>
      <trkpt lat="45.26695" lon="3.71334">
        <ele>1084.959</ele>
        <time>2020-08-19T12:40:16Z</time>
      </trkpt>
      <trkpt lat="45.26712" lon="3.71341">
        <ele>1084.619</ele>
        <time>2020-08-19T12:40:32Z</time>
      </trkpt>
      <trkpt lat="45.26726" lon="3.71337">
        <ele>1082.62</ele>
        <time>2020-08-19T12:40:43Z</time>
      </trkpt>
      <trkpt lat="45.2673" lon="3.71335">
        <ele>1082.535</ele>
        <time>2020-08-19T12:40:46Z</time>
      </trkpt>
      <trkpt lat="45.26733" lon="3.71332">
        <ele>1082.098</ele>
        <time>2020-08-19T12:40:49Z</time>
      </trkpt>
      <trkpt lat="45.26737" lon="3.71327">
        <ele>1082.554</ele>
        <time>2020-08-19T12:40:54Z</time>
      </trkpt>
      <trkpt lat="45.26743" lon="3.71321">
        <ele>1081.401</ele>
        <time>2020-08-19T12:41:00Z</time>
      </trkpt>
      <trkpt lat="45.26752" lon="3.71317">
        <ele>1081.723</ele>
        <time>2020-08-19T12:41:06Z</time>
      </trkpt>
      <trkpt lat="45.26757" lon="3.71315">
        <ele>1081.739</ele>
        <time>2020-08-19T12:41:11Z</time>
      </trkpt>
      <trkpt lat="45.26766" lon="3.71313">
        <ele>1081.82</ele>
        <time>2020-08-19T12:41:19Z</time>
      </trkpt>
      <trkpt lat="45.26775" lon="3.71312">
        <ele>1081.4</ele>
        <time>2020-08-19T12:41:26Z</time>
      </trkpt>
      <trkpt lat="45.26817" lon="3.71304">
        <ele>1082.242</ele>
        <time>2020-08-19T12:42:01Z</time>
      </trkpt>
      <trkpt lat="45.26824" lon="3.71304">
        <ele>1082.744</ele>
        <time>2020-08-19T12:42:06Z</time>
      </trkpt>
      <trkpt lat="45.26843" lon="3.71312">
        <ele>1084.819</ele>
        <time>2020-08-19T12:42:22Z</time>
      </trkpt>
      <trkpt lat="45.26846" lon="3.71313">
        <ele>1085.525</ele>
        <time>2020-08-19T12:42:26Z</time>
      </trkpt>
      <trkpt lat="45.26846" lon="3.71317">
        <ele>1086.08</ele>
        <time>2020-08-19T12:42:30Z</time>
      </trkpt>
      <trkpt lat="45.26846" lon="3.71317">
        <ele>1086.319</ele>
        <time>2020-08-19T12:42:31Z</time>
      </trkpt>
      <trkpt lat="45.26846" lon="3.71317">
        <ele>1086.225</ele>
        <time>2020-08-19T12:42:32Z</time>
      </trkpt>
      <trkpt lat="45.26846" lon="3.71317">
        <ele>1086.225</ele>
        <time>2020-08-19T12:42:32Z</time>
      </trkpt>
      <trkpt lat="45.26845" lon="3.71318">
        <ele>1086.574</ele>
        <time>2020-08-19T12:42:33Z</time>
      </trkpt>
      <trkpt lat="45.26845" lon="3.71318">
        <ele>1086.447</ele>
        <time>2020-08-19T12:42:35Z</time>
      </trkpt>
      <trkpt lat="45.26846" lon="3.71316">
        <ele>1086.559</ele>
        <time>2020-08-19T12:42:36Z</time>
      </trkpt>
      <trkpt lat="45.26848" lon="3.71313">
        <ele>1086.052</ele>
        <time>2020-08-19T12:42:38Z</time>
      </trkpt>
      <trkpt lat="45.26861" lon="3.71305">
        <ele>1084.05</ele>
        <time>2020-08-19T12:42:49Z</time>
      </trkpt>
      <trkpt lat="45.26879" lon="3.71294">
        <ele>1084.67</ele>
        <time>2020-08-19T12:43:04Z</time>
      </trkpt>
      <trkpt lat="45.26892" lon="3.71294">
        <ele>1085.345</ele>
        <time>2020-08-19T12:43:14Z</time>
      </trkpt>
      <trkpt lat="45.26897" lon="3.71295">
        <ele>1086.343</ele>
        <time>2020-08-19T12:43:21Z</time>
      </trkpt>
      <trkpt lat="45.26898" lon="3.71295">
        <ele>1086.398</ele>
        <time>2020-08-19T12:43:22Z</time>
      </trkpt>
      <trkpt lat="45.269" lon="3.71296">
        <ele>1086.529</ele>
        <time>2020-08-19T12:43:25Z</time>
      </trkpt>
      <trkpt lat="45.269" lon="3.71296">
        <ele>1086.044</ele>
        <time>2020-08-19T12:43:26Z</time>
      </trkpt>
      <trkpt lat="45.269" lon="3.71296">
        <ele>1085.467</ele>
        <time>2020-08-19T12:43:27Z</time>
      </trkpt>
      <trkpt lat="45.269" lon="3.71295">
        <ele>1085.676</ele>
        <time>2020-08-19T12:43:28Z</time>
      </trkpt>
      <trkpt lat="45.26902" lon="3.71295">
        <ele>1085.365</ele>
        <time>2020-08-19T12:43:31Z</time>
      </trkpt>
      <trkpt lat="45.26904" lon="3.71295">
        <ele>1085.779</ele>
        <time>2020-08-19T12:43:35Z</time>
      </trkpt>
      <trkpt lat="45.26906" lon="3.71295">
        <ele>1086.083</ele>
        <time>2020-08-19T12:43:38Z</time>
      </trkpt>
      <trkpt lat="45.26906" lon="3.71295">
        <ele>1087.157</ele>
        <time>2020-08-19T12:44:05Z</time>
      </trkpt>
      <trkpt lat="45.26908" lon="3.71294">
        <ele>1087.308</ele>
        <time>2020-08-19T12:44:06Z</time>
      </trkpt>
      <trkpt lat="45.26921" lon="3.7129">
        <ele>1089.311</ele>
        <time>2020-08-19T12:44:17Z</time>
      </trkpt>
      <trkpt lat="45.26933" lon="3.71285">
        <ele>1089.682</ele>
        <time>2020-08-19T12:44:31Z</time>
      </trkpt>
      <trkpt lat="45.26934" lon="3.71284">
        <ele>1089.512</ele>
        <time>2020-08-19T12:44:32Z</time>
      </trkpt>
      <trkpt lat="45.2694" lon="3.7128">
        <ele>1089.413</ele>
        <time>2020-08-19T12:44:38Z</time>
      </trkpt>
      <trkpt lat="45.26955" lon="3.7128">
        <ele>1090.439</ele>
        <time>2020-08-19T12:44:52Z</time>
      </trkpt>
      <trkpt lat="45.26958" lon="3.71277">
        <ele>1091.002</ele>
        <time>2020-08-19T12:44:56Z</time>
      </trkpt>
      <trkpt lat="45.26966" lon="3.71271">
        <ele>1090.864</ele>
        <time>2020-08-19T12:45:04Z</time>
      </trkpt>
      <trkpt lat="45.26975" lon="3.7126">
        <ele>1091.662</ele>
        <time>2020-08-19T12:45:14Z</time>
      </trkpt>
      <trkpt lat="45.2698" lon="3.71263">
        <ele>1092.121</ele>
        <time>2020-08-19T12:45:17Z</time>
      </trkpt>
      <trkpt lat="45.26984" lon="3.7127">
        <ele>1092.162</ele>
        <time>2020-08-19T12:45:21Z</time>
      </trkpt>
      <trkpt lat="45.26989" lon="3.71278">
        <ele>1091.813</ele>
        <time>2020-08-19T12:45:27Z</time>
      </trkpt>
      <trkpt lat="45.27012" lon="3.71303">
        <ele>1091.458</ele>
        <time>2020-08-19T12:45:49Z</time>
      </trkpt>
      <trkpt lat="45.27051" lon="3.71319">
        <ele>1090.347</ele>
        <time>2020-08-19T12:46:23Z</time>
      </trkpt>
      <trkpt lat="45.27053" lon="3.7132">
        <ele>1090.261</ele>
        <time>2020-08-19T12:46:24Z</time>
      </trkpt>
      <trkpt lat="45.27058" lon="3.71324">
        <ele>1090.476</ele>
        <time>2020-08-19T12:46:29Z</time>
      </trkpt>
      <trkpt lat="45.27065" lon="3.71332">
        <ele>1091.191</ele>
        <time>2020-08-19T12:46:37Z</time>
      </trkpt>
      <trkpt lat="45.27071" lon="3.71336">
        <ele>1091.343</ele>
        <time>2020-08-19T12:46:42Z</time>
      </trkpt>
      <trkpt lat="45.27123" lon="3.71368">
        <ele>1089.729</ele>
        <time>2020-08-19T12:47:21Z</time>
      </trkpt>
      <trkpt lat="45.27124" lon="3.71368">
        <ele>1089.424</ele>
        <time>2020-08-19T12:47:23Z</time>
      </trkpt>
      <trkpt lat="45.27151" lon="3.71376">
        <ele>1089.072</ele>
        <time>2020-08-19T12:47:45Z</time>
      </trkpt>
      <trkpt lat="45.27154" lon="3.71375">
        <ele>1089.056</ele>
        <time>2020-08-19T12:47:47Z</time>
      </trkpt>
      <trkpt lat="45.27197" lon="3.71352">
        <ele>1088.538</ele>
        <time>2020-08-19T12:48:20Z</time>
      </trkpt>
      <trkpt lat="45.27216" lon="3.71353">
        <ele>1088.572</ele>
        <time>2020-08-19T12:48:34Z</time>
      </trkpt>
      <trkpt lat="45.27249" lon="3.71357">
        <ele>1090.713</ele>
        <time>2020-08-19T12:48:59Z</time>
      </trkpt>
      <trkpt lat="45.27253" lon="3.71357">
        <ele>1090.425</ele>
        <time>2020-08-19T12:49:02Z</time>
      </trkpt>
      <trkpt lat="45.27272" lon="3.71354">
        <ele>1091.125</ele>
        <time>2020-08-19T12:49:14Z</time>
      </trkpt>
      <trkpt lat="45.27299" lon="3.71343">
        <ele>1091.827</ele>
        <time>2020-08-19T12:49:31Z</time>
      </trkpt>
      <trkpt lat="45.27315" lon="3.71336">
        <ele>1092.8</ele>
        <time>2020-08-19T12:49:43Z</time>
      </trkpt>
      <trkpt lat="45.2732" lon="3.71333">
        <ele>1093.222</ele>
        <time>2020-08-19T12:49:47Z</time>
      </trkpt>
      <trkpt lat="45.27327" lon="3.71325">
        <ele>1093.096</ele>
        <time>2020-08-19T12:49:54Z</time>
      </trkpt>
      <trkpt lat="45.27331" lon="3.71324">
        <ele>1093.864</ele>
        <time>2020-08-19T12:49:58Z</time>
      </trkpt>
      <trkpt lat="45.27351" lon="3.71319">
        <ele>1093.453</ele>
        <time>2020-08-19T12:50:11Z</time>
      </trkpt>
      <trkpt lat="45.27366" lon="3.71318">
        <ele>1093.735</ele>
        <time>2020-08-19T12:50:20Z</time>
      </trkpt>
      <trkpt lat="45.27393" lon="3.71314">
        <ele>1095.079</ele>
        <time>2020-08-19T12:50:41Z</time>
      </trkpt>
      <trkpt lat="45.27405" lon="3.71313">
        <ele>1095.039</ele>
        <time>2020-08-19T12:50:49Z</time>
      </trkpt>
      <trkpt lat="45.2741" lon="3.71315">
        <ele>1095.593</ele>
        <time>2020-08-19T12:50:56Z</time>
      </trkpt>
      <trkpt lat="45.2743" lon="3.71321">
        <ele>1097.642</ele>
        <time>2020-08-19T12:51:12Z</time>
      </trkpt>
      <trkpt lat="45.27454" lon="3.71328">
        <ele>1095.416</ele>
        <time>2020-08-19T12:51:32Z</time>
      </trkpt>
      <trkpt lat="45.27479" lon="3.71334">
        <ele>1093.34</ele>
        <time>2020-08-19T12:51:55Z</time>
      </trkpt>
      <trkpt lat="45.27535" lon="3.71348">
        <ele>1092.904</ele>
        <time>2020-08-19T12:52:40Z</time>
      </trkpt>
      <trkpt lat="45.27555" lon="3.71349">
        <ele>1091.676</ele>
        <time>2020-08-19T12:52:58Z</time>
      </trkpt>
      <trkpt lat="45.27562" lon="3.7135">
        <ele>1092.414</ele>
        <time>2020-08-19T12:53:06Z</time>
      </trkpt>
      <trkpt lat="45.27563" lon="3.71349">
        <ele>1091.942</ele>
        <time>2020-08-19T12:53:08Z</time>
      </trkpt>
      <trkpt lat="45.27595" lon="3.71343">
        <ele>1092.281</ele>
        <time>2020-08-19T12:53:33Z</time>
      </trkpt>
      <trkpt lat="45.27683" lon="3.71312">
        <ele>1093.228</ele>
        <time>2020-08-19T12:54:41Z</time>
      </trkpt>
      <trkpt lat="45.27689" lon="3.71312">
        <ele>1093.201</ele>
        <time>2020-08-19T12:54:45Z</time>
      </trkpt>
      <trkpt lat="45.277" lon="3.71312">
        <ele>1093.029</ele>
        <time>2020-08-19T12:54:53Z</time>
      </trkpt>
      <trkpt lat="45.27717" lon="3.71324">
        <ele>1091.079</ele>
        <time>2020-08-19T12:55:12Z</time>
      </trkpt>
      <trkpt lat="45.27722" lon="3.71334">
        <ele>1091.662</ele>
        <time>2020-08-19T12:55:19Z</time>
      </trkpt>
      <trkpt lat="45.27724" lon="3.71346">
        <ele>1092.378</ele>
        <time>2020-08-19T12:55:26Z</time>
      </trkpt>
      <trkpt lat="45.27725" lon="3.71373">
        <ele>1090.352</ele>
        <time>2020-08-19T12:55:42Z</time>
      </trkpt>
      <trkpt lat="45.27722" lon="3.71457">
        <ele>1090.546</ele>
        <time>2020-08-19T12:56:28Z</time>
      </trkpt>
      <trkpt lat="45.27721" lon="3.71467">
        <ele>1090.374</ele>
        <time>2020-08-19T12:56:33Z</time>
      </trkpt>
      <trkpt lat="45.277" lon="3.71592">
        <ele>1089.63</ele>
        <time>2020-08-19T12:57:46Z</time>
      </trkpt>
      <trkpt lat="45.27688" lon="3.71661">
        <ele>1090.23</ele>
        <time>2020-08-19T12:58:30Z</time>
      </trkpt>
      <trkpt lat="45.27688" lon="3.71661">
        <ele>1090.23</ele>
        <time>2020-08-19T12:58:30Z</time>
      </trkpt>
      <trkpt lat="45.27688" lon="3.71662">
        <ele>1090.532</ele>
        <time>2020-08-19T12:58:31Z</time>
      </trkpt>
      <trkpt lat="45.27689" lon="3.71663">
        <ele>1090.926</ele>
        <time>2020-08-19T12:58:34Z</time>
      </trkpt>
      <trkpt lat="45.27691" lon="3.71667">
        <ele>1091.202</ele>
        <time>2020-08-19T12:58:38Z</time>
      </trkpt>
      <trkpt lat="45.27688" lon="3.71675">
        <ele>1091.308</ele>
        <time>2020-08-19T12:58:42Z</time>
      </trkpt>
      <trkpt lat="45.27677" lon="3.71728">
        <ele>1091.338</ele>
        <time>2020-08-19T12:59:11Z</time>
      </trkpt>
      <trkpt lat="45.27676" lon="3.71747">
        <ele>1092.09</ele>
        <time>2020-08-19T12:59:23Z</time>
      </trkpt>
      <trkpt lat="45.27676" lon="3.71752">
        <ele>1091.589</ele>
        <time>2020-08-19T12:59:26Z</time>
      </trkpt>
      <trkpt lat="45.27671" lon="3.71772">
        <ele>1091.358</ele>
        <time>2020-08-19T12:59:36Z</time>
      </trkpt>
      <trkpt lat="45.27659" lon="3.71865">
        <ele>1092.038</ele>
        <time>2020-08-19T13:00:28Z</time>
      </trkpt>
      <trkpt lat="45.27656" lon="3.71873">
        <ele>1092.087</ele>
        <time>2020-08-19T13:00:33Z</time>
      </trkpt>
      <trkpt lat="45.27653" lon="3.71874">
        <ele>1091.968</ele>
        <time>2020-08-19T13:00:35Z</time>
      </trkpt>
      <trkpt lat="45.2765" lon="3.71877">
        <ele>1091.852</ele>
        <time>2020-08-19T13:00:38Z</time>
      </trkpt>
      <trkpt lat="45.2765" lon="3.71877">
        <ele>1091.405</ele>
        <time>2020-08-19T13:00:39Z</time>
      </trkpt>
      <trkpt lat="45.2765" lon="3.71877">
        <ele>1091.405</ele>
        <time>2020-08-19T13:00:39Z</time>
      </trkpt>
      <trkpt lat="45.2765" lon="3.71877">
        <ele>1091.399</ele>
        <time>2020-08-19T13:00:40Z</time>
      </trkpt>
      <trkpt lat="45.2765" lon="3.71877">
        <ele>1090.656</ele>
        <time>2020-08-19T13:01:10Z</time>
      </trkpt>
      <trkpt lat="45.2765" lon="3.71876">
        <ele>1091.022</ele>
        <time>2020-08-19T13:01:11Z</time>
      </trkpt>
      <trkpt lat="45.2765" lon="3.71876">
        <ele>1090.703</ele>
        <time>2020-08-19T13:01:13Z</time>
      </trkpt>
      <trkpt lat="45.2765" lon="3.71876">
        <ele>1090.703</ele>
        <time>2020-08-19T13:01:13Z</time>
      </trkpt>
      <trkpt lat="45.2765" lon="3.71876">
        <ele>1090.699</ele>
        <time>2020-08-19T13:01:14Z</time>
      </trkpt>
      <trkpt lat="45.2765" lon="3.71876">
        <ele>1090.698</ele>
        <time>2020-08-19T13:01:15Z</time>
      </trkpt>
      <trkpt lat="45.2765" lon="3.71876">
        <ele>1090.579</ele>
        <time>2020-08-19T13:01:47Z</time>
      </trkpt>
      <trkpt lat="45.27649" lon="3.71877">
        <ele>1090.7</ele>
        <time>2020-08-19T13:01:48Z</time>
      </trkpt>
      <trkpt lat="45.27649" lon="3.71877">
        <ele>1090.705</ele>
        <time>2020-08-19T13:01:49Z</time>
      </trkpt>
      <trkpt lat="45.27649" lon="3.71877">
        <ele>1090.719</ele>
        <time>2020-08-19T13:01:59Z</time>
      </trkpt>
      <trkpt lat="45.27648" lon="3.71876">
        <ele>1090.648</ele>
        <time>2020-08-19T13:02:00Z</time>
      </trkpt>
      <trkpt lat="45.27648" lon="3.71876">
        <ele>1090.707</ele>
        <time>2020-08-19T13:02:03Z</time>
      </trkpt>
      <trkpt lat="45.27648" lon="3.71876">
        <ele>1090.707</ele>
        <time>2020-08-19T13:02:03Z</time>
      </trkpt>
      <trkpt lat="45.27648" lon="3.71877">
        <ele>1090.763</ele>
        <time>2020-08-19T13:02:04Z</time>
      </trkpt>
      <trkpt lat="45.27648" lon="3.71877">
        <ele>1090.763</ele>
        <time>2020-08-19T13:02:04Z</time>
      </trkpt>
      <trkpt lat="45.27648" lon="3.71877">
        <ele>1090.76</ele>
        <time>2020-08-19T13:02:05Z</time>
      </trkpt>
      <trkpt lat="45.27648" lon="3.71877">
        <ele>1090.456</ele>
        <time>2020-08-19T13:02:20Z</time>
      </trkpt>
      <trkpt lat="45.27647" lon="3.71877">
        <ele>1090.392</ele>
        <time>2020-08-19T13:02:21Z</time>
      </trkpt>
      <trkpt lat="45.27647" lon="3.71878">
        <ele>1090.402</ele>
        <time>2020-08-19T13:02:23Z</time>
      </trkpt>
      <trkpt lat="45.27647" lon="3.71878">
        <ele>1090.23</ele>
        <time>2020-08-19T13:02:30Z</time>
      </trkpt>
      <trkpt lat="45.27648" lon="3.71879">
        <ele>1089.975</ele>
        <time>2020-08-19T13:02:31Z</time>
      </trkpt>
      <trkpt lat="45.27648" lon="3.71879">
        <ele>1090.095</ele>
        <time>2020-08-19T13:02:32Z</time>
      </trkpt>
      <trkpt lat="45.27648" lon="3.71879">
        <ele>1089.952</ele>
        <time>2020-08-19T13:02:34Z</time>
      </trkpt>
      <trkpt lat="45.27648" lon="3.71879">
        <ele>1089.942</ele>
        <time>2020-08-19T13:02:35Z</time>
      </trkpt>
      <trkpt lat="45.27648" lon="3.71879">
        <ele>1090.053</ele>
        <time>2020-08-19T13:02:40Z</time>
      </trkpt>
      <trkpt lat="45.27648" lon="3.71879">
        <ele>1090.55</ele>
        <time>2020-08-19T13:02:41Z</time>
      </trkpt>
      <trkpt lat="45.27648" lon="3.71879">
        <ele>1090.55</ele>
        <time>2020-08-19T13:02:41Z</time>
      </trkpt>
      <trkpt lat="45.27648" lon="3.71879">
        <ele>1090.493</ele>
        <time>2020-08-19T13:02:42Z</time>
      </trkpt>
      <trkpt lat="45.27648" lon="3.71879">
        <ele>1090.503</ele>
        <time>2020-08-19T13:02:45Z</time>
      </trkpt>
      <trkpt lat="45.27647" lon="3.71878">
        <ele>1090.73</ele>
        <time>2020-08-19T13:02:46Z</time>
      </trkpt>
      <trkpt lat="45.27647" lon="3.71878">
        <ele>1091.712</ele>
        <time>2020-08-19T13:02:47Z</time>
      </trkpt>
      <trkpt lat="45.27647" lon="3.71878">
        <ele>1092.204</ele>
        <time>2020-08-19T13:02:48Z</time>
      </trkpt>
      <trkpt lat="45.27647" lon="3.71878">
        <ele>1092.444</ele>
        <time>2020-08-19T13:03:20Z</time>
      </trkpt>
      <trkpt lat="45.27646" lon="3.71877">
        <ele>1091.754</ele>
        <time>2020-08-19T13:03:21Z</time>
      </trkpt>
      <trkpt lat="45.27635" lon="3.71877">
        <ele>1089.865</ele>
        <time>2020-08-19T13:03:30Z</time>
      </trkpt>
      <trkpt lat="45.27625" lon="3.71878">
        <ele>1088.968</ele>
        <time>2020-08-19T13:03:37Z</time>
      </trkpt>
      <trkpt lat="45.27623" lon="3.71879">
        <ele>1087.978</ele>
        <time>2020-08-19T13:03:40Z</time>
      </trkpt>
      <trkpt lat="45.27623" lon="3.71879">
        <ele>1087.806</ele>
        <time>2020-08-19T13:03:41Z</time>
      </trkpt>
      <trkpt lat="45.27623" lon="3.71879">
        <ele>1087.72</ele>
        <time>2020-08-19T13:03:42Z</time>
      </trkpt>
      <trkpt lat="45.27623" lon="3.71879">
        <ele>1087.802</ele>
        <time>2020-08-19T13:03:43Z</time>
      </trkpt>
      <trkpt lat="45.27623" lon="3.71879">
        <ele>1087.802</ele>
        <time>2020-08-19T13:03:43Z</time>
      </trkpt>
      <trkpt lat="45.27623" lon="3.71879">
        <ele>1087.966</ele>
        <time>2020-08-19T13:03:44Z</time>
      </trkpt>
      <trkpt lat="45.27623" lon="3.71879">
        <ele>1087.966</ele>
        <time>2020-08-19T13:03:44Z</time>
      </trkpt>
      <trkpt lat="45.27623" lon="3.71878">
        <ele>1088.314</ele>
        <time>2020-08-19T13:03:45Z</time>
      </trkpt>
      <trkpt lat="45.27621" lon="3.71877">
        <ele>1088.318</ele>
        <time>2020-08-19T13:03:47Z</time>
      </trkpt>
      <trkpt lat="45.2762" lon="3.71878">
        <ele>1088.243</ele>
        <time>2020-08-19T13:03:51Z</time>
      </trkpt>
      <trkpt lat="45.2762" lon="3.71876">
        <ele>1087.644</ele>
        <time>2020-08-19T13:03:54Z</time>
      </trkpt>
      <trkpt lat="45.2762" lon="3.71876">
        <ele>1087.644</ele>
        <time>2020-08-19T13:03:54Z</time>
      </trkpt>
      <trkpt lat="45.2762" lon="3.71876">
        <ele>1087.848</ele>
        <time>2020-08-19T13:03:55Z</time>
      </trkpt>
      <trkpt lat="45.2762" lon="3.71876">
        <ele>1087.848</ele>
        <time>2020-08-19T13:03:55Z</time>
      </trkpt>
      <trkpt lat="45.2762" lon="3.71877">
        <ele>1087.946</ele>
        <time>2020-08-19T13:03:56Z</time>
      </trkpt>
      <trkpt lat="45.2762" lon="3.71877">
        <ele>1087.946</ele>
        <time>2020-08-19T13:03:56Z</time>
      </trkpt>
      <trkpt lat="45.2762" lon="3.71878">
        <ele>1088.462</ele>
        <time>2020-08-19T13:03:57Z</time>
      </trkpt>
      <trkpt lat="45.27621" lon="3.71881">
        <ele>1088.743</ele>
        <time>2020-08-19T13:04:00Z</time>
      </trkpt>
      <trkpt lat="45.27621" lon="3.71881">
        <ele>1088.667</ele>
        <time>2020-08-19T13:04:02Z</time>
      </trkpt>
      <trkpt lat="45.27623" lon="3.71881">
        <ele>1089.067</ele>
        <time>2020-08-19T13:04:03Z</time>
      </trkpt>
      <trkpt lat="45.27622" lon="3.71877">
        <ele>1091.293</ele>
        <time>2020-08-19T13:04:07Z</time>
      </trkpt>
      <trkpt lat="45.27622" lon="3.71868">
        <ele>1089.267</ele>
        <time>2020-08-19T13:04:11Z</time>
      </trkpt>
      <trkpt lat="45.27622" lon="3.71867">
        <ele>1088.556</ele>
        <time>2020-08-19T13:04:12Z</time>
      </trkpt>
      <trkpt lat="45.27623" lon="3.71865">
        <ele>1088.194</ele>
        <time>2020-08-19T13:04:17Z</time>
      </trkpt>
      <trkpt lat="45.27624" lon="3.71865">
        <ele>1087.284</ele>
        <time>2020-08-19T13:04:22Z</time>
      </trkpt>
      <trkpt lat="45.27623" lon="3.71867">
        <ele>1087.376</ele>
        <time>2020-08-19T13:04:23Z</time>
      </trkpt>
      <trkpt lat="45.27623" lon="3.71868">
        <ele>1087.287</ele>
        <time>2020-08-19T13:04:24Z</time>
      </trkpt>
      <trkpt lat="45.27623" lon="3.71869">
        <ele>1088.057</ele>
        <time>2020-08-19T13:04:26Z</time>
      </trkpt>
      <trkpt lat="45.27623" lon="3.71869">
        <ele>1088.018</ele>
        <time>2020-08-19T13:04:34Z</time>
      </trkpt>
      <trkpt lat="45.27622" lon="3.7187">
        <ele>1087.065</ele>
        <time>2020-08-19T13:04:35Z</time>
      </trkpt>
      <trkpt lat="45.27621" lon="3.7187">
        <ele>1086.579</ele>
        <time>2020-08-19T13:04:36Z</time>
      </trkpt>
      <trkpt lat="45.27621" lon="3.7187">
        <ele>1086.579</ele>
        <time>2020-08-19T13:04:36Z</time>
      </trkpt>
      <trkpt lat="45.27621" lon="3.7187">
        <ele>1086.123</ele>
        <time>2020-08-19T13:04:37Z</time>
      </trkpt>
      <trkpt lat="45.27618" lon="3.71871">
        <ele>1086.925</ele>
        <time>2020-08-19T13:04:41Z</time>
      </trkpt>
      <trkpt lat="45.27618" lon="3.71871">
        <ele>1086.925</ele>
        <time>2020-08-19T13:04:41Z</time>
      </trkpt>
      <trkpt lat="45.27618" lon="3.71871">
        <ele>1087.55</ele>
        <time>2020-08-19T13:04:42Z</time>
      </trkpt>
      <trkpt lat="45.27618" lon="3.71871">
        <ele>1087.55</ele>
        <time>2020-08-19T13:04:42Z</time>
      </trkpt>
      <trkpt lat="45.27619" lon="3.7187">
        <ele>1087.074</ele>
        <time>2020-08-19T13:04:43Z</time>
      </trkpt>
      <trkpt lat="45.27619" lon="3.71869">
        <ele>1087.46</ele>
        <time>2020-08-19T13:04:44Z</time>
      </trkpt>
      <trkpt lat="45.27619" lon="3.71869">
        <ele>1087.733</ele>
        <time>2020-08-19T13:04:45Z</time>
      </trkpt>
      <trkpt lat="45.27619" lon="3.71869">
        <ele>1087.733</ele>
        <time>2020-08-19T13:04:45Z</time>
      </trkpt>
      <trkpt lat="45.2762" lon="3.71868">
        <ele>1087.669</ele>
        <time>2020-08-19T13:04:46Z</time>
      </trkpt>
      <trkpt lat="45.2762" lon="3.71868">
        <ele>1087.673</ele>
        <time>2020-08-19T13:04:47Z</time>
      </trkpt>
      <trkpt lat="45.2762" lon="3.71868">
        <ele>1087.673</ele>
        <time>2020-08-19T13:04:47Z</time>
      </trkpt>
      <trkpt lat="45.27621" lon="3.71868">
        <ele>1087.307</ele>
        <time>2020-08-19T13:04:48Z</time>
      </trkpt>
      <trkpt lat="45.27621" lon="3.71868">
        <ele>1087.399</ele>
        <time>2020-08-19T13:04:49Z</time>
      </trkpt>
      <trkpt lat="45.27621" lon="3.71868">
        <ele>1087.399</ele>
        <time>2020-08-19T13:04:49Z</time>
      </trkpt>
      <trkpt lat="45.27621" lon="3.71868">
        <ele>1087.977</ele>
        <time>2020-08-19T13:04:50Z</time>
      </trkpt>
      <trkpt lat="45.27622" lon="3.71868">
        <ele>1088.476</ele>
        <time>2020-08-19T13:04:52Z</time>
      </trkpt>
      <trkpt lat="45.27622" lon="3.71868">
        <ele>1088.476</ele>
        <time>2020-08-19T13:04:52Z</time>
      </trkpt>
      <trkpt lat="45.27622" lon="3.71867">
        <ele>1088.52</ele>
        <time>2020-08-19T13:04:53Z</time>
      </trkpt>
      <trkpt lat="45.27622" lon="3.71867">
        <ele>1088.52</ele>
        <time>2020-08-19T13:04:53Z</time>
      </trkpt>
      <trkpt lat="45.27622" lon="3.71867">
        <ele>1089.03</ele>
        <time>2020-08-19T13:04:54Z</time>
      </trkpt>
      <trkpt lat="45.27622" lon="3.71867">
        <ele>1090.083</ele>
        <time>2020-08-19T13:04:56Z</time>
      </trkpt>
      <trkpt lat="45.27623" lon="3.71867">
        <ele>1090.377</ele>
        <time>2020-08-19T13:04:57Z</time>
      </trkpt>
      <trkpt lat="45.27623" lon="3.71867">
        <ele>1090.682</ele>
        <time>2020-08-19T13:04:59Z</time>
      </trkpt>
      <trkpt lat="45.27623" lon="3.71867">
        <ele>1090.682</ele>
        <time>2020-08-19T13:04:59Z</time>
      </trkpt>
      <trkpt lat="45.27623" lon="3.71868">
        <ele>1090.655</ele>
        <time>2020-08-19T13:05:00Z</time>
      </trkpt>
      <trkpt lat="45.27623" lon="3.71867">
        <ele>1089.656</ele>
        <time>2020-08-19T13:05:02Z</time>
      </trkpt>
      <trkpt lat="45.27623" lon="3.71867">
        <ele>1090.153</ele>
        <time>2020-08-19T13:05:03Z</time>
      </trkpt>
      <trkpt lat="45.27623" lon="3.71867">
        <ele>1090.153</ele>
        <time>2020-08-19T13:05:03Z</time>
      </trkpt>
      <trkpt lat="45.27624" lon="3.71867">
        <ele>1090.389</ele>
        <time>2020-08-19T13:05:04Z</time>
      </trkpt>
      <trkpt lat="45.27624" lon="3.71867">
        <ele>1090.389</ele>
        <time>2020-08-19T13:05:04Z</time>
      </trkpt>
      <trkpt lat="45.27624" lon="3.71867">
        <ele>1091.09</ele>
        <time>2020-08-19T13:05:05Z</time>
      </trkpt>
      <trkpt lat="45.27624" lon="3.71867">
        <ele>1091.09</ele>
        <time>2020-08-19T13:05:05Z</time>
      </trkpt>
      <trkpt lat="45.27624" lon="3.71867">
        <ele>1090.092</ele>
        <time>2020-08-19T13:05:06Z</time>
      </trkpt>
      <trkpt lat="45.27623" lon="3.71866">
        <ele>1089.48</ele>
        <time>2020-08-19T13:05:07Z</time>
      </trkpt>
      <trkpt lat="45.27623" lon="3.71866">
        <ele>1091.083</ele>
        <time>2020-08-19T13:05:08Z</time>
      </trkpt>
      <trkpt lat="45.27623" lon="3.71866">
        <ele>1091.672</ele>
        <time>2020-08-19T13:05:09Z</time>
      </trkpt>
      <trkpt lat="45.27623" lon="3.71866">
        <ele>1092.126</ele>
        <time>2020-08-19T13:05:10Z</time>
      </trkpt>
      <trkpt lat="45.27623" lon="3.71866">
        <ele>1092.126</ele>
        <time>2020-08-19T13:05:10Z</time>
      </trkpt>
      <trkpt lat="45.27623" lon="3.71867">
        <ele>1091.421</ele>
        <time>2020-08-19T13:05:11Z</time>
      </trkpt>
      <trkpt lat="45.27625" lon="3.71868">
        <ele>1089.87</ele>
        <time>2020-08-19T13:05:15Z</time>
      </trkpt>
      <trkpt lat="45.27625" lon="3.71868">
        <ele>1089.615</ele>
        <time>2020-08-19T13:05:16Z</time>
      </trkpt>
      <trkpt lat="45.27625" lon="3.71868">
        <ele>1088.684</ele>
        <time>2020-08-19T13:05:27Z</time>
      </trkpt>
      <trkpt lat="45.27623" lon="3.71869">
        <ele>1089.037</ele>
        <time>2020-08-19T13:05:28Z</time>
      </trkpt>
      <trkpt lat="45.27623" lon="3.71869">
        <ele>1088.489</ele>
        <time>2020-08-19T13:05:29Z</time>
      </trkpt>
      <trkpt lat="45.27623" lon="3.71869">
        <ele>1088.489</ele>
        <time>2020-08-19T13:05:29Z</time>
      </trkpt>
      <trkpt lat="45.27623" lon="3.71868">
        <ele>1088.448</ele>
        <time>2020-08-19T13:05:30Z</time>
      </trkpt>
      <trkpt lat="45.27622" lon="3.71864">
        <ele>1087.762</ele>
        <time>2020-08-19T13:05:36Z</time>
      </trkpt>
      <trkpt lat="45.27623" lon="3.71863">
        <ele>1088.484</ele>
        <time>2020-08-19T13:05:38Z</time>
      </trkpt>
      <trkpt lat="45.27623" lon="3.71863">
        <ele>1088.484</ele>
        <time>2020-08-19T13:05:38Z</time>
      </trkpt>
      <trkpt lat="45.27623" lon="3.71863">
        <ele>1088.648</ele>
        <time>2020-08-19T13:05:39Z</time>
      </trkpt>
      <trkpt lat="45.27623" lon="3.71863">
        <ele>1088.648</ele>
        <time>2020-08-19T13:05:39Z</time>
      </trkpt>
      <trkpt lat="45.27622" lon="3.71863">
        <ele>1088.654</ele>
        <time>2020-08-19T13:05:40Z</time>
      </trkpt>
      <trkpt lat="45.27622" lon="3.71863">
        <ele>1088.793</ele>
        <time>2020-08-19T13:05:41Z</time>
      </trkpt>
      <trkpt lat="45.27622" lon="3.71863">
        <ele>1088.762</ele>
        <time>2020-08-19T13:05:42Z</time>
      </trkpt>
      <trkpt lat="45.27622" lon="3.71863">
        <ele>1088.762</ele>
        <time>2020-08-19T13:05:42Z</time>
      </trkpt>
      <trkpt lat="45.27622" lon="3.71863">
        <ele>1089.939</ele>
        <time>2020-08-19T13:05:43Z</time>
      </trkpt>
      <trkpt lat="45.27622" lon="3.71862">
        <ele>1088.414</ele>
        <time>2020-08-19T13:05:47Z</time>
      </trkpt>
      <trkpt lat="45.2762" lon="3.7186">
        <ele>1089.006</ele>
        <time>2020-08-19T13:05:50Z</time>
      </trkpt>
      <trkpt lat="45.2762" lon="3.7186">
        <ele>1089.143</ele>
        <time>2020-08-19T13:05:51Z</time>
      </trkpt>
      <trkpt lat="45.2762" lon="3.7186">
        <ele>1089.001</ele>
        <time>2020-08-19T13:05:52Z</time>
      </trkpt>
      <trkpt lat="45.2762" lon="3.71862">
        <ele>1088.339</ele>
        <time>2020-08-19T13:05:53Z</time>
      </trkpt>
      <trkpt lat="45.2762" lon="3.71863">
        <ele>1089.155</ele>
        <time>2020-08-19T13:05:55Z</time>
      </trkpt>
      <trkpt lat="45.2762" lon="3.71863">
        <ele>1089.204</ele>
        <time>2020-08-19T13:05:59Z</time>
      </trkpt>
      <trkpt lat="45.27621" lon="3.71865">
        <ele>1088.534</ele>
        <time>2020-08-19T13:06:00Z</time>
      </trkpt>
      <trkpt lat="45.27621" lon="3.71865">
        <ele>1088.534</ele>
        <time>2020-08-19T13:06:00Z</time>
      </trkpt>
      <trkpt lat="45.27621" lon="3.71865">
        <ele>1088.888</ele>
        <time>2020-08-19T13:06:01Z</time>
      </trkpt>
      <trkpt lat="45.27621" lon="3.71865">
        <ele>1088.888</ele>
        <time>2020-08-19T13:06:01Z</time>
      </trkpt>
      <trkpt lat="45.27621" lon="3.71865">
        <ele>1089.678</ele>
        <time>2020-08-19T13:06:02Z</time>
      </trkpt>
      <trkpt lat="45.27621" lon="3.71865">
        <ele>1089.688</ele>
        <time>2020-08-19T13:06:03Z</time>
      </trkpt>
      <trkpt lat="45.27621" lon="3.71865">
        <ele>1089.537</ele>
        <time>2020-08-19T13:06:52Z</time>
      </trkpt>
      <trkpt lat="45.27622" lon="3.71865">
        <ele>1089.13</ele>
        <time>2020-08-19T13:06:53Z</time>
      </trkpt>
      <trkpt lat="45.27622" lon="3.71865">
        <ele>1088.399</ele>
        <time>2020-08-19T13:06:54Z</time>
      </trkpt>
      <trkpt lat="45.27622" lon="3.71865">
        <ele>1088.399</ele>
        <time>2020-08-19T13:06:54Z</time>
      </trkpt>
      <trkpt lat="45.27622" lon="3.71865">
        <ele>1088.421</ele>
        <time>2020-08-19T13:06:55Z</time>
      </trkpt>
      <trkpt lat="45.27621" lon="3.71866">
        <ele>1089.302</ele>
        <time>2020-08-19T13:06:57Z</time>
      </trkpt>
      <trkpt lat="45.27621" lon="3.71867">
        <ele>1088.504</ele>
        <time>2020-08-19T13:06:58Z</time>
      </trkpt>
      <trkpt lat="45.27624" lon="3.7187">
        <ele>1088.475</ele>
        <time>2020-08-19T13:07:00Z</time>
      </trkpt>
      <trkpt lat="45.27627" lon="3.71872">
        <ele>1090.629</ele>
        <time>2020-08-19T13:07:03Z</time>
      </trkpt>
      <trkpt lat="45.27629" lon="3.71875">
        <ele>1091.534</ele>
        <time>2020-08-19T13:07:06Z</time>
      </trkpt>
      <trkpt lat="45.27635" lon="3.71883">
        <ele>1092.414</ele>
        <time>2020-08-19T13:07:13Z</time>
      </trkpt>
      <trkpt lat="45.27651" lon="3.71904">
        <ele>1094.466</ele>
        <time>2020-08-19T13:07:28Z</time>
      </trkpt>
      <trkpt lat="45.27655" lon="3.71907">
        <ele>1093.97</ele>
        <time>2020-08-19T13:07:32Z</time>
      </trkpt>
      <trkpt lat="45.27656" lon="3.71908">
        <ele>1094.579</ele>
        <time>2020-08-19T13:07:35Z</time>
      </trkpt>
      <trkpt lat="45.27657" lon="3.71912">
        <ele>1095.068</ele>
        <time>2020-08-19T13:07:39Z</time>
      </trkpt>
      <trkpt lat="45.27659" lon="3.71917">
        <ele>1095.42</ele>
        <time>2020-08-19T13:07:43Z</time>
      </trkpt>
      <trkpt lat="45.27661" lon="3.71921">
        <ele>1095.528</ele>
        <time>2020-08-19T13:07:47Z</time>
      </trkpt>
      <trkpt lat="45.27662" lon="3.71925">
        <ele>1095.67</ele>
        <time>2020-08-19T13:07:50Z</time>
      </trkpt>
      <trkpt lat="45.27664" lon="3.71932">
        <ele>1096.73</ele>
        <time>2020-08-19T13:07:56Z</time>
      </trkpt>
      <trkpt lat="45.27665" lon="3.71939">
        <ele>1095.954</ele>
        <time>2020-08-19T13:08:00Z</time>
      </trkpt>
      <trkpt lat="45.27668" lon="3.71956">
        <ele>1096.599</ele>
        <time>2020-08-19T13:08:13Z</time>
      </trkpt>
      <trkpt lat="45.27669" lon="3.71961">
        <ele>1096.965</ele>
        <time>2020-08-19T13:08:18Z</time>
      </trkpt>
      <trkpt lat="45.27681" lon="3.71999">
        <ele>1098.067</ele>
        <time>2020-08-19T13:08:46Z</time>
      </trkpt>
      <trkpt lat="45.27683" lon="3.72003">
        <ele>1098.445</ele>
        <time>2020-08-19T13:08:49Z</time>
      </trkpt>
      <trkpt lat="45.27694" lon="3.72065">
        <ele>1100.557</ele>
        <time>2020-08-19T13:09:24Z</time>
      </trkpt>
      <trkpt lat="45.27706" lon="3.72107">
        <ele>1100.65</ele>
        <time>2020-08-19T13:09:52Z</time>
      </trkpt>
      <trkpt lat="45.27713" lon="3.72118">
        <ele>1100.648</ele>
        <time>2020-08-19T13:10:03Z</time>
      </trkpt>
      <trkpt lat="45.27713" lon="3.72119">
        <ele>1101.379</ele>
        <time>2020-08-19T13:10:05Z</time>
      </trkpt>
      <trkpt lat="45.27713" lon="3.72119">
        <ele>1101.244</ele>
        <time>2020-08-19T13:10:06Z</time>
      </trkpt>
      <trkpt lat="45.27713" lon="3.72119">
        <ele>1101.244</ele>
        <time>2020-08-19T13:10:07Z</time>
      </trkpt>
    </trkseg>
  </trk>
</gpx>